<?xml version="1.0" encoding="UTF-8"?>
<gpx creator="Garmin Connect" version="1.1"
  xsi:schemaLocation="http://www.topografix.com/GPX/1/1 http://www.topografix.com/GPX/11.xsd"
  xmlns:ns3="http://www.garmin.com/xmlschemas/TrackPointExtension/v1"
  xmlns="http://www.topografix.com/GPX/1/1"
  xmlns:xsi="http://www.w3.org/2001/XMLSchema-instance" xmlns:ns2="http://www.garmin.com/xmlschemas/GpxExtensions/v3">
  <metadata>
    <link href="connect.garmin.com">
      <text>Garmin Connect</text>
    </link>
    <time>2025-10-25T11:44:00.000Z</time>
  </metadata>
  <trk>
    <name>Saulce-sur-Rhône Marche à pied</name>
    <type>walking</type>
    <trkseg>
      <trkpt lat="44.70002216286957263946533203125" lon="4.801028072834014892578125">
        <ele>133.600006103515625</ele>
        <time>2025-10-25T11:45:37.000Z</time>
        <extensions>
          <ns3:TrackPointExtension>
            <ns3:hr>94</ns3:hr>
          </ns3:TrackPointExtension>
        </extensions>
      </trkpt>
      <trkpt lat="44.69984044320881366729736328125" lon="4.80102312751114368438720703125">
        <ele>133.600006103515625</ele>
        <time>2025-10-25T11:45:55.000Z</time>
        <extensions>
          <ns3:TrackPointExtension>
            <ns3:hr>94</ns3:hr>
          </ns3:TrackPointExtension>
        </extensions>
      </trkpt>
      <trkpt lat="44.69965067692101001739501953125" lon="4.8010084591805934906005859375">
        <ele>133.600006103515625</ele>
        <time>2025-10-25T11:46:12.000Z</time>
        <extensions>
          <ns3:TrackPointExtension>
            <ns3:hr>93</ns3:hr>
          </ns3:TrackPointExtension>
        </extensions>
      </trkpt>
      <trkpt lat="44.69946359284222126007080078125" lon="4.8010138235986232757568359375">
        <ele>133.8000030517578125</ele>
        <time>2025-10-25T11:46:29.000Z</time>
        <extensions>
          <ns3:TrackPointExtension>
            <ns3:hr>91</ns3:hr>
          </ns3:TrackPointExtension>
        </extensions>
      </trkpt>
      <trkpt lat="44.699377007782459259033203125" lon="4.80122144334018230438232421875">
        <ele>133.8000030517578125</ele>
        <time>2025-10-25T11:46:52.000Z</time>
        <extensions>
          <ns3:TrackPointExtension>
            <ns3:hr>90</ns3:hr>
          </ns3:TrackPointExtension>
        </extensions>
      </trkpt>
      <trkpt lat="44.69938748516142368316650390625" lon="4.8012666217982769012451171875">
        <ele>134</ele>
        <time>2025-10-25T11:46:55.000Z</time>
        <extensions>
          <ns3:TrackPointExtension>
            <ns3:hr>94</ns3:hr>
          </ns3:TrackPointExtension>
        </extensions>
      </trkpt>
      <trkpt lat="44.6993969567120075225830078125" lon="4.80130626820027828216552734375">
        <ele>134.1999969482421875</ele>
        <time>2025-10-25T11:46:58.000Z</time>
        <extensions>
          <ns3:TrackPointExtension>
            <ns3:hr>97</ns3:hr>
          </ns3:TrackPointExtension>
        </extensions>
      </trkpt>
      <trkpt lat="44.69939972274005413055419921875" lon="4.801322780549526214599609375">
        <ele>134.1999969482421875</ele>
        <time>2025-10-25T11:46:59.000Z</time>
        <extensions>
          <ns3:TrackPointExtension>
            <ns3:hr>97</ns3:hr>
          </ns3:TrackPointExtension>
        </extensions>
      </trkpt>
      <trkpt lat="44.69942553900182247161865234375" lon="4.8014433123171329498291015625">
        <ele>134.600006103515625</ele>
        <time>2025-10-25T11:47:07.000Z</time>
        <extensions>
          <ns3:TrackPointExtension>
            <ns3:hr>93</ns3:hr>
          </ns3:TrackPointExtension>
        </extensions>
      </trkpt>
      <trkpt lat="44.69944448210299015045166015625" lon="4.80152361094951629638671875">
        <ele>134.600006103515625</ele>
        <time>2025-10-25T11:47:11.000Z</time>
        <extensions>
          <ns3:TrackPointExtension>
            <ns3:hr>98</ns3:hr>
          </ns3:TrackPointExtension>
        </extensions>
      </trkpt>
      <trkpt lat="44.6994482539594173431396484375" lon="4.8015586473047733306884765625">
        <ele>134.600006103515625</ele>
        <time>2025-10-25T11:47:13.000Z</time>
        <extensions>
          <ns3:TrackPointExtension>
            <ns3:hr>101</ns3:hr>
          </ns3:TrackPointExtension>
        </extensions>
      </trkpt>
      <trkpt lat="44.69951237551867961883544921875" lon="4.8018013872206211090087890625">
        <ele>135</ele>
        <time>2025-10-25T11:47:28.000Z</time>
        <extensions>
          <ns3:TrackPointExtension>
            <ns3:hr>103</ns3:hr>
          </ns3:TrackPointExtension>
        </extensions>
      </trkpt>
      <trkpt lat="44.69944666139781475067138671875" lon="4.80195502750575542449951171875">
        <ele>135.600006103515625</ele>
        <time>2025-10-25T11:47:42.000Z</time>
        <extensions>
          <ns3:TrackPointExtension>
            <ns3:hr>100</ns3:hr>
          </ns3:TrackPointExtension>
        </extensions>
      </trkpt>
      <trkpt lat="44.69936921261250972747802734375" lon="4.802201204001903533935546875">
        <ele>136</ele>
        <time>2025-10-25T11:47:58.000Z</time>
        <extensions>
          <ns3:TrackPointExtension>
            <ns3:hr>99</ns3:hr>
          </ns3:TrackPointExtension>
        </extensions>
      </trkpt>
      <trkpt lat="44.69935948960483074188232421875" lon="4.802246801555156707763671875">
        <ele>136</ele>
        <time>2025-10-25T11:48:01.000Z</time>
        <extensions>
          <ns3:TrackPointExtension>
            <ns3:hr>99</ns3:hr>
          </ns3:TrackPointExtension>
        </extensions>
      </trkpt>
      <trkpt lat="44.699360243976116180419921875" lon="4.80235752649605274200439453125">
        <ele>136.1999969482421875</ele>
        <time>2025-10-25T11:48:08.000Z</time>
        <extensions>
          <ns3:TrackPointExtension>
            <ns3:hr>106</ns3:hr>
          </ns3:TrackPointExtension>
        </extensions>
      </trkpt>
      <trkpt lat="44.6993630938231945037841796875" lon="4.802370183169841766357421875">
        <ele>136.399993896484375</ele>
        <time>2025-10-25T11:48:09.000Z</time>
        <extensions>
          <ns3:TrackPointExtension>
            <ns3:hr>106</ns3:hr>
          </ns3:TrackPointExtension>
        </extensions>
      </trkpt>
      <trkpt lat="44.6993949450552463531494140625" lon="4.80250940658152103424072265625">
        <ele>136.600006103515625</ele>
        <time>2025-10-25T11:48:19.000Z</time>
        <extensions>
          <ns3:TrackPointExtension>
            <ns3:hr>103</ns3:hr>
          </ns3:TrackPointExtension>
        </extensions>
      </trkpt>
      <trkpt lat="44.69943903386592864990234375" lon="4.80264485813677310943603515625">
        <ele>137.1999969482421875</ele>
        <time>2025-10-25T11:48:28.000Z</time>
        <extensions>
          <ns3:TrackPointExtension>
            <ns3:hr>101</ns3:hr>
          </ns3:TrackPointExtension>
        </extensions>
      </trkpt>
      <trkpt lat="44.69949728809297084808349609375" lon="4.80288508348166942596435546875">
        <ele>137.8000030517578125</ele>
        <time>2025-10-25T11:48:44.000Z</time>
        <extensions>
          <ns3:TrackPointExtension>
            <ns3:hr>99</ns3:hr>
          </ns3:TrackPointExtension>
        </extensions>
      </trkpt>
      <trkpt lat="44.69953567720949649810791015625" lon="4.8030010052025318145751953125">
        <ele>138.1999969482421875</ele>
        <time>2025-10-25T11:48:52.000Z</time>
        <extensions>
          <ns3:TrackPointExtension>
            <ns3:hr>98</ns3:hr>
          </ns3:TrackPointExtension>
        </extensions>
      </trkpt>
      <trkpt lat="44.6995987929403781890869140625" lon="4.80323888361454010009765625">
        <ele>138.8000030517578125</ele>
        <time>2025-10-25T11:49:10.000Z</time>
        <extensions>
          <ns3:TrackPointExtension>
            <ns3:hr>97</ns3:hr>
          </ns3:TrackPointExtension>
        </extensions>
      </trkpt>
      <trkpt lat="44.69960776157677173614501953125" lon="4.80331406928598880767822265625">
        <ele>139.1999969482421875</ele>
        <time>2025-10-25T11:49:15.000Z</time>
        <extensions>
          <ns3:TrackPointExtension>
            <ns3:hr>97</ns3:hr>
          </ns3:TrackPointExtension>
        </extensions>
      </trkpt>
      <trkpt lat="44.6995501779019832611083984375" lon="4.80355731211602687835693359375">
        <ele>140</ele>
        <time>2025-10-25T11:49:31.000Z</time>
        <extensions>
          <ns3:TrackPointExtension>
            <ns3:hr>97</ns3:hr>
          </ns3:TrackPointExtension>
        </extensions>
      </trkpt>
      <trkpt lat="44.6993887424468994140625" lon="4.80365772731602191925048828125">
        <ele>139.600006103515625</ele>
        <time>2025-10-25T11:49:47.000Z</time>
        <extensions>
          <ns3:TrackPointExtension>
            <ns3:hr>97</ns3:hr>
          </ns3:TrackPointExtension>
        </extensions>
      </trkpt>
      <trkpt lat="44.69921012409031391143798828125" lon="4.8036950267851352691650390625">
        <ele>138.600006103515625</ele>
        <time>2025-10-25T11:50:03.000Z</time>
        <extensions>
          <ns3:TrackPointExtension>
            <ns3:hr>95</ns3:hr>
          </ns3:TrackPointExtension>
        </extensions>
      </trkpt>
      <trkpt lat="44.6991314180195331573486328125" lon="4.80370701290667057037353515625">
        <ele>138.1999969482421875</ele>
        <time>2025-10-25T11:50:11.000Z</time>
        <extensions>
          <ns3:TrackPointExtension>
            <ns3:hr>95</ns3:hr>
          </ns3:TrackPointExtension>
        </extensions>
      </trkpt>
      <trkpt lat="44.69904164783656597137451171875" lon="4.80358731932938098907470703125">
        <ele>137</ele>
        <time>2025-10-25T11:50:24.000Z</time>
        <extensions>
          <ns3:TrackPointExtension>
            <ns3:hr>96</ns3:hr>
          </ns3:TrackPointExtension>
        </extensions>
      </trkpt>
      <trkpt lat="44.69903863035142421722412109375" lon="4.803327061235904693603515625">
        <ele>136.1999969482421875</ele>
        <time>2025-10-25T11:50:39.000Z</time>
        <extensions>
          <ns3:TrackPointExtension>
            <ns3:hr>96</ns3:hr>
          </ns3:TrackPointExtension>
        </extensions>
      </trkpt>
      <trkpt lat="44.69903762452304363250732421875" lon="4.80331172235310077667236328125">
        <ele>136</ele>
        <time>2025-10-25T11:50:40.000Z</time>
        <extensions>
          <ns3:TrackPointExtension>
            <ns3:hr>96</ns3:hr>
          </ns3:TrackPointExtension>
        </extensions>
      </trkpt>
      <trkpt lat="44.699032008647918701171875" lon="4.8031837306916713714599609375">
        <ele>135.8000030517578125</ele>
        <time>2025-10-25T11:50:48.000Z</time>
        <extensions>
          <ns3:TrackPointExtension>
            <ns3:hr>92</ns3:hr>
          </ns3:TrackPointExtension>
        </extensions>
      </trkpt>
      <trkpt lat="44.69902203418314456939697265625" lon="4.8030730895698070526123046875">
        <ele>135.399993896484375</ele>
        <time>2025-10-25T11:50:55.000Z</time>
        <extensions>
          <ns3:TrackPointExtension>
            <ns3:hr>89</ns3:hr>
          </ns3:TrackPointExtension>
        </extensions>
      </trkpt>
      <trkpt lat="44.69902488403022289276123046875" lon="4.80293705128133296966552734375">
        <ele>135</ele>
        <time>2025-10-25T11:51:04.000Z</time>
        <extensions>
          <ns3:TrackPointExtension>
            <ns3:hr>89</ns3:hr>
          </ns3:TrackPointExtension>
        </extensions>
      </trkpt>
      <trkpt lat="44.69902153126895427703857421875" lon="4.8029123246669769287109375">
        <ele>135</ele>
        <time>2025-10-25T11:51:06.000Z</time>
        <extensions>
          <ns3:TrackPointExtension>
            <ns3:hr>86</ns3:hr>
          </ns3:TrackPointExtension>
        </extensions>
      </trkpt>
      <trkpt lat="44.6990023367106914520263671875" lon="4.802767150104045867919921875">
        <ele>134.8000030517578125</ele>
        <time>2025-10-25T11:51:15.000Z</time>
        <extensions>
          <ns3:TrackPointExtension>
            <ns3:hr>81</ns3:hr>
          </ns3:TrackPointExtension>
        </extensions>
      </trkpt>
      <trkpt lat="44.6989748440682888031005859375" lon="4.8025046288967132568359375">
        <ele>134.1999969482421875</ele>
        <time>2025-10-25T11:51:32.000Z</time>
        <extensions>
          <ns3:TrackPointExtension>
            <ns3:hr>83</ns3:hr>
          </ns3:TrackPointExtension>
        </extensions>
      </trkpt>
      <trkpt lat="44.6989718265831470489501953125" lon="4.802474789321422576904296875">
        <ele>134</ele>
        <time>2025-10-25T11:51:34.000Z</time>
        <extensions>
          <ns3:TrackPointExtension>
            <ns3:hr>88</ns3:hr>
          </ns3:TrackPointExtension>
        </extensions>
      </trkpt>
      <trkpt lat="44.69896839000284671783447265625" lon="4.80244536884129047393798828125">
        <ele>134</ele>
        <time>2025-10-25T11:51:36.000Z</time>
        <extensions>
          <ns3:TrackPointExtension>
            <ns3:hr>88</ns3:hr>
          </ns3:TrackPointExtension>
        </extensions>
      </trkpt>
      <trkpt lat="44.69890971668064594268798828125" lon="4.80219860561192035675048828125">
        <ele>133.399993896484375</ele>
        <time>2025-10-25T11:51:55.000Z</time>
        <extensions>
          <ns3:TrackPointExtension>
            <ns3:hr>88</ns3:hr>
          </ns3:TrackPointExtension>
        </extensions>
      </trkpt>
      <trkpt lat="44.69885271973907947540283203125" lon="4.802017472684383392333984375">
        <ele>133</ele>
        <time>2025-10-25T11:52:07.000Z</time>
        <extensions>
          <ns3:TrackPointExtension>
            <ns3:hr>86</ns3:hr>
          </ns3:TrackPointExtension>
        </extensions>
      </trkpt>
      <trkpt lat="44.69883360899984836578369140625" lon="4.8019827716052532196044921875">
        <ele>132.8000030517578125</ele>
        <time>2025-10-25T11:52:10.000Z</time>
        <extensions>
          <ns3:TrackPointExtension>
            <ns3:hr>86</ns3:hr>
          </ns3:TrackPointExtension>
        </extensions>
      </trkpt>
      <trkpt lat="44.69880393706262111663818359375" lon="4.801974557340145111083984375">
        <ele>132.600006103515625</ele>
        <time>2025-10-25T11:52:13.000Z</time>
        <extensions>
          <ns3:TrackPointExtension>
            <ns3:hr>86</ns3:hr>
          </ns3:TrackPointExtension>
        </extensions>
      </trkpt>
      <trkpt lat="44.69862590543925762176513671875" lon="4.80199593119323253631591796875">
        <ele>132.1999969482421875</ele>
        <time>2025-10-25T11:52:29.000Z</time>
        <extensions>
          <ns3:TrackPointExtension>
            <ns3:hr>87</ns3:hr>
          </ns3:TrackPointExtension>
        </extensions>
      </trkpt>
      <trkpt lat="44.69849363900721073150634765625" lon="4.802030213177204132080078125">
        <ele>132</ele>
        <time>2025-10-25T11:52:41.000Z</time>
        <extensions>
          <ns3:TrackPointExtension>
            <ns3:hr>88</ns3:hr>
          </ns3:TrackPointExtension>
        </extensions>
      </trkpt>
      <trkpt lat="44.69830638729035854339599609375" lon="4.80207103304564952850341796875">
        <ele>131.8000030517578125</ele>
        <time>2025-10-25T11:52:57.000Z</time>
        <extensions>
          <ns3:TrackPointExtension>
            <ns3:hr>88</ns3:hr>
          </ns3:TrackPointExtension>
        </extensions>
      </trkpt>
      <trkpt lat="44.69812584109604358673095703125" lon="4.80212174355983734130859375">
        <ele>131.600006103515625</ele>
        <time>2025-10-25T11:53:13.000Z</time>
        <extensions>
          <ns3:TrackPointExtension>
            <ns3:hr>87</ns3:hr>
          </ns3:TrackPointExtension>
        </extensions>
      </trkpt>
      <trkpt lat="44.69793842174112796783447265625" lon="4.802149236202239990234375">
        <ele>131</ele>
        <time>2025-10-25T11:53:30.000Z</time>
        <extensions>
          <ns3:TrackPointExtension>
            <ns3:hr>88</ns3:hr>
          </ns3:TrackPointExtension>
        </extensions>
      </trkpt>
      <trkpt lat="44.69790556468069553375244140625" lon="4.8021581210196018218994140625">
        <ele>131</ele>
        <time>2025-10-25T11:53:33.000Z</time>
        <extensions>
          <ns3:TrackPointExtension>
            <ns3:hr>88</ns3:hr>
          </ns3:TrackPointExtension>
        </extensions>
      </trkpt>
      <trkpt lat="44.69772334210574626922607421875" lon="4.8022027127444744110107421875">
        <ele>130.600006103515625</ele>
        <time>2025-10-25T11:53:50.000Z</time>
        <extensions>
          <ns3:TrackPointExtension>
            <ns3:hr>87</ns3:hr>
          </ns3:TrackPointExtension>
        </extensions>
      </trkpt>
      <trkpt lat="44.69753759913146495819091796875" lon="4.80224889703094959259033203125">
        <ele>130.399993896484375</ele>
        <time>2025-10-25T11:54:07.000Z</time>
        <extensions>
          <ns3:TrackPointExtension>
            <ns3:hr>89</ns3:hr>
          </ns3:TrackPointExtension>
        </extensions>
      </trkpt>
      <trkpt lat="44.69735990278422832489013671875" lon="4.8023061454296112060546875">
        <ele>130.1999969482421875</ele>
        <time>2025-10-25T11:54:23.000Z</time>
        <extensions>
          <ns3:TrackPointExtension>
            <ns3:hr>88</ns3:hr>
          </ns3:TrackPointExtension>
        </extensions>
      </trkpt>
      <trkpt lat="44.697327129542827606201171875" lon="4.80231729336082935333251953125">
        <ele>130.1999969482421875</ele>
        <time>2025-10-25T11:54:26.000Z</time>
        <extensions>
          <ns3:TrackPointExtension>
            <ns3:hr>91</ns3:hr>
          </ns3:TrackPointExtension>
        </extensions>
      </trkpt>
      <trkpt lat="44.69714306294918060302734375" lon="4.8023576103150844573974609375">
        <ele>130</ele>
        <time>2025-10-25T11:54:42.000Z</time>
        <extensions>
          <ns3:TrackPointExtension>
            <ns3:hr>89</ns3:hr>
          </ns3:TrackPointExtension>
        </extensions>
      </trkpt>
      <trkpt lat="44.6970952861011028289794921875" lon="4.802377223968505859375">
        <ele>130</ele>
        <time>2025-10-25T11:54:46.000Z</time>
        <extensions>
          <ns3:TrackPointExtension>
            <ns3:hr>89</ns3:hr>
          </ns3:TrackPointExtension>
        </extensions>
      </trkpt>
      <trkpt lat="44.69691398553550243377685546875" lon="4.80245341546833515167236328125">
        <ele>129.399993896484375</ele>
        <time>2025-10-25T11:55:02.000Z</time>
        <extensions>
          <ns3:TrackPointExtension>
            <ns3:hr>87</ns3:hr>
          </ns3:TrackPointExtension>
        </extensions>
      </trkpt>
      <trkpt lat="44.6967794559895992279052734375" lon="4.80248912237584590911865234375">
        <ele>128.8000030517578125</ele>
        <time>2025-10-25T11:55:14.000Z</time>
        <extensions>
          <ns3:TrackPointExtension>
            <ns3:hr>85</ns3:hr>
          </ns3:TrackPointExtension>
        </extensions>
      </trkpt>
      <trkpt lat="44.69659614376723766326904296875" lon="4.802505970001220703125">
        <ele>128.1999969482421875</ele>
        <time>2025-10-25T11:55:30.000Z</time>
        <extensions>
          <ns3:TrackPointExtension>
            <ns3:hr>87</ns3:hr>
          </ns3:TrackPointExtension>
        </extensions>
      </trkpt>
      <trkpt lat="44.6964183636009693145751953125" lon="4.80257906019687652587890625">
        <ele>128.600006103515625</ele>
        <time>2025-10-25T11:55:47.000Z</time>
        <extensions>
          <ns3:TrackPointExtension>
            <ns3:hr>87</ns3:hr>
          </ns3:TrackPointExtension>
        </extensions>
      </trkpt>
      <trkpt lat="44.696238152682781219482421875" lon="4.8026114143431186676025390625">
        <ele>128.1999969482421875</ele>
        <time>2025-10-25T11:56:05.000Z</time>
        <extensions>
          <ns3:TrackPointExtension>
            <ns3:hr>87</ns3:hr>
          </ns3:TrackPointExtension>
        </extensions>
      </trkpt>
      <trkpt lat="44.69606171362102031707763671875" lon="4.8026415891945362091064453125">
        <ele>128.1999969482421875</ele>
        <time>2025-10-25T11:56:19.000Z</time>
        <extensions>
          <ns3:TrackPointExtension>
            <ns3:hr>90</ns3:hr>
          </ns3:TrackPointExtension>
        </extensions>
      </trkpt>
      <trkpt lat="44.695975296199321746826171875" lon="4.80266530998051166534423828125">
        <ele>128</ele>
        <time>2025-10-25T11:56:27.000Z</time>
        <extensions>
          <ns3:TrackPointExtension>
            <ns3:hr>93</ns3:hr>
          </ns3:TrackPointExtension>
        </extensions>
      </trkpt>
      <trkpt lat="44.69589139334857463836669921875" lon="4.80268157087266445159912109375">
        <ele>128</ele>
        <time>2025-10-25T11:56:34.000Z</time>
        <extensions>
          <ns3:TrackPointExtension>
            <ns3:hr>90</ns3:hr>
          </ns3:TrackPointExtension>
        </extensions>
      </trkpt>
      <trkpt lat="44.69570816494524478912353515625" lon="4.80273018591105937957763671875">
        <ele>128.399993896484375</ele>
        <time>2025-10-25T11:56:50.000Z</time>
        <extensions>
          <ns3:TrackPointExtension>
            <ns3:hr>89</ns3:hr>
          </ns3:TrackPointExtension>
        </extensions>
      </trkpt>
      <trkpt lat="44.695663154125213623046875" lon="4.80273705907166004180908203125">
        <ele>128.600006103515625</ele>
        <time>2025-10-25T11:56:54.000Z</time>
        <extensions>
          <ns3:TrackPointExtension>
            <ns3:hr>93</ns3:hr>
          </ns3:TrackPointExtension>
        </extensions>
      </trkpt>
      <trkpt lat="44.69558612443506717681884765625" lon="4.80274611152708530426025390625">
        <ele>129</ele>
        <time>2025-10-25T11:57:01.000Z</time>
        <extensions>
          <ns3:TrackPointExtension>
            <ns3:hr>98</ns3:hr>
          </ns3:TrackPointExtension>
        </extensions>
      </trkpt>
      <trkpt lat="44.69552728347480297088623046875" lon="4.802753068506717681884765625">
        <ele>129</ele>
        <time>2025-10-25T11:57:06.000Z</time>
        <extensions>
          <ns3:TrackPointExtension>
            <ns3:hr>95</ns3:hr>
          </ns3:TrackPointExtension>
        </extensions>
      </trkpt>
      <trkpt lat="44.695493839681148529052734375" lon="4.8027572594583034515380859375">
        <ele>129</ele>
        <time>2025-10-25T11:57:09.000Z</time>
        <extensions>
          <ns3:TrackPointExtension>
            <ns3:hr>90</ns3:hr>
          </ns3:TrackPointExtension>
        </extensions>
      </trkpt>
      <trkpt lat="44.6953112818300724029541015625" lon="4.802789278328418731689453125">
        <ele>129.1999969482421875</ele>
        <time>2025-10-25T11:57:25.000Z</time>
        <extensions>
          <ns3:TrackPointExtension>
            <ns3:hr>90</ns3:hr>
          </ns3:TrackPointExtension>
        </extensions>
      </trkpt>
      <trkpt lat="44.69513232819736003875732421875" lon="4.80282322503626346588134765625">
        <ele>129.600006103515625</ele>
        <time>2025-10-25T11:57:41.000Z</time>
        <extensions>
          <ns3:TrackPointExtension>
            <ns3:hr>90</ns3:hr>
          </ns3:TrackPointExtension>
        </extensions>
      </trkpt>
      <trkpt lat="44.6949528716504573822021484375" lon="4.80287033133208751678466796875">
        <ele>129.399993896484375</ele>
        <time>2025-10-25T11:57:56.000Z</time>
        <extensions>
          <ns3:TrackPointExtension>
            <ns3:hr>91</ns3:hr>
          </ns3:TrackPointExtension>
        </extensions>
      </trkpt>
      <trkpt lat="44.6948383748531341552734375" lon="4.8029064573347568511962890625">
        <ele>129.399993896484375</ele>
        <time>2025-10-25T11:58:06.000Z</time>
        <extensions>
          <ns3:TrackPointExtension>
            <ns3:hr>88</ns3:hr>
          </ns3:TrackPointExtension>
        </extensions>
      </trkpt>
      <trkpt lat="44.694657661020755767822265625" lon="4.802935458719730377197265625">
        <ele>129.399993896484375</ele>
        <time>2025-10-25T11:58:23.000Z</time>
        <extensions>
          <ns3:TrackPointExtension>
            <ns3:hr>90</ns3:hr>
          </ns3:TrackPointExtension>
        </extensions>
      </trkpt>
      <trkpt lat="44.69447619281709194183349609375" lon="4.80298734270036220550537109375">
        <ele>129.399993896484375</ele>
        <time>2025-10-25T11:58:40.000Z</time>
        <extensions>
          <ns3:TrackPointExtension>
            <ns3:hr>89</ns3:hr>
          </ns3:TrackPointExtension>
        </extensions>
      </trkpt>
      <trkpt lat="44.694293551146984100341796875" lon="4.80301399715244770050048828125">
        <ele>129.399993896484375</ele>
        <time>2025-10-25T11:58:57.000Z</time>
        <extensions>
          <ns3:TrackPointExtension>
            <ns3:hr>90</ns3:hr>
          </ns3:TrackPointExtension>
        </extensions>
      </trkpt>
      <trkpt lat="44.69413320533931255340576171875" lon="4.803066551685333251953125">
        <ele>126.59999847412109375</ele>
        <time>2025-10-25T11:59:12.000Z</time>
        <extensions>
          <ns3:TrackPointExtension>
            <ns3:hr>89</ns3:hr>
          </ns3:TrackPointExtension>
        </extensions>
      </trkpt>
      <trkpt lat="44.6940905414521694183349609375" lon="4.80308021418750286102294921875">
        <ele>126.59999847412109375</ele>
        <time>2025-10-25T11:59:16.000Z</time>
        <extensions>
          <ns3:TrackPointExtension>
            <ns3:hr>85</ns3:hr>
          </ns3:TrackPointExtension>
        </extensions>
      </trkpt>
      <trkpt lat="44.693912677466869354248046875" lon="4.80312463827431201934814453125">
        <ele>127</ele>
        <time>2025-10-25T11:59:32.000Z</time>
        <extensions>
          <ns3:TrackPointExtension>
            <ns3:hr>85</ns3:hr>
          </ns3:TrackPointExtension>
        </extensions>
      </trkpt>
      <trkpt lat="44.693832881748676300048828125" lon="4.80314559303224086761474609375">
        <ele>127.1999969482421875</ele>
        <time>2025-10-25T11:59:39.000Z</time>
        <extensions>
          <ns3:TrackPointExtension>
            <ns3:hr>88</ns3:hr>
          </ns3:TrackPointExtension>
        </extensions>
      </trkpt>
      <trkpt lat="44.69374428503215312957763671875" lon="4.803164117038249969482421875">
        <ele>127.59999847412109375</ele>
        <time>2025-10-25T11:59:47.000Z</time>
        <extensions>
          <ns3:TrackPointExtension>
            <ns3:hr>90</ns3:hr>
          </ns3:TrackPointExtension>
        </extensions>
      </trkpt>
      <trkpt lat="44.69363045878708362579345703125" lon="4.803152382373809814453125">
        <ele>128.399993896484375</ele>
        <time>2025-10-25T11:59:57.000Z</time>
        <extensions>
          <ns3:TrackPointExtension>
            <ns3:hr>93</ns3:hr>
          </ns3:TrackPointExtension>
        </extensions>
      </trkpt>
      <trkpt lat="44.6936131082475185394287109375" lon="4.80312757194042205810546875">
        <ele>128.600006103515625</ele>
        <time>2025-10-25T11:59:59.000Z</time>
        <extensions>
          <ns3:TrackPointExtension>
            <ns3:hr>93</ns3:hr>
          </ns3:TrackPointExtension>
        </extensions>
      </trkpt>
      <trkpt lat="44.693549908697605133056640625" lon="4.802975356578826904296875">
        <ele>129.1999969482421875</ele>
        <time>2025-10-25T12:00:10.000Z</time>
        <extensions>
          <ns3:TrackPointExtension>
            <ns3:hr>97</ns3:hr>
          </ns3:TrackPointExtension>
        </extensions>
      </trkpt>
      <trkpt lat="44.6934672631323337554931640625" lon="4.80274678207933902740478515625">
        <ele>129</ele>
        <time>2025-10-25T12:00:26.000Z</time>
        <extensions>
          <ns3:TrackPointExtension>
            <ns3:hr>95</ns3:hr>
          </ns3:TrackPointExtension>
        </extensions>
      </trkpt>
      <trkpt lat="44.69337514601647853851318359375" lon="4.80252030305564403533935546875">
        <ele>128.600006103515625</ele>
        <time>2025-10-25T12:00:42.000Z</time>
        <extensions>
          <ns3:TrackPointExtension>
            <ns3:hr>94</ns3:hr>
          </ns3:TrackPointExtension>
        </extensions>
      </trkpt>
      <trkpt lat="44.69334614463150501251220703125" lon="4.802450649440288543701171875">
        <ele>128.1999969482421875</ele>
        <time>2025-10-25T12:00:47.000Z</time>
        <extensions>
          <ns3:TrackPointExtension>
            <ns3:hr>91</ns3:hr>
          </ns3:TrackPointExtension>
        </extensions>
      </trkpt>
      <trkpt lat="44.6933100186288356781005859375" lon="4.8023492284119129180908203125">
        <ele>128</ele>
        <time>2025-10-25T12:00:54.000Z</time>
        <extensions>
          <ns3:TrackPointExtension>
            <ns3:hr>88</ns3:hr>
          </ns3:TrackPointExtension>
        </extensions>
      </trkpt>
      <trkpt lat="44.69327171333134174346923828125" lon="4.8022526688873767852783203125">
        <ele>127.59999847412109375</ele>
        <time>2025-10-25T12:01:01.000Z</time>
        <extensions>
          <ns3:TrackPointExtension>
            <ns3:hr>88</ns3:hr>
          </ns3:TrackPointExtension>
        </extensions>
      </trkpt>
      <trkpt lat="44.69321337528526782989501953125" lon="4.8020915687084197998046875">
        <ele>127.40000152587890625</ele>
        <time>2025-10-25T12:01:13.000Z</time>
        <extensions>
          <ns3:TrackPointExtension>
            <ns3:hr>85</ns3:hr>
          </ns3:TrackPointExtension>
        </extensions>
      </trkpt>
      <trkpt lat="44.693120755255222320556640625" lon="4.8018664307892322540283203125">
        <ele>126.8000030517578125</ele>
        <time>2025-10-25T12:01:30.000Z</time>
        <extensions>
          <ns3:TrackPointExtension>
            <ns3:hr>86</ns3:hr>
          </ns3:TrackPointExtension>
        </extensions>
      </trkpt>
      <trkpt lat="44.69311027787625789642333984375" lon="4.8018446378409862518310546875">
        <ele>126.59999847412109375</ele>
        <time>2025-10-25T12:01:32.000Z</time>
        <extensions>
          <ns3:TrackPointExtension>
            <ns3:hr>85</ns3:hr>
          </ns3:TrackPointExtension>
        </extensions>
      </trkpt>
      <trkpt lat="44.6930018998682498931884765625" lon="4.8016330786049365997314453125">
        <ele>126.1999969482421875</ele>
        <time>2025-10-25T12:01:49.000Z</time>
        <extensions>
          <ns3:TrackPointExtension>
            <ns3:hr>83</ns3:hr>
          </ns3:TrackPointExtension>
        </extensions>
      </trkpt>
      <trkpt lat="44.69286116771399974822998046875" lon="4.80145563371479511260986328125">
        <ele>125.59999847412109375</ele>
        <time>2025-10-25T12:02:05.000Z</time>
        <extensions>
          <ns3:TrackPointExtension>
            <ns3:hr>84</ns3:hr>
          </ns3:TrackPointExtension>
        </extensions>
      </trkpt>
      <trkpt lat="44.6928510256111621856689453125" lon="4.80144473724067211151123046875">
        <ele>125.59999847412109375</ele>
        <time>2025-10-25T12:02:06.000Z</time>
        <extensions>
          <ns3:TrackPointExtension>
            <ns3:hr>84</ns3:hr>
          </ns3:TrackPointExtension>
        </extensions>
      </trkpt>
      <trkpt lat="44.69282194040715694427490234375" lon="4.80141095817089080810546875">
        <ele>125.59999847412109375</ele>
        <time>2025-10-25T12:02:09.000Z</time>
        <extensions>
          <ns3:TrackPointExtension>
            <ns3:hr>87</ns3:hr>
          </ns3:TrackPointExtension>
        </extensions>
      </trkpt>
      <trkpt lat="44.6926807053387165069580078125" lon="4.8012305796146392822265625">
        <ele>125</ele>
        <time>2025-10-25T12:02:25.000Z</time>
        <extensions>
          <ns3:TrackPointExtension>
            <ns3:hr>86</ns3:hr>
          </ns3:TrackPointExtension>
        </extensions>
      </trkpt>
      <trkpt lat="44.69261457212269306182861328125" lon="4.80112798511981964111328125">
        <ele>124.59999847412109375</ele>
        <time>2025-10-25T12:02:33.000Z</time>
        <extensions>
          <ns3:TrackPointExtension>
            <ns3:hr>86</ns3:hr>
          </ns3:TrackPointExtension>
        </extensions>
      </trkpt>
      <trkpt lat="44.69249873422086238861083984375" lon="4.8009306751191616058349609375">
        <ele>123.8000030517578125</ele>
        <time>2025-10-25T12:02:49.000Z</time>
        <extensions>
          <ns3:TrackPointExtension>
            <ns3:hr>85</ns3:hr>
          </ns3:TrackPointExtension>
        </extensions>
      </trkpt>
      <trkpt lat="44.69248004257678985595703125" lon="4.80088926851749420166015625">
        <ele>123.59999847412109375</ele>
        <time>2025-10-25T12:02:52.000Z</time>
        <extensions>
          <ns3:TrackPointExtension>
            <ns3:hr>85</ns3:hr>
          </ns3:TrackPointExtension>
        </extensions>
      </trkpt>
      <trkpt lat="44.69239957630634307861328125" lon="4.8006624542176723480224609375">
        <ele>122.8000030517578125</ele>
        <time>2025-10-25T12:03:07.000Z</time>
        <extensions>
          <ns3:TrackPointExtension>
            <ns3:hr>87</ns3:hr>
          </ns3:TrackPointExtension>
        </extensions>
      </trkpt>
      <trkpt lat="44.69234593212604522705078125" lon="4.80057947337627410888671875">
        <ele>122.40000152587890625</ele>
        <time>2025-10-25T12:03:14.000Z</time>
        <extensions>
          <ns3:TrackPointExtension>
            <ns3:hr>86</ns3:hr>
          </ns3:TrackPointExtension>
        </extensions>
      </trkpt>
      <trkpt lat="44.69225733540952205657958984375" lon="4.80035240761935710906982421875">
        <ele>121.8000030517578125</ele>
        <time>2025-10-25T12:03:31.000Z</time>
        <extensions>
          <ns3:TrackPointExtension>
            <ns3:hr>85</ns3:hr>
          </ns3:TrackPointExtension>
        </extensions>
      </trkpt>
      <trkpt lat="44.69224208034574985504150390625" lon="4.800287783145904541015625">
        <ele>121.40000152587890625</ele>
        <time>2025-10-25T12:03:35.000Z</time>
        <extensions>
          <ns3:TrackPointExtension>
            <ns3:hr>84</ns3:hr>
          </ns3:TrackPointExtension>
        </extensions>
      </trkpt>
      <trkpt lat="44.692179970443248748779296875" lon="4.800036661326885223388671875">
        <ele>120.40000152587890625</ele>
        <time>2025-10-25T12:03:51.000Z</time>
        <extensions>
          <ns3:TrackPointExtension>
            <ns3:hr>85</ns3:hr>
          </ns3:TrackPointExtension>
        </extensions>
      </trkpt>
      <trkpt lat="44.69217770732939243316650390625" lon="4.80001947842538356781005859375">
        <ele>120.40000152587890625</ele>
        <time>2025-10-25T12:03:52.000Z</time>
        <extensions>
          <ns3:TrackPointExtension>
            <ns3:hr>85</ns3:hr>
          </ns3:TrackPointExtension>
        </extensions>
      </trkpt>
      <trkpt lat="44.69205533154308795928955078125" lon="4.7998423688113689422607421875">
        <ele>119.8000030517578125</ele>
        <time>2025-10-25T12:04:09.000Z</time>
        <extensions>
          <ns3:TrackPointExtension>
            <ns3:hr>85</ns3:hr>
          </ns3:TrackPointExtension>
        </extensions>
      </trkpt>
      <trkpt lat="44.69197603873908519744873046875" lon="4.79979836381971836090087890625">
        <ele>119.40000152587890625</ele>
        <time>2025-10-25T12:04:19.000Z</time>
        <extensions>
          <ns3:TrackPointExtension>
            <ns3:hr>84</ns3:hr>
          </ns3:TrackPointExtension>
        </extensions>
      </trkpt>
      <trkpt lat="44.69189339317381381988525390625" lon="4.7997850365936756134033203125">
        <ele>118.59999847412109375</ele>
        <time>2025-10-25T12:04:32.000Z</time>
        <extensions>
          <ns3:TrackPointExtension>
            <ns3:hr>85</ns3:hr>
          </ns3:TrackPointExtension>
        </extensions>
      </trkpt>
      <trkpt lat="44.69175961799919605255126953125" lon="4.799824096262454986572265625">
        <ele>118.40000152587890625</ele>
        <time>2025-10-25T12:04:51.000Z</time>
        <extensions>
          <ns3:TrackPointExtension>
            <ns3:hr>83</ns3:hr>
          </ns3:TrackPointExtension>
        </extensions>
      </trkpt>
      <trkpt lat="44.69158686697483062744140625" lon="4.79992945678532123565673828125">
        <ele>117.8000030517578125</ele>
        <time>2025-10-25T12:05:10.000Z</time>
        <extensions>
          <ns3:TrackPointExtension>
            <ns3:hr>85</ns3:hr>
          </ns3:TrackPointExtension>
        </extensions>
      </trkpt>
      <trkpt lat="44.69142953865230083465576171875" lon="4.8000530898571014404296875">
        <ele>117.59999847412109375</ele>
        <time>2025-10-25T12:05:24.000Z</time>
        <extensions>
          <ns3:TrackPointExtension>
            <ns3:hr>85</ns3:hr>
          </ns3:TrackPointExtension>
        </extensions>
      </trkpt>
      <trkpt lat="44.69140850007534027099609375" lon="4.8000723682343959808349609375">
        <ele>117.40000152587890625</ele>
        <time>2025-10-25T12:05:27.000Z</time>
        <extensions>
          <ns3:TrackPointExtension>
            <ns3:hr>85</ns3:hr>
          </ns3:TrackPointExtension>
        </extensions>
      </trkpt>
      <trkpt lat="44.69123641960322856903076171875" lon="4.8001712746918201446533203125">
        <ele>116.8000030517578125</ele>
        <time>2025-10-25T12:05:48.000Z</time>
        <extensions>
          <ns3:TrackPointExtension>
            <ns3:hr>86</ns3:hr>
          </ns3:TrackPointExtension>
        </extensions>
      </trkpt>
      <trkpt lat="44.69114136882126331329345703125" lon="4.8002078197896480560302734375">
        <ele>116.59999847412109375</ele>
        <time>2025-10-25T12:05:58.000Z</time>
        <extensions>
          <ns3:TrackPointExtension>
            <ns3:hr>86</ns3:hr>
          </ns3:TrackPointExtension>
        </extensions>
      </trkpt>
      <trkpt lat="44.6909982897341251373291015625" lon="4.8002752102911472320556640625">
        <ele>116.8000030517578125</ele>
        <time>2025-10-25T12:06:11.000Z</time>
        <extensions>
          <ns3:TrackPointExtension>
            <ns3:hr>89</ns3:hr>
          </ns3:TrackPointExtension>
        </extensions>
      </trkpt>
      <trkpt lat="44.69081363640725612640380859375" lon="4.8003483004868030548095703125">
        <ele>117</ele>
        <time>2025-10-25T12:06:28.000Z</time>
        <extensions>
          <ns3:TrackPointExtension>
            <ns3:hr>89</ns3:hr>
          </ns3:TrackPointExtension>
        </extensions>
      </trkpt>
      <trkpt lat="44.6906345151364803314208984375" lon="4.80043857358396053314208984375">
        <ele>117</ele>
        <time>2025-10-25T12:06:44.000Z</time>
        <extensions>
          <ns3:TrackPointExtension>
            <ns3:hr>89</ns3:hr>
          </ns3:TrackPointExtension>
        </extensions>
      </trkpt>
      <trkpt lat="44.6905567310750484466552734375" lon="4.8004612885415554046630859375">
        <ele>117</ele>
        <time>2025-10-25T12:06:51.000Z</time>
        <extensions>
          <ns3:TrackPointExtension>
            <ns3:hr>86</ns3:hr>
          </ns3:TrackPointExtension>
        </extensions>
      </trkpt>
      <trkpt lat="44.6905265562236309051513671875" lon="4.800475537776947021484375">
        <ele>117</ele>
        <time>2025-10-25T12:06:54.000Z</time>
        <extensions>
          <ns3:TrackPointExtension>
            <ns3:hr>89</ns3:hr>
          </ns3:TrackPointExtension>
        </extensions>
      </trkpt>
      <trkpt lat="44.6903609298169612884521484375" lon="4.8005843348801136016845703125">
        <ele>117</ele>
        <time>2025-10-25T12:07:09.000Z</time>
        <extensions>
          <ns3:TrackPointExtension>
            <ns3:hr>88</ns3:hr>
          </ns3:TrackPointExtension>
        </extensions>
      </trkpt>
      <trkpt lat="44.69029295258224010467529296875" lon="4.80066354386508464813232421875">
        <ele>117</ele>
        <time>2025-10-25T12:07:17.000Z</time>
        <extensions>
          <ns3:TrackPointExtension>
            <ns3:hr>91</ns3:hr>
          </ns3:TrackPointExtension>
        </extensions>
      </trkpt>
      <trkpt lat="44.69017124734818935394287109375" lon="4.800849370658397674560546875">
        <ele>117.1999969482421875</ele>
        <time>2025-10-25T12:07:32.000Z</time>
        <extensions>
          <ns3:TrackPointExtension>
            <ns3:hr>92</ns3:hr>
          </ns3:TrackPointExtension>
        </extensions>
      </trkpt>
      <trkpt lat="44.690028838813304901123046875" lon="4.8010064475238323211669921875">
        <ele>117.40000152587890625</ele>
        <time>2025-10-25T12:07:49.000Z</time>
        <extensions>
          <ns3:TrackPointExtension>
            <ns3:hr>90</ns3:hr>
          </ns3:TrackPointExtension>
        </extensions>
      </trkpt>
      <trkpt lat="44.689880311489105224609375" lon="4.80115002952516078948974609375">
        <ele>117.59999847412109375</ele>
        <time>2025-10-25T12:08:05.000Z</time>
        <extensions>
          <ns3:TrackPointExtension>
            <ns3:hr>92</ns3:hr>
          </ns3:TrackPointExtension>
        </extensions>
      </trkpt>
      <trkpt lat="44.68978433869779109954833984375" lon="4.801234938204288482666015625">
        <ele>118</ele>
        <time>2025-10-25T12:08:17.000Z</time>
        <extensions>
          <ns3:TrackPointExtension>
            <ns3:hr>95</ns3:hr>
          </ns3:TrackPointExtension>
        </extensions>
      </trkpt>
      <trkpt lat="44.6896524913609027862548828125" lon="4.8013566434383392333984375">
        <ele>118.40000152587890625</ele>
        <time>2025-10-25T12:08:34.000Z</time>
        <extensions>
          <ns3:TrackPointExtension>
            <ns3:hr>92</ns3:hr>
          </ns3:TrackPointExtension>
        </extensions>
      </trkpt>
      <trkpt lat="44.68963698484003543853759765625" lon="4.8013708926737308502197265625">
        <ele>118.40000152587890625</ele>
        <time>2025-10-25T12:08:36.000Z</time>
        <extensions>
          <ns3:TrackPointExtension>
            <ns3:hr>90</ns3:hr>
          </ns3:TrackPointExtension>
        </extensions>
      </trkpt>
      <trkpt lat="44.6896290220320224761962890625" lon="4.80139545165002346038818359375">
        <ele>118.40000152587890625</ele>
        <time>2025-10-25T12:08:42.000Z</time>
        <extensions>
          <ns3:TrackPointExtension>
            <ns3:hr>89</ns3:hr>
          </ns3:TrackPointExtension>
        </extensions>
      </trkpt>
      <trkpt lat="44.689599014818668365478515625" lon="4.80141573585569858551025390625">
        <ele>118.40000152587890625</ele>
        <time>2025-10-25T12:08:46.000Z</time>
        <extensions>
          <ns3:TrackPointExtension>
            <ns3:hr>88</ns3:hr>
          </ns3:TrackPointExtension>
        </extensions>
      </trkpt>
      <trkpt lat="44.6894650720059871673583984375" lon="4.80158907361328601837158203125">
        <ele>118.40000152587890625</ele>
        <time>2025-10-25T12:09:06.000Z</time>
        <extensions>
          <ns3:TrackPointExtension>
            <ns3:hr>88</ns3:hr>
          </ns3:TrackPointExtension>
        </extensions>
      </trkpt>
      <trkpt lat="44.68931562267243862152099609375" lon="4.80173910968005657196044921875">
        <ele>118.8000030517578125</ele>
        <time>2025-10-25T12:09:24.000Z</time>
        <extensions>
          <ns3:TrackPointExtension>
            <ns3:hr>90</ns3:hr>
          </ns3:TrackPointExtension>
        </extensions>
      </trkpt>
      <trkpt lat="44.6891599707305431365966796875" lon="4.80186852626502513885498046875">
        <ele>118.8000030517578125</ele>
        <time>2025-10-25T12:09:40.000Z</time>
        <extensions>
          <ns3:TrackPointExtension>
            <ns3:hr>88</ns3:hr>
          </ns3:TrackPointExtension>
        </extensions>
      </trkpt>
      <trkpt lat="44.68899962492287158966064453125" lon="4.80199609883129596710205078125">
        <ele>118.8000030517578125</ele>
        <time>2025-10-25T12:09:53.000Z</time>
        <extensions>
          <ns3:TrackPointExtension>
            <ns3:hr>87</ns3:hr>
          </ns3:TrackPointExtension>
        </extensions>
      </trkpt>
      <trkpt lat="44.6888444758951663970947265625" lon="4.80213607661426067352294921875">
        <ele>118.8000030517578125</ele>
        <time>2025-10-25T12:10:05.000Z</time>
        <extensions>
          <ns3:TrackPointExtension>
            <ns3:hr>89</ns3:hr>
          </ns3:TrackPointExtension>
        </extensions>
      </trkpt>
      <trkpt lat="44.6886822022497653961181640625" lon="4.8022459633648395538330078125">
        <ele>119</ele>
        <time>2025-10-25T12:10:18.000Z</time>
        <extensions>
          <ns3:TrackPointExtension>
            <ns3:hr>90</ns3:hr>
          </ns3:TrackPointExtension>
        </extensions>
      </trkpt>
      <trkpt lat="44.6885021589696407318115234375" lon="4.80233606882393360137939453125">
        <ele>118.59999847412109375</ele>
        <time>2025-10-25T12:10:32.000Z</time>
        <extensions>
          <ns3:TrackPointExtension>
            <ns3:hr>90</ns3:hr>
          </ns3:TrackPointExtension>
        </extensions>
      </trkpt>
      <trkpt lat="44.68833007849752902984619140625" lon="4.80241904966533184051513671875">
        <ele>119</ele>
        <time>2025-10-25T12:10:44.000Z</time>
        <extensions>
          <ns3:TrackPointExtension>
            <ns3:hr>91</ns3:hr>
          </ns3:TrackPointExtension>
        </extensions>
      </trkpt>
      <trkpt lat="44.688290767371654510498046875" lon="4.8024347238242626190185546875">
        <ele>119</ele>
        <time>2025-10-25T12:10:47.000Z</time>
        <extensions>
          <ns3:TrackPointExtension>
            <ns3:hr>94</ns3:hr>
          </ns3:TrackPointExtension>
        </extensions>
      </trkpt>
      <trkpt lat="44.688109047710895538330078125" lon="4.80252130888402462005615234375">
        <ele>119.1999969482421875</ele>
        <time>2025-10-25T12:11:01.000Z</time>
        <extensions>
          <ns3:TrackPointExtension>
            <ns3:hr>93</ns3:hr>
          </ns3:TrackPointExtension>
        </extensions>
      </trkpt>
      <trkpt lat="44.6880062855780124664306640625" lon="4.8025839217007160186767578125">
        <ele>119.1999969482421875</ele>
        <time>2025-10-25T12:11:10.000Z</time>
        <extensions>
          <ns3:TrackPointExtension>
            <ns3:hr>96</ns3:hr>
          </ns3:TrackPointExtension>
        </extensions>
      </trkpt>
      <trkpt lat="44.68784107826650142669677734375" lon="4.80269615538418292999267578125">
        <ele>119.1999969482421875</ele>
        <time>2025-10-25T12:11:24.000Z</time>
        <extensions>
          <ns3:TrackPointExtension>
            <ns3:hr>95</ns3:hr>
          </ns3:TrackPointExtension>
        </extensions>
      </trkpt>
      <trkpt lat="44.68767997808754444122314453125" lon="4.80281735770404338836669921875">
        <ele>119.1999969482421875</ele>
        <time>2025-10-25T12:11:39.000Z</time>
        <extensions>
          <ns3:TrackPointExtension>
            <ns3:hr>93</ns3:hr>
          </ns3:TrackPointExtension>
        </extensions>
      </trkpt>
      <trkpt lat="44.6875821612775325775146484375" lon="4.8029326088726520538330078125">
        <ele>119.40000152587890625</ele>
        <time>2025-10-25T12:11:50.000Z</time>
        <extensions>
          <ns3:TrackPointExtension>
            <ns3:hr>93</ns3:hr>
          </ns3:TrackPointExtension>
        </extensions>
      </trkpt>
      <trkpt lat="44.68745014630258083343505859375" lon="4.803083650767803192138671875">
        <ele>119.40000152587890625</ele>
        <time>2025-10-25T12:12:05.000Z</time>
        <extensions>
          <ns3:TrackPointExtension>
            <ns3:hr>90</ns3:hr>
          </ns3:TrackPointExtension>
        </extensions>
      </trkpt>
      <trkpt lat="44.687325172126293182373046875" lon="4.803270734846591949462890625">
        <ele>119.59999847412109375</ele>
        <time>2025-10-25T12:12:21.000Z</time>
        <extensions>
          <ns3:TrackPointExtension>
            <ns3:hr>91</ns3:hr>
          </ns3:TrackPointExtension>
        </extensions>
      </trkpt>
      <trkpt lat="44.68719064258038997650146484375" lon="4.80344139039516448974609375">
        <ele>119.8000030517578125</ele>
        <time>2025-10-25T12:12:38.000Z</time>
        <extensions>
          <ns3:TrackPointExtension>
            <ns3:hr>91</ns3:hr>
          </ns3:TrackPointExtension>
        </extensions>
      </trkpt>
      <trkpt lat="44.6871650777757167816162109375" lon="4.8034660331904888153076171875">
        <ele>119.8000030517578125</ele>
        <time>2025-10-25T12:12:41.000Z</time>
        <extensions>
          <ns3:TrackPointExtension>
            <ns3:hr>87</ns3:hr>
          </ns3:TrackPointExtension>
        </extensions>
      </trkpt>
      <trkpt lat="44.68707798980176448822021484375" lon="4.803553707897663116455078125">
        <ele>120.1999969482421875</ele>
        <time>2025-10-25T12:12:50.000Z</time>
        <extensions>
          <ns3:TrackPointExtension>
            <ns3:hr>93</ns3:hr>
          </ns3:TrackPointExtension>
        </extensions>
      </trkpt>
      <trkpt lat="44.68706977553665637969970703125" lon="4.80356200598180294036865234375">
        <ele>120.1999969482421875</ele>
        <time>2025-10-25T12:12:51.000Z</time>
        <extensions>
          <ns3:TrackPointExtension>
            <ns3:hr>96</ns3:hr>
          </ns3:TrackPointExtension>
        </extensions>
      </trkpt>
      <trkpt lat="44.6870289556682109832763671875" lon="4.8035909235477447509765625">
        <ele>120.1999969482421875</ele>
        <time>2025-10-25T12:12:55.000Z</time>
        <extensions>
          <ns3:TrackPointExtension>
            <ns3:hr>93</ns3:hr>
          </ns3:TrackPointExtension>
        </extensions>
      </trkpt>
      <trkpt lat="44.68699618242681026458740234375" lon="4.80363241396844387054443359375">
        <ele>120.40000152587890625</ele>
        <time>2025-10-25T12:12:59.000Z</time>
        <extensions>
          <ns3:TrackPointExtension>
            <ns3:hr>96</ns3:hr>
          </ns3:TrackPointExtension>
        </extensions>
      </trkpt>
      <trkpt lat="44.68694706447422504425048828125" lon="4.80366242118179798126220703125">
        <ele>120.40000152587890625</ele>
        <time>2025-10-25T12:13:04.000Z</time>
        <extensions>
          <ns3:TrackPointExtension>
            <ns3:hr>97</ns3:hr>
          </ns3:TrackPointExtension>
        </extensions>
      </trkpt>
      <trkpt lat="44.68678713776171207427978515625" lon="4.80378345586359500885009765625">
        <ele>121</ele>
        <time>2025-10-25T12:13:18.000Z</time>
        <extensions>
          <ns3:TrackPointExtension>
            <ns3:hr>96</ns3:hr>
          </ns3:TrackPointExtension>
        </extensions>
      </trkpt>
      <trkpt lat="44.686715304851531982421875" lon="4.80383693240582942962646484375">
        <ele>120.8000030517578125</ele>
        <time>2025-10-25T12:13:25.000Z</time>
        <extensions>
          <ns3:TrackPointExtension>
            <ns3:hr>93</ns3:hr>
          </ns3:TrackPointExtension>
        </extensions>
      </trkpt>
      <trkpt lat="44.68655412085354328155517578125" lon="4.8039691150188446044921875">
        <ele>120.8000030517578125</ele>
        <time>2025-10-25T12:13:39.000Z</time>
        <extensions>
          <ns3:TrackPointExtension>
            <ns3:hr>91</ns3:hr>
          </ns3:TrackPointExtension>
        </extensions>
      </trkpt>
      <trkpt lat="44.68653333373367786407470703125" lon="4.80398965068161487579345703125">
        <ele>120.8000030517578125</ele>
        <time>2025-10-25T12:13:41.000Z</time>
        <extensions>
          <ns3:TrackPointExtension>
            <ns3:hr>94</ns3:hr>
          </ns3:TrackPointExtension>
        </extensions>
      </trkpt>
      <trkpt lat="44.6863879077136516571044921875" lon="4.80410699732601642608642578125">
        <ele>121</ele>
        <time>2025-10-25T12:13:55.000Z</time>
        <extensions>
          <ns3:TrackPointExtension>
            <ns3:hr>101</ns3:hr>
          </ns3:TrackPointExtension>
        </extensions>
      </trkpt>
      <trkpt lat="44.68634541146457195281982421875" lon="4.80413331650197505950927734375">
        <ele>120.8000030517578125</ele>
        <time>2025-10-25T12:13:59.000Z</time>
        <extensions>
          <ns3:TrackPointExtension>
            <ns3:hr>104</ns3:hr>
          </ns3:TrackPointExtension>
        </extensions>
      </trkpt>
      <trkpt lat="44.68628103844821453094482421875" lon="4.80416181497275829315185546875">
        <ele>120.8000030517578125</ele>
        <time>2025-10-25T12:14:05.000Z</time>
        <extensions>
          <ns3:TrackPointExtension>
            <ns3:hr>107</ns3:hr>
          </ns3:TrackPointExtension>
        </extensions>
      </trkpt>
      <trkpt lat="44.6862330101430416107177734375" lon="4.804175309836864471435546875">
        <ele>120.8000030517578125</ele>
        <time>2025-10-25T12:14:09.000Z</time>
        <extensions>
          <ns3:TrackPointExtension>
            <ns3:hr>104</ns3:hr>
          </ns3:TrackPointExtension>
        </extensions>
      </trkpt>
      <trkpt lat="44.6862097084522247314453125" lon="4.80418394319713115692138671875">
        <ele>120.59999847412109375</ele>
        <time>2025-10-25T12:14:11.000Z</time>
        <extensions>
          <ns3:TrackPointExtension>
            <ns3:hr>97</ns3:hr>
          </ns3:TrackPointExtension>
        </extensions>
      </trkpt>
      <trkpt lat="44.68603125773370265960693359375" lon="4.80423943139612674713134765625">
        <ele>120.40000152587890625</ele>
        <time>2025-10-25T12:14:24.000Z</time>
        <extensions>
          <ns3:TrackPointExtension>
            <ns3:hr>95</ns3:hr>
          </ns3:TrackPointExtension>
        </extensions>
      </trkpt>
      <trkpt lat="44.68588390387594699859619140625" lon="4.80432308278977870941162109375">
        <ele>120.1999969482421875</ele>
        <time>2025-10-25T12:14:39.000Z</time>
        <extensions>
          <ns3:TrackPointExtension>
            <ns3:hr>92</ns3:hr>
          </ns3:TrackPointExtension>
        </extensions>
      </trkpt>
      <trkpt lat="44.68583512119948863983154296875" lon="4.80434219352900981903076171875">
        <ele>120.40000152587890625</ele>
        <time>2025-10-25T12:14:44.000Z</time>
        <extensions>
          <ns3:TrackPointExtension>
            <ns3:hr>92</ns3:hr>
          </ns3:TrackPointExtension>
        </extensions>
      </trkpt>
      <trkpt lat="44.68565004877746105194091796875" lon="4.8043947480618953704833984375">
        <ele>120.59999847412109375</ele>
        <time>2025-10-25T12:15:00.000Z</time>
        <extensions>
          <ns3:TrackPointExtension>
            <ns3:hr>91</ns3:hr>
          </ns3:TrackPointExtension>
        </extensions>
      </trkpt>
      <trkpt lat="44.6854766272008419036865234375" lon="4.804506562650203704833984375">
        <ele>120.59999847412109375</ele>
        <time>2025-10-25T12:15:17.000Z</time>
        <extensions>
          <ns3:TrackPointExtension>
            <ns3:hr>92</ns3:hr>
          </ns3:TrackPointExtension>
        </extensions>
      </trkpt>
      <trkpt lat="44.68531183898448944091796875" lon="4.8046096600592136383056640625">
        <ele>120.8000030517578125</ele>
        <time>2025-10-25T12:15:32.000Z</time>
        <extensions>
          <ns3:TrackPointExtension>
            <ns3:hr>92</ns3:hr>
          </ns3:TrackPointExtension>
        </extensions>
      </trkpt>
      <trkpt lat="44.6851296164095401763916015625" lon="4.8046612925827503204345703125">
        <ele>120.8000030517578125</ele>
        <time>2025-10-25T12:15:47.000Z</time>
        <extensions>
          <ns3:TrackPointExtension>
            <ns3:hr>92</ns3:hr>
          </ns3:TrackPointExtension>
        </extensions>
      </trkpt>
      <trkpt lat="44.684950746595859527587890625" lon="4.80473496951162815093994140625">
        <ele>120.8000030517578125</ele>
        <time>2025-10-25T12:16:04.000Z</time>
        <extensions>
          <ns3:TrackPointExtension>
            <ns3:hr>91</ns3:hr>
          </ns3:TrackPointExtension>
        </extensions>
      </trkpt>
      <trkpt lat="44.68486550264060497283935546875" lon="4.80477419681847095489501953125">
        <ele>120.8000030517578125</ele>
        <time>2025-10-25T12:16:16.000Z</time>
        <extensions>
          <ns3:TrackPointExtension>
            <ns3:hr>92</ns3:hr>
          </ns3:TrackPointExtension>
        </extensions>
      </trkpt>
      <trkpt lat="44.68481923453509807586669921875" lon="4.8047903738915920257568359375">
        <ele>121.1999969482421875</ele>
        <time>2025-10-25T12:16:20.000Z</time>
        <extensions>
          <ns3:TrackPointExtension>
            <ns3:hr>92</ns3:hr>
          </ns3:TrackPointExtension>
        </extensions>
      </trkpt>
      <trkpt lat="44.68466869555413722991943359375" lon="4.804951809346675872802734375">
        <ele>121</ele>
        <time>2025-10-25T12:16:38.000Z</time>
        <extensions>
          <ns3:TrackPointExtension>
            <ns3:hr>91</ns3:hr>
          </ns3:TrackPointExtension>
        </extensions>
      </trkpt>
      <trkpt lat="44.68449485488235950469970703125" lon="4.8050703294575214385986328125">
        <ele>121.40000152587890625</ele>
        <time>2025-10-25T12:16:55.000Z</time>
        <extensions>
          <ns3:TrackPointExtension>
            <ns3:hr>92</ns3:hr>
          </ns3:TrackPointExtension>
        </extensions>
      </trkpt>
      <trkpt lat="44.68448563478887081146240234375" lon="4.805078208446502685546875">
        <ele>121.40000152587890625</ele>
        <time>2025-10-25T12:16:56.000Z</time>
        <extensions>
          <ns3:TrackPointExtension>
            <ns3:hr>92</ns3:hr>
          </ns3:TrackPointExtension>
        </extensions>
      </trkpt>
      <trkpt lat="44.68433392234146595001220703125" lon="4.80521474964916706085205078125">
        <ele>122</ele>
        <time>2025-10-25T12:17:13.000Z</time>
        <extensions>
          <ns3:TrackPointExtension>
            <ns3:hr>92</ns3:hr>
          </ns3:TrackPointExtension>
        </extensions>
      </trkpt>
      <trkpt lat="44.68419562093913555145263671875" lon="4.8053600080311298370361328125">
        <ele>122.40000152587890625</ele>
        <time>2025-10-25T12:17:28.000Z</time>
        <extensions>
          <ns3:TrackPointExtension>
            <ns3:hr>90</ns3:hr>
          </ns3:TrackPointExtension>
        </extensions>
      </trkpt>
      <trkpt lat="44.6840344369411468505859375" lon="4.80547450482845306396484375">
        <ele>122.8000030517578125</ele>
        <time>2025-10-25T12:17:55.000Z</time>
        <extensions>
          <ns3:TrackPointExtension>
            <ns3:hr>91</ns3:hr>
          </ns3:TrackPointExtension>
        </extensions>
      </trkpt>
      <trkpt lat="44.68389420770108699798583984375" lon="4.805621691048145294189453125">
        <ele>123.40000152587890625</ele>
        <time>2025-10-25T12:18:19.000Z</time>
        <extensions>
          <ns3:TrackPointExtension>
            <ns3:hr>89</ns3:hr>
          </ns3:TrackPointExtension>
        </extensions>
      </trkpt>
      <trkpt lat="44.683893620967864990234375" lon="4.80561976321041584014892578125">
        <ele>123.40000152587890625</ele>
        <time>2025-10-25T12:18:20.000Z</time>
        <extensions>
          <ns3:TrackPointExtension>
            <ns3:hr>89</ns3:hr>
          </ns3:TrackPointExtension>
        </extensions>
      </trkpt>
      <trkpt lat="44.68389353714883327484130859375" lon="4.8056171648204326629638671875">
        <ele>123.40000152587890625</ele>
        <time>2025-10-25T12:18:21.000Z</time>
        <extensions>
          <ns3:TrackPointExtension>
            <ns3:hr>89</ns3:hr>
          </ns3:TrackPointExtension>
        </extensions>
      </trkpt>
      <trkpt lat="44.68391365371644496917724609375" lon="4.80564616620540618896484375">
        <ele>123.59999847412109375</ele>
        <time>2025-10-25T12:19:57.000Z</time>
        <extensions>
          <ns3:TrackPointExtension>
            <ns3:hr>79</ns3:hr>
          </ns3:TrackPointExtension>
        </extensions>
      </trkpt>
      <trkpt lat="44.6839132346212863922119140625" lon="4.805647842586040496826171875">
        <ele>123.59999847412109375</ele>
        <time>2025-10-25T12:19:58.000Z</time>
        <extensions>
          <ns3:TrackPointExtension>
            <ns3:hr>79</ns3:hr>
          </ns3:TrackPointExtension>
        </extensions>
      </trkpt>
      <trkpt lat="44.68393452465534210205078125" lon="4.8056771792471408843994140625">
        <ele>123.59999847412109375</ele>
        <time>2025-10-25T12:20:02.000Z</time>
        <extensions>
          <ns3:TrackPointExtension>
            <ns3:hr>78</ns3:hr>
          </ns3:TrackPointExtension>
        </extensions>
      </trkpt>
      <trkpt lat="44.6839514560997486114501953125" lon="4.8056966252624988555908203125">
        <ele>123.59999847412109375</ele>
        <time>2025-10-25T12:20:04.000Z</time>
        <extensions>
          <ns3:TrackPointExtension>
            <ns3:hr>78</ns3:hr>
          </ns3:TrackPointExtension>
        </extensions>
      </trkpt>
      <trkpt lat="44.68397517688572406768798828125" lon="4.80573426000773906707763671875">
        <ele>123.59999847412109375</ele>
        <time>2025-10-25T12:20:07.000Z</time>
        <extensions>
          <ns3:TrackPointExtension>
            <ns3:hr>74</ns3:hr>
          </ns3:TrackPointExtension>
        </extensions>
      </trkpt>
      <trkpt lat="44.68399294652044773101806640625" lon="4.80576477013528347015380859375">
        <ele>123.40000152587890625</ele>
        <time>2025-10-25T12:20:11.000Z</time>
        <extensions>
          <ns3:TrackPointExtension>
            <ns3:hr>80</ns3:hr>
          </ns3:TrackPointExtension>
        </extensions>
      </trkpt>
      <trkpt lat="44.68400166369974613189697265625" lon="4.80577767826616764068603515625">
        <ele>123.1999969482421875</ele>
        <time>2025-10-25T12:20:13.000Z</time>
        <extensions>
          <ns3:TrackPointExtension>
            <ns3:hr>84</ns3:hr>
          </ns3:TrackPointExtension>
        </extensions>
      </trkpt>
      <trkpt lat="44.68401373364031314849853515625" lon="4.805800728499889373779296875">
        <ele>123.1999969482421875</ele>
        <time>2025-10-25T12:20:16.000Z</time>
        <extensions>
          <ns3:TrackPointExtension>
            <ns3:hr>87</ns3:hr>
          </ns3:TrackPointExtension>
        </extensions>
      </trkpt>
      <trkpt lat="44.6840973012149333953857421875" lon="4.805974401533603668212890625">
        <ele>123.59999847412109375</ele>
        <time>2025-10-25T12:20:30.000Z</time>
        <extensions>
          <ns3:TrackPointExtension>
            <ns3:hr>92</ns3:hr>
          </ns3:TrackPointExtension>
        </extensions>
      </trkpt>
      <trkpt lat="44.68410274945199489593505859375" lon="4.80598420836031436920166015625">
        <ele>123.59999847412109375</ele>
        <time>2025-10-25T12:20:31.000Z</time>
        <extensions>
          <ns3:TrackPointExtension>
            <ns3:hr>92</ns3:hr>
          </ns3:TrackPointExtension>
        </extensions>
      </trkpt>
      <trkpt lat="44.68412504531443119049072265625" lon="4.80602838099002838134765625">
        <ele>123.59999847412109375</ele>
        <time>2025-10-25T12:20:35.000Z</time>
        <extensions>
          <ns3:TrackPointExtension>
            <ns3:hr>89</ns3:hr>
          </ns3:TrackPointExtension>
        </extensions>
      </trkpt>
      <trkpt lat="44.68416963703930377960205078125" lon="4.80611681006848812103271484375">
        <ele>123.8000030517578125</ele>
        <time>2025-10-25T12:20:41.000Z</time>
        <extensions>
          <ns3:TrackPointExtension>
            <ns3:hr>95</ns3:hr>
          </ns3:TrackPointExtension>
        </extensions>
      </trkpt>
      <trkpt lat="44.68419201672077178955078125" lon="4.80617045424878597259521484375">
        <ele>123.8000030517578125</ele>
        <time>2025-10-25T12:20:44.000Z</time>
        <extensions>
          <ns3:TrackPointExtension>
            <ns3:hr>98</ns3:hr>
          </ns3:TrackPointExtension>
        </extensions>
      </trkpt>
      <trkpt lat="44.6842273883521556854248046875" lon="4.806263409554958343505859375">
        <ele>124.1999969482421875</ele>
        <time>2025-10-25T12:20:49.000Z</time>
        <extensions>
          <ns3:TrackPointExtension>
            <ns3:hr>95</ns3:hr>
          </ns3:TrackPointExtension>
        </extensions>
      </trkpt>
      <trkpt lat="44.684243984520435333251953125" lon="4.80633373372256755828857421875">
        <ele>124.40000152587890625</ele>
        <time>2025-10-25T12:20:53.000Z</time>
        <extensions>
          <ns3:TrackPointExtension>
            <ns3:hr>92</ns3:hr>
          </ns3:TrackPointExtension>
        </extensions>
      </trkpt>
      <trkpt lat="44.684270136058330535888671875" lon="4.80643398128449916839599609375">
        <ele>124.59999847412109375</ele>
        <time>2025-10-25T12:20:58.000Z</time>
        <extensions>
          <ns3:TrackPointExtension>
            <ns3:hr>96</ns3:hr>
          </ns3:TrackPointExtension>
        </extensions>
      </trkpt>
      <trkpt lat="44.68433274887502193450927734375" lon="4.80668778531253337860107421875">
        <ele>125.1999969482421875</ele>
        <time>2025-10-25T12:21:11.000Z</time>
        <extensions>
          <ns3:TrackPointExtension>
            <ns3:hr>96</ns3:hr>
          </ns3:TrackPointExtension>
        </extensions>
      </trkpt>
      <trkpt lat="44.684370718896389007568359375" lon="4.8068865202367305755615234375">
        <ele>125.59999847412109375</ele>
        <time>2025-10-25T12:21:21.000Z</time>
        <extensions>
          <ns3:TrackPointExtension>
            <ns3:hr>97</ns3:hr>
          </ns3:TrackPointExtension>
        </extensions>
      </trkpt>
      <trkpt lat="44.68439712189137935638427734375" lon="4.807038567960262298583984375">
        <ele>125.8000030517578125</ele>
        <time>2025-10-25T12:21:29.000Z</time>
        <extensions>
          <ns3:TrackPointExtension>
            <ns3:hr>100</ns3:hr>
          </ns3:TrackPointExtension>
        </extensions>
      </trkpt>
      <trkpt lat="44.6844369359314441680908203125" lon="4.80725624598562717437744140625">
        <ele>126.59999847412109375</ele>
        <time>2025-10-25T12:21:42.000Z</time>
        <extensions>
          <ns3:TrackPointExtension>
            <ns3:hr>100</ns3:hr>
          </ns3:TrackPointExtension>
        </extensions>
      </trkpt>
      <trkpt lat="44.68447574414312839508056640625" lon="4.80751340277493000030517578125">
        <ele>127.1999969482421875</ele>
        <time>2025-10-25T12:21:57.000Z</time>
        <extensions>
          <ns3:TrackPointExtension>
            <ns3:hr>101</ns3:hr>
          </ns3:TrackPointExtension>
        </extensions>
      </trkpt>
      <trkpt lat="44.684514887630939483642578125" lon="4.8076839745044708251953125">
        <ele>127.40000152587890625</ele>
        <time>2025-10-25T12:22:07.000Z</time>
        <extensions>
          <ns3:TrackPointExtension>
            <ns3:hr>98</ns3:hr>
          </ns3:TrackPointExtension>
        </extensions>
      </trkpt>
      <trkpt lat="44.6845442242920398712158203125" lon="4.8078261315822601318359375">
        <ele>127.59999847412109375</ele>
        <time>2025-10-25T12:22:16.000Z</time>
        <extensions>
          <ns3:TrackPointExtension>
            <ns3:hr>99</ns3:hr>
          </ns3:TrackPointExtension>
        </extensions>
      </trkpt>
      <trkpt lat="44.68459225259721279144287109375" lon="4.80808789841830730438232421875">
        <ele>128</ele>
        <time>2025-10-25T12:22:29.000Z</time>
        <extensions>
          <ns3:TrackPointExtension>
            <ns3:hr>99</ns3:hr>
          </ns3:TrackPointExtension>
        </extensions>
      </trkpt>
      <trkpt lat="44.68460801057517528533935546875" lon="4.808162413537502288818359375">
        <ele>128.1999969482421875</ele>
        <time>2025-10-25T12:22:33.000Z</time>
        <extensions>
          <ns3:TrackPointExtension>
            <ns3:hr>102</ns3:hr>
          </ns3:TrackPointExtension>
        </extensions>
      </trkpt>
      <trkpt lat="44.6846163086593151092529296875" lon="4.80819770134985446929931640625">
        <ele>128.399993896484375</ele>
        <time>2025-10-25T12:22:35.000Z</time>
        <extensions>
          <ns3:TrackPointExtension>
            <ns3:hr>105</ns3:hr>
          </ns3:TrackPointExtension>
        </extensions>
      </trkpt>
      <trkpt lat="44.684624187648296356201171875" lon="4.80823357589542865753173828125">
        <ele>128.399993896484375</ele>
        <time>2025-10-25T12:22:37.000Z</time>
        <extensions>
          <ns3:TrackPointExtension>
            <ns3:hr>108</ns3:hr>
          </ns3:TrackPointExtension>
        </extensions>
      </trkpt>
      <trkpt lat="44.68464321456849575042724609375" lon="4.80830767191946506500244140625">
        <ele>128.600006103515625</ele>
        <time>2025-10-25T12:22:41.000Z</time>
        <extensions>
          <ns3:TrackPointExtension>
            <ns3:hr>107</ns3:hr>
          </ns3:TrackPointExtension>
        </extensions>
      </trkpt>
      <trkpt lat="44.6846632473170757293701171875" lon="4.80842133052647113800048828125">
        <ele>129</ele>
        <time>2025-10-25T12:22:47.000Z</time>
        <extensions>
          <ns3:TrackPointExtension>
            <ns3:hr>110</ns3:hr>
          </ns3:TrackPointExtension>
        </extensions>
      </trkpt>
      <trkpt lat="44.684681855142116546630859375" lon="4.80856264941394329071044921875">
        <ele>129.399993896484375</ele>
        <time>2025-10-25T12:22:55.000Z</time>
        <extensions>
          <ns3:TrackPointExtension>
            <ns3:hr>113</ns3:hr>
          </ns3:TrackPointExtension>
        </extensions>
      </trkpt>
      <trkpt lat="44.68469484709203243255615234375" lon="4.808699525892734527587890625">
        <ele>129.600006103515625</ele>
        <time>2025-10-25T12:23:02.000Z</time>
        <extensions>
          <ns3:TrackPointExtension>
            <ns3:hr>110</ns3:hr>
          </ns3:TrackPointExtension>
        </extensions>
      </trkpt>
      <trkpt lat="44.68468395061790943145751953125" lon="4.80880907736718654632568359375">
        <ele>129.8000030517578125</ele>
        <time>2025-10-25T12:23:08.000Z</time>
        <extensions>
          <ns3:TrackPointExtension>
            <ns3:hr>107</ns3:hr>
          </ns3:TrackPointExtension>
        </extensions>
      </trkpt>
      <trkpt lat="44.68463818542659282684326171875" lon="4.80906791053712368011474609375">
        <ele>130.1999969482421875</ele>
        <time>2025-10-25T12:23:22.000Z</time>
        <extensions>
          <ns3:TrackPointExtension>
            <ns3:hr>105</ns3:hr>
          </ns3:TrackPointExtension>
        </extensions>
      </trkpt>
      <trkpt lat="44.68459007330238819122314453125" lon="4.80932372622191905975341796875">
        <ele>130.399993896484375</ele>
        <time>2025-10-25T12:23:36.000Z</time>
        <extensions>
          <ns3:TrackPointExtension>
            <ns3:hr>105</ns3:hr>
          </ns3:TrackPointExtension>
        </extensions>
      </trkpt>
      <trkpt lat="44.6845609880983829498291015625" lon="4.809480719268321990966796875">
        <ele>130.8000030517578125</ele>
        <time>2025-10-25T12:23:45.000Z</time>
        <extensions>
          <ns3:TrackPointExtension>
            <ns3:hr>104</ns3:hr>
          </ns3:TrackPointExtension>
        </extensions>
      </trkpt>
      <trkpt lat="44.68453668057918548583984375" lon="4.80973645113408565521240234375">
        <ele>131.600006103515625</ele>
        <time>2025-10-25T12:23:59.000Z</time>
        <extensions>
          <ns3:TrackPointExtension>
            <ns3:hr>104</ns3:hr>
          </ns3:TrackPointExtension>
        </extensions>
      </trkpt>
      <trkpt lat="44.6845321543514728546142578125" lon="4.80981976725161075592041015625">
        <ele>131.8000030517578125</ele>
        <time>2025-10-25T12:24:03.000Z</time>
        <extensions>
          <ns3:TrackPointExtension>
            <ns3:hr>106</ns3:hr>
          </ns3:TrackPointExtension>
        </extensions>
      </trkpt>
      <trkpt lat="44.68448144383728504180908203125" lon="4.81006552465260028839111328125">
        <ele>132.1999969482421875</ele>
        <time>2025-10-25T12:24:17.000Z</time>
        <extensions>
          <ns3:TrackPointExtension>
            <ns3:hr>106</ns3:hr>
          </ns3:TrackPointExtension>
        </extensions>
      </trkpt>
      <trkpt lat="44.6844637580215930938720703125" lon="4.81031681410968303680419921875">
        <ele>132.8000030517578125</ele>
        <time>2025-10-25T12:24:30.000Z</time>
        <extensions>
          <ns3:TrackPointExtension>
            <ns3:hr>106</ns3:hr>
          </ns3:TrackPointExtension>
        </extensions>
      </trkpt>
      <trkpt lat="44.6844580583274364471435546875" lon="4.8103391937911510467529296875">
        <ele>132.8000030517578125</ele>
        <time>2025-10-25T12:24:31.000Z</time>
        <extensions>
          <ns3:TrackPointExtension>
            <ns3:hr>106</ns3:hr>
          </ns3:TrackPointExtension>
        </extensions>
      </trkpt>
      <trkpt lat="44.68445948325097560882568359375" lon="4.81058679521083831787109375">
        <ele>133.8000030517578125</ele>
        <time>2025-10-25T12:24:44.000Z</time>
        <extensions>
          <ns3:TrackPointExtension>
            <ns3:hr>105</ns3:hr>
          </ns3:TrackPointExtension>
        </extensions>
      </trkpt>
      <trkpt lat="44.68450306914746761322021484375" lon="4.81083665974438190460205078125">
        <ele>135</ele>
        <time>2025-10-25T12:24:58.000Z</time>
        <extensions>
          <ns3:TrackPointExtension>
            <ns3:hr>106</ns3:hr>
          </ns3:TrackPointExtension>
        </extensions>
      </trkpt>
      <trkpt lat="44.68451446853578090667724609375" lon="4.8108964227139949798583984375">
        <ele>135.1999969482421875</ele>
        <time>2025-10-25T12:25:02.000Z</time>
        <extensions>
          <ns3:TrackPointExtension>
            <ns3:hr>109</ns3:hr>
          </ns3:TrackPointExtension>
        </extensions>
      </trkpt>
      <trkpt lat="44.684516899287700653076171875" lon="4.81098267249763011932373046875">
        <ele>136</ele>
        <time>2025-10-25T12:25:07.000Z</time>
        <extensions>
          <ns3:TrackPointExtension>
            <ns3:hr>111</ns3:hr>
          </ns3:TrackPointExtension>
        </extensions>
      </trkpt>
      <trkpt lat="44.68452251516282558441162109375" lon="4.8111520707607269287109375">
        <ele>137.1999969482421875</ele>
        <time>2025-10-25T12:25:17.000Z</time>
        <extensions>
          <ns3:TrackPointExtension>
            <ns3:hr>113</ns3:hr>
          </ns3:TrackPointExtension>
        </extensions>
      </trkpt>
      <trkpt lat="44.68451497144997119903564453125" lon="4.81130386702716350555419921875">
        <ele>138.1999969482421875</ele>
        <time>2025-10-25T12:25:26.000Z</time>
        <extensions>
          <ns3:TrackPointExtension>
            <ns3:hr>115</ns3:hr>
          </ns3:TrackPointExtension>
        </extensions>
      </trkpt>
      <trkpt lat="44.684518910944461822509765625" lon="4.811495058238506317138671875">
        <ele>139.1999969482421875</ele>
        <time>2025-10-25T12:25:36.000Z</time>
        <extensions>
          <ns3:TrackPointExtension>
            <ns3:hr>114</ns3:hr>
          </ns3:TrackPointExtension>
        </extensions>
      </trkpt>
      <trkpt lat="44.68452729284763336181640625" lon="4.8115622811019420623779296875">
        <ele>139.8000030517578125</ele>
        <time>2025-10-25T12:25:40.000Z</time>
        <extensions>
          <ns3:TrackPointExtension>
            <ns3:hr>117</ns3:hr>
          </ns3:TrackPointExtension>
        </extensions>
      </trkpt>
      <trkpt lat="44.68452536500990390777587890625" lon="4.81158834882080554962158203125">
        <ele>140.399993896484375</ele>
        <time>2025-10-25T12:25:42.000Z</time>
        <extensions>
          <ns3:TrackPointExtension>
            <ns3:hr>117</ns3:hr>
          </ns3:TrackPointExtension>
        </extensions>
      </trkpt>
      <trkpt lat="44.6845200844109058380126953125" lon="4.81171206571161746978759765625">
        <ele>141.399993896484375</ele>
        <time>2025-10-25T12:25:50.000Z</time>
        <extensions>
          <ns3:TrackPointExtension>
            <ns3:hr>118</ns3:hr>
          </ns3:TrackPointExtension>
        </extensions>
      </trkpt>
      <trkpt lat="44.684516899287700653076171875" lon="4.81181097216904163360595703125">
        <ele>142.399993896484375</ele>
        <time>2025-10-25T12:25:56.000Z</time>
        <extensions>
          <ns3:TrackPointExtension>
            <ns3:hr>121</ns3:hr>
          </ns3:TrackPointExtension>
        </extensions>
      </trkpt>
      <trkpt lat="44.6845163963735103607177734375" lon="4.81186009012162685394287109375">
        <ele>143</ele>
        <time>2025-10-25T12:25:59.000Z</time>
        <extensions>
          <ns3:TrackPointExtension>
            <ns3:hr>124</ns3:hr>
          </ns3:TrackPointExtension>
        </extensions>
      </trkpt>
      <trkpt lat="44.684508852660655975341796875" lon="4.81192412786185741424560546875">
        <ele>143.600006103515625</ele>
        <time>2025-10-25T12:26:03.000Z</time>
        <extensions>
          <ns3:TrackPointExtension>
            <ns3:hr>123</ns3:hr>
          </ns3:TrackPointExtension>
        </extensions>
      </trkpt>
      <trkpt lat="44.684531986713409423828125" lon="4.81203493662178516387939453125">
        <ele>144.8000030517578125</ele>
        <time>2025-10-25T12:26:10.000Z</time>
        <extensions>
          <ns3:TrackPointExtension>
            <ns3:hr>123</ns3:hr>
          </ns3:TrackPointExtension>
        </extensions>
      </trkpt>
      <trkpt lat="44.6845381893217563629150390625" lon="4.812107942998409271240234375">
        <ele>145.8000030517578125</ele>
        <time>2025-10-25T12:26:15.000Z</time>
        <extensions>
          <ns3:TrackPointExtension>
            <ns3:hr>124</ns3:hr>
          </ns3:TrackPointExtension>
        </extensions>
      </trkpt>
      <trkpt lat="44.684532321989536285400390625" lon="4.81222294270992279052734375">
        <ele>147</ele>
        <time>2025-10-25T12:26:23.000Z</time>
        <extensions>
          <ns3:TrackPointExtension>
            <ns3:hr>126</ns3:hr>
          </ns3:TrackPointExtension>
        </extensions>
      </trkpt>
      <trkpt lat="44.68453089706599712371826171875" lon="4.8123005591332912445068359375">
        <ele>148</ele>
        <time>2025-10-25T12:26:32.000Z</time>
        <extensions>
          <ns3:TrackPointExtension>
            <ns3:hr>126</ns3:hr>
          </ns3:TrackPointExtension>
        </extensions>
      </trkpt>
      <trkpt lat="44.68453676439821720123291015625" lon="4.81232143007218837738037109375">
        <ele>148.399993896484375</ele>
        <time>2025-10-25T12:26:35.000Z</time>
        <extensions>
          <ns3:TrackPointExtension>
            <ns3:hr>123</ns3:hr>
          </ns3:TrackPointExtension>
        </extensions>
      </trkpt>
      <trkpt lat="44.68452368862926959991455078125" lon="4.81237507425248622894287109375">
        <ele>148.8000030517578125</ele>
        <time>2025-10-25T12:26:44.000Z</time>
        <extensions>
          <ns3:TrackPointExtension>
            <ns3:hr>119</ns3:hr>
          </ns3:TrackPointExtension>
        </extensions>
      </trkpt>
      <trkpt lat="44.68451815657317638397216796875" lon="4.8123924247920513153076171875">
        <ele>149</ele>
        <time>2025-10-25T12:26:47.000Z</time>
        <extensions>
          <ns3:TrackPointExtension>
            <ns3:hr>118</ns3:hr>
          </ns3:TrackPointExtension>
        </extensions>
      </trkpt>
      <trkpt lat="44.68450189568102359771728515625" lon="4.8123716376721858978271484375">
        <ele>150</ele>
        <time>2025-10-25T12:26:59.000Z</time>
        <extensions>
          <ns3:TrackPointExtension>
            <ns3:hr>115</ns3:hr>
          </ns3:TrackPointExtension>
        </extensions>
      </trkpt>
      <trkpt lat="44.68441891483962535858154296875" lon="4.81243542395532131195068359375">
        <ele>150.1999969482421875</ele>
        <time>2025-10-25T12:29:39.000Z</time>
        <extensions>
          <ns3:TrackPointExtension>
            <ns3:hr>93</ns3:hr>
          </ns3:TrackPointExtension>
        </extensions>
      </trkpt>
      <trkpt lat="44.68441237695515155792236328125" lon="4.8124346695840358734130859375">
        <ele>150.1999969482421875</ele>
        <time>2025-10-25T12:29:40.000Z</time>
        <extensions>
          <ns3:TrackPointExtension>
            <ns3:hr>93</ns3:hr>
          </ns3:TrackPointExtension>
        </extensions>
      </trkpt>
      <trkpt lat="44.684352613985538482666015625" lon="4.81243391521275043487548828125">
        <ele>151.399993896484375</ele>
        <time>2025-10-25T12:29:49.000Z</time>
        <extensions>
          <ns3:TrackPointExtension>
            <ns3:hr>94</ns3:hr>
          </ns3:TrackPointExtension>
        </extensions>
      </trkpt>
      <trkpt lat="44.6843172423541545867919921875" lon="4.81242435984313488006591796875">
        <ele>152.1999969482421875</ele>
        <time>2025-10-25T12:29:54.000Z</time>
        <extensions>
          <ns3:TrackPointExtension>
            <ns3:hr>97</ns3:hr>
          </ns3:TrackPointExtension>
        </extensions>
      </trkpt>
      <trkpt lat="44.684297628700733184814453125" lon="4.81242301873862743377685546875">
        <ele>152.399993896484375</ele>
        <time>2025-10-25T12:29:56.000Z</time>
        <extensions>
          <ns3:TrackPointExtension>
            <ns3:hr>97</ns3:hr>
          </ns3:TrackPointExtension>
        </extensions>
      </trkpt>
      <trkpt lat="44.68424038030207157135009765625" lon="4.812421761453151702880859375">
        <ele>152.600006103515625</ele>
        <time>2025-10-25T12:30:01.000Z</time>
        <extensions>
          <ns3:TrackPointExtension>
            <ns3:hr>100</ns3:hr>
          </ns3:TrackPointExtension>
        </extensions>
      </trkpt>
      <trkpt lat="44.684203751385211944580078125" lon="4.8124138824641704559326171875">
        <ele>152.8000030517578125</ele>
        <time>2025-10-25T12:30:04.000Z</time>
        <extensions>
          <ns3:TrackPointExtension>
            <ns3:hr>104</ns3:hr>
          </ns3:TrackPointExtension>
        </extensions>
      </trkpt>
      <trkpt lat="44.6841167472302913665771484375" lon="4.812405668199062347412109375">
        <ele>153.1999969482421875</ele>
        <time>2025-10-25T12:30:11.000Z</time>
        <extensions>
          <ns3:TrackPointExtension>
            <ns3:hr>101</ns3:hr>
          </ns3:TrackPointExtension>
        </extensions>
      </trkpt>
      <trkpt lat="44.6840084530413150787353515625" lon="4.81241094879806041717529296875">
        <ele>153.399993896484375</ele>
        <time>2025-10-25T12:30:21.000Z</time>
        <extensions>
          <ns3:TrackPointExtension>
            <ns3:hr>98</ns3:hr>
          </ns3:TrackPointExtension>
        </extensions>
      </trkpt>
      <trkpt lat="44.68381994403898715972900390625" lon="4.812430478632450103759765625">
        <ele>154</ele>
        <time>2025-10-25T12:30:39.000Z</time>
        <extensions>
          <ns3:TrackPointExtension>
            <ns3:hr>99</ns3:hr>
          </ns3:TrackPointExtension>
        </extensions>
      </trkpt>
      <trkpt lat="44.6837957203388214111328125" lon="4.8124395310878753662109375">
        <ele>154.399993896484375</ele>
        <time>2025-10-25T12:30:42.000Z</time>
        <extensions>
          <ns3:TrackPointExtension>
            <ns3:hr>100</ns3:hr>
          </ns3:TrackPointExtension>
        </extensions>
      </trkpt>
      <trkpt lat="44.6836352907121181488037109375" lon="4.812445230782032012939453125">
        <ele>155.399993896484375</ele>
        <time>2025-10-25T12:30:57.000Z</time>
        <extensions>
          <ns3:TrackPointExtension>
            <ns3:hr>100</ns3:hr>
          </ns3:TrackPointExtension>
        </extensions>
      </trkpt>
      <trkpt lat="44.683453738689422607421875" lon="4.81247884221374988555908203125">
        <ele>156.399993896484375</ele>
        <time>2025-10-25T12:31:14.000Z</time>
        <extensions>
          <ns3:TrackPointExtension>
            <ns3:hr>100</ns3:hr>
          </ns3:TrackPointExtension>
        </extensions>
      </trkpt>
      <trkpt lat="44.68343571759760379791259765625" lon="4.81247842311859130859375">
        <ele>156.600006103515625</ele>
        <time>2025-10-25T12:31:16.000Z</time>
        <extensions>
          <ns3:TrackPointExtension>
            <ns3:hr>100</ns3:hr>
          </ns3:TrackPointExtension>
        </extensions>
      </trkpt>
      <trkpt lat="44.68328450806438922882080078125" lon="4.812499545514583587646484375">
        <ele>157.600006103515625</ele>
        <time>2025-10-25T12:31:32.000Z</time>
        <extensions>
          <ns3:TrackPointExtension>
            <ns3:hr>101</ns3:hr>
          </ns3:TrackPointExtension>
        </extensions>
      </trkpt>
      <trkpt lat="44.68322047032415866851806640625" lon="4.812500216066837310791015625">
        <ele>158</ele>
        <time>2025-10-25T12:31:38.000Z</time>
        <extensions>
          <ns3:TrackPointExtension>
            <ns3:hr>101</ns3:hr>
          </ns3:TrackPointExtension>
        </extensions>
      </trkpt>
      <trkpt lat="44.68314285390079021453857421875" lon="4.81251857243478298187255859375">
        <ele>158.600006103515625</ele>
        <time>2025-10-25T12:31:46.000Z</time>
        <extensions>
          <ns3:TrackPointExtension>
            <ns3:hr>100</ns3:hr>
          </ns3:TrackPointExtension>
        </extensions>
      </trkpt>
      <trkpt lat="44.68297052197158336639404296875" lon="4.8125996254384517669677734375">
        <ele>159.600006103515625</ele>
        <time>2025-10-25T12:32:02.000Z</time>
        <extensions>
          <ns3:TrackPointExtension>
            <ns3:hr>99</ns3:hr>
          </ns3:TrackPointExtension>
        </extensions>
      </trkpt>
      <trkpt lat="44.682932384312152862548828125" lon="4.81261446140706539154052734375">
        <ele>159.8000030517578125</ele>
        <time>2025-10-25T12:32:06.000Z</time>
        <extensions>
          <ns3:TrackPointExtension>
            <ns3:hr>100</ns3:hr>
          </ns3:TrackPointExtension>
        </extensions>
      </trkpt>
      <trkpt lat="44.682769440114498138427734375" lon="4.8126039840281009674072265625">
        <ele>160.8000030517578125</ele>
        <time>2025-10-25T12:32:20.000Z</time>
        <extensions>
          <ns3:TrackPointExtension>
            <ns3:hr>100</ns3:hr>
          </ns3:TrackPointExtension>
        </extensions>
      </trkpt>
      <trkpt lat="44.6827040612697601318359375" lon="4.81259115971624851226806640625">
        <ele>161.399993896484375</ele>
        <time>2025-10-25T12:32:26.000Z</time>
        <extensions>
          <ns3:TrackPointExtension>
            <ns3:hr>97</ns3:hr>
          </ns3:TrackPointExtension>
        </extensions>
      </trkpt>
      <trkpt lat="44.68266240321099758148193359375" lon="4.81258596293628215789794921875">
        <ele>161.8000030517578125</ele>
        <time>2025-10-25T12:32:30.000Z</time>
        <extensions>
          <ns3:TrackPointExtension>
            <ns3:hr>97</ns3:hr>
          </ns3:TrackPointExtension>
        </extensions>
      </trkpt>
      <trkpt lat="44.68257003463804721832275390625" lon="4.81258076615631580352783203125">
        <ele>162.600006103515625</ele>
        <time>2025-10-25T12:32:38.000Z</time>
        <extensions>
          <ns3:TrackPointExtension>
            <ns3:hr>100</ns3:hr>
          </ns3:TrackPointExtension>
        </extensions>
      </trkpt>
      <trkpt lat="44.682530052959918975830078125" lon="4.81258613057434558868408203125">
        <ele>163</ele>
        <time>2025-10-25T12:32:42.000Z</time>
        <extensions>
          <ns3:TrackPointExtension>
            <ns3:hr>99</ns3:hr>
          </ns3:TrackPointExtension>
        </extensions>
      </trkpt>
      <trkpt lat="44.6824306435883045196533203125" lon="4.81255813501775264739990234375">
        <ele>164</ele>
        <time>2025-10-25T12:32:52.000Z</time>
        <extensions>
          <ns3:TrackPointExtension>
            <ns3:hr>101</ns3:hr>
          </ns3:TrackPointExtension>
        </extensions>
      </trkpt>
      <trkpt lat="44.682389907538890838623046875" lon="4.81254614889621734619140625">
        <ele>164.399993896484375</ele>
        <time>2025-10-25T12:32:56.000Z</time>
        <extensions>
          <ns3:TrackPointExtension>
            <ns3:hr>104</ns3:hr>
          </ns3:TrackPointExtension>
        </extensions>
      </trkpt>
      <trkpt lat="44.68224917538464069366455078125" lon="4.8125012218952178955078125">
        <ele>165</ele>
        <time>2025-10-25T12:33:09.000Z</time>
        <extensions>
          <ns3:TrackPointExtension>
            <ns3:hr>105</ns3:hr>
          </ns3:TrackPointExtension>
        </extensions>
      </trkpt>
      <trkpt lat="44.6820702217519283294677734375" lon="4.812508933246135711669921875">
        <ele>165.8000030517578125</ele>
        <time>2025-10-25T12:33:27.000Z</time>
        <extensions>
          <ns3:TrackPointExtension>
            <ns3:hr>101</ns3:hr>
          </ns3:TrackPointExtension>
        </extensions>
      </trkpt>
      <trkpt lat="44.6818824671208858489990234375" lon="4.81249309144914150238037109375">
        <ele>165.399993896484375</ele>
        <time>2025-10-25T12:33:44.000Z</time>
        <extensions>
          <ns3:TrackPointExtension>
            <ns3:hr>102</ns3:hr>
          </ns3:TrackPointExtension>
        </extensions>
      </trkpt>
      <trkpt lat="44.68169110827147960662841796875" lon="4.81246031820774078369140625">
        <ele>164.600006103515625</ele>
        <time>2025-10-25T12:33:59.000Z</time>
        <extensions>
          <ns3:TrackPointExtension>
            <ns3:hr>101</ns3:hr>
          </ns3:TrackPointExtension>
        </extensions>
      </trkpt>
      <trkpt lat="44.68161986209452152252197265625" lon="4.81247129850089550018310546875">
        <ele>164</ele>
        <time>2025-10-25T12:34:05.000Z</time>
        <extensions>
          <ns3:TrackPointExtension>
            <ns3:hr>100</ns3:hr>
          </ns3:TrackPointExtension>
        </extensions>
      </trkpt>
      <trkpt lat="44.681586585938930511474609375" lon="4.8124923370778560638427734375">
        <ele>163.8000030517578125</ele>
        <time>2025-10-25T12:34:08.000Z</time>
        <extensions>
          <ns3:TrackPointExtension>
            <ns3:hr>99</ns3:hr>
          </ns3:TrackPointExtension>
        </extensions>
      </trkpt>
      <trkpt lat="44.6815485320985317230224609375" lon="4.81252460740506649017333984375">
        <ele>163.399993896484375</ele>
        <time>2025-10-25T12:34:12.000Z</time>
        <extensions>
          <ns3:TrackPointExtension>
            <ns3:hr>94</ns3:hr>
          </ns3:TrackPointExtension>
        </extensions>
      </trkpt>
      <trkpt lat="44.68153403140604496002197265625" lon="4.81254522688686847686767578125">
        <ele>163.399993896484375</ele>
        <time>2025-10-25T12:34:14.000Z</time>
        <extensions>
          <ns3:TrackPointExtension>
            <ns3:hr>91</ns3:hr>
          </ns3:TrackPointExtension>
        </extensions>
      </trkpt>
      <trkpt lat="44.68151391483843326568603515625" lon="4.81256450526416301727294921875">
        <ele>163</ele>
        <time>2025-10-25T12:34:17.000Z</time>
        <extensions>
          <ns3:TrackPointExtension>
            <ns3:hr>91</ns3:hr>
          </ns3:TrackPointExtension>
        </extensions>
      </trkpt>
      <trkpt lat="44.68147686682641506195068359375" lon="4.81265050359070301055908203125">
        <ele>161.8000030517578125</ele>
        <time>2025-10-25T12:34:25.000Z</time>
        <extensions>
          <ns3:TrackPointExtension>
            <ns3:hr>89</ns3:hr>
          </ns3:TrackPointExtension>
        </extensions>
      </trkpt>
      <trkpt lat="44.681292884051799774169921875" lon="4.81260725297033786773681640625">
        <ele>161.399993896484375</ele>
        <time>2025-10-25T12:34:43.000Z</time>
        <extensions>
          <ns3:TrackPointExtension>
            <ns3:hr>90</ns3:hr>
          </ns3:TrackPointExtension>
        </extensions>
      </trkpt>
      <trkpt lat="44.6811716817319393157958984375" lon="4.81254070065915584564208984375">
        <ele>160.600006103515625</ele>
        <time>2025-10-25T12:34:55.000Z</time>
        <extensions>
          <ns3:TrackPointExtension>
            <ns3:hr>92</ns3:hr>
          </ns3:TrackPointExtension>
        </extensions>
      </trkpt>
      <trkpt lat="44.6811430156230926513671875" lon="4.8125168122351169586181640625">
        <ele>160.399993896484375</ele>
        <time>2025-10-25T12:34:58.000Z</time>
        <extensions>
          <ns3:TrackPointExtension>
            <ns3:hr>93</ns3:hr>
          </ns3:TrackPointExtension>
        </extensions>
      </trkpt>
      <trkpt lat="44.6810379065573215484619140625" lon="4.8125117830932140350341796875">
        <ele>159.600006103515625</ele>
        <time>2025-10-25T12:35:07.000Z</time>
        <extensions>
          <ns3:TrackPointExtension>
            <ns3:hr>94</ns3:hr>
          </ns3:TrackPointExtension>
        </extensions>
      </trkpt>
      <trkpt lat="44.68101921491324901580810546875" lon="4.81250725686550140380859375">
        <ele>159.600006103515625</ele>
        <time>2025-10-25T12:35:09.000Z</time>
        <extensions>
          <ns3:TrackPointExtension>
            <ns3:hr>91</ns3:hr>
          </ns3:TrackPointExtension>
        </extensions>
      </trkpt>
      <trkpt lat="44.68098686076700687408447265625" lon="4.81251672841608524322509765625">
        <ele>159.399993896484375</ele>
        <time>2025-10-25T12:35:12.000Z</time>
        <extensions>
          <ns3:TrackPointExtension>
            <ns3:hr>94</ns3:hr>
          </ns3:TrackPointExtension>
        </extensions>
      </trkpt>
      <trkpt lat="44.68087303452193737030029296875" lon="4.81253466568887233734130859375">
        <ele>159.399993896484375</ele>
        <time>2025-10-25T12:35:22.000Z</time>
        <extensions>
          <ns3:TrackPointExtension>
            <ns3:hr>91</ns3:hr>
          </ns3:TrackPointExtension>
        </extensions>
      </trkpt>
      <trkpt lat="44.6808545105159282684326171875" lon="4.81254019774496555328369140625">
        <ele>159.399993896484375</ele>
        <time>2025-10-25T12:35:24.000Z</time>
        <extensions>
          <ns3:TrackPointExtension>
            <ns3:hr>88</ns3:hr>
          </ns3:TrackPointExtension>
        </extensions>
      </trkpt>
      <trkpt lat="44.68067555688321590423583984375" lon="4.81254438869655132293701171875">
        <ele>159.1999969482421875</ele>
        <time>2025-10-25T12:35:41.000Z</time>
        <extensions>
          <ns3:TrackPointExtension>
            <ns3:hr>91</ns3:hr>
          </ns3:TrackPointExtension>
        </extensions>
      </trkpt>
      <trkpt lat="44.68058687634766101837158203125" lon="4.8125577159225940704345703125">
        <ele>159.399993896484375</ele>
        <time>2025-10-25T12:35:50.000Z</time>
        <extensions>
          <ns3:TrackPointExtension>
            <ns3:hr>88</ns3:hr>
          </ns3:TrackPointExtension>
        </extensions>
      </trkpt>
      <trkpt lat="44.6804038994014263153076171875" lon="4.81257707811892032623291015625">
        <ele>159.1999969482421875</ele>
        <time>2025-10-25T12:36:06.000Z</time>
        <extensions>
          <ns3:TrackPointExtension>
            <ns3:hr>89</ns3:hr>
          </ns3:TrackPointExtension>
        </extensions>
      </trkpt>
      <trkpt lat="44.68021354638040065765380859375" lon="4.81261228211224079132080078125">
        <ele>158.8000030517578125</ele>
        <time>2025-10-25T12:36:19.000Z</time>
        <extensions>
          <ns3:TrackPointExtension>
            <ns3:hr>91</ns3:hr>
          </ns3:TrackPointExtension>
        </extensions>
      </trkpt>
      <trkpt lat="44.6801537834107875823974609375" lon="4.8126153834164142608642578125">
        <ele>158.600006103515625</ele>
        <time>2025-10-25T12:36:23.000Z</time>
        <extensions>
          <ns3:TrackPointExtension>
            <ns3:hr>90</ns3:hr>
          </ns3:TrackPointExtension>
        </extensions>
      </trkpt>
      <trkpt lat="44.679971896111965179443359375" lon="4.81260037980973720550537109375">
        <ele>158.1999969482421875</ele>
        <time>2025-10-25T12:36:39.000Z</time>
        <extensions>
          <ns3:TrackPointExtension>
            <ns3:hr>90</ns3:hr>
          </ns3:TrackPointExtension>
        </extensions>
      </trkpt>
      <trkpt lat="44.6798875741660594940185546875" lon="4.81257020495831966400146484375">
        <ele>158.1999969482421875</ele>
        <time>2025-10-25T12:36:48.000Z</time>
        <extensions>
          <ns3:TrackPointExtension>
            <ns3:hr>95</ns3:hr>
          </ns3:TrackPointExtension>
        </extensions>
      </trkpt>
      <trkpt lat="44.67986921779811382293701171875" lon="4.81257674284279346466064453125">
        <ele>158.1999969482421875</ele>
        <time>2025-10-25T12:36:50.000Z</time>
        <extensions>
          <ns3:TrackPointExtension>
            <ns3:hr>100</ns3:hr>
          </ns3:TrackPointExtension>
        </extensions>
      </trkpt>
      <trkpt lat="44.67981062829494476318359375" lon="4.81258227489888668060302734375">
        <ele>158.1999969482421875</ele>
        <time>2025-10-25T12:36:56.000Z</time>
        <extensions>
          <ns3:TrackPointExtension>
            <ns3:hr>97</ns3:hr>
          </ns3:TrackPointExtension>
        </extensions>
      </trkpt>
      <trkpt lat="44.67976561747491359710693359375" lon="4.81259551830589771270751953125">
        <ele>158.1999969482421875</ele>
        <time>2025-10-25T12:37:00.000Z</time>
        <extensions>
          <ns3:TrackPointExtension>
            <ns3:hr>94</ns3:hr>
          </ns3:TrackPointExtension>
        </extensions>
      </trkpt>
      <trkpt lat="44.6797266416251659393310546875" lon="4.81260289438068866729736328125">
        <ele>158.1999969482421875</ele>
        <time>2025-10-25T12:37:03.000Z</time>
        <extensions>
          <ns3:TrackPointExtension>
            <ns3:hr>91</ns3:hr>
          </ns3:TrackPointExtension>
        </extensions>
      </trkpt>
      <trkpt lat="44.679559171199798583984375" lon="4.81248185969889163970947265625">
        <ele>158</ele>
        <time>2025-10-25T12:37:20.000Z</time>
        <extensions>
          <ns3:TrackPointExtension>
            <ns3:hr>91</ns3:hr>
          </ns3:TrackPointExtension>
        </extensions>
      </trkpt>
      <trkpt lat="44.67945163138210773468017578125" lon="4.812437184154987335205078125">
        <ele>157.600006103515625</ele>
        <time>2025-10-25T12:37:31.000Z</time>
        <extensions>
          <ns3:TrackPointExtension>
            <ns3:hr>93</ns3:hr>
          </ns3:TrackPointExtension>
        </extensions>
      </trkpt>
      <trkpt lat="44.67927242629230022430419921875" lon="4.8124132119119167327880859375">
        <ele>157.1999969482421875</ele>
        <time>2025-10-25T12:37:46.000Z</time>
        <extensions>
          <ns3:TrackPointExtension>
            <ns3:hr>90</ns3:hr>
          </ns3:TrackPointExtension>
        </extensions>
      </trkpt>
      <trkpt lat="44.67920788563787937164306640625" lon="4.81238882057368755340576171875">
        <ele>156.600006103515625</ele>
        <time>2025-10-25T12:37:52.000Z</time>
        <extensions>
          <ns3:TrackPointExtension>
            <ns3:hr>87</ns3:hr>
          </ns3:TrackPointExtension>
        </extensions>
      </trkpt>
      <trkpt lat="44.679198078811168670654296875" lon="4.81238010339438915252685546875">
        <ele>156.600006103515625</ele>
        <time>2025-10-25T12:37:53.000Z</time>
        <extensions>
          <ns3:TrackPointExtension>
            <ns3:hr>87</ns3:hr>
          </ns3:TrackPointExtension>
        </extensions>
      </trkpt>
      <trkpt lat="44.67909322120249271392822265625" lon="4.8123682849109172821044921875">
        <ele>155.600006103515625</ele>
        <time>2025-10-25T12:38:05.000Z</time>
        <extensions>
          <ns3:TrackPointExtension>
            <ns3:hr>87</ns3:hr>
          </ns3:TrackPointExtension>
        </extensions>
      </trkpt>
      <trkpt lat="44.67900990508496761322021484375" lon="4.8123954422771930694580078125">
        <ele>154.399993896484375</ele>
        <time>2025-10-25T12:38:17.000Z</time>
        <extensions>
          <ns3:TrackPointExtension>
            <ns3:hr>87</ns3:hr>
          </ns3:TrackPointExtension>
        </extensions>
      </trkpt>
      <trkpt lat="44.67894201166927814483642578125" lon="4.8124125413596630096435546875">
        <ele>153.1999969482421875</ele>
        <time>2025-10-25T12:38:24.000Z</time>
        <extensions>
          <ns3:TrackPointExtension>
            <ns3:hr>86</ns3:hr>
          </ns3:TrackPointExtension>
        </extensions>
      </trkpt>
      <trkpt lat="44.67888987623155117034912109375" lon="4.81243039481341838836669921875">
        <ele>152.600006103515625</ele>
        <time>2025-10-25T12:38:29.000Z</time>
        <extensions>
          <ns3:TrackPointExtension>
            <ns3:hr>89</ns3:hr>
          </ns3:TrackPointExtension>
        </extensions>
      </trkpt>
      <trkpt lat="44.6788669936358928680419921875" lon="4.8124363459646701812744140625">
        <ele>152.1999969482421875</ele>
        <time>2025-10-25T12:38:32.000Z</time>
        <extensions>
          <ns3:TrackPointExtension>
            <ns3:hr>90</ns3:hr>
          </ns3:TrackPointExtension>
        </extensions>
      </trkpt>
      <trkpt lat="44.6787955798208713531494140625" lon="4.8124547861516475677490234375">
        <ele>151.1999969482421875</ele>
        <time>2025-10-25T12:38:41.000Z</time>
        <extensions>
          <ns3:TrackPointExtension>
            <ns3:hr>91</ns3:hr>
          </ns3:TrackPointExtension>
        </extensions>
      </trkpt>
      <trkpt lat="44.67871000058948993682861328125" lon="4.8124567978084087371826171875">
        <ele>150</ele>
        <time>2025-10-25T12:38:50.000Z</time>
        <extensions>
          <ns3:TrackPointExtension>
            <ns3:hr>90</ns3:hr>
          </ns3:TrackPointExtension>
        </extensions>
      </trkpt>
      <trkpt lat="44.67864998616278171539306640625" lon="4.8124288022518157958984375">
        <ele>149</ele>
        <time>2025-10-25T12:38:59.000Z</time>
        <extensions>
          <ns3:TrackPointExtension>
            <ns3:hr>90</ns3:hr>
          </ns3:TrackPointExtension>
        </extensions>
      </trkpt>
      <trkpt lat="44.6785893850028514862060546875" lon="4.812458641827106475830078125">
        <ele>148</ele>
        <time>2025-10-25T12:39:08.000Z</time>
        <extensions>
          <ns3:TrackPointExtension>
            <ns3:hr>89</ns3:hr>
          </ns3:TrackPointExtension>
        </extensions>
      </trkpt>
      <trkpt lat="44.6785330586135387420654296875" lon="4.8124873079359531402587890625">
        <ele>146.8000030517578125</ele>
        <time>2025-10-25T12:39:18.000Z</time>
        <extensions>
          <ns3:TrackPointExtension>
            <ns3:hr>88</ns3:hr>
          </ns3:TrackPointExtension>
        </extensions>
      </trkpt>
      <trkpt lat="44.6784460544586181640625" lon="4.81245889328420162200927734375">
        <ele>145.8000030517578125</ele>
        <time>2025-10-25T12:39:29.000Z</time>
        <extensions>
          <ns3:TrackPointExtension>
            <ns3:hr>88</ns3:hr>
          </ns3:TrackPointExtension>
        </extensions>
      </trkpt>
      <trkpt lat="44.67838042415678501129150390625" lon="4.81242679059505462646484375">
        <ele>144.8000030517578125</ele>
        <time>2025-10-25T12:39:37.000Z</time>
        <extensions>
          <ns3:TrackPointExtension>
            <ns3:hr>91</ns3:hr>
          </ns3:TrackPointExtension>
        </extensions>
      </trkpt>
      <trkpt lat="44.678369276225566864013671875" lon="4.8124212585389614105224609375">
        <ele>144.600006103515625</ele>
        <time>2025-10-25T12:39:38.000Z</time>
        <extensions>
          <ns3:TrackPointExtension>
            <ns3:hr>93</ns3:hr>
          </ns3:TrackPointExtension>
        </extensions>
      </trkpt>
      <trkpt lat="44.67834840528666973114013671875" lon="4.8124165646731853485107421875">
        <ele>144.399993896484375</ele>
        <time>2025-10-25T12:39:40.000Z</time>
        <extensions>
          <ns3:TrackPointExtension>
            <ns3:hr>96</ns3:hr>
          </ns3:TrackPointExtension>
        </extensions>
      </trkpt>
      <trkpt lat="44.67832962982356548309326171875" lon="4.81240265071392059326171875">
        <ele>144</ele>
        <time>2025-10-25T12:39:43.000Z</time>
        <extensions>
          <ns3:TrackPointExtension>
            <ns3:hr>100</ns3:hr>
          </ns3:TrackPointExtension>
        </extensions>
      </trkpt>
      <trkpt lat="44.6783080883324146270751953125" lon="4.8123857192695140838623046875">
        <ele>143.600006103515625</ele>
        <time>2025-10-25T12:39:46.000Z</time>
        <extensions>
          <ns3:TrackPointExtension>
            <ns3:hr>101</ns3:hr>
          </ns3:TrackPointExtension>
        </extensions>
      </trkpt>
      <trkpt lat="44.6782111935317516326904296875" lon="4.8123773373663425445556640625">
        <ele>142.600006103515625</ele>
        <time>2025-10-25T12:39:54.000Z</time>
        <extensions>
          <ns3:TrackPointExtension>
            <ns3:hr>103</ns3:hr>
          </ns3:TrackPointExtension>
        </extensions>
      </trkpt>
      <trkpt lat="44.6781417913734912872314453125" lon="4.81234657578170299530029296875">
        <ele>141.600006103515625</ele>
        <time>2025-10-25T12:40:03.000Z</time>
        <extensions>
          <ns3:TrackPointExtension>
            <ns3:hr>100</ns3:hr>
          </ns3:TrackPointExtension>
        </extensions>
      </trkpt>
      <trkpt lat="44.6781253628432750701904296875" lon="4.81234791688621044158935546875">
        <ele>141.399993896484375</ele>
        <time>2025-10-25T12:40:05.000Z</time>
        <extensions>
          <ns3:TrackPointExtension>
            <ns3:hr>99</ns3:hr>
          </ns3:TrackPointExtension>
        </extensions>
      </trkpt>
      <trkpt lat="44.678055457770824432373046875" lon="4.8123367689549922943115234375">
        <ele>140.8000030517578125</ele>
        <time>2025-10-25T12:40:14.000Z</time>
        <extensions>
          <ns3:TrackPointExtension>
            <ns3:hr>96</ns3:hr>
          </ns3:TrackPointExtension>
        </extensions>
      </trkpt>
      <trkpt lat="44.6780301444232463836669921875" lon="4.8123330809175968170166015625">
        <ele>140.600006103515625</ele>
        <time>2025-10-25T12:40:18.000Z</time>
        <extensions>
          <ns3:TrackPointExtension>
            <ns3:hr>92</ns3:hr>
          </ns3:TrackPointExtension>
        </extensions>
      </trkpt>
      <trkpt lat="44.67802033759653568267822265625" lon="4.81233132071793079376220703125">
        <ele>140.399993896484375</ele>
        <time>2025-10-25T12:40:19.000Z</time>
        <extensions>
          <ns3:TrackPointExtension>
            <ns3:hr>91</ns3:hr>
          </ns3:TrackPointExtension>
        </extensions>
      </trkpt>
      <trkpt lat="44.67789242975413799285888671875" lon="4.81223291717469692230224609375">
        <ele>139.399993896484375</ele>
        <time>2025-10-25T12:40:34.000Z</time>
        <extensions>
          <ns3:TrackPointExtension>
            <ns3:hr>89</ns3:hr>
          </ns3:TrackPointExtension>
        </extensions>
      </trkpt>
      <trkpt lat="44.6778546273708343505859375" lon="4.81230030767619609832763671875">
        <ele>139.1999969482421875</ele>
        <time>2025-10-25T12:40:43.000Z</time>
        <extensions>
          <ns3:TrackPointExtension>
            <ns3:hr>88</ns3:hr>
          </ns3:TrackPointExtension>
        </extensions>
      </trkpt>
      <trkpt lat="44.67779302038252353668212890625" lon="4.81255293823778629302978515625">
        <ele>139.600006103515625</ele>
        <time>2025-10-25T12:41:00.000Z</time>
        <extensions>
          <ns3:TrackPointExtension>
            <ns3:hr>88</ns3:hr>
          </ns3:TrackPointExtension>
        </extensions>
      </trkpt>
      <trkpt lat="44.67778145335614681243896484375" lon="4.81264011003077030181884765625">
        <ele>139.600006103515625</ele>
        <time>2025-10-25T12:41:05.000Z</time>
        <extensions>
          <ns3:TrackPointExtension>
            <ns3:hr>91</ns3:hr>
          </ns3:TrackPointExtension>
        </extensions>
      </trkpt>
      <trkpt lat="44.677781201899051666259765625" lon="4.812707416713237762451171875">
        <ele>139.8000030517578125</ele>
        <time>2025-10-25T12:41:09.000Z</time>
        <extensions>
          <ns3:TrackPointExtension>
            <ns3:hr>97</ns3:hr>
          </ns3:TrackPointExtension>
        </extensions>
      </trkpt>
      <trkpt lat="44.67778212390840053558349609375" lon="4.8127246834337711334228515625">
        <ele>139.8000030517578125</ele>
        <time>2025-10-25T12:41:10.000Z</time>
        <extensions>
          <ns3:TrackPointExtension>
            <ns3:hr>100</ns3:hr>
          </ns3:TrackPointExtension>
        </extensions>
      </trkpt>
      <trkpt lat="44.67778011225163936614990234375" lon="4.81274119578301906585693359375">
        <ele>140</ele>
        <time>2025-10-25T12:41:11.000Z</time>
        <extensions>
          <ns3:TrackPointExtension>
            <ns3:hr>107</ns3:hr>
          </ns3:TrackPointExtension>
        </extensions>
      </trkpt>
      <trkpt lat="44.6777790226042270660400390625" lon="4.812760055065155029296875">
        <ele>140</ele>
        <time>2025-10-25T12:41:12.000Z</time>
        <extensions>
          <ns3:TrackPointExtension>
            <ns3:hr>110</ns3:hr>
          </ns3:TrackPointExtension>
        </extensions>
      </trkpt>
      <trkpt lat="44.67778061516582965850830078125" lon="4.81277723796665668487548828125">
        <ele>140.1999969482421875</ele>
        <time>2025-10-25T12:41:13.000Z</time>
        <extensions>
          <ns3:TrackPointExtension>
            <ns3:hr>117</ns3:hr>
          </ns3:TrackPointExtension>
        </extensions>
      </trkpt>
      <trkpt lat="44.67778153717517852783203125" lon="4.812797270715236663818359375">
        <ele>140.1999969482421875</ele>
        <time>2025-10-25T12:41:14.000Z</time>
        <extensions>
          <ns3:TrackPointExtension>
            <ns3:hr>120</ns3:hr>
          </ns3:TrackPointExtension>
        </extensions>
      </trkpt>
      <trkpt lat="44.67778044752776622772216796875" lon="4.812818057835102081298828125">
        <ele>140.1999969482421875</ele>
        <time>2025-10-25T12:41:15.000Z</time>
        <extensions>
          <ns3:TrackPointExtension>
            <ns3:hr>120</ns3:hr>
          </ns3:TrackPointExtension>
        </extensions>
      </trkpt>
      <trkpt lat="44.67777474783360958099365234375" lon="4.8128339834511280059814453125">
        <ele>140.399993896484375</ele>
        <time>2025-10-25T12:41:16.000Z</time>
        <extensions>
          <ns3:TrackPointExtension>
            <ns3:hr>117</ns3:hr>
          </ns3:TrackPointExtension>
        </extensions>
      </trkpt>
      <trkpt lat="44.67777038924396038055419921875" lon="4.81284982524812221527099609375">
        <ele>140.399993896484375</ele>
        <time>2025-10-25T12:41:17.000Z</time>
        <extensions>
          <ns3:TrackPointExtension>
            <ns3:hr>111</ns3:hr>
          </ns3:TrackPointExtension>
        </extensions>
      </trkpt>
      <trkpt lat="44.6777661144733428955078125" lon="4.8128638230264186859130859375">
        <ele>140.399993896484375</ele>
        <time>2025-10-25T12:41:18.000Z</time>
        <extensions>
          <ns3:TrackPointExtension>
            <ns3:hr>108</ns3:hr>
          </ns3:TrackPointExtension>
        </extensions>
      </trkpt>
      <trkpt lat="44.67776049859821796417236328125" lon="4.81287647970020771026611328125">
        <ele>140.399993896484375</ele>
        <time>2025-10-25T12:41:19.000Z</time>
        <extensions>
          <ns3:TrackPointExtension>
            <ns3:hr>101</ns3:hr>
          </ns3:TrackPointExtension>
        </extensions>
      </trkpt>
      <trkpt lat="44.6777548827230930328369140625" lon="4.8128899745643138885498046875">
        <ele>140.600006103515625</ele>
        <time>2025-10-25T12:41:20.000Z</time>
        <extensions>
          <ns3:TrackPointExtension>
            <ns3:hr>95</ns3:hr>
          </ns3:TrackPointExtension>
        </extensions>
      </trkpt>
      <trkpt lat="44.67775027267634868621826171875" lon="4.8129033856093883514404296875">
        <ele>140.600006103515625</ele>
        <time>2025-10-25T12:41:21.000Z</time>
        <extensions>
          <ns3:TrackPointExtension>
            <ns3:hr>91</ns3:hr>
          </ns3:TrackPointExtension>
        </extensions>
      </trkpt>
      <trkpt lat="44.67774557881057262420654296875" lon="4.81291637755930423736572265625">
        <ele>140.600006103515625</ele>
        <time>2025-10-25T12:41:22.000Z</time>
        <extensions>
          <ns3:TrackPointExtension>
            <ns3:hr>92</ns3:hr>
          </ns3:TrackPointExtension>
        </extensions>
      </trkpt>
      <trkpt lat="44.67770031653344631195068359375" lon="4.813035316765308380126953125">
        <ele>141</ele>
        <time>2025-10-25T12:41:31.000Z</time>
        <extensions>
          <ns3:TrackPointExtension>
            <ns3:hr>96</ns3:hr>
          </ns3:TrackPointExtension>
        </extensions>
      </trkpt>
      <trkpt lat="44.67762085609138011932373046875" lon="4.8132507316768169403076171875">
        <ele>141.600006103515625</ele>
        <time>2025-10-25T12:41:47.000Z</time>
        <extensions>
          <ns3:TrackPointExtension>
            <ns3:hr>97</ns3:hr>
          </ns3:TrackPointExtension>
        </extensions>
      </trkpt>
      <trkpt lat="44.67755598016083240509033203125" lon="4.8134864307940006256103515625">
        <ele>142.600006103515625</ele>
        <time>2025-10-25T12:42:01.000Z</time>
        <extensions>
          <ns3:TrackPointExtension>
            <ns3:hr>97</ns3:hr>
          </ns3:TrackPointExtension>
        </extensions>
      </trkpt>
      <trkpt lat="44.6774534694850444793701171875" lon="4.8136948049068450927734375">
        <ele>143.1999969482421875</ele>
        <time>2025-10-25T12:42:16.000Z</time>
        <extensions>
          <ns3:TrackPointExtension>
            <ns3:hr>94</ns3:hr>
          </ns3:TrackPointExtension>
        </extensions>
      </trkpt>
      <trkpt lat="44.67740963213145732879638671875" lon="4.81381156481802463531494140625">
        <ele>143.399993896484375</ele>
        <time>2025-10-25T12:42:25.000Z</time>
        <extensions>
          <ns3:TrackPointExtension>
            <ns3:hr>91</ns3:hr>
          </ns3:TrackPointExtension>
        </extensions>
      </trkpt>
      <trkpt lat="44.677360095083713531494140625" lon="4.81393444351851940155029296875">
        <ele>143.600006103515625</ele>
        <time>2025-10-25T12:42:33.000Z</time>
        <extensions>
          <ns3:TrackPointExtension>
            <ns3:hr>91</ns3:hr>
          </ns3:TrackPointExtension>
        </extensions>
      </trkpt>
      <trkpt lat="44.6772881783545017242431640625" lon="4.81418137438595294952392578125">
        <ele>144.399993896484375</ele>
        <time>2025-10-25T12:42:48.000Z</time>
        <extensions>
          <ns3:TrackPointExtension>
            <ns3:hr>90</ns3:hr>
          </ns3:TrackPointExtension>
        </extensions>
      </trkpt>
      <trkpt lat="44.67726118862628936767578125" lon="4.814299978315830230712890625">
        <ele>144.600006103515625</ele>
        <time>2025-10-25T12:42:55.000Z</time>
        <extensions>
          <ns3:TrackPointExtension>
            <ns3:hr>93</ns3:hr>
          </ns3:TrackPointExtension>
        </extensions>
      </trkpt>
      <trkpt lat="44.677253477275371551513671875" lon="4.8143501020967960357666015625">
        <ele>144.600006103515625</ele>
        <time>2025-10-25T12:42:58.000Z</time>
        <extensions>
          <ns3:TrackPointExtension>
            <ns3:hr>93</ns3:hr>
          </ns3:TrackPointExtension>
        </extensions>
      </trkpt>
      <trkpt lat="44.6772080473601818084716796875" lon="4.8145982064306735992431640625">
        <ele>145.399993896484375</ele>
        <time>2025-10-25T12:43:13.000Z</time>
        <extensions>
          <ns3:TrackPointExtension>
            <ns3:hr>94</ns3:hr>
          </ns3:TrackPointExtension>
        </extensions>
      </trkpt>
      <trkpt lat="44.67721265740692615509033203125" lon="4.81470339931547641754150390625">
        <ele>145.8000030517578125</ele>
        <time>2025-10-25T12:43:21.000Z</time>
        <extensions>
          <ns3:TrackPointExtension>
            <ns3:hr>94</ns3:hr>
          </ns3:TrackPointExtension>
        </extensions>
      </trkpt>
      <trkpt lat="44.6772057004272937774658203125" lon="4.81478101573884487152099609375">
        <ele>146</ele>
        <time>2025-10-25T12:43:26.000Z</time>
        <extensions>
          <ns3:TrackPointExtension>
            <ns3:hr>91</ns3:hr>
          </ns3:TrackPointExtension>
        </extensions>
      </trkpt>
      <trkpt lat="44.677209891378879547119140625" lon="4.8148174770176410675048828125">
        <ele>146.1999969482421875</ele>
        <time>2025-10-25T12:43:28.000Z</time>
        <extensions>
          <ns3:TrackPointExtension>
            <ns3:hr>96</ns3:hr>
          </ns3:TrackPointExtension>
        </extensions>
      </trkpt>
      <trkpt lat="44.67721232213079929351806640625" lon="4.8148493282496929168701171875">
        <ele>146.1999969482421875</ele>
        <time>2025-10-25T12:43:30.000Z</time>
        <extensions>
          <ns3:TrackPointExtension>
            <ns3:hr>99</ns3:hr>
          </ns3:TrackPointExtension>
        </extensions>
      </trkpt>
      <trkpt lat="44.67723243869841098785400390625" lon="4.8149797506630420684814453125">
        <ele>146.8000030517578125</ele>
        <time>2025-10-25T12:43:38.000Z</time>
        <extensions>
          <ns3:TrackPointExtension>
            <ns3:hr>100</ns3:hr>
          </ns3:TrackPointExtension>
        </extensions>
      </trkpt>
      <trkpt lat="44.67725205235183238983154296875" lon="4.81513439677655696868896484375">
        <ele>147</ele>
        <time>2025-10-25T12:43:49.000Z</time>
        <extensions>
          <ns3:TrackPointExtension>
            <ns3:hr>97</ns3:hr>
          </ns3:TrackPointExtension>
        </extensions>
      </trkpt>
      <trkpt lat="44.67725775204598903656005859375" lon="4.81540261767804622650146484375">
        <ele>147.600006103515625</ele>
        <time>2025-10-25T12:44:05.000Z</time>
        <extensions>
          <ns3:TrackPointExtension>
            <ns3:hr>95</ns3:hr>
          </ns3:TrackPointExtension>
        </extensions>
      </trkpt>
      <trkpt lat="44.67726663686335086822509765625" lon="4.8154581896960735321044921875">
        <ele>147.8000030517578125</ele>
        <time>2025-10-25T12:44:08.000Z</time>
        <extensions>
          <ns3:TrackPointExtension>
            <ns3:hr>94</ns3:hr>
          </ns3:TrackPointExtension>
        </extensions>
      </trkpt>
      <trkpt lat="44.67728474177420139312744140625" lon="4.81571258045732975006103515625">
        <ele>148.1999969482421875</ele>
        <time>2025-10-25T12:44:24.000Z</time>
        <extensions>
          <ns3:TrackPointExtension>
            <ns3:hr>94</ns3:hr>
          </ns3:TrackPointExtension>
        </extensions>
      </trkpt>
      <trkpt lat="44.677322544157505035400390625" lon="4.8159104771912097930908203125">
        <ele>148.8000030517578125</ele>
        <time>2025-10-25T12:44:38.000Z</time>
        <extensions>
          <ns3:TrackPointExtension>
            <ns3:hr>94</ns3:hr>
          </ns3:TrackPointExtension>
        </extensions>
      </trkpt>
      <trkpt lat="44.67734090052545070648193359375" lon="4.81617660261690616607666015625">
        <ele>149.8000030517578125</ele>
        <time>2025-10-25T12:44:55.000Z</time>
        <extensions>
          <ns3:TrackPointExtension>
            <ns3:hr>95</ns3:hr>
          </ns3:TrackPointExtension>
        </extensions>
      </trkpt>
      <trkpt lat="44.67733670957386493682861328125" lon="4.816216416656970977783203125">
        <ele>149.8000030517578125</ele>
        <time>2025-10-25T12:44:57.000Z</time>
        <extensions>
          <ns3:TrackPointExtension>
            <ns3:hr>95</ns3:hr>
          </ns3:TrackPointExtension>
        </extensions>
      </trkpt>
      <trkpt lat="44.67734693549573421478271484375" lon="4.816477261483669281005859375">
        <ele>150.600006103515625</ele>
        <time>2025-10-25T12:45:13.000Z</time>
        <extensions>
          <ns3:TrackPointExtension>
            <ns3:hr>96</ns3:hr>
          </ns3:TrackPointExtension>
        </extensions>
      </trkpt>
      <trkpt lat="44.67736738733947277069091796875" lon="4.816636182367801666259765625">
        <ele>150.8000030517578125</ele>
        <time>2025-10-25T12:45:24.000Z</time>
        <extensions>
          <ns3:TrackPointExtension>
            <ns3:hr>94</ns3:hr>
          </ns3:TrackPointExtension>
        </extensions>
      </trkpt>
      <trkpt lat="44.6773716621100902557373046875" lon="4.81671698391437530517578125">
        <ele>151</ele>
        <time>2025-10-25T12:45:29.000Z</time>
        <extensions>
          <ns3:TrackPointExtension>
            <ns3:hr>97</ns3:hr>
          </ns3:TrackPointExtension>
        </extensions>
      </trkpt>
      <trkpt lat="44.6773793734610080718994140625" lon="4.8169558681547641754150390625">
        <ele>151.600006103515625</ele>
        <time>2025-10-25T12:45:41.000Z</time>
        <extensions>
          <ns3:TrackPointExtension>
            <ns3:hr>100</ns3:hr>
          </ns3:TrackPointExtension>
        </extensions>
      </trkpt>
      <trkpt lat="44.677382893860340118408203125" lon="4.81703482568264007568359375">
        <ele>152</ele>
        <time>2025-10-25T12:45:45.000Z</time>
        <extensions>
          <ns3:TrackPointExtension>
            <ns3:hr>102</ns3:hr>
          </ns3:TrackPointExtension>
        </extensions>
      </trkpt>
      <trkpt lat="44.67740644700825214385986328125" lon="4.81729307211935520172119140625">
        <ele>152.8000030517578125</ele>
        <time>2025-10-25T12:46:01.000Z</time>
        <extensions>
          <ns3:TrackPointExtension>
            <ns3:hr>102</ns3:hr>
          </ns3:TrackPointExtension>
        </extensions>
      </trkpt>
      <trkpt lat="44.6774135716259479522705078125" lon="4.81733498163521289825439453125">
        <ele>153</ele>
        <time>2025-10-25T12:46:04.000Z</time>
        <extensions>
          <ns3:TrackPointExtension>
            <ns3:hr>102</ns3:hr>
          </ns3:TrackPointExtension>
        </extensions>
      </trkpt>
      <trkpt lat="44.67747442424297332763671875" lon="4.8175759613513946533203125">
        <ele>153.399993896484375</ele>
        <time>2025-10-25T12:46:18.000Z</time>
        <extensions>
          <ns3:TrackPointExtension>
            <ns3:hr>101</ns3:hr>
          </ns3:TrackPointExtension>
        </extensions>
      </trkpt>
      <trkpt lat="44.67756335623562335968017578125" lon="4.81780403293669223785400390625">
        <ele>153.1999969482421875</ele>
        <time>2025-10-25T12:46:33.000Z</time>
        <extensions>
          <ns3:TrackPointExtension>
            <ns3:hr>99</ns3:hr>
          </ns3:TrackPointExtension>
        </extensions>
      </trkpt>
      <trkpt lat="44.6776154078543186187744140625" lon="4.81791702099144458770751953125">
        <ele>153.399993896484375</ele>
        <time>2025-10-25T12:46:40.000Z</time>
        <extensions>
          <ns3:TrackPointExtension>
            <ns3:hr>96</ns3:hr>
          </ns3:TrackPointExtension>
        </extensions>
      </trkpt>
      <trkpt lat="44.677665531635284423828125" lon="4.81799237430095672607421875">
        <ele>154.1999969482421875</ele>
        <time>2025-10-25T12:46:47.000Z</time>
        <extensions>
          <ns3:TrackPointExtension>
            <ns3:hr>98</ns3:hr>
          </ns3:TrackPointExtension>
        </extensions>
      </trkpt>
      <trkpt lat="44.677686989307403564453125" lon="4.8181655444204807281494140625">
        <ele>155.399993896484375</ele>
        <time>2025-10-25T12:46:58.000Z</time>
        <extensions>
          <ns3:TrackPointExtension>
            <ns3:hr>100</ns3:hr>
          </ns3:TrackPointExtension>
        </extensions>
      </trkpt>
      <trkpt lat="44.6776948682963848114013671875" lon="4.81823067180812358856201171875">
        <ele>155.399993896484375</ele>
        <time>2025-10-25T12:47:02.000Z</time>
        <extensions>
          <ns3:TrackPointExtension>
            <ns3:hr>103</ns3:hr>
          </ns3:TrackPointExtension>
        </extensions>
      </trkpt>
      <trkpt lat="44.6778252907097339630126953125" lon="4.8183197714388370513916015625">
        <ele>156.399993896484375</ele>
        <time>2025-10-25T12:47:18.000Z</time>
        <extensions>
          <ns3:TrackPointExtension>
            <ns3:hr>102</ns3:hr>
          </ns3:TrackPointExtension>
        </extensions>
      </trkpt>
      <trkpt lat="44.67795629985630512237548828125" lon="4.81829839758574962615966796875">
        <ele>157.399993896484375</ele>
        <time>2025-10-25T12:47:29.000Z</time>
        <extensions>
          <ns3:TrackPointExtension>
            <ns3:hr>104</ns3:hr>
          </ns3:TrackPointExtension>
        </extensions>
      </trkpt>
      <trkpt lat="44.67802939005196094512939453125" lon="4.81827802956104278564453125">
        <ele>158.399993896484375</ele>
        <time>2025-10-25T12:47:38.000Z</time>
        <extensions>
          <ns3:TrackPointExtension>
            <ns3:hr>106</ns3:hr>
          </ns3:TrackPointExtension>
        </extensions>
      </trkpt>
      <trkpt lat="44.67803508974611759185791015625" lon="4.818186499178409576416015625">
        <ele>159.399993896484375</ele>
        <time>2025-10-25T12:47:45.000Z</time>
        <extensions>
          <ns3:TrackPointExtension>
            <ns3:hr>107</ns3:hr>
          </ns3:TrackPointExtension>
        </extensions>
      </trkpt>
      <trkpt lat="44.67802637256681919097900390625" lon="4.81811768375337123870849609375">
        <ele>160</ele>
        <time>2025-10-25T12:47:50.000Z</time>
        <extensions>
          <ns3:TrackPointExtension>
            <ns3:hr>110</ns3:hr>
          </ns3:TrackPointExtension>
        </extensions>
      </trkpt>
      <trkpt lat="44.6780207566916942596435546875" lon="4.81805666349828243255615234375">
        <ele>160.399993896484375</ele>
        <time>2025-10-25T12:47:55.000Z</time>
        <extensions>
          <ns3:TrackPointExtension>
            <ns3:hr>110</ns3:hr>
          </ns3:TrackPointExtension>
        </extensions>
      </trkpt>
      <trkpt lat="44.67801094986498355865478515625" lon="4.8179704137146472930908203125">
        <ele>161.600006103515625</ele>
        <time>2025-10-25T12:48:03.000Z</time>
        <extensions>
          <ns3:TrackPointExtension>
            <ns3:hr>112</ns3:hr>
          </ns3:TrackPointExtension>
        </extensions>
      </trkpt>
      <trkpt lat="44.67801329679787158966064453125" lon="4.8178648017346858978271484375">
        <ele>162.600006103515625</ele>
        <time>2025-10-25T12:48:12.000Z</time>
        <extensions>
          <ns3:TrackPointExtension>
            <ns3:hr>113</ns3:hr>
          </ns3:TrackPointExtension>
        </extensions>
      </trkpt>
      <trkpt lat="44.6780140511691570281982421875" lon="4.81775726191699504852294921875">
        <ele>163.8000030517578125</ele>
        <time>2025-10-25T12:48:21.000Z</time>
        <extensions>
          <ns3:TrackPointExtension>
            <ns3:hr>111</ns3:hr>
          </ns3:TrackPointExtension>
        </extensions>
      </trkpt>
      <trkpt lat="44.67804129235446453094482421875" lon="4.817693643271923065185546875">
        <ele>164.600006103515625</ele>
        <time>2025-10-25T12:48:30.000Z</time>
        <extensions>
          <ns3:TrackPointExtension>
            <ns3:hr>114</ns3:hr>
          </ns3:TrackPointExtension>
        </extensions>
      </trkpt>
      <trkpt lat="44.67805671505630016326904296875" lon="4.8176877759397029876708984375">
        <ele>164.8000030517578125</ele>
        <time>2025-10-25T12:48:32.000Z</time>
        <extensions>
          <ns3:TrackPointExtension>
            <ns3:hr>114</ns3:hr>
          </ns3:TrackPointExtension>
        </extensions>
      </trkpt>
      <trkpt lat="44.67807096429169178009033203125" lon="4.8176981694996356964111328125">
        <ele>165</ele>
        <time>2025-10-25T12:48:34.000Z</time>
        <extensions>
          <ns3:TrackPointExtension>
            <ns3:hr>117</ns3:hr>
          </ns3:TrackPointExtension>
        </extensions>
      </trkpt>
      <trkpt lat="44.67809879221022129058837890625" lon="4.81775843538343906402587890625">
        <ele>165.8000030517578125</ele>
        <time>2025-10-25T12:48:41.000Z</time>
        <extensions>
          <ns3:TrackPointExtension>
            <ns3:hr>117</ns3:hr>
          </ns3:TrackPointExtension>
        </extensions>
      </trkpt>
      <trkpt lat="44.67811019159853458404541015625" lon="4.8178520612418651580810546875">
        <ele>167</ele>
        <time>2025-10-25T12:48:50.000Z</time>
        <extensions>
          <ns3:TrackPointExtension>
            <ns3:hr>115</ns3:hr>
          </ns3:TrackPointExtension>
        </extensions>
      </trkpt>
      <trkpt lat="44.6781183220446109771728515625" lon="4.81789447367191314697265625">
        <ele>168</ele>
        <time>2025-10-25T12:48:57.000Z</time>
        <extensions>
          <ns3:TrackPointExtension>
            <ns3:hr>115</ns3:hr>
          </ns3:TrackPointExtension>
        </extensions>
      </trkpt>
      <trkpt lat="44.67816375195980072021484375" lon="4.81805062852799892425537109375">
        <ele>169</ele>
        <time>2025-10-25T12:49:14.000Z</time>
        <extensions>
          <ns3:TrackPointExtension>
            <ns3:hr>113</ns3:hr>
          </ns3:TrackPointExtension>
        </extensions>
      </trkpt>
      <trkpt lat="44.67818680219352245330810546875" lon="4.8181373812258243560791015625">
        <ele>170.1999969482421875</ele>
        <time>2025-10-25T12:49:23.000Z</time>
        <extensions>
          <ns3:TrackPointExtension>
            <ns3:hr>115</ns3:hr>
          </ns3:TrackPointExtension>
        </extensions>
      </trkpt>
      <trkpt lat="44.6782155521214008331298828125" lon="4.81820669956505298614501953125">
        <ele>171.399993896484375</ele>
        <time>2025-10-25T12:49:29.000Z</time>
        <extensions>
          <ns3:TrackPointExtension>
            <ns3:hr>116</ns3:hr>
          </ns3:TrackPointExtension>
        </extensions>
      </trkpt>
      <trkpt lat="44.67824044637382030487060546875" lon="4.8182607628405094146728515625">
        <ele>172.399993896484375</ele>
        <time>2025-10-25T12:49:35.000Z</time>
        <extensions>
          <ns3:TrackPointExtension>
            <ns3:hr>117</ns3:hr>
          </ns3:TrackPointExtension>
        </extensions>
      </trkpt>
      <trkpt lat="44.678281433880329132080078125" lon="4.818343408405780792236328125">
        <ele>173.399993896484375</ele>
        <time>2025-10-25T12:49:44.000Z</time>
        <extensions>
          <ns3:TrackPointExtension>
            <ns3:hr>116</ns3:hr>
          </ns3:TrackPointExtension>
        </extensions>
      </trkpt>
      <trkpt lat="44.67829828150570392608642578125" lon="4.81839579530060291290283203125">
        <ele>174.600006103515625</ele>
        <time>2025-10-25T12:49:51.000Z</time>
        <extensions>
          <ns3:TrackPointExtension>
            <ns3:hr>115</ns3:hr>
          </ns3:TrackPointExtension>
        </extensions>
      </trkpt>
      <trkpt lat="44.678329713642597198486328125" lon="4.8184548877179622650146484375">
        <ele>175.600006103515625</ele>
        <time>2025-10-25T12:50:01.000Z</time>
        <extensions>
          <ns3:TrackPointExtension>
            <ns3:hr>118</ns3:hr>
          </ns3:TrackPointExtension>
        </extensions>
      </trkpt>
      <trkpt lat="44.67835796065628528594970703125" lon="4.81850777752697467803955078125">
        <ele>176.600006103515625</ele>
        <time>2025-10-25T12:50:08.000Z</time>
        <extensions>
          <ns3:TrackPointExtension>
            <ns3:hr>118</ns3:hr>
          </ns3:TrackPointExtension>
        </extensions>
      </trkpt>
      <trkpt lat="44.67837832868099212646484375" lon="4.81858103536069393157958984375">
        <ele>177.600006103515625</ele>
        <time>2025-10-25T12:50:16.000Z</time>
        <extensions>
          <ns3:TrackPointExtension>
            <ns3:hr>118</ns3:hr>
          </ns3:TrackPointExtension>
        </extensions>
      </trkpt>
      <trkpt lat="44.67839215882122516632080078125" lon="4.81862344779074192047119140625">
        <ele>178.600006103515625</ele>
        <time>2025-10-25T12:50:21.000Z</time>
        <extensions>
          <ns3:TrackPointExtension>
            <ns3:hr>118</ns3:hr>
          </ns3:TrackPointExtension>
        </extensions>
      </trkpt>
      <trkpt lat="44.678408168256282806396484375" lon="4.81866250745952129364013671875">
        <ele>179.8000030517578125</ele>
        <time>2025-10-25T12:50:26.000Z</time>
        <extensions>
          <ns3:TrackPointExtension>
            <ns3:hr>118</ns3:hr>
          </ns3:TrackPointExtension>
        </extensions>
      </trkpt>
      <trkpt lat="44.6784205734729766845703125" lon="4.8187546245753765106201171875">
        <ele>180.8000030517578125</ele>
        <time>2025-10-25T12:50:34.000Z</time>
        <extensions>
          <ns3:TrackPointExtension>
            <ns3:hr>120</ns3:hr>
          </ns3:TrackPointExtension>
        </extensions>
      </trkpt>
      <trkpt lat="44.6784125268459320068359375" lon="4.81885093264281749725341796875">
        <ele>181.8000030517578125</ele>
        <time>2025-10-25T12:50:41.000Z</time>
        <extensions>
          <ns3:TrackPointExtension>
            <ns3:hr>120</ns3:hr>
          </ns3:TrackPointExtension>
        </extensions>
      </trkpt>
      <trkpt lat="44.67841579578816890716552734375" lon="4.8189641721546649932861328125">
        <ele>183</ele>
        <time>2025-10-25T12:50:49.000Z</time>
        <extensions>
          <ns3:TrackPointExtension>
            <ns3:hr>121</ns3:hr>
          </ns3:TrackPointExtension>
        </extensions>
      </trkpt>
      <trkpt lat="44.67841780744493007659912109375" lon="4.81907405890524387359619140625">
        <ele>184</ele>
        <time>2025-10-25T12:50:56.000Z</time>
        <extensions>
          <ns3:TrackPointExtension>
            <ns3:hr>120</ns3:hr>
          </ns3:TrackPointExtension>
        </extensions>
      </trkpt>
      <trkpt lat="44.67841722071170806884765625" lon="4.81920917518436908721923828125">
        <ele>185.1999969482421875</ele>
        <time>2025-10-25T12:51:05.000Z</time>
        <extensions>
          <ns3:TrackPointExtension>
            <ns3:hr>122</ns3:hr>
          </ns3:TrackPointExtension>
        </extensions>
      </trkpt>
      <trkpt lat="44.67844345606863498687744140625" lon="4.81931948103010654449462890625">
        <ele>186.1999969482421875</ele>
        <time>2025-10-25T12:51:13.000Z</time>
        <extensions>
          <ns3:TrackPointExtension>
            <ns3:hr>121</ns3:hr>
          </ns3:TrackPointExtension>
        </extensions>
      </trkpt>
      <trkpt lat="44.6784831024706363677978515625" lon="4.8194164596498012542724609375">
        <ele>187.1999969482421875</ele>
        <time>2025-10-25T12:51:21.000Z</time>
        <extensions>
          <ns3:TrackPointExtension>
            <ns3:hr>122</ns3:hr>
          </ns3:TrackPointExtension>
        </extensions>
      </trkpt>
      <trkpt lat="44.67848301865160465240478515625" lon="4.81941956095397472381591796875">
        <ele>188.1999969482421875</ele>
        <time>2025-10-25T12:51:29.000Z</time>
        <extensions>
          <ns3:TrackPointExtension>
            <ns3:hr>121</ns3:hr>
          </ns3:TrackPointExtension>
        </extensions>
      </trkpt>
      <trkpt lat="44.67850707471370697021484375" lon="4.81945686042308807373046875">
        <ele>188.399993896484375</ele>
        <time>2025-10-25T12:51:35.000Z</time>
        <extensions>
          <ns3:TrackPointExtension>
            <ns3:hr>119</ns3:hr>
          </ns3:TrackPointExtension>
        </extensions>
      </trkpt>
      <trkpt lat="44.67853255569934844970703125" lon="4.8195217363536357879638671875">
        <ele>188.600006103515625</ele>
        <time>2025-10-25T12:51:42.000Z</time>
        <extensions>
          <ns3:TrackPointExtension>
            <ns3:hr>115</ns3:hr>
          </ns3:TrackPointExtension>
        </extensions>
      </trkpt>
      <trkpt lat="44.6785447932779788970947265625" lon="4.8195743747055530548095703125">
        <ele>188.8000030517578125</ele>
        <time>2025-10-25T12:51:46.000Z</time>
        <extensions>
          <ns3:TrackPointExtension>
            <ns3:hr>112</ns3:hr>
          </ns3:TrackPointExtension>
        </extensions>
      </trkpt>
      <trkpt lat="44.6785675920546054840087890625" lon="4.819643609225749969482421875">
        <ele>189.399993896484375</ele>
        <time>2025-10-25T12:51:52.000Z</time>
        <extensions>
          <ns3:TrackPointExtension>
            <ns3:hr>111</ns3:hr>
          </ns3:TrackPointExtension>
        </extensions>
      </trkpt>
      <trkpt lat="44.67859097756445407867431640625" lon="4.81973086483776569366455078125">
        <ele>190.1999969482421875</ele>
        <time>2025-10-25T12:51:59.000Z</time>
        <extensions>
          <ns3:TrackPointExtension>
            <ns3:hr>114</ns3:hr>
          </ns3:TrackPointExtension>
        </extensions>
      </trkpt>
      <trkpt lat="44.67859080992639064788818359375" lon="4.81975500471889972686767578125">
        <ele>190.600006103515625</ele>
        <time>2025-10-25T12:52:01.000Z</time>
        <extensions>
          <ns3:TrackPointExtension>
            <ns3:hr>115</ns3:hr>
          </ns3:TrackPointExtension>
        </extensions>
      </trkpt>
      <trkpt lat="44.67859131284058094024658203125" lon="4.81983446516096591949462890625">
        <ele>191.600006103515625</ele>
        <time>2025-10-25T12:52:08.000Z</time>
        <extensions>
          <ns3:TrackPointExtension>
            <ns3:hr>113</ns3:hr>
          </ns3:TrackPointExtension>
        </extensions>
      </trkpt>
      <trkpt lat="44.67863489873707294464111328125" lon="4.81990520842373371124267578125">
        <ele>192.600006103515625</ele>
        <time>2025-10-25T12:52:16.000Z</time>
        <extensions>
          <ns3:TrackPointExtension>
            <ns3:hr>113</ns3:hr>
          </ns3:TrackPointExtension>
        </extensions>
      </trkpt>
      <trkpt lat="44.67864495702087879180908203125" lon="4.81999120675027370452880859375">
        <ele>193.399993896484375</ele>
        <time>2025-10-25T12:52:24.000Z</time>
        <extensions>
          <ns3:TrackPointExtension>
            <ns3:hr>110</ns3:hr>
          </ns3:TrackPointExtension>
        </extensions>
      </trkpt>
      <trkpt lat="44.67864252626895904541015625" lon="4.82003160752356052398681640625">
        <ele>193.8000030517578125</ele>
        <time>2025-10-25T12:52:28.000Z</time>
        <extensions>
          <ns3:TrackPointExtension>
            <ns3:hr>110</ns3:hr>
          </ns3:TrackPointExtension>
        </extensions>
      </trkpt>
      <trkpt lat="44.67864193953573703765869140625" lon="4.82007670216262340545654296875">
        <ele>194.600006103515625</ele>
        <time>2025-10-25T12:52:34.000Z</time>
        <extensions>
          <ns3:TrackPointExtension>
            <ns3:hr>113</ns3:hr>
          </ns3:TrackPointExtension>
        </extensions>
      </trkpt>
      <trkpt lat="44.678641855716705322265625" lon="4.8200836591422557830810546875">
        <ele>194.8000030517578125</ele>
        <time>2025-10-25T12:52:35.000Z</time>
        <extensions>
          <ns3:TrackPointExtension>
            <ns3:hr>113</ns3:hr>
          </ns3:TrackPointExtension>
        </extensions>
      </trkpt>
      <trkpt lat="44.6786302886903285980224609375" lon="4.82019438408315181732177734375">
        <ele>195.8000030517578125</ele>
        <time>2025-10-25T12:52:45.000Z</time>
        <extensions>
          <ns3:TrackPointExtension>
            <ns3:hr>114</ns3:hr>
          </ns3:TrackPointExtension>
        </extensions>
      </trkpt>
      <trkpt lat="44.6786296181380748748779296875" lon="4.8202868364751338958740234375">
        <ele>196.8000030517578125</ele>
        <time>2025-10-25T12:52:53.000Z</time>
        <extensions>
          <ns3:TrackPointExtension>
            <ns3:hr>114</ns3:hr>
          </ns3:TrackPointExtension>
        </extensions>
      </trkpt>
      <trkpt lat="44.6786463819444179534912109375" lon="4.82040141709148883819580078125">
        <ele>198</ele>
        <time>2025-10-25T12:53:01.000Z</time>
        <extensions>
          <ns3:TrackPointExtension>
            <ns3:hr>115</ns3:hr>
          </ns3:TrackPointExtension>
        </extensions>
      </trkpt>
      <trkpt lat="44.6786646544933319091796875" lon="4.820486493408679962158203125">
        <ele>199</ele>
        <time>2025-10-25T12:53:09.000Z</time>
        <extensions>
          <ns3:TrackPointExtension>
            <ns3:hr>118</ns3:hr>
          </ns3:TrackPointExtension>
        </extensions>
      </trkpt>
      <trkpt lat="44.67866540886461734771728515625" lon="4.820499233901500701904296875">
        <ele>199</ele>
        <time>2025-10-25T12:53:10.000Z</time>
        <extensions>
          <ns3:TrackPointExtension>
            <ns3:hr>118</ns3:hr>
          </ns3:TrackPointExtension>
        </extensions>
      </trkpt>
      <trkpt lat="44.67867337167263031005859375" lon="4.82059621252119541168212890625">
        <ele>200.1999969482421875</ele>
        <time>2025-10-25T12:53:17.000Z</time>
        <extensions>
          <ns3:TrackPointExtension>
            <ns3:hr>118</ns3:hr>
          </ns3:TrackPointExtension>
        </extensions>
      </trkpt>
      <trkpt lat="44.678695835173130035400390625" lon="4.82066058553755283355712890625">
        <ele>201.1999969482421875</ele>
        <time>2025-10-25T12:53:24.000Z</time>
        <extensions>
          <ns3:TrackPointExtension>
            <ns3:hr>119</ns3:hr>
          </ns3:TrackPointExtension>
        </extensions>
      </trkpt>
      <trkpt lat="44.6787345595657825469970703125" lon="4.82074004597961902618408203125">
        <ele>202.399993896484375</ele>
        <time>2025-10-25T12:53:32.000Z</time>
        <extensions>
          <ns3:TrackPointExtension>
            <ns3:hr>119</ns3:hr>
          </ns3:TrackPointExtension>
        </extensions>
      </trkpt>
      <trkpt lat="44.67876666225492954254150390625" lon="4.8207964561879634857177734375">
        <ele>203.399993896484375</ele>
        <time>2025-10-25T12:53:39.000Z</time>
        <extensions>
          <ns3:TrackPointExtension>
            <ns3:hr>121</ns3:hr>
          </ns3:TrackPointExtension>
        </extensions>
      </trkpt>
      <trkpt lat="44.67879147268831729888916015625" lon="4.8208628408610820770263671875">
        <ele>204.600006103515625</ele>
        <time>2025-10-25T12:53:47.000Z</time>
        <extensions>
          <ns3:TrackPointExtension>
            <ns3:hr>120</ns3:hr>
          </ns3:TrackPointExtension>
        </extensions>
      </trkpt>
      <trkpt lat="44.6788009442389011383056640625" lon="4.820929057896137237548828125">
        <ele>205.600006103515625</ele>
        <time>2025-10-25T12:53:53.000Z</time>
        <extensions>
          <ns3:TrackPointExtension>
            <ns3:hr>120</ns3:hr>
          </ns3:TrackPointExtension>
        </extensions>
      </trkpt>
      <trkpt lat="44.6788227371871471405029296875" lon="4.8210170678794384002685546875">
        <ele>206.8000030517578125</ele>
        <time>2025-10-25T12:54:02.000Z</time>
        <extensions>
          <ns3:TrackPointExtension>
            <ns3:hr>119</ns3:hr>
          </ns3:TrackPointExtension>
        </extensions>
      </trkpt>
      <trkpt lat="44.67882935889065265655517578125" lon="4.821096695959568023681640625">
        <ele>207.8000030517578125</ele>
        <time>2025-10-25T12:54:09.000Z</time>
        <extensions>
          <ns3:TrackPointExtension>
            <ns3:hr>122</ns3:hr>
          </ns3:TrackPointExtension>
        </extensions>
      </trkpt>
      <trkpt lat="44.6788274310529232025146484375" lon="4.82110499404370784759521484375">
        <ele>207.8000030517578125</ele>
        <time>2025-10-25T12:54:10.000Z</time>
        <extensions>
          <ns3:TrackPointExtension>
            <ns3:hr>123</ns3:hr>
          </ns3:TrackPointExtension>
        </extensions>
      </trkpt>
      <trkpt lat="44.67883958481252193450927734375" lon="4.821161068975925445556640625">
        <ele>209</ele>
        <time>2025-10-25T12:54:18.000Z</time>
        <extensions>
          <ns3:TrackPointExtension>
            <ns3:hr>124</ns3:hr>
          </ns3:TrackPointExtension>
        </extensions>
      </trkpt>
      <trkpt lat="44.6788549236953258514404296875" lon="4.82121831737458705902099609375">
        <ele>210</ele>
        <time>2025-10-25T12:54:24.000Z</time>
        <extensions>
          <ns3:TrackPointExtension>
            <ns3:hr>124</ns3:hr>
          </ns3:TrackPointExtension>
        </extensions>
      </trkpt>
      <trkpt lat="44.6788711845874786376953125" lon="4.82128989882767200469970703125">
        <ele>211</ele>
        <time>2025-10-25T12:54:32.000Z</time>
        <extensions>
          <ns3:TrackPointExtension>
            <ns3:hr>123</ns3:hr>
          </ns3:TrackPointExtension>
        </extensions>
      </trkpt>
      <trkpt lat="44.67889876104891300201416015625" lon="4.8213231749832630157470703125">
        <ele>212.1999969482421875</ele>
        <time>2025-10-25T12:54:38.000Z</time>
        <extensions>
          <ns3:TrackPointExtension>
            <ns3:hr>124</ns3:hr>
          </ns3:TrackPointExtension>
        </extensions>
      </trkpt>
      <trkpt lat="44.6789085678756237030029296875" lon="4.8213738016784191131591796875">
        <ele>213.1999969482421875</ele>
        <time>2025-10-25T12:54:44.000Z</time>
        <extensions>
          <ns3:TrackPointExtension>
            <ns3:hr>123</ns3:hr>
          </ns3:TrackPointExtension>
        </extensions>
      </trkpt>
      <trkpt lat="44.678931534290313720703125" lon="4.8214371688663959503173828125">
        <ele>214.1999969482421875</ele>
        <time>2025-10-25T12:54:51.000Z</time>
        <extensions>
          <ns3:TrackPointExtension>
            <ns3:hr>122</ns3:hr>
          </ns3:TrackPointExtension>
        </extensions>
      </trkpt>
      <trkpt lat="44.67894603498280048370361328125" lon="4.82147991657257080078125">
        <ele>215.399993896484375</ele>
        <time>2025-10-25T12:54:56.000Z</time>
        <extensions>
          <ns3:TrackPointExtension>
            <ns3:hr>122</ns3:hr>
          </ns3:TrackPointExtension>
        </extensions>
      </trkpt>
      <trkpt lat="44.6789652295410633087158203125" lon="4.8215813376009464263916015625">
        <ele>216.600006103515625</ele>
        <time>2025-10-25T12:55:04.000Z</time>
        <extensions>
          <ns3:TrackPointExtension>
            <ns3:hr>121</ns3:hr>
          </ns3:TrackPointExtension>
        </extensions>
      </trkpt>
      <trkpt lat="44.67899833805859088897705078125" lon="4.82165702618658542633056640625">
        <ele>217.600006103515625</ele>
        <time>2025-10-25T12:55:12.000Z</time>
        <extensions>
          <ns3:TrackPointExtension>
            <ns3:hr>123</ns3:hr>
          </ns3:TrackPointExtension>
        </extensions>
      </trkpt>
      <trkpt lat="44.6790373139083385467529296875" lon="4.82170061208307743072509765625">
        <ele>218.8000030517578125</ele>
        <time>2025-10-25T12:55:18.000Z</time>
        <extensions>
          <ns3:TrackPointExtension>
            <ns3:hr>122</ns3:hr>
          </ns3:TrackPointExtension>
        </extensions>
      </trkpt>
      <trkpt lat="44.6790750324726104736328125" lon="4.82170145027339458465576171875">
        <ele>219.8000030517578125</ele>
        <time>2025-10-25T12:55:22.000Z</time>
        <extensions>
          <ns3:TrackPointExtension>
            <ns3:hr>125</ns3:hr>
          </ns3:TrackPointExtension>
        </extensions>
      </trkpt>
      <trkpt lat="44.67908198945224285125732421875" lon="4.82170698232948780059814453125">
        <ele>220</ele>
        <time>2025-10-25T12:55:23.000Z</time>
        <extensions>
          <ns3:TrackPointExtension>
            <ns3:hr>127</ns3:hr>
          </ns3:TrackPointExtension>
        </extensions>
      </trkpt>
      <trkpt lat="44.67909774743020534515380859375" lon="4.82175149023532867431640625">
        <ele>221.1999969482421875</ele>
        <time>2025-10-25T12:55:30.000Z</time>
        <extensions>
          <ns3:TrackPointExtension>
            <ns3:hr>129</ns3:hr>
          </ns3:TrackPointExtension>
        </extensions>
      </trkpt>
      <trkpt lat="44.6790939755737781524658203125" lon="4.82176029123365879058837890625">
        <ele>221.399993896484375</ele>
        <time>2025-10-25T12:55:35.000Z</time>
        <extensions>
          <ns3:TrackPointExtension>
            <ns3:hr>125</ns3:hr>
          </ns3:TrackPointExtension>
        </extensions>
      </trkpt>
      <trkpt lat="44.67909271828830242156982421875" lon="4.821759872138500213623046875">
        <ele>221.399993896484375</ele>
        <time>2025-10-25T12:55:36.000Z</time>
        <extensions>
          <ns3:TrackPointExtension>
            <ns3:hr>122</ns3:hr>
          </ns3:TrackPointExtension>
        </extensions>
      </trkpt>
      <trkpt lat="44.6790922991931438446044921875" lon="4.8217580281198024749755859375">
        <ele>221.399993896484375</ele>
        <time>2025-10-25T12:55:37.000Z</time>
        <extensions>
          <ns3:TrackPointExtension>
            <ns3:hr>122</ns3:hr>
          </ns3:TrackPointExtension>
        </extensions>
      </trkpt>
      <trkpt lat="44.679090119898319244384765625" lon="4.821745790541172027587890625">
        <ele>221.600006103515625</ele>
        <time>2025-10-25T12:55:43.000Z</time>
        <extensions>
          <ns3:TrackPointExtension>
            <ns3:hr>118</ns3:hr>
          </ns3:TrackPointExtension>
        </extensions>
      </trkpt>
      <trkpt lat="44.67909045517444610595703125" lon="4.8217456229031085968017578125">
        <ele>221.600006103515625</ele>
        <time>2025-10-25T12:55:46.000Z</time>
        <extensions>
          <ns3:TrackPointExtension>
            <ns3:hr>116</ns3:hr>
          </ns3:TrackPointExtension>
        </extensions>
      </trkpt>
      <trkpt lat="44.67906002886593341827392578125" lon="4.8217348940670490264892578125">
        <ele>221.600006103515625</ele>
        <time>2025-10-25T12:57:34.000Z</time>
        <extensions>
          <ns3:TrackPointExtension>
            <ns3:hr>88</ns3:hr>
          </ns3:TrackPointExtension>
        </extensions>
      </trkpt>
      <trkpt lat="44.6790611185133457183837890625" lon="4.82173313386738300323486328125">
        <ele>221.600006103515625</ele>
        <time>2025-10-25T12:57:35.000Z</time>
        <extensions>
          <ns3:TrackPointExtension>
            <ns3:hr>88</ns3:hr>
          </ns3:TrackPointExtension>
        </extensions>
      </trkpt>
      <trkpt lat="44.6790644712746143341064453125" lon="4.8217204771935939788818359375">
        <ele>221.600006103515625</ele>
        <time>2025-10-25T12:57:41.000Z</time>
        <extensions>
          <ns3:TrackPointExtension>
            <ns3:hr>88</ns3:hr>
          </ns3:TrackPointExtension>
        </extensions>
      </trkpt>
      <trkpt lat="44.67906606383621692657470703125" lon="4.8218274302780628204345703125">
        <ele>220.8000030517578125</ele>
        <time>2025-10-25T12:59:00.000Z</time>
        <extensions>
          <ns3:TrackPointExtension>
            <ns3:hr>89</ns3:hr>
          </ns3:TrackPointExtension>
        </extensions>
      </trkpt>
      <trkpt lat="44.67906489036977291107177734375" lon="4.82183639891445636749267578125">
        <ele>220.8000030517578125</ele>
        <time>2025-10-25T12:59:01.000Z</time>
        <extensions>
          <ns3:TrackPointExtension>
            <ns3:hr>92</ns3:hr>
          </ns3:TrackPointExtension>
        </extensions>
      </trkpt>
      <trkpt lat="44.67906254343688488006591796875" lon="4.82185366563498973846435546875">
        <ele>220.8000030517578125</ele>
        <time>2025-10-25T12:59:04.000Z</time>
        <extensions>
          <ns3:TrackPointExtension>
            <ns3:hr>89</ns3:hr>
          </ns3:TrackPointExtension>
        </extensions>
      </trkpt>
      <trkpt lat="44.67906229197978973388671875" lon="4.821858108043670654296875">
        <ele>220.8000030517578125</ele>
        <time>2025-10-25T12:59:06.000Z</time>
        <extensions>
          <ns3:TrackPointExtension>
            <ns3:hr>87</ns3:hr>
          </ns3:TrackPointExtension>
        </extensions>
      </trkpt>
      <trkpt lat="44.6790953166782855987548828125" lon="4.821788035333156585693359375">
        <ele>221</ele>
        <time>2025-10-25T13:01:58.000Z</time>
        <extensions>
          <ns3:TrackPointExtension>
            <ns3:hr>77</ns3:hr>
          </ns3:TrackPointExtension>
        </extensions>
      </trkpt>
      <trkpt lat="44.6790946461260318756103515625" lon="4.82178778387606143951416015625">
        <ele>221</ele>
        <time>2025-10-25T13:01:59.000Z</time>
        <extensions>
          <ns3:TrackPointExtension>
            <ns3:hr>77</ns3:hr>
          </ns3:TrackPointExtension>
        </extensions>
      </trkpt>
      <trkpt lat="44.67909556813538074493408203125" lon="4.82178996317088603973388671875">
        <ele>221</ele>
        <time>2025-10-25T13:02:01.000Z</time>
        <extensions>
          <ns3:TrackPointExtension>
            <ns3:hr>77</ns3:hr>
          </ns3:TrackPointExtension>
        </extensions>
      </trkpt>
      <trkpt lat="44.67909204773604869842529296875" lon="4.82181276194751262664794921875">
        <ele>221.399993896484375</ele>
        <time>2025-10-25T13:04:42.000Z</time>
        <extensions>
          <ns3:TrackPointExtension>
            <ns3:hr>83</ns3:hr>
          </ns3:TrackPointExtension>
        </extensions>
      </trkpt>
      <trkpt lat="44.67909179627895355224609375" lon="4.82181376777589321136474609375">
        <ele>221.399993896484375</ele>
        <time>2025-10-25T13:04:43.000Z</time>
        <extensions>
          <ns3:TrackPointExtension>
            <ns3:hr>83</ns3:hr>
          </ns3:TrackPointExtension>
        </extensions>
      </trkpt>
      <trkpt lat="44.6790897846221923828125" lon="4.82181477360427379608154296875">
        <ele>221.399993896484375</ele>
        <time>2025-10-25T13:04:44.000Z</time>
        <extensions>
          <ns3:TrackPointExtension>
            <ns3:hr>82</ns3:hr>
          </ns3:TrackPointExtension>
        </extensions>
      </trkpt>
      <trkpt lat="44.6791006810963153839111328125" lon="4.82175710611045360565185546875">
        <ele>221.399993896484375</ele>
        <time>2025-10-25T13:05:11.000Z</time>
        <extensions>
          <ns3:TrackPointExtension>
            <ns3:hr>81</ns3:hr>
          </ns3:TrackPointExtension>
        </extensions>
      </trkpt>
      <trkpt lat="44.679143093526363372802734375" lon="4.82170647941529750823974609375">
        <ele>221.1999969482421875</ele>
        <time>2025-10-25T13:05:19.000Z</time>
        <extensions>
          <ns3:TrackPointExtension>
            <ns3:hr>80</ns3:hr>
          </ns3:TrackPointExtension>
        </extensions>
      </trkpt>
      <trkpt lat="44.67917351983487606048583984375" lon="4.82168988324701786041259765625">
        <ele>221.600006103515625</ele>
        <time>2025-10-25T13:05:23.000Z</time>
        <extensions>
          <ns3:TrackPointExtension>
            <ns3:hr>78</ns3:hr>
          </ns3:TrackPointExtension>
        </extensions>
      </trkpt>
      <trkpt lat="44.67919447459280490875244140625" lon="4.82167311944067478179931640625">
        <ele>221.600006103515625</ele>
        <time>2025-10-25T13:05:25.000Z</time>
        <extensions>
          <ns3:TrackPointExtension>
            <ns3:hr>78</ns3:hr>
          </ns3:TrackPointExtension>
        </extensions>
      </trkpt>
      <trkpt lat="44.6792284213006496429443359375" lon="4.8216802440583705902099609375">
        <ele>221.8000030517578125</ele>
        <time>2025-10-25T13:05:28.000Z</time>
        <extensions>
          <ns3:TrackPointExtension>
            <ns3:hr>81</ns3:hr>
          </ns3:TrackPointExtension>
        </extensions>
      </trkpt>
      <trkpt lat="44.67923839576542377471923828125" lon="4.8216829262673854827880859375">
        <ele>221.8000030517578125</ele>
        <time>2025-10-25T13:05:29.000Z</time>
        <extensions>
          <ns3:TrackPointExtension>
            <ns3:hr>85</ns3:hr>
          </ns3:TrackPointExtension>
        </extensions>
      </trkpt>
      <trkpt lat="44.67924728058278560638427734375" lon="4.82168418355286121368408203125">
        <ele>222</ele>
        <time>2025-10-25T13:05:30.000Z</time>
        <extensions>
          <ns3:TrackPointExtension>
            <ns3:hr>88</ns3:hr>
          </ns3:TrackPointExtension>
        </extensions>
      </trkpt>
      <trkpt lat="44.67925809323787689208984375" lon="4.82168485410511493682861328125">
        <ele>222</ele>
        <time>2025-10-25T13:05:31.000Z</time>
        <extensions>
          <ns3:TrackPointExtension>
            <ns3:hr>92</ns3:hr>
          </ns3:TrackPointExtension>
        </extensions>
      </trkpt>
      <trkpt lat="44.67926873825490474700927734375" lon="4.821685440838336944580078125">
        <ele>222.1999969482421875</ele>
        <time>2025-10-25T13:05:32.000Z</time>
        <extensions>
          <ns3:TrackPointExtension>
            <ns3:hr>93</ns3:hr>
          </ns3:TrackPointExtension>
        </extensions>
      </trkpt>
      <trkpt lat="44.6793518029153347015380859375" lon="4.8216738738119602203369140625">
        <ele>223.1999969482421875</ele>
        <time>2025-10-25T13:05:42.000Z</time>
        <extensions>
          <ns3:TrackPointExtension>
            <ns3:hr>100</ns3:hr>
          </ns3:TrackPointExtension>
        </extensions>
      </trkpt>
      <trkpt lat="44.67936010099947452545166015625" lon="4.8216725327074527740478515625">
        <ele>223.1999969482421875</ele>
        <time>2025-10-25T13:05:43.000Z</time>
        <extensions>
          <ns3:TrackPointExtension>
            <ns3:hr>105</ns3:hr>
          </ns3:TrackPointExtension>
        </extensions>
      </trkpt>
      <trkpt lat="44.67940620146691799163818359375" lon="4.8216698504984378814697265625">
        <ele>223.1999969482421875</ele>
        <time>2025-10-25T13:05:48.000Z</time>
        <extensions>
          <ns3:TrackPointExtension>
            <ns3:hr>108</ns3:hr>
          </ns3:TrackPointExtension>
        </extensions>
      </trkpt>
      <trkpt lat="44.67946621589362621307373046875" lon="4.821680076420307159423828125">
        <ele>223.600006103515625</ele>
        <time>2025-10-25T13:05:54.000Z</time>
        <extensions>
          <ns3:TrackPointExtension>
            <ns3:hr>112</ns3:hr>
          </ns3:TrackPointExtension>
        </extensions>
      </trkpt>
      <trkpt lat="44.6794822253286838531494140625" lon="4.82168535701930522918701171875">
        <ele>223.8000030517578125</ele>
        <time>2025-10-25T13:05:56.000Z</time>
        <extensions>
          <ns3:TrackPointExtension>
            <ns3:hr>109</ns3:hr>
          </ns3:TrackPointExtension>
        </extensions>
      </trkpt>
      <trkpt lat="44.67949002049863338470458984375" lon="4.82169239781796932220458984375">
        <ele>223.8000030517578125</ele>
        <time>2025-10-25T13:05:57.000Z</time>
        <extensions>
          <ns3:TrackPointExtension>
            <ns3:hr>106</ns3:hr>
          </ns3:TrackPointExtension>
        </extensions>
      </trkpt>
      <trkpt lat="44.67950175516307353973388671875" lon="4.82171067036688327789306640625">
        <ele>223.8000030517578125</ele>
        <time>2025-10-25T13:05:59.000Z</time>
        <extensions>
          <ns3:TrackPointExtension>
            <ns3:hr>109</ns3:hr>
          </ns3:TrackPointExtension>
        </extensions>
      </trkpt>
      <trkpt lat="44.6795124001801013946533203125" lon="4.82174604199826717376708984375">
        <ele>224.1999969482421875</ele>
        <time>2025-10-25T13:06:02.000Z</time>
        <extensions>
          <ns3:TrackPointExtension>
            <ns3:hr>106</ns3:hr>
          </ns3:TrackPointExtension>
        </extensions>
      </trkpt>
      <trkpt lat="44.679514579474925994873046875" lon="4.82176079414784908294677734375">
        <ele>224.1999969482421875</ele>
        <time>2025-10-25T13:06:03.000Z</time>
        <extensions>
          <ns3:TrackPointExtension>
            <ns3:hr>104</ns3:hr>
          </ns3:TrackPointExtension>
        </extensions>
      </trkpt>
      <trkpt lat="44.67951801605522632598876953125" lon="4.821787364780902862548828125">
        <ele>224.1999969482421875</ele>
        <time>2025-10-25T13:06:05.000Z</time>
        <extensions>
          <ns3:TrackPointExtension>
            <ns3:hr>101</ns3:hr>
          </ns3:TrackPointExtension>
        </extensions>
      </trkpt>
      <trkpt lat="44.67951969243586063385009765625" lon="4.8218244127929210662841796875">
        <ele>224.600006103515625</ele>
        <time>2025-10-25T13:06:08.000Z</time>
        <extensions>
          <ns3:TrackPointExtension>
            <ns3:hr>98</ns3:hr>
          </ns3:TrackPointExtension>
        </extensions>
      </trkpt>
      <trkpt lat="44.679525978863239288330078125" lon="4.82186255045235157012939453125">
        <ele>224.600006103515625</ele>
        <time>2025-10-25T13:06:11.000Z</time>
        <extensions>
          <ns3:TrackPointExtension>
            <ns3:hr>100</ns3:hr>
          </ns3:TrackPointExtension>
        </extensions>
      </trkpt>
      <trkpt lat="44.67954232357442378997802734375" lon="4.82193161733448505401611328125">
        <ele>225.399993896484375</ele>
        <time>2025-10-25T13:06:16.000Z</time>
        <extensions>
          <ns3:TrackPointExtension>
            <ns3:hr>99</ns3:hr>
          </ns3:TrackPointExtension>
        </extensions>
      </trkpt>
      <trkpt lat="44.67954617924988269805908203125" lon="4.8219622112810611724853515625">
        <ele>225.600006103515625</ele>
        <time>2025-10-25T13:06:18.000Z</time>
        <extensions>
          <ns3:TrackPointExtension>
            <ns3:hr>95</ns3:hr>
          </ns3:TrackPointExtension>
        </extensions>
      </trkpt>
      <trkpt lat="44.679555483162403106689453125" lon="4.8220326192677021026611328125">
        <ele>225.8000030517578125</ele>
        <time>2025-10-25T13:06:24.000Z</time>
        <extensions>
          <ns3:TrackPointExtension>
            <ns3:hr>92</ns3:hr>
          </ns3:TrackPointExtension>
        </extensions>
      </trkpt>
      <trkpt lat="44.6795650385320186614990234375" lon="4.822087101638317108154296875">
        <ele>226</ele>
        <time>2025-10-25T13:06:29.000Z</time>
        <extensions>
          <ns3:TrackPointExtension>
            <ns3:hr>95</ns3:hr>
          </ns3:TrackPointExtension>
        </extensions>
      </trkpt>
      <trkpt lat="44.67957995831966400146484375" lon="4.8221342079341411590576171875">
        <ele>226.399993896484375</ele>
        <time>2025-10-25T13:06:34.000Z</time>
        <extensions>
          <ns3:TrackPointExtension>
            <ns3:hr>95</ns3:hr>
          </ns3:TrackPointExtension>
        </extensions>
      </trkpt>
      <trkpt lat="44.6795942075550556182861328125" lon="4.82220235280692577362060546875">
        <ele>226.600006103515625</ele>
        <time>2025-10-25T13:06:41.000Z</time>
        <extensions>
          <ns3:TrackPointExtension>
            <ns3:hr>92</ns3:hr>
          </ns3:TrackPointExtension>
        </extensions>
      </trkpt>
      <trkpt lat="44.67968464829027652740478515625" lon="4.82222531922161579132080078125">
        <ele>227.399993896484375</ele>
        <time>2025-10-25T13:06:59.000Z</time>
        <extensions>
          <ns3:TrackPointExtension>
            <ns3:hr>93</ns3:hr>
          </ns3:TrackPointExtension>
        </extensions>
      </trkpt>
      <trkpt lat="44.67984281480312347412109375" lon="4.82209523208439350128173828125">
        <ele>228.1999969482421875</ele>
        <time>2025-10-25T13:07:26.000Z</time>
        <extensions>
          <ns3:TrackPointExtension>
            <ns3:hr>94</ns3:hr>
          </ns3:TrackPointExtension>
        </extensions>
      </trkpt>
      <trkpt lat="44.6798527054488658905029296875" lon="4.82209171168506145477294921875">
        <ele>228</ele>
        <time>2025-10-25T13:07:27.000Z</time>
        <extensions>
          <ns3:TrackPointExtension>
            <ns3:hr>94</ns3:hr>
          </ns3:TrackPointExtension>
        </extensions>
      </trkpt>
      <trkpt lat="44.6798919327557086944580078125" lon="4.82208349741995334625244140625">
        <ele>228</ele>
        <time>2025-10-25T13:07:31.000Z</time>
        <extensions>
          <ns3:TrackPointExtension>
            <ns3:hr>89</ns3:hr>
          </ns3:TrackPointExtension>
        </extensions>
      </trkpt>
      <trkpt lat="44.68007960356771945953369140625" lon="4.82205164618790149688720703125">
        <ele>228</ele>
        <time>2025-10-25T13:07:49.000Z</time>
        <extensions>
          <ns3:TrackPointExtension>
            <ns3:hr>87</ns3:hr>
          </ns3:TrackPointExtension>
        </extensions>
      </trkpt>
      <trkpt lat="44.68026517890393733978271484375" lon="4.82207025401294231414794921875">
        <ele>227.8000030517578125</ele>
        <time>2025-10-25T13:08:09.000Z</time>
        <extensions>
          <ns3:TrackPointExtension>
            <ns3:hr>87</ns3:hr>
          </ns3:TrackPointExtension>
        </extensions>
      </trkpt>
      <trkpt lat="44.68038939870893955230712890625" lon="4.8221161030232906341552734375">
        <ele>227.8000030517578125</ele>
        <time>2025-10-25T13:08:23.000Z</time>
        <extensions>
          <ns3:TrackPointExtension>
            <ns3:hr>84</ns3:hr>
          </ns3:TrackPointExtension>
        </extensions>
      </trkpt>
      <trkpt lat="44.680576063692569732666015625" lon="4.82214200310409069061279296875">
        <ele>227.600006103515625</ele>
        <time>2025-10-25T13:08:41.000Z</time>
        <extensions>
          <ns3:TrackPointExtension>
            <ns3:hr>84</ns3:hr>
          </ns3:TrackPointExtension>
        </extensions>
      </trkpt>
      <trkpt lat="44.68074177391827106475830078125" lon="4.82222783379256725311279296875">
        <ele>226.8000030517578125</ele>
        <time>2025-10-25T13:08:59.000Z</time>
        <extensions>
          <ns3:TrackPointExtension>
            <ns3:hr>82</ns3:hr>
          </ns3:TrackPointExtension>
        </extensions>
      </trkpt>
      <trkpt lat="44.6807727031409740447998046875" lon="4.822256080806255340576171875">
        <ele>226.8000030517578125</ele>
        <time>2025-10-25T13:09:03.000Z</time>
        <extensions>
          <ns3:TrackPointExtension>
            <ns3:hr>86</ns3:hr>
          </ns3:TrackPointExtension>
        </extensions>
      </trkpt>
      <trkpt lat="44.68078561127185821533203125" lon="4.82227141968905925750732421875">
        <ele>226.8000030517578125</ele>
        <time>2025-10-25T13:09:05.000Z</time>
        <extensions>
          <ns3:TrackPointExtension>
            <ns3:hr>89</ns3:hr>
          </ns3:TrackPointExtension>
        </extensions>
      </trkpt>
      <trkpt lat="44.6809101663529872894287109375" lon="4.822400249540805816650390625">
        <ele>227.600006103515625</ele>
        <time>2025-10-25T13:09:24.000Z</time>
        <extensions>
          <ns3:TrackPointExtension>
            <ns3:hr>86</ns3:hr>
          </ns3:TrackPointExtension>
        </extensions>
      </trkpt>
      <trkpt lat="44.6809896267950534820556640625" lon="4.82249806635081768035888671875">
        <ele>228.399993896484375</ele>
        <time>2025-10-25T13:09:37.000Z</time>
        <extensions>
          <ns3:TrackPointExtension>
            <ns3:hr>86</ns3:hr>
          </ns3:TrackPointExtension>
        </extensions>
      </trkpt>
      <trkpt lat="44.6810945682227611541748046875" lon="4.822636954486370086669921875">
        <ele>229.399993896484375</ele>
        <time>2025-10-25T13:09:51.000Z</time>
        <extensions>
          <ns3:TrackPointExtension>
            <ns3:hr>85</ns3:hr>
          </ns3:TrackPointExtension>
        </extensions>
      </trkpt>
      <trkpt lat="44.68115097843110561370849609375" lon="4.8227159120142459869384765625">
        <ele>230.1999969482421875</ele>
        <time>2025-10-25T13:09:59.000Z</time>
        <extensions>
          <ns3:TrackPointExtension>
            <ns3:hr>82</ns3:hr>
          </ns3:TrackPointExtension>
        </extensions>
      </trkpt>
      <trkpt lat="44.6811857633292675018310546875" lon="4.82275891117751598358154296875">
        <ele>230.600006103515625</ele>
        <time>2025-10-25T13:10:04.000Z</time>
        <extensions>
          <ns3:TrackPointExtension>
            <ns3:hr>80</ns3:hr>
          </ns3:TrackPointExtension>
        </extensions>
      </trkpt>
      <trkpt lat="44.68124561011791229248046875" lon="4.82285848818719387054443359375">
        <ele>231.600006103515625</ele>
        <time>2025-10-25T13:10:16.000Z</time>
        <extensions>
          <ns3:TrackPointExtension>
            <ns3:hr>82</ns3:hr>
          </ns3:TrackPointExtension>
        </extensions>
      </trkpt>
      <trkpt lat="44.68127737753093242645263671875" lon="4.82290592975914478302001953125">
        <ele>232.1999969482421875</ele>
        <time>2025-10-25T13:10:23.000Z</time>
        <extensions>
          <ns3:TrackPointExtension>
            <ns3:hr>85</ns3:hr>
          </ns3:TrackPointExtension>
        </extensions>
      </trkpt>
      <trkpt lat="44.6812923811376094818115234375" lon="4.8229385353624820709228515625">
        <ele>232.600006103515625</ele>
        <time>2025-10-25T13:10:27.000Z</time>
        <extensions>
          <ns3:TrackPointExtension>
            <ns3:hr>86</ns3:hr>
          </ns3:TrackPointExtension>
        </extensions>
      </trkpt>
      <trkpt lat="44.68134208582341670989990234375" lon="4.82300919480621814727783203125">
        <ele>233.600006103515625</ele>
        <time>2025-10-25T13:10:36.000Z</time>
        <extensions>
          <ns3:TrackPointExtension>
            <ns3:hr>89</ns3:hr>
          </ns3:TrackPointExtension>
        </extensions>
      </trkpt>
      <trkpt lat="44.68134627677500247955322265625" lon="4.82301573269069194793701171875">
        <ele>233.8000030517578125</ele>
        <time>2025-10-25T13:10:37.000Z</time>
        <extensions>
          <ns3:TrackPointExtension>
            <ns3:hr>89</ns3:hr>
          </ns3:TrackPointExtension>
        </extensions>
      </trkpt>
      <trkpt lat="44.6814070455729961395263671875" lon="4.82310592196881771087646484375">
        <ele>234.8000030517578125</ele>
        <time>2025-10-25T13:10:50.000Z</time>
        <extensions>
          <ns3:TrackPointExtension>
            <ns3:hr>92</ns3:hr>
          </ns3:TrackPointExtension>
        </extensions>
      </trkpt>
      <trkpt lat="44.6814117394387722015380859375" lon="4.82311514206230640411376953125">
        <ele>234.8000030517578125</ele>
        <time>2025-10-25T13:10:51.000Z</time>
        <extensions>
          <ns3:TrackPointExtension>
            <ns3:hr>92</ns3:hr>
          </ns3:TrackPointExtension>
        </extensions>
      </trkpt>
      <trkpt lat="44.68145214021205902099609375" lon="4.82316903769969940185546875">
        <ele>235</ele>
        <time>2025-10-25T13:10:57.000Z</time>
        <extensions>
          <ns3:TrackPointExtension>
            <ns3:hr>95</ns3:hr>
          </ns3:TrackPointExtension>
        </extensions>
      </trkpt>
      <trkpt lat="44.6814855001866817474365234375" lon="4.82324606738984584808349609375">
        <ele>235.8000030517578125</ele>
        <time>2025-10-25T13:11:06.000Z</time>
        <extensions>
          <ns3:TrackPointExtension>
            <ns3:hr>94</ns3:hr>
          </ns3:TrackPointExtension>
        </extensions>
      </trkpt>
      <trkpt lat="44.68159161508083343505859375" lon="4.8233888112008571624755859375">
        <ele>236.8000030517578125</ele>
        <time>2025-10-25T13:11:20.000Z</time>
        <extensions>
          <ns3:TrackPointExtension>
            <ns3:hr>95</ns3:hr>
          </ns3:TrackPointExtension>
        </extensions>
      </trkpt>
      <trkpt lat="44.681632518768310546875" lon="4.82354328967630863189697265625">
        <ele>238</ele>
        <time>2025-10-25T13:11:36.000Z</time>
        <extensions>
          <ns3:TrackPointExtension>
            <ns3:hr>94</ns3:hr>
          </ns3:TrackPointExtension>
        </extensions>
      </trkpt>
      <trkpt lat="44.681656323373317718505859375" lon="4.8237190581858158111572265625">
        <ele>239</ele>
        <time>2025-10-25T13:11:54.000Z</time>
        <extensions>
          <ns3:TrackPointExtension>
            <ns3:hr>94</ns3:hr>
          </ns3:TrackPointExtension>
        </extensions>
      </trkpt>
      <trkpt lat="44.68172664754092693328857421875" lon="4.82396121136844158172607421875">
        <ele>239.8000030517578125</ele>
        <time>2025-10-25T13:12:16.000Z</time>
        <extensions>
          <ns3:TrackPointExtension>
            <ns3:hr>93</ns3:hr>
          </ns3:TrackPointExtension>
        </extensions>
      </trkpt>
      <trkpt lat="44.68173201195895671844482421875" lon="4.8239721916615962982177734375">
        <ele>240</ele>
        <time>2025-10-25T13:12:17.000Z</time>
        <extensions>
          <ns3:TrackPointExtension>
            <ns3:hr>93</ns3:hr>
          </ns3:TrackPointExtension>
        </extensions>
      </trkpt>
      <trkpt lat="44.6818308345973491668701171875" lon="4.82414930127561092376708984375">
        <ele>240.399993896484375</ele>
        <time>2025-10-25T13:12:36.000Z</time>
        <extensions>
          <ns3:TrackPointExtension>
            <ns3:hr>86</ns3:hr>
          </ns3:TrackPointExtension>
        </extensions>
      </trkpt>
      <trkpt lat="44.68184030614793300628662109375" lon="4.82415986247360706329345703125">
        <ele>240.399993896484375</ele>
        <time>2025-10-25T13:12:37.000Z</time>
        <extensions>
          <ns3:TrackPointExtension>
            <ns3:hr>86</ns3:hr>
          </ns3:TrackPointExtension>
        </extensions>
      </trkpt>
      <trkpt lat="44.68198128975927829742431640625" lon="4.82423999346792697906494140625">
        <ele>240.600006103515625</ele>
        <time>2025-10-25T13:12:51.000Z</time>
        <extensions>
          <ns3:TrackPointExtension>
            <ns3:hr>89</ns3:hr>
          </ns3:TrackPointExtension>
        </extensions>
      </trkpt>
      <trkpt lat="44.68201230280101299285888671875" lon="4.824256338179111480712890625">
        <ele>240.8000030517578125</ele>
        <time>2025-10-25T13:12:54.000Z</time>
        <extensions>
          <ns3:TrackPointExtension>
            <ns3:hr>92</ns3:hr>
          </ns3:TrackPointExtension>
        </extensions>
      </trkpt>
      <trkpt lat="44.68204968608915805816650390625" lon="4.82426832430064678192138671875">
        <ele>240.8000030517578125</ele>
        <time>2025-10-25T13:12:58.000Z</time>
        <extensions>
          <ns3:TrackPointExtension>
            <ns3:hr>96</ns3:hr>
          </ns3:TrackPointExtension>
        </extensions>
      </trkpt>
      <trkpt lat="44.68209126032888889312744140625" lon="4.8242907039821147918701171875">
        <ele>241</ele>
        <time>2025-10-25T13:13:03.000Z</time>
        <extensions>
          <ns3:TrackPointExtension>
            <ns3:hr>96</ns3:hr>
          </ns3:TrackPointExtension>
        </extensions>
      </trkpt>
      <trkpt lat="44.6821721456944942474365234375" lon="4.824350215494632720947265625">
        <ele>241.399993896484375</ele>
        <time>2025-10-25T13:13:14.000Z</time>
        <extensions>
          <ns3:TrackPointExtension>
            <ns3:hr>91</ns3:hr>
          </ns3:TrackPointExtension>
        </extensions>
      </trkpt>
      <trkpt lat="44.6822454035282135009765625" lon="4.82440377585589885711669921875">
        <ele>241.399993896484375</ele>
        <time>2025-10-25T13:13:24.000Z</time>
        <extensions>
          <ns3:TrackPointExtension>
            <ns3:hr>86</ns3:hr>
          </ns3:TrackPointExtension>
        </extensions>
      </trkpt>
      <trkpt lat="44.682368449866771697998046875" lon="4.8244938813149929046630859375">
        <ele>242</ele>
        <time>2025-10-25T13:13:44.000Z</time>
        <extensions>
          <ns3:TrackPointExtension>
            <ns3:hr>91</ns3:hr>
          </ns3:TrackPointExtension>
        </extensions>
      </trkpt>
      <trkpt lat="44.682411365211009979248046875" lon="4.8245176859200000762939453125">
        <ele>242</ele>
        <time>2025-10-25T13:13:50.000Z</time>
        <extensions>
          <ns3:TrackPointExtension>
            <ns3:hr>91</ns3:hr>
          </ns3:TrackPointExtension>
        </extensions>
      </trkpt>
      <trkpt lat="44.68256659805774688720703125" lon="4.82465355657041072845458984375">
        <ele>242.600006103515625</ele>
        <time>2025-10-25T13:14:11.000Z</time>
        <extensions>
          <ns3:TrackPointExtension>
            <ns3:hr>93</ns3:hr>
          </ns3:TrackPointExtension>
        </extensions>
      </trkpt>
      <trkpt lat="44.6826209127902984619140625" lon="4.8247034288942813873291015625">
        <ele>242.8000030517578125</ele>
        <time>2025-10-25T13:14:19.000Z</time>
        <extensions>
          <ns3:TrackPointExtension>
            <ns3:hr>96</ns3:hr>
          </ns3:TrackPointExtension>
        </extensions>
      </trkpt>
      <trkpt lat="44.6826331503689289093017578125" lon="4.82471809722483158111572265625">
        <ele>242.8000030517578125</ele>
        <time>2025-10-25T13:14:21.000Z</time>
        <extensions>
          <ns3:TrackPointExtension>
            <ns3:hr>99</ns3:hr>
          </ns3:TrackPointExtension>
        </extensions>
      </trkpt>
      <trkpt lat="44.68265083618462085723876953125" lon="4.82473586685955524444580078125">
        <ele>243</ele>
        <time>2025-10-25T13:14:24.000Z</time>
        <extensions>
          <ns3:TrackPointExtension>
            <ns3:hr>103</ns3:hr>
          </ns3:TrackPointExtension>
        </extensions>
      </trkpt>
      <trkpt lat="44.68265653587877750396728515625" lon="4.82474374584853649139404296875">
        <ele>243</ele>
        <time>2025-10-25T13:14:25.000Z</time>
        <extensions>
          <ns3:TrackPointExtension>
            <ns3:hr>108</ns3:hr>
          </ns3:TrackPointExtension>
        </extensions>
      </trkpt>
      <trkpt lat="44.682662151753902435302734375" lon="4.82475288212299346923828125">
        <ele>243.1999969482421875</ele>
        <time>2025-10-25T13:14:26.000Z</time>
        <extensions>
          <ns3:TrackPointExtension>
            <ns3:hr>113</ns3:hr>
          </ns3:TrackPointExtension>
        </extensions>
      </trkpt>
      <trkpt lat="44.68266776762902736663818359375" lon="4.82475849799811840057373046875">
        <ele>243.1999969482421875</ele>
        <time>2025-10-25T13:14:27.000Z</time>
        <extensions>
          <ns3:TrackPointExtension>
            <ns3:hr>116</ns3:hr>
          </ns3:TrackPointExtension>
        </extensions>
      </trkpt>
      <trkpt lat="44.6826737187802791595458984375" lon="4.82476335950195789337158203125">
        <ele>243.1999969482421875</ele>
        <time>2025-10-25T13:14:28.000Z</time>
        <extensions>
          <ns3:TrackPointExtension>
            <ns3:hr>121</ns3:hr>
          </ns3:TrackPointExtension>
        </extensions>
      </trkpt>
      <trkpt lat="44.68267983756959438323974609375" lon="4.8247696459293365478515625">
        <ele>243.1999969482421875</ele>
        <time>2025-10-25T13:14:29.000Z</time>
        <extensions>
          <ns3:TrackPointExtension>
            <ns3:hr>124</ns3:hr>
          </ns3:TrackPointExtension>
        </extensions>
      </trkpt>
      <trkpt lat="44.68271235935389995574951171875" lon="4.82480510137975215911865234375">
        <ele>243.600006103515625</ele>
        <time>2025-10-25T13:14:34.000Z</time>
        <extensions>
          <ns3:TrackPointExtension>
            <ns3:hr>120</ns3:hr>
          </ns3:TrackPointExtension>
        </extensions>
      </trkpt>
      <trkpt lat="44.68271872960031032562255859375" lon="4.8248117230832576751708984375">
        <ele>243.600006103515625</ele>
        <time>2025-10-25T13:14:35.000Z</time>
        <extensions>
          <ns3:TrackPointExtension>
            <ns3:hr>117</ns3:hr>
          </ns3:TrackPointExtension>
        </extensions>
      </trkpt>
      <trkpt lat="44.68278461135923862457275390625" lon="4.82486561872065067291259765625">
        <ele>244</ele>
        <time>2025-10-25T13:14:43.000Z</time>
        <extensions>
          <ns3:TrackPointExtension>
            <ns3:hr>114</ns3:hr>
          </ns3:TrackPointExtension>
        </extensions>
      </trkpt>
      <trkpt lat="44.6827997826039791107177734375" lon="4.82488271780312061309814453125">
        <ele>244</ele>
        <time>2025-10-25T13:14:46.000Z</time>
        <extensions>
          <ns3:TrackPointExtension>
            <ns3:hr>112</ns3:hr>
          </ns3:TrackPointExtension>
        </extensions>
      </trkpt>
      <trkpt lat="44.68284328468143939971923828125" lon="4.8249394632875919342041015625">
        <ele>244.399993896484375</ele>
        <time>2025-10-25T13:14:52.000Z</time>
        <extensions>
          <ns3:TrackPointExtension>
            <ns3:hr>109</ns3:hr>
          </ns3:TrackPointExtension>
        </extensions>
      </trkpt>
      <trkpt lat="44.6828515827655792236328125" lon="4.824947007000446319580078125">
        <ele>244.399993896484375</ele>
        <time>2025-10-25T13:14:53.000Z</time>
        <extensions>
          <ns3:TrackPointExtension>
            <ns3:hr>102</ns3:hr>
          </ns3:TrackPointExtension>
        </extensions>
      </trkpt>
      <trkpt lat="44.68285904265940189361572265625" lon="4.82495513744652271270751953125">
        <ele>244.600006103515625</ele>
        <time>2025-10-25T13:14:54.000Z</time>
        <extensions>
          <ns3:TrackPointExtension>
            <ns3:hr>99</ns3:hr>
          </ns3:TrackPointExtension>
        </extensions>
      </trkpt>
      <trkpt lat="44.682863652706146240234375" lon="4.8249609209597110748291015625">
        <ele>244.8000030517578125</ele>
        <time>2025-10-25T13:14:55.000Z</time>
        <extensions>
          <ns3:TrackPointExtension>
            <ns3:hr>95</ns3:hr>
          </ns3:TrackPointExtension>
        </extensions>
      </trkpt>
      <trkpt lat="44.682880751788616180419921875" lon="4.8249770142138004302978515625">
        <ele>245.1999969482421875</ele>
        <time>2025-10-25T13:14:58.000Z</time>
        <extensions>
          <ns3:TrackPointExtension>
            <ns3:hr>93</ns3:hr>
          </ns3:TrackPointExtension>
        </extensions>
      </trkpt>
      <trkpt lat="44.68291662633419036865234375" lon="4.8249991424381732940673828125">
        <ele>245.399993896484375</ele>
        <time>2025-10-25T13:15:04.000Z</time>
        <extensions>
          <ns3:TrackPointExtension>
            <ns3:hr>96</ns3:hr>
          </ns3:TrackPointExtension>
        </extensions>
      </trkpt>
      <trkpt lat="44.68303170986473560333251953125" lon="4.82509729452431201934814453125">
        <ele>246.1999969482421875</ele>
        <time>2025-10-25T13:15:20.000Z</time>
        <extensions>
          <ns3:TrackPointExtension>
            <ns3:hr>95</ns3:hr>
          </ns3:TrackPointExtension>
        </extensions>
      </trkpt>
      <trkpt lat="44.68312692828476428985595703125" lon="4.82516719959676265716552734375">
        <ele>247</ele>
        <time>2025-10-25T13:15:32.000Z</time>
        <extensions>
          <ns3:TrackPointExtension>
            <ns3:hr>92</ns3:hr>
          </ns3:TrackPointExtension>
        </extensions>
      </trkpt>
      <trkpt lat="44.68313195742666721343994140625" lon="4.82517658732831478118896484375">
        <ele>247.1999969482421875</ele>
        <time>2025-10-25T13:15:33.000Z</time>
        <extensions>
          <ns3:TrackPointExtension>
            <ns3:hr>90</ns3:hr>
          </ns3:TrackPointExtension>
        </extensions>
      </trkpt>
      <trkpt lat="44.6832477115094661712646484375" lon="4.825277589261531829833984375">
        <ele>248</ele>
        <time>2025-10-25T13:15:46.000Z</time>
        <extensions>
          <ns3:TrackPointExtension>
            <ns3:hr>94</ns3:hr>
          </ns3:TrackPointExtension>
        </extensions>
      </trkpt>
      <trkpt lat="44.68325634486973285675048828125" lon="4.82528127729892730712890625">
        <ele>248</ele>
        <time>2025-10-25T13:15:47.000Z</time>
        <extensions>
          <ns3:TrackPointExtension>
            <ns3:hr>98</ns3:hr>
          </ns3:TrackPointExtension>
        </extensions>
      </trkpt>
      <trkpt lat="44.68326531350612640380859375" lon="4.8252873122692108154296875">
        <ele>248</ele>
        <time>2025-10-25T13:15:48.000Z</time>
        <extensions>
          <ns3:TrackPointExtension>
            <ns3:hr>101</ns3:hr>
          </ns3:TrackPointExtension>
        </extensions>
      </trkpt>
      <trkpt lat="44.68328006565570831298828125" lon="4.825301058590412139892578125">
        <ele>248.1999969482421875</ele>
        <time>2025-10-25T13:15:50.000Z</time>
        <extensions>
          <ns3:TrackPointExtension>
            <ns3:hr>100</ns3:hr>
          </ns3:TrackPointExtension>
        </extensions>
      </trkpt>
      <trkpt lat="44.68329624272882938385009765625" lon="4.8253310658037662506103515625">
        <ele>248.600006103515625</ele>
        <time>2025-10-25T13:15:53.000Z</time>
        <extensions>
          <ns3:TrackPointExtension>
            <ns3:hr>97</ns3:hr>
          </ns3:TrackPointExtension>
        </extensions>
      </trkpt>
      <trkpt lat="44.68337905593216419219970703125" lon="4.82549409382045269012451171875">
        <ele>249.1999969482421875</ele>
        <time>2025-10-25T13:16:08.000Z</time>
        <extensions>
          <ns3:TrackPointExtension>
            <ns3:hr>96</ns3:hr>
          </ns3:TrackPointExtension>
        </extensions>
      </trkpt>
      <trkpt lat="44.6833798103034496307373046875" lon="4.82552267611026763916015625">
        <ele>249.600006103515625</ele>
        <time>2025-10-25T13:16:10.000Z</time>
        <extensions>
          <ns3:TrackPointExtension>
            <ns3:hr>97</ns3:hr>
          </ns3:TrackPointExtension>
        </extensions>
      </trkpt>
      <trkpt lat="44.68339062295854091644287109375" lon="4.82556533999741077423095703125">
        <ele>249.8000030517578125</ele>
        <time>2025-10-25T13:16:13.000Z</time>
        <extensions>
          <ns3:TrackPointExtension>
            <ns3:hr>100</ns3:hr>
          </ns3:TrackPointExtension>
        </extensions>
      </trkpt>
      <trkpt lat="44.683415852487087249755859375" lon="4.8256951756775379180908203125">
        <ele>250.399993896484375</ele>
        <time>2025-10-25T13:16:23.000Z</time>
        <extensions>
          <ns3:TrackPointExtension>
            <ns3:hr>98</ns3:hr>
          </ns3:TrackPointExtension>
        </extensions>
      </trkpt>
      <trkpt lat="44.683416187763214111328125" lon="4.82587563805282115936279296875">
        <ele>251</ele>
        <time>2025-10-25T13:16:36.000Z</time>
        <extensions>
          <ns3:TrackPointExtension>
            <ns3:hr>101</ns3:hr>
          </ns3:TrackPointExtension>
        </extensions>
      </trkpt>
      <trkpt lat="44.68341073952615261077880859375" lon="4.8259234987199306488037109375">
        <ele>251.399993896484375</ele>
        <time>2025-10-25T13:16:39.000Z</time>
        <extensions>
          <ns3:TrackPointExtension>
            <ns3:hr>99</ns3:hr>
          </ns3:TrackPointExtension>
        </extensions>
      </trkpt>
      <trkpt lat="44.68341417610645294189453125" lon="4.82595945708453655242919921875">
        <ele>251.600006103515625</ele>
        <time>2025-10-25T13:16:42.000Z</time>
        <extensions>
          <ns3:TrackPointExtension>
            <ns3:hr>96</ns3:hr>
          </ns3:TrackPointExtension>
        </extensions>
      </trkpt>
      <trkpt lat="44.68342901207506656646728515625" lon="4.8260287754237651824951171875">
        <ele>251.8000030517578125</ele>
        <time>2025-10-25T13:16:48.000Z</time>
        <extensions>
          <ns3:TrackPointExtension>
            <ns3:hr>93</ns3:hr>
          </ns3:TrackPointExtension>
        </extensions>
      </trkpt>
      <trkpt lat="44.68343085609376430511474609375" lon="4.8260629735887050628662109375">
        <ele>251.8000030517578125</ele>
        <time>2025-10-25T13:16:51.000Z</time>
        <extensions>
          <ns3:TrackPointExtension>
            <ns3:hr>89</ns3:hr>
          </ns3:TrackPointExtension>
        </extensions>
      </trkpt>
      <trkpt lat="44.68342297710478305816650390625" lon="4.8260971717536449432373046875">
        <ele>251.8000030517578125</ele>
        <time>2025-10-25T13:16:54.000Z</time>
        <extensions>
          <ns3:TrackPointExtension>
            <ns3:hr>86</ns3:hr>
          </ns3:TrackPointExtension>
        </extensions>
      </trkpt>
      <trkpt lat="44.68341593630611896514892578125" lon="4.82612508349120616912841796875">
        <ele>251.8000030517578125</ele>
        <time>2025-10-25T13:16:56.000Z</time>
        <extensions>
          <ns3:TrackPointExtension>
            <ns3:hr>91</ns3:hr>
          </ns3:TrackPointExtension>
        </extensions>
      </trkpt>
      <trkpt lat="44.68337486498057842254638671875" lon="4.826280735433101654052734375">
        <ele>251.600006103515625</ele>
        <time>2025-10-25T13:17:11.000Z</time>
        <extensions>
          <ns3:TrackPointExtension>
            <ns3:hr>87</ns3:hr>
          </ns3:TrackPointExtension>
        </extensions>
      </trkpt>
      <trkpt lat="44.68335650861263275146484375" lon="4.82645130716264247894287109375">
        <ele>251.1999969482421875</ele>
        <time>2025-10-25T13:17:26.000Z</time>
        <extensions>
          <ns3:TrackPointExtension>
            <ns3:hr>90</ns3:hr>
          </ns3:TrackPointExtension>
        </extensions>
      </trkpt>
      <trkpt lat="44.68335340730845928192138671875" lon="4.82647460885345935821533203125">
        <ele>251.1999969482421875</ele>
        <time>2025-10-25T13:17:28.000Z</time>
        <extensions>
          <ns3:TrackPointExtension>
            <ns3:hr>93</ns3:hr>
          </ns3:TrackPointExtension>
        </extensions>
      </trkpt>
      <trkpt lat="44.68335474841296672821044921875" lon="4.82648785226047039031982421875">
        <ele>251.1999969482421875</ele>
        <time>2025-10-25T13:17:29.000Z</time>
        <extensions>
          <ns3:TrackPointExtension>
            <ns3:hr>99</ns3:hr>
          </ns3:TrackPointExtension>
        </extensions>
      </trkpt>
      <trkpt lat="44.68335508368909358978271484375" lon="4.826499335467815399169921875">
        <ele>251.1999969482421875</ele>
        <time>2025-10-25T13:17:30.000Z</time>
        <extensions>
          <ns3:TrackPointExtension>
            <ns3:hr>103</ns3:hr>
          </ns3:TrackPointExtension>
        </extensions>
      </trkpt>
      <trkpt lat="44.68335659243166446685791015625" lon="4.82650964520871639251708984375">
        <ele>251</ele>
        <time>2025-10-25T13:17:31.000Z</time>
        <extensions>
          <ns3:TrackPointExtension>
            <ns3:hr>103</ns3:hr>
          </ns3:TrackPointExtension>
        </extensions>
      </trkpt>
      <trkpt lat="44.68335340730845928192138671875" lon="4.826519787311553955078125">
        <ele>251</ele>
        <time>2025-10-25T13:17:32.000Z</time>
        <extensions>
          <ns3:TrackPointExtension>
            <ns3:hr>100</ns3:hr>
          </ns3:TrackPointExtension>
        </extensions>
      </trkpt>
      <trkpt lat="44.6833560056984424591064453125" lon="4.8265417478978633880615234375">
        <ele>251</ele>
        <time>2025-10-25T13:17:34.000Z</time>
        <extensions>
          <ns3:TrackPointExtension>
            <ns3:hr>93</ns3:hr>
          </ns3:TrackPointExtension>
        </extensions>
      </trkpt>
      <trkpt lat="44.6833516471087932586669921875" lon="4.8265628702938556671142578125">
        <ele>250.8000030517578125</ele>
        <time>2025-10-25T13:17:36.000Z</time>
        <extensions>
          <ns3:TrackPointExtension>
            <ns3:hr>90</ns3:hr>
          </ns3:TrackPointExtension>
        </extensions>
      </trkpt>
      <trkpt lat="44.68334770761430263519287109375" lon="4.82668616808950901031494140625">
        <ele>250.399993896484375</ele>
        <time>2025-10-25T13:17:47.000Z</time>
        <extensions>
          <ns3:TrackPointExtension>
            <ns3:hr>91</ns3:hr>
          </ns3:TrackPointExtension>
        </extensions>
      </trkpt>
      <trkpt lat="44.6833503060042858123779296875" lon="4.82678926549851894378662109375">
        <ele>250.1999969482421875</ele>
        <time>2025-10-25T13:17:54.000Z</time>
        <extensions>
          <ns3:TrackPointExtension>
            <ns3:hr>87</ns3:hr>
          </ns3:TrackPointExtension>
        </extensions>
      </trkpt>
      <trkpt lat="44.6833536587655544281005859375" lon="4.82680208981037139892578125">
        <ele>250.1999969482421875</ele>
        <time>2025-10-25T13:17:55.000Z</time>
        <extensions>
          <ns3:TrackPointExtension>
            <ns3:hr>84</ns3:hr>
          </ns3:TrackPointExtension>
        </extensions>
      </trkpt>
      <trkpt lat="44.6833556704223155975341796875" lon="4.82681524939835071563720703125">
        <ele>250.1999969482421875</ele>
        <time>2025-10-25T13:17:56.000Z</time>
        <extensions>
          <ns3:TrackPointExtension>
            <ns3:hr>87</ns3:hr>
          </ns3:TrackPointExtension>
        </extensions>
      </trkpt>
      <trkpt lat="44.6833543293178081512451171875" lon="4.8269014991819858551025390625">
        <ele>250</ele>
        <time>2025-10-25T13:18:03.000Z</time>
        <extensions>
          <ns3:TrackPointExtension>
            <ns3:hr>94</ns3:hr>
          </ns3:TrackPointExtension>
        </extensions>
      </trkpt>
      <trkpt lat="44.6833516471087932586669921875" lon="4.82691650278866291046142578125">
        <ele>250</ele>
        <time>2025-10-25T13:18:04.000Z</time>
        <extensions>
          <ns3:TrackPointExtension>
            <ns3:hr>94</ns3:hr>
          </ns3:TrackPointExtension>
        </extensions>
      </trkpt>
      <trkpt lat="44.6833137609064579010009765625" lon="4.8270141519606113433837890625">
        <ele>249.8000030517578125</ele>
        <time>2025-10-25T13:18:12.000Z</time>
        <extensions>
          <ns3:TrackPointExtension>
            <ns3:hr>90</ns3:hr>
          </ns3:TrackPointExtension>
        </extensions>
      </trkpt>
      <trkpt lat="44.6833040378987789154052734375" lon="4.82703669928014278411865234375">
        <ele>249.8000030517578125</ele>
        <time>2025-10-25T13:18:14.000Z</time>
        <extensions>
          <ns3:TrackPointExtension>
            <ns3:hr>96</ns3:hr>
          </ns3:TrackPointExtension>
        </extensions>
      </trkpt>
      <trkpt lat="44.68330428935587406158447265625" lon="4.82705019414424896240234375">
        <ele>249.8000030517578125</ele>
        <time>2025-10-25T13:18:15.000Z</time>
        <extensions>
          <ns3:TrackPointExtension>
            <ns3:hr>96</ns3:hr>
          </ns3:TrackPointExtension>
        </extensions>
      </trkpt>
      <trkpt lat="44.6833187900483608245849609375" lon="4.82714264653623104095458984375">
        <ele>249.8000030517578125</ele>
        <time>2025-10-25T13:18:24.000Z</time>
        <extensions>
          <ns3:TrackPointExtension>
            <ns3:hr>92</ns3:hr>
          </ns3:TrackPointExtension>
        </extensions>
      </trkpt>
      <trkpt lat="44.683334715664386749267578125" lon="4.82715002261102199554443359375">
        <ele>249.600006103515625</ele>
        <time>2025-10-25T13:18:26.000Z</time>
        <extensions>
          <ns3:TrackPointExtension>
            <ns3:hr>95</ns3:hr>
          </ns3:TrackPointExtension>
        </extensions>
      </trkpt>
      <trkpt lat="44.68336195684969425201416015625" lon="4.827155806124210357666015625">
        <ele>249.600006103515625</ele>
        <time>2025-10-25T13:18:28.000Z</time>
        <extensions>
          <ns3:TrackPointExtension>
            <ns3:hr>98</ns3:hr>
          </ns3:TrackPointExtension>
        </extensions>
      </trkpt>
      <trkpt lat="44.68340235762298107147216796875" lon="4.8271559737622737884521484375">
        <ele>249.399993896484375</ele>
        <time>2025-10-25T13:18:31.000Z</time>
        <extensions>
          <ns3:TrackPointExtension>
            <ns3:hr>101</ns3:hr>
          </ns3:TrackPointExtension>
        </extensions>
      </trkpt>
      <trkpt lat="44.6834156848490238189697265625" lon="4.82715337537229061126708984375">
        <ele>249.399993896484375</ele>
        <time>2025-10-25T13:18:32.000Z</time>
        <extensions>
          <ns3:TrackPointExtension>
            <ns3:hr>103</ns3:hr>
          </ns3:TrackPointExtension>
        </extensions>
      </trkpt>
      <trkpt lat="44.68344770371913909912109375" lon="4.82712655328214168548583984375">
        <ele>249.399993896484375</ele>
        <time>2025-10-25T13:18:36.000Z</time>
        <extensions>
          <ns3:TrackPointExtension>
            <ns3:hr>107</ns3:hr>
          </ns3:TrackPointExtension>
        </extensions>
      </trkpt>
      <trkpt lat="44.68345709145069122314453125" lon="4.8271194286644458770751953125">
        <ele>249.399993896484375</ele>
        <time>2025-10-25T13:18:37.000Z</time>
        <extensions>
          <ns3:TrackPointExtension>
            <ns3:hr>110</ns3:hr>
          </ns3:TrackPointExtension>
        </extensions>
      </trkpt>
      <trkpt lat="44.68346371315419673919677734375" lon="4.8271093703806400299072265625">
        <ele>249.399993896484375</ele>
        <time>2025-10-25T13:18:38.000Z</time>
        <extensions>
          <ns3:TrackPointExtension>
            <ns3:hr>110</ns3:hr>
          </ns3:TrackPointExtension>
        </extensions>
      </trkpt>
      <trkpt lat="44.68352054245769977569580078125" lon="4.827039800584316253662109375">
        <ele>249.600006103515625</ele>
        <time>2025-10-25T13:18:46.000Z</time>
        <extensions>
          <ns3:TrackPointExtension>
            <ns3:hr>113</ns3:hr>
          </ns3:TrackPointExtension>
        </extensions>
      </trkpt>
      <trkpt lat="44.68352615833282470703125" lon="4.8270305804908275604248046875">
        <ele>249.8000030517578125</ele>
        <time>2025-10-25T13:18:47.000Z</time>
        <extensions>
          <ns3:TrackPointExtension>
            <ns3:hr>117</ns3:hr>
          </ns3:TrackPointExtension>
        </extensions>
      </trkpt>
      <trkpt lat="44.6835328638553619384765625" lon="4.8270215280354022979736328125">
        <ele>250</ele>
        <time>2025-10-25T13:18:48.000Z</time>
        <extensions>
          <ns3:TrackPointExtension>
            <ns3:hr>122</ns3:hr>
          </ns3:TrackPointExtension>
        </extensions>
      </trkpt>
      <trkpt lat="44.68354149721562862396240234375" lon="4.82701532542705535888671875">
        <ele>250</ele>
        <time>2025-10-25T13:18:49.000Z</time>
        <extensions>
          <ns3:TrackPointExtension>
            <ns3:hr>127</ns3:hr>
          </ns3:TrackPointExtension>
        </extensions>
      </trkpt>
      <trkpt lat="44.68354669399559497833251953125" lon="4.82700526714324951171875">
        <ele>250.1999969482421875</ele>
        <time>2025-10-25T13:18:50.000Z</time>
        <extensions>
          <ns3:TrackPointExtension>
            <ns3:hr>130</ns3:hr>
          </ns3:TrackPointExtension>
        </extensions>
      </trkpt>
      <trkpt lat="44.6835494600236415863037109375" lon="4.82699193991720676422119140625">
        <ele>250.1999969482421875</ele>
        <time>2025-10-25T13:18:51.000Z</time>
        <extensions>
          <ns3:TrackPointExtension>
            <ns3:hr>125</ns3:hr>
          </ns3:TrackPointExtension>
        </extensions>
      </trkpt>
      <trkpt lat="44.683551304042339324951171875" lon="4.82697777450084686279296875">
        <ele>250.399993896484375</ele>
        <time>2025-10-25T13:18:52.000Z</time>
        <extensions>
          <ns3:TrackPointExtension>
            <ns3:hr>120</ns3:hr>
          </ns3:TrackPointExtension>
        </extensions>
      </trkpt>
      <trkpt lat="44.68355742283165454864501953125" lon="4.82696704566478729248046875">
        <ele>250.399993896484375</ele>
        <time>2025-10-25T13:18:53.000Z</time>
        <extensions>
          <ns3:TrackPointExtension>
            <ns3:hr>117</ns3:hr>
          </ns3:TrackPointExtension>
        </extensions>
      </trkpt>
      <trkpt lat="44.68356697820127010345458984375" lon="4.8269578255712985992431640625">
        <ele>250.399993896484375</ele>
        <time>2025-10-25T13:18:54.000Z</time>
        <extensions>
          <ns3:TrackPointExtension>
            <ns3:hr>113</ns3:hr>
          </ns3:TrackPointExtension>
        </extensions>
      </trkpt>
      <trkpt lat="44.68357318080961704254150390625" lon="4.82694885693490505218505859375">
        <ele>250.399993896484375</ele>
        <time>2025-10-25T13:18:55.000Z</time>
        <extensions>
          <ns3:TrackPointExtension>
            <ns3:hr>113</ns3:hr>
          </ns3:TrackPointExtension>
        </extensions>
      </trkpt>
      <trkpt lat="44.68358424492180347442626953125" lon="4.82691616751253604888916015625">
        <ele>250.600006103515625</ele>
        <time>2025-10-25T13:18:58.000Z</time>
        <extensions>
          <ns3:TrackPointExtension>
            <ns3:hr>112</ns3:hr>
          </ns3:TrackPointExtension>
        </extensions>
      </trkpt>
      <trkpt lat="44.6836031042039394378662109375" lon="4.82685665600001811981201171875">
        <ele>250.8000030517578125</ele>
        <time>2025-10-25T13:19:04.000Z</time>
        <extensions>
          <ns3:TrackPointExtension>
            <ns3:hr>109</ns3:hr>
          </ns3:TrackPointExtension>
        </extensions>
      </trkpt>
      <trkpt lat="44.68365465290844440460205078125" lon="4.82676185667514801025390625">
        <ele>251.600006103515625</ele>
        <time>2025-10-25T13:19:13.000Z</time>
        <extensions>
          <ns3:TrackPointExtension>
            <ns3:hr>108</ns3:hr>
          </ns3:TrackPointExtension>
        </extensions>
      </trkpt>
      <trkpt lat="44.6836946345865726470947265625" lon="4.82666202820837497711181640625">
        <ele>252.600006103515625</ele>
        <time>2025-10-25T13:19:23.000Z</time>
        <extensions>
          <ns3:TrackPointExtension>
            <ns3:hr>106</ns3:hr>
          </ns3:TrackPointExtension>
        </extensions>
      </trkpt>
      <trkpt lat="44.68379882164299488067626953125" lon="4.8264954797923564910888671875">
        <ele>253.600006103515625</ele>
        <time>2025-10-25T13:19:40.000Z</time>
        <extensions>
          <ns3:TrackPointExtension>
            <ns3:hr>104</ns3:hr>
          </ns3:TrackPointExtension>
        </extensions>
      </trkpt>
      <trkpt lat="44.68386537395417690277099609375" lon="4.8264203779399394989013671875">
        <ele>254.600006103515625</ele>
        <time>2025-10-25T13:19:50.000Z</time>
        <extensions>
          <ns3:TrackPointExtension>
            <ns3:hr>102</ns3:hr>
          </ns3:TrackPointExtension>
        </extensions>
      </trkpt>
      <trkpt lat="44.68394902534782886505126953125" lon="4.826304875314235687255859375">
        <ele>255.1999969482421875</ele>
        <time>2025-10-25T13:20:02.000Z</time>
        <extensions>
          <ns3:TrackPointExtension>
            <ns3:hr>98</ns3:hr>
          </ns3:TrackPointExtension>
        </extensions>
      </trkpt>
      <trkpt lat="44.68395153991878032684326171875" lon="4.82629205100238323211669921875">
        <ele>255.399993896484375</ele>
        <time>2025-10-25T13:20:03.000Z</time>
        <extensions>
          <ns3:TrackPointExtension>
            <ns3:hr>94</ns3:hr>
          </ns3:TrackPointExtension>
        </extensions>
      </trkpt>
      <trkpt lat="44.6839859895408153533935546875" lon="4.82622407376766204833984375">
        <ele>255.600006103515625</ele>
        <time>2025-10-25T13:20:09.000Z</time>
        <extensions>
          <ns3:TrackPointExtension>
            <ns3:hr>96</ns3:hr>
          </ns3:TrackPointExtension>
        </extensions>
      </trkpt>
      <trkpt lat="44.6839950419962406158447265625" lon="4.8261977545917034149169921875">
        <ele>255.8000030517578125</ele>
        <time>2025-10-25T13:20:11.000Z</time>
        <extensions>
          <ns3:TrackPointExtension>
            <ns3:hr>100</ns3:hr>
          </ns3:TrackPointExtension>
        </extensions>
      </trkpt>
      <trkpt lat="44.68400032259523868560791015625" lon="4.826185517013072967529296875">
        <ele>256</ele>
        <time>2025-10-25T13:20:12.000Z</time>
        <extensions>
          <ns3:TrackPointExtension>
            <ns3:hr>103</ns3:hr>
          </ns3:TrackPointExtension>
        </extensions>
      </trkpt>
      <trkpt lat="44.68400484882295131683349609375" lon="4.82617420144379138946533203125">
        <ele>256</ele>
        <time>2025-10-25T13:20:13.000Z</time>
        <extensions>
          <ns3:TrackPointExtension>
            <ns3:hr>103</ns3:hr>
          </ns3:TrackPointExtension>
        </extensions>
      </trkpt>
      <trkpt lat="44.6840102970600128173828125" lon="4.82616347260773181915283203125">
        <ele>256</ele>
        <time>2025-10-25T13:20:14.000Z</time>
        <extensions>
          <ns3:TrackPointExtension>
            <ns3:hr>100</ns3:hr>
          </ns3:TrackPointExtension>
        </extensions>
      </trkpt>
      <trkpt lat="44.6840158291161060333251953125" lon="4.82613631524145603179931640625">
        <ele>256</ele>
        <time>2025-10-25T13:20:16.000Z</time>
        <extensions>
          <ns3:TrackPointExtension>
            <ns3:hr>93</ns3:hr>
          </ns3:TrackPointExtension>
        </extensions>
      </trkpt>
      <trkpt lat="44.684027731418609619140625" lon="4.82611368410289287567138671875">
        <ele>256.20001220703125</ele>
        <time>2025-10-25T13:20:18.000Z</time>
        <extensions>
          <ns3:TrackPointExtension>
            <ns3:hr>88</ns3:hr>
          </ns3:TrackPointExtension>
        </extensions>
      </trkpt>
      <trkpt lat="44.68403167091310024261474609375" lon="4.8261032067239284515380859375">
        <ele>256.399993896484375</ele>
        <time>2025-10-25T13:20:19.000Z</time>
        <extensions>
          <ns3:TrackPointExtension>
            <ns3:hr>88</ns3:hr>
          </ns3:TrackPointExtension>
        </extensions>
      </trkpt>
      <trkpt lat="44.6840436570346355438232421875" lon="4.8260678350925445556640625">
        <ele>256.399993896484375</ele>
        <time>2025-10-25T13:20:22.000Z</time>
        <extensions>
          <ns3:TrackPointExtension>
            <ns3:hr>85</ns3:hr>
          </ns3:TrackPointExtension>
        </extensions>
      </trkpt>
      <trkpt lat="44.68405966646969318389892578125" lon="4.8260153643786907196044921875">
        <ele>256.79998779296875</ele>
        <time>2025-10-25T13:20:27.000Z</time>
        <extensions>
          <ns3:TrackPointExtension>
            <ns3:hr>87</ns3:hr>
          </ns3:TrackPointExtension>
        </extensions>
      </trkpt>
      <trkpt lat="44.68410492874681949615478515625" lon="4.825977981090545654296875">
        <ele>257.79998779296875</ele>
        <time>2025-10-25T13:20:34.000Z</time>
        <extensions>
          <ns3:TrackPointExtension>
            <ns3:hr>90</ns3:hr>
          </ns3:TrackPointExtension>
        </extensions>
      </trkpt>
      <trkpt lat="44.6841140650212764739990234375" lon="4.8259768076241016387939453125">
        <ele>257.79998779296875</ele>
        <time>2025-10-25T13:20:35.000Z</time>
        <extensions>
          <ns3:TrackPointExtension>
            <ns3:hr>96</ns3:hr>
          </ns3:TrackPointExtension>
        </extensions>
      </trkpt>
      <trkpt lat="44.6841283142566680908203125" lon="4.82596985064446926116943359375">
        <ele>258</ele>
        <time>2025-10-25T13:20:37.000Z</time>
        <extensions>
          <ns3:TrackPointExtension>
            <ns3:hr>99</ns3:hr>
          </ns3:TrackPointExtension>
        </extensions>
      </trkpt>
      <trkpt lat="44.684152118861675262451171875" lon="4.8259566910564899444580078125">
        <ele>258</ele>
        <time>2025-10-25T13:20:40.000Z</time>
        <extensions>
          <ns3:TrackPointExtension>
            <ns3:hr>102</ns3:hr>
          </ns3:TrackPointExtension>
        </extensions>
      </trkpt>
      <trkpt lat="44.68425370752811431884765625" lon="4.82596649788320064544677734375">
        <ele>258.79998779296875</ele>
        <time>2025-10-25T13:20:52.000Z</time>
        <extensions>
          <ns3:TrackPointExtension>
            <ns3:hr>99</ns3:hr>
          </ns3:TrackPointExtension>
        </extensions>
      </trkpt>
      <trkpt lat="44.6842776797711849212646484375" lon="4.82597152702510356903076171875">
        <ele>258.79998779296875</ele>
        <time>2025-10-25T13:20:54.000Z</time>
        <extensions>
          <ns3:TrackPointExtension>
            <ns3:hr>101</ns3:hr>
          </ns3:TrackPointExtension>
        </extensions>
      </trkpt>
      <trkpt lat="44.68435571528971195220947265625" lon="4.8260032944381237030029296875">
        <ele>259</ele>
        <time>2025-10-25T13:21:01.000Z</time>
        <extensions>
          <ns3:TrackPointExtension>
            <ns3:hr>98</ns3:hr>
          </ns3:TrackPointExtension>
        </extensions>
      </trkpt>
      <trkpt lat="44.684403240680694580078125" lon="4.82603355310857295989990234375">
        <ele>259.20001220703125</ele>
        <time>2025-10-25T13:21:06.000Z</time>
        <extensions>
          <ns3:TrackPointExtension>
            <ns3:hr>101</ns3:hr>
          </ns3:TrackPointExtension>
        </extensions>
      </trkpt>
      <trkpt lat="44.684421680867671966552734375" lon="4.82604428194463253021240234375">
        <ele>259.20001220703125</ele>
        <time>2025-10-25T13:21:08.000Z</time>
        <extensions>
          <ns3:TrackPointExtension>
            <ns3:hr>104</ns3:hr>
          </ns3:TrackPointExtension>
        </extensions>
      </trkpt>
      <trkpt lat="44.684498794376850128173828125" lon="4.82609122060239315032958984375">
        <ele>259.600006103515625</ele>
        <time>2025-10-25T13:21:16.000Z</time>
        <extensions>
          <ns3:TrackPointExtension>
            <ns3:hr>101</ns3:hr>
          </ns3:TrackPointExtension>
        </extensions>
      </trkpt>
      <trkpt lat="44.68452285043895244598388671875" lon="4.82611033134162425994873046875">
        <ele>260</ele>
        <time>2025-10-25T13:21:19.000Z</time>
        <extensions>
          <ns3:TrackPointExtension>
            <ns3:hr>101</ns3:hr>
          </ns3:TrackPointExtension>
        </extensions>
      </trkpt>
      <trkpt lat="44.684548415243625640869140625" lon="4.82612307183444499969482421875">
        <ele>260.20001220703125</ele>
        <time>2025-10-25T13:21:22.000Z</time>
        <extensions>
          <ns3:TrackPointExtension>
            <ns3:hr>97</ns3:hr>
          </ns3:TrackPointExtension>
        </extensions>
      </trkpt>
      <trkpt lat="44.68460180796682834625244140625" lon="4.82617822475731372833251953125">
        <ele>260.79998779296875</ele>
        <time>2025-10-25T13:21:30.000Z</time>
        <extensions>
          <ns3:TrackPointExtension>
            <ns3:hr>101</ns3:hr>
          </ns3:TrackPointExtension>
        </extensions>
      </trkpt>
      <trkpt lat="44.68462611548602581024169921875" lon="4.82620907016098499298095703125">
        <ele>261</ele>
        <time>2025-10-25T13:21:34.000Z</time>
        <extensions>
          <ns3:TrackPointExtension>
            <ns3:hr>98</ns3:hr>
          </ns3:TrackPointExtension>
        </extensions>
      </trkpt>
      <trkpt lat="44.68468554317951202392578125" lon="4.82625667937099933624267578125">
        <ele>261</ele>
        <time>2025-10-25T13:21:40.000Z</time>
        <extensions>
          <ns3:TrackPointExtension>
            <ns3:hr>94</ns3:hr>
          </ns3:TrackPointExtension>
        </extensions>
      </trkpt>
      <trkpt lat="44.6848268620669841766357421875" lon="4.8264223895967006683349609375">
        <ele>261</ele>
        <time>2025-10-25T13:21:59.000Z</time>
        <extensions>
          <ns3:TrackPointExtension>
            <ns3:hr>93</ns3:hr>
          </ns3:TrackPointExtension>
        </extensions>
      </trkpt>
      <trkpt lat="44.6848686039447784423828125" lon="4.8264703340828418731689453125">
        <ele>260.79998779296875</ele>
        <time>2025-10-25T13:22:05.000Z</time>
        <extensions>
          <ns3:TrackPointExtension>
            <ns3:hr>90</ns3:hr>
          </ns3:TrackPointExtension>
        </extensions>
      </trkpt>
      <trkpt lat="44.6849230863153934478759765625" lon="4.826573431491851806640625">
        <ele>260.79998779296875</ele>
        <time>2025-10-25T13:22:16.000Z</time>
        <extensions>
          <ns3:TrackPointExtension>
            <ns3:hr>87</ns3:hr>
          </ns3:TrackPointExtension>
        </extensions>
      </trkpt>
      <trkpt lat="44.68498569913208484649658203125" lon="4.826753139495849609375">
        <ele>260.600006103515625</ele>
        <time>2025-10-25T13:22:32.000Z</time>
        <extensions>
          <ns3:TrackPointExtension>
            <ns3:hr>90</ns3:hr>
          </ns3:TrackPointExtension>
        </extensions>
      </trkpt>
      <trkpt lat="44.68507136218249797821044921875" lon="4.82695774175226688385009765625">
        <ele>260</ele>
        <time>2025-10-25T13:22:51.000Z</time>
        <extensions>
          <ns3:TrackPointExtension>
            <ns3:hr>89</ns3:hr>
          </ns3:TrackPointExtension>
        </extensions>
      </trkpt>
      <trkpt lat="44.685180075466632843017578125" lon="4.82711146585643291473388671875">
        <ele>258.79998779296875</ele>
        <time>2025-10-25T13:23:07.000Z</time>
        <extensions>
          <ns3:TrackPointExtension>
            <ns3:hr>89</ns3:hr>
          </ns3:TrackPointExtension>
        </extensions>
      </trkpt>
      <trkpt lat="44.6852146089076995849609375" lon="4.82710928656160831451416015625">
        <ele>258.600006103515625</ele>
        <time>2025-10-25T13:23:10.000Z</time>
        <extensions>
          <ns3:TrackPointExtension>
            <ns3:hr>95</ns3:hr>
          </ns3:TrackPointExtension>
        </extensions>
      </trkpt>
      <trkpt lat="44.6853445284068584442138671875" lon="4.82704323716461658477783203125">
        <ele>258.20001220703125</ele>
        <time>2025-10-25T13:23:23.000Z</time>
        <extensions>
          <ns3:TrackPointExtension>
            <ns3:hr>92</ns3:hr>
          </ns3:TrackPointExtension>
        </extensions>
      </trkpt>
      <trkpt lat="44.68538283370435237884521484375" lon="4.8270131461322307586669921875">
        <ele>258</ele>
        <time>2025-10-25T13:23:27.000Z</time>
        <extensions>
          <ns3:TrackPointExtension>
            <ns3:hr>88</ns3:hr>
          </ns3:TrackPointExtension>
        </extensions>
      </trkpt>
      <trkpt lat="44.68541937880218029022216796875" lon="4.826987497508525848388671875">
        <ele>258</ele>
        <time>2025-10-25T13:23:31.000Z</time>
        <extensions>
          <ns3:TrackPointExtension>
            <ns3:hr>88</ns3:hr>
          </ns3:TrackPointExtension>
        </extensions>
      </trkpt>
      <trkpt lat="44.685552902519702911376953125" lon="4.82694114558398723602294921875">
        <ele>257.79998779296875</ele>
        <time>2025-10-25T13:23:46.000Z</time>
        <extensions>
          <ns3:TrackPointExtension>
            <ns3:hr>89</ns3:hr>
          </ns3:TrackPointExtension>
        </extensions>
      </trkpt>
      <trkpt lat="44.68556723557412624359130859375" lon="4.82693326659500598907470703125">
        <ele>257.79998779296875</ele>
        <time>2025-10-25T13:23:48.000Z</time>
        <extensions>
          <ns3:TrackPointExtension>
            <ns3:hr>89</ns3:hr>
          </ns3:TrackPointExtension>
        </extensions>
      </trkpt>
      <trkpt lat="44.68560545705258846282958984375" lon="4.8269395530223846435546875">
        <ele>257.600006103515625</ele>
        <time>2025-10-25T13:23:53.000Z</time>
        <extensions>
          <ns3:TrackPointExtension>
            <ns3:hr>84</ns3:hr>
          </ns3:TrackPointExtension>
        </extensions>
      </trkpt>
      <trkpt lat="44.68563881702721118927001953125" lon="4.8269397206604480743408203125">
        <ele>257.399993896484375</ele>
        <time>2025-10-25T13:23:57.000Z</time>
        <extensions>
          <ns3:TrackPointExtension>
            <ns3:hr>87</ns3:hr>
          </ns3:TrackPointExtension>
        </extensions>
      </trkpt>
      <trkpt lat="44.6856767870485782623291015625" lon="4.82694097794592380523681640625">
        <ele>257.20001220703125</ele>
        <time>2025-10-25T13:24:02.000Z</time>
        <extensions>
          <ns3:TrackPointExtension>
            <ns3:hr>91</ns3:hr>
          </ns3:TrackPointExtension>
        </extensions>
      </trkpt>
      <trkpt lat="44.68576840125024318695068359375" lon="4.82694424688816070556640625">
        <ele>256.79998779296875</ele>
        <time>2025-10-25T13:24:11.000Z</time>
        <extensions>
          <ns3:TrackPointExtension>
            <ns3:hr>91</ns3:hr>
          </ns3:TrackPointExtension>
        </extensions>
      </trkpt>
      <trkpt lat="44.685946516692638397216796875" lon="4.82701473869383335113525390625">
        <ele>256</ele>
        <time>2025-10-25T13:24:30.000Z</time>
        <extensions>
          <ns3:TrackPointExtension>
            <ns3:hr>89</ns3:hr>
          </ns3:TrackPointExtension>
        </extensions>
      </trkpt>
      <trkpt lat="44.68599270097911357879638671875" lon="4.82704617083072662353515625">
        <ele>255.8000030517578125</ele>
        <time>2025-10-25T13:24:35.000Z</time>
        <extensions>
          <ns3:TrackPointExtension>
            <ns3:hr>89</ns3:hr>
          </ns3:TrackPointExtension>
        </extensions>
      </trkpt>
      <trkpt lat="44.6861740015447139739990234375" lon="4.82709436677396297454833984375">
        <ele>254.8000030517578125</ele>
        <time>2025-10-25T13:24:55.000Z</time>
        <extensions>
          <ns3:TrackPointExtension>
            <ns3:hr>89</ns3:hr>
          </ns3:TrackPointExtension>
        </extensions>
      </trkpt>
      <trkpt lat="44.68620057217776775360107421875" lon="4.8271016590297222137451171875">
        <ele>254.8000030517578125</ele>
        <time>2025-10-25T13:24:58.000Z</time>
        <extensions>
          <ns3:TrackPointExtension>
            <ns3:hr>89</ns3:hr>
          </ns3:TrackPointExtension>
        </extensions>
      </trkpt>
      <trkpt lat="44.68633652664721012115478515625" lon="4.82709671370685100555419921875">
        <ele>253.600006103515625</ele>
        <time>2025-10-25T13:25:13.000Z</time>
        <extensions>
          <ns3:TrackPointExtension>
            <ns3:hr>88</ns3:hr>
          </ns3:TrackPointExtension>
        </extensions>
      </trkpt>
      <trkpt lat="44.6864296495914459228515625" lon="4.8270637728273868560791015625">
        <ele>252.600006103515625</ele>
        <time>2025-10-25T13:25:24.000Z</time>
        <extensions>
          <ns3:TrackPointExtension>
            <ns3:hr>87</ns3:hr>
          </ns3:TrackPointExtension>
        </extensions>
      </trkpt>
      <trkpt lat="44.68655730597674846649169921875" lon="4.82703904621303081512451171875">
        <ele>251.600006103515625</ele>
        <time>2025-10-25T13:25:37.000Z</time>
        <extensions>
          <ns3:TrackPointExtension>
            <ns3:hr>87</ns3:hr>
          </ns3:TrackPointExtension>
        </extensions>
      </trkpt>
      <trkpt lat="44.68666325323283672332763671875" lon="4.82700300402939319610595703125">
        <ele>250.399993896484375</ele>
        <time>2025-10-25T13:25:48.000Z</time>
        <extensions>
          <ns3:TrackPointExtension>
            <ns3:hr>87</ns3:hr>
          </ns3:TrackPointExtension>
        </extensions>
      </trkpt>
      <trkpt lat="44.68674941919744014739990234375" lon="4.8270161636173725128173828125">
        <ele>249.399993896484375</ele>
        <time>2025-10-25T13:25:57.000Z</time>
        <extensions>
          <ns3:TrackPointExtension>
            <ns3:hr>87</ns3:hr>
          </ns3:TrackPointExtension>
        </extensions>
      </trkpt>
      <trkpt lat="44.6867622435092926025390625" lon="4.82701708562672138214111328125">
        <ele>249.399993896484375</ele>
        <time>2025-10-25T13:25:59.000Z</time>
        <extensions>
          <ns3:TrackPointExtension>
            <ns3:hr>84</ns3:hr>
          </ns3:TrackPointExtension>
        </extensions>
      </trkpt>
      <trkpt lat="44.68683474697172641754150390625" lon="4.827088415622711181640625">
        <ele>248.399993896484375</ele>
        <time>2025-10-25T13:26:09.000Z</time>
        <extensions>
          <ns3:TrackPointExtension>
            <ns3:hr>84</ns3:hr>
          </ns3:TrackPointExtension>
        </extensions>
      </trkpt>
      <trkpt lat="44.68692393042147159576416015625" lon="4.827174246311187744140625">
        <ele>247.8000030517578125</ele>
        <time>2025-10-25T13:26:19.000Z</time>
        <extensions>
          <ns3:TrackPointExtension>
            <ns3:hr>83</ns3:hr>
          </ns3:TrackPointExtension>
        </extensions>
      </trkpt>
      <trkpt lat="44.68709416687488555908203125" lon="4.827225208282470703125">
        <ele>247.600006103515625</ele>
        <time>2025-10-25T13:26:33.000Z</time>
        <extensions>
          <ns3:TrackPointExtension>
            <ns3:hr>86</ns3:hr>
          </ns3:TrackPointExtension>
        </extensions>
      </trkpt>
      <trkpt lat="44.68712903559207916259765625" lon="4.82722344808280467987060546875">
        <ele>247.399993896484375</ele>
        <time>2025-10-25T13:26:36.000Z</time>
        <extensions>
          <ns3:TrackPointExtension>
            <ns3:hr>90</ns3:hr>
          </ns3:TrackPointExtension>
        </extensions>
      </trkpt>
      <trkpt lat="44.6871389262378215789794921875" lon="4.827222190797328948974609375">
        <ele>247.399993896484375</ele>
        <time>2025-10-25T13:26:37.000Z</time>
        <extensions>
          <ns3:TrackPointExtension>
            <ns3:hr>94</ns3:hr>
          </ns3:TrackPointExtension>
        </extensions>
      </trkpt>
      <trkpt lat="44.68714688904583454132080078125" lon="4.8272213526070117950439453125">
        <ele>247.399993896484375</ele>
        <time>2025-10-25T13:26:38.000Z</time>
        <extensions>
          <ns3:TrackPointExtension>
            <ns3:hr>97</ns3:hr>
          </ns3:TrackPointExtension>
        </extensions>
      </trkpt>
      <trkpt lat="44.68715585768222808837890625" lon="4.8272203467786312103271484375">
        <ele>247.399993896484375</ele>
        <time>2025-10-25T13:26:39.000Z</time>
        <extensions>
          <ns3:TrackPointExtension>
            <ns3:hr>96</ns3:hr>
          </ns3:TrackPointExtension>
        </extensions>
      </trkpt>
      <trkpt lat="44.68720321543514728546142578125" lon="4.82720986939966678619384765625">
        <ele>246.8000030517578125</ele>
        <time>2025-10-25T13:26:44.000Z</time>
        <extensions>
          <ns3:TrackPointExtension>
            <ns3:hr>99</ns3:hr>
          </ns3:TrackPointExtension>
        </extensions>
      </trkpt>
      <trkpt lat="44.68724973499774932861328125" lon="4.82719511725008487701416015625">
        <ele>246.399993896484375</ele>
        <time>2025-10-25T13:26:49.000Z</time>
        <extensions>
          <ns3:TrackPointExtension>
            <ns3:hr>98</ns3:hr>
          </ns3:TrackPointExtension>
        </extensions>
      </trkpt>
      <trkpt lat="44.68726155348122119903564453125" lon="4.82718271203339099884033203125">
        <ele>246</ele>
        <time>2025-10-25T13:26:51.000Z</time>
        <extensions>
          <ns3:TrackPointExtension>
            <ns3:hr>93</ns3:hr>
          </ns3:TrackPointExtension>
        </extensions>
      </trkpt>
      <trkpt lat="44.68727647326886653900146484375" lon="4.8271707259118556976318359375">
        <ele>245.8000030517578125</ele>
        <time>2025-10-25T13:26:53.000Z</time>
        <extensions>
          <ns3:TrackPointExtension>
            <ns3:hr>90</ns3:hr>
          </ns3:TrackPointExtension>
        </extensions>
      </trkpt>
      <trkpt lat="44.68730949796736240386962890625" lon="4.8271606676280498504638671875">
        <ele>245.399993896484375</ele>
        <time>2025-10-25T13:26:57.000Z</time>
        <extensions>
          <ns3:TrackPointExtension>
            <ns3:hr>88</ns3:hr>
          </ns3:TrackPointExtension>
        </extensions>
      </trkpt>
      <trkpt lat="44.68737521208822727203369140625" lon="4.827133007347583770751953125">
        <ele>244.600006103515625</ele>
        <time>2025-10-25T13:27:05.000Z</time>
        <extensions>
          <ns3:TrackPointExtension>
            <ns3:hr>85</ns3:hr>
          </ns3:TrackPointExtension>
        </extensions>
      </trkpt>
      <trkpt lat="44.6874349750578403472900390625" lon="4.827094785869121551513671875">
        <ele>244.1999969482421875</ele>
        <time>2025-10-25T13:27:13.000Z</time>
        <extensions>
          <ns3:TrackPointExtension>
            <ns3:hr>86</ns3:hr>
          </ns3:TrackPointExtension>
        </extensions>
      </trkpt>
      <trkpt lat="44.68748685903847217559814453125" lon="4.82704223133623600006103515625">
        <ele>243</ele>
        <time>2025-10-25T13:27:20.000Z</time>
        <extensions>
          <ns3:TrackPointExtension>
            <ns3:hr>87</ns3:hr>
          </ns3:TrackPointExtension>
        </extensions>
      </trkpt>
      <trkpt lat="44.68757486902177333831787109375" lon="4.8270004056394100189208984375">
        <ele>242</ele>
        <time>2025-10-25T13:27:35.000Z</time>
        <extensions>
          <ns3:TrackPointExtension>
            <ns3:hr>86</ns3:hr>
          </ns3:TrackPointExtension>
        </extensions>
      </trkpt>
      <trkpt lat="44.68758291564881801605224609375" lon="4.82700970955193042755126953125">
        <ele>241.8000030517578125</ele>
        <time>2025-10-25T13:27:43.000Z</time>
        <extensions>
          <ns3:TrackPointExtension>
            <ns3:hr>85</ns3:hr>
          </ns3:TrackPointExtension>
        </extensions>
      </trkpt>
      <trkpt lat="44.687750302255153656005859375" lon="4.826969392597675323486328125">
        <ele>242</ele>
        <time>2025-10-25T13:31:27.000Z</time>
        <extensions>
          <ns3:TrackPointExtension>
            <ns3:hr>86</ns3:hr>
          </ns3:TrackPointExtension>
        </extensions>
      </trkpt>
      <trkpt lat="44.68774435110390186309814453125" lon="4.826972074806690216064453125">
        <ele>242</ele>
        <time>2025-10-25T13:31:30.000Z</time>
        <extensions>
          <ns3:TrackPointExtension>
            <ns3:hr>85</ns3:hr>
          </ns3:TrackPointExtension>
        </extensions>
      </trkpt>
      <trkpt lat="44.68775876797735691070556640625" lon="4.82707072980701923370361328125">
        <ele>240.1999969482421875</ele>
        <time>2025-10-25T13:31:48.000Z</time>
        <extensions>
          <ns3:TrackPointExtension>
            <ns3:hr>84</ns3:hr>
          </ns3:TrackPointExtension>
        </extensions>
      </trkpt>
      <trkpt lat="44.68776631169021129608154296875" lon="4.82708447612822055816650390625">
        <ele>240.1999969482421875</ele>
        <time>2025-10-25T13:31:49.000Z</time>
        <extensions>
          <ns3:TrackPointExtension>
            <ns3:hr>84</ns3:hr>
          </ns3:TrackPointExtension>
        </extensions>
      </trkpt>
      <trkpt lat="44.68782951124012470245361328125" lon="4.82722613029181957244873046875">
        <ele>239.1999969482421875</ele>
        <time>2025-10-25T13:32:00.000Z</time>
        <extensions>
          <ns3:TrackPointExtension>
            <ns3:hr>86</ns3:hr>
          </ns3:TrackPointExtension>
        </extensions>
      </trkpt>
      <trkpt lat="44.68795523978769779205322265625" lon="4.82740868814289569854736328125">
        <ele>240</ele>
        <time>2025-10-25T13:32:17.000Z</time>
        <extensions>
          <ns3:TrackPointExtension>
            <ns3:hr>88</ns3:hr>
          </ns3:TrackPointExtension>
        </extensions>
      </trkpt>
      <trkpt lat="44.68809194862842559814453125" lon="4.8275472410023212432861328125">
        <ele>239.8000030517578125</ele>
        <time>2025-10-25T13:32:36.000Z</time>
        <extensions>
          <ns3:TrackPointExtension>
            <ns3:hr>92</ns3:hr>
          </ns3:TrackPointExtension>
        </extensions>
      </trkpt>
      <trkpt lat="44.68809840269386768341064453125" lon="4.82755335979163646697998046875">
        <ele>239.600006103515625</ele>
        <time>2025-10-25T13:32:37.000Z</time>
        <extensions>
          <ns3:TrackPointExtension>
            <ns3:hr>97</ns3:hr>
          </ns3:TrackPointExtension>
        </extensions>
      </trkpt>
      <trkpt lat="44.68810628168284893035888671875" lon="4.8275609873235225677490234375">
        <ele>239.600006103515625</ele>
        <time>2025-10-25T13:32:38.000Z</time>
        <extensions>
          <ns3:TrackPointExtension>
            <ns3:hr>96</ns3:hr>
          </ns3:TrackPointExtension>
        </extensions>
      </trkpt>
      <trkpt lat="44.6881343610584735870361328125" lon="4.82757917605340480804443359375">
        <ele>239.399993896484375</ele>
        <time>2025-10-25T13:32:41.000Z</time>
        <extensions>
          <ns3:TrackPointExtension>
            <ns3:hr>99</ns3:hr>
          </ns3:TrackPointExtension>
        </extensions>
      </trkpt>
      <trkpt lat="44.688177444040775299072265625" lon="4.8276153020560741424560546875">
        <ele>238.8000030517578125</ele>
        <time>2025-10-25T13:32:46.000Z</time>
        <extensions>
          <ns3:TrackPointExtension>
            <ns3:hr>102</ns3:hr>
          </ns3:TrackPointExtension>
        </extensions>
      </trkpt>
      <trkpt lat="44.68822815455496311187744140625" lon="4.82763986103236675262451171875">
        <ele>238</ele>
        <time>2025-10-25T13:32:51.000Z</time>
        <extensions>
          <ns3:TrackPointExtension>
            <ns3:hr>108</ns3:hr>
          </ns3:TrackPointExtension>
        </extensions>
      </trkpt>
      <trkpt lat="44.68823787756264209747314453125" lon="4.82764489017426967620849609375">
        <ele>237.8000030517578125</ele>
        <time>2025-10-25T13:32:52.000Z</time>
        <extensions>
          <ns3:TrackPointExtension>
            <ns3:hr>108</ns3:hr>
          </ns3:TrackPointExtension>
        </extensions>
      </trkpt>
      <trkpt lat="44.6882755123078823089599609375" lon="4.82767472974956035614013671875">
        <ele>237.1999969482421875</ele>
        <time>2025-10-25T13:32:56.000Z</time>
        <extensions>
          <ns3:TrackPointExtension>
            <ns3:hr>105</ns3:hr>
          </ns3:TrackPointExtension>
        </extensions>
      </trkpt>
      <trkpt lat="44.68829655088484287261962890625" lon="4.82768327929079532623291015625">
        <ele>237</ele>
        <time>2025-10-25T13:32:58.000Z</time>
        <extensions>
          <ns3:TrackPointExtension>
            <ns3:hr>104</ns3:hr>
          </ns3:TrackPointExtension>
        </extensions>
      </trkpt>
      <trkpt lat="44.68836477957665920257568359375" lon="4.82772904448211193084716796875">
        <ele>235.8000030517578125</ele>
        <time>2025-10-25T13:33:05.000Z</time>
        <extensions>
          <ns3:TrackPointExtension>
            <ns3:hr>102</ns3:hr>
          </ns3:TrackPointExtension>
        </extensions>
      </trkpt>
      <trkpt lat="44.68841657973825931549072265625" lon="4.82776609249413013458251953125">
        <ele>234.600006103515625</ele>
        <time>2025-10-25T13:33:11.000Z</time>
        <extensions>
          <ns3:TrackPointExtension>
            <ns3:hr>101</ns3:hr>
          </ns3:TrackPointExtension>
        </extensions>
      </trkpt>
      <trkpt lat="44.6884538792073726654052734375" lon="4.82779593206942081451416015625">
        <ele>233.399993896484375</ele>
        <time>2025-10-25T13:33:17.000Z</time>
        <extensions>
          <ns3:TrackPointExtension>
            <ns3:hr>100</ns3:hr>
          </ns3:TrackPointExtension>
        </extensions>
      </trkpt>
      <trkpt lat="44.68849369324743747711181640625" lon="4.82781437225639820098876953125">
        <ele>232.399993896484375</ele>
        <time>2025-10-25T13:33:22.000Z</time>
        <extensions>
          <ns3:TrackPointExtension>
            <ns3:hr>97</ns3:hr>
          </ns3:TrackPointExtension>
        </extensions>
      </trkpt>
      <trkpt lat="44.68850257806479930877685546875" lon="4.82781730592250823974609375">
        <ele>232.399993896484375</ele>
        <time>2025-10-25T13:33:23.000Z</time>
        <extensions>
          <ns3:TrackPointExtension>
            <ns3:hr>97</ns3:hr>
          </ns3:TrackPointExtension>
        </extensions>
      </trkpt>
      <trkpt lat="44.6885578148066997528076171875" lon="4.82783817686140537261962890625">
        <ele>231.1999969482421875</ele>
        <time>2025-10-25T13:33:29.000Z</time>
        <extensions>
          <ns3:TrackPointExtension>
            <ns3:hr>97</ns3:hr>
          </ns3:TrackPointExtension>
        </extensions>
      </trkpt>
      <trkpt lat="44.6886265464127063751220703125" lon="4.8278748057782649993896484375">
        <ele>230.1999969482421875</ele>
        <time>2025-10-25T13:33:35.000Z</time>
        <extensions>
          <ns3:TrackPointExtension>
            <ns3:hr>97</ns3:hr>
          </ns3:TrackPointExtension>
        </extensions>
      </trkpt>
      <trkpt lat="44.6886996366083621978759765625" lon="4.827997349202632904052734375">
        <ele>229.1999969482421875</ele>
        <time>2025-10-25T13:33:44.000Z</time>
        <extensions>
          <ns3:TrackPointExtension>
            <ns3:hr>97</ns3:hr>
          </ns3:TrackPointExtension>
        </extensions>
      </trkpt>
      <trkpt lat="44.6887321583926677703857421875" lon="4.82810740359127521514892578125">
        <ele>228.399993896484375</ele>
        <time>2025-10-25T13:33:52.000Z</time>
        <extensions>
          <ns3:TrackPointExtension>
            <ns3:hr>94</ns3:hr>
          </ns3:TrackPointExtension>
        </extensions>
      </trkpt>
      <trkpt lat="44.6887619979679584503173828125" lon="4.82818049378693103790283203125">
        <ele>228</ele>
        <time>2025-10-25T13:33:57.000Z</time>
        <extensions>
          <ns3:TrackPointExtension>
            <ns3:hr>94</ns3:hr>
          </ns3:TrackPointExtension>
        </extensions>
      </trkpt>
      <trkpt lat="44.68883265741169452667236328125" lon="4.8284196294844150543212890625">
        <ele>227.600006103515625</ele>
        <time>2025-10-25T13:34:13.000Z</time>
        <extensions>
          <ns3:TrackPointExtension>
            <ns3:hr>92</ns3:hr>
          </ns3:TrackPointExtension>
        </extensions>
      </trkpt>
      <trkpt lat="44.6888753212988376617431640625" lon="4.8285681568086147308349609375">
        <ele>227</ele>
        <time>2025-10-25T13:34:22.000Z</time>
        <extensions>
          <ns3:TrackPointExtension>
            <ns3:hr>91</ns3:hr>
          </ns3:TrackPointExtension>
        </extensions>
      </trkpt>
      <trkpt lat="44.688902981579303741455078125" lon="4.82875750400125980377197265625">
        <ele>226.399993896484375</ele>
        <time>2025-10-25T13:34:33.000Z</time>
        <extensions>
          <ns3:TrackPointExtension>
            <ns3:hr>88</ns3:hr>
          </ns3:TrackPointExtension>
        </extensions>
      </trkpt>
      <trkpt lat="44.68886434100568294525146484375" lon="4.82896017841994762420654296875">
        <ele>227.399993896484375</ele>
        <time>2025-10-25T13:34:49.000Z</time>
        <extensions>
          <ns3:TrackPointExtension>
            <ns3:hr>91</ns3:hr>
          </ns3:TrackPointExtension>
        </extensions>
      </trkpt>
      <trkpt lat="44.688841961324214935302734375" lon="4.829006195068359375">
        <ele>228.1999969482421875</ele>
        <time>2025-10-25T13:34:53.000Z</time>
        <extensions>
          <ns3:TrackPointExtension>
            <ns3:hr>90</ns3:hr>
          </ns3:TrackPointExtension>
        </extensions>
      </trkpt>
      <trkpt lat="44.68880298547446727752685546875" lon="4.8290687240660190582275390625">
        <ele>229.1999969482421875</ele>
        <time>2025-10-25T13:35:00.000Z</time>
        <extensions>
          <ns3:TrackPointExtension>
            <ns3:hr>90</ns3:hr>
          </ns3:TrackPointExtension>
        </extensions>
      </trkpt>
      <trkpt lat="44.6887516044080257415771484375" lon="4.82912731356918811798095703125">
        <ele>230</ele>
        <time>2025-10-25T13:35:06.000Z</time>
        <extensions>
          <ns3:TrackPointExtension>
            <ns3:hr>90</ns3:hr>
          </ns3:TrackPointExtension>
        </extensions>
      </trkpt>
      <trkpt lat="44.6887160651385784149169921875" lon="4.82917182147502899169921875">
        <ele>230.1999969482421875</ele>
        <time>2025-10-25T13:35:10.000Z</time>
        <extensions>
          <ns3:TrackPointExtension>
            <ns3:hr>90</ns3:hr>
          </ns3:TrackPointExtension>
        </extensions>
      </trkpt>
      <trkpt lat="44.68861087225377559661865234375" lon="4.829331077635288238525390625">
        <ele>229.600006103515625</ele>
        <time>2025-10-25T13:35:26.000Z</time>
        <extensions>
          <ns3:TrackPointExtension>
            <ns3:hr>87</ns3:hr>
          </ns3:TrackPointExtension>
        </extensions>
      </trkpt>
      <trkpt lat="44.68860559165477752685546875" lon="4.8293775133788585662841796875">
        <ele>229</ele>
        <time>2025-10-25T13:35:29.000Z</time>
        <extensions>
          <ns3:TrackPointExtension>
            <ns3:hr>87</ns3:hr>
          </ns3:TrackPointExtension>
        </extensions>
      </trkpt>
      <trkpt lat="44.68863911926746368408203125" lon="4.82950315810739994049072265625">
        <ele>228</ele>
        <time>2025-10-25T13:35:37.000Z</time>
        <extensions>
          <ns3:TrackPointExtension>
            <ns3:hr>88</ns3:hr>
          </ns3:TrackPointExtension>
        </extensions>
      </trkpt>
      <trkpt lat="44.6886490099132061004638671875" lon="4.8295186646282672882080078125">
        <ele>228</ele>
        <time>2025-10-25T13:35:38.000Z</time>
        <extensions>
          <ns3:TrackPointExtension>
            <ns3:hr>88</ns3:hr>
          </ns3:TrackPointExtension>
        </extensions>
      </trkpt>
      <trkpt lat="44.6887076832354068756103515625" lon="4.82961631380021572113037109375">
        <ele>226.8000030517578125</ele>
        <time>2025-10-25T13:35:46.000Z</time>
        <extensions>
          <ns3:TrackPointExtension>
            <ns3:hr>87</ns3:hr>
          </ns3:TrackPointExtension>
        </extensions>
      </trkpt>
      <trkpt lat="44.6887502633035182952880859375" lon="4.82968923635780811309814453125">
        <ele>225.8000030517578125</ele>
        <time>2025-10-25T13:35:53.000Z</time>
        <extensions>
          <ns3:TrackPointExtension>
            <ns3:hr>87</ns3:hr>
          </ns3:TrackPointExtension>
        </extensions>
      </trkpt>
      <trkpt lat="44.688799045979976654052734375" lon="4.829787723720073699951171875">
        <ele>224.600006103515625</ele>
        <time>2025-10-25T13:36:01.000Z</time>
        <extensions>
          <ns3:TrackPointExtension>
            <ns3:hr>86</ns3:hr>
          </ns3:TrackPointExtension>
        </extensions>
      </trkpt>
      <trkpt lat="44.68881958164274692535400390625" lon="4.82985754497349262237548828125">
        <ele>223.399993896484375</ele>
        <time>2025-10-25T13:36:07.000Z</time>
        <extensions>
          <ns3:TrackPointExtension>
            <ns3:hr>85</ns3:hr>
          </ns3:TrackPointExtension>
        </extensions>
      </trkpt>
      <trkpt lat="44.6888263709843158721923828125" lon="4.82992761768400669097900390625">
        <ele>222.600006103515625</ele>
        <time>2025-10-25T13:36:12.000Z</time>
        <extensions>
          <ns3:TrackPointExtension>
            <ns3:hr>80</ns3:hr>
          </ns3:TrackPointExtension>
        </extensions>
      </trkpt>
      <trkpt lat="44.68883735127747058868408203125" lon="4.829951338469982147216796875">
        <ele>222.399993896484375</ele>
        <time>2025-10-25T13:36:14.000Z</time>
        <extensions>
          <ns3:TrackPointExtension>
            <ns3:hr>80</ns3:hr>
          </ns3:TrackPointExtension>
        </extensions>
      </trkpt>
      <trkpt lat="44.68884187750518321990966796875" lon="4.8300695233047008514404296875">
        <ele>221.1999969482421875</ele>
        <time>2025-10-25T13:36:22.000Z</time>
        <extensions>
          <ns3:TrackPointExtension>
            <ns3:hr>81</ns3:hr>
          </ns3:TrackPointExtension>
        </extensions>
      </trkpt>
      <trkpt lat="44.68881480395793914794921875" lon="4.83013716526329517364501953125">
        <ele>220.8000030517578125</ele>
        <time>2025-10-25T13:36:26.000Z</time>
        <extensions>
          <ns3:TrackPointExtension>
            <ns3:hr>82</ns3:hr>
          </ns3:TrackPointExtension>
        </extensions>
      </trkpt>
      <trkpt lat="44.68881203792989253997802734375" lon="4.8301868699491024017333984375">
        <ele>220.1999969482421875</ele>
        <time>2025-10-25T13:36:30.000Z</time>
        <extensions>
          <ns3:TrackPointExtension>
            <ns3:hr>83</ns3:hr>
          </ns3:TrackPointExtension>
        </extensions>
      </trkpt>
      <trkpt lat="44.68882662244141101837158203125" lon="4.83023942448198795318603515625">
        <ele>219.399993896484375</ele>
        <time>2025-10-25T13:36:36.000Z</time>
        <extensions>
          <ns3:TrackPointExtension>
            <ns3:hr>83</ns3:hr>
          </ns3:TrackPointExtension>
        </extensions>
      </trkpt>
      <trkpt lat="44.68883533962070941925048828125" lon="4.8302458785474300384521484375">
        <ele>219.1999969482421875</ele>
        <time>2025-10-25T13:36:37.000Z</time>
        <extensions>
          <ns3:TrackPointExtension>
            <ns3:hr>83</ns3:hr>
          </ns3:TrackPointExtension>
        </extensions>
      </trkpt>
      <trkpt lat="44.6888478286564350128173828125" lon="4.83025250025093555450439453125">
        <ele>218.8000030517578125</ele>
        <time>2025-10-25T13:36:40.000Z</time>
        <extensions>
          <ns3:TrackPointExtension>
            <ns3:hr>84</ns3:hr>
          </ns3:TrackPointExtension>
        </extensions>
      </trkpt>
      <trkpt lat="44.688892252743244171142578125" lon="4.8302452079951763153076171875">
        <ele>218.1999969482421875</ele>
        <time>2025-10-25T13:36:44.000Z</time>
        <extensions>
          <ns3:TrackPointExtension>
            <ns3:hr>84</ns3:hr>
          </ns3:TrackPointExtension>
        </extensions>
      </trkpt>
      <trkpt lat="44.6890691109001636505126953125" lon="4.8301908932626247406005859375">
        <ele>219.1999969482421875</ele>
        <time>2025-10-25T13:37:09.000Z</time>
        <extensions>
          <ns3:TrackPointExtension>
            <ns3:hr>85</ns3:hr>
          </ns3:TrackPointExtension>
        </extensions>
      </trkpt>
      <trkpt lat="44.68916189856827259063720703125" lon="4.83016650192439556121826171875">
        <ele>220.1999969482421875</ele>
        <time>2025-10-25T13:37:18.000Z</time>
        <extensions>
          <ns3:TrackPointExtension>
            <ns3:hr>84</ns3:hr>
          </ns3:TrackPointExtension>
        </extensions>
      </trkpt>
      <trkpt lat="44.6892521716654300689697265625" lon="4.830127023160457611083984375">
        <ele>221.1999969482421875</ele>
        <time>2025-10-25T13:37:27.000Z</time>
        <extensions>
          <ns3:TrackPointExtension>
            <ns3:hr>84</ns3:hr>
          </ns3:TrackPointExtension>
        </extensions>
      </trkpt>
      <trkpt lat="44.68933942727744579315185546875" lon="4.83014881610870361328125">
        <ele>222.399993896484375</ele>
        <time>2025-10-25T13:37:36.000Z</time>
        <extensions>
          <ns3:TrackPointExtension>
            <ns3:hr>84</ns3:hr>
          </ns3:TrackPointExtension>
        </extensions>
      </trkpt>
      <trkpt lat="44.68941855244338512420654296875" lon="4.83018309809267520904541015625">
        <ele>223.399993896484375</ele>
        <time>2025-10-25T13:37:45.000Z</time>
        <extensions>
          <ns3:TrackPointExtension>
            <ns3:hr>84</ns3:hr>
          </ns3:TrackPointExtension>
        </extensions>
      </trkpt>
      <trkpt lat="44.6895079873502254486083984375" lon="4.83022500760853290557861328125">
        <ele>224.600006103515625</ele>
        <time>2025-10-25T13:37:53.000Z</time>
        <extensions>
          <ns3:TrackPointExtension>
            <ns3:hr>83</ns3:hr>
          </ns3:TrackPointExtension>
        </extensions>
      </trkpt>
      <trkpt lat="44.68952869065105915069580078125" lon="4.83024914748966693878173828125">
        <ele>224.8000030517578125</ele>
        <time>2025-10-25T13:37:55.000Z</time>
        <extensions>
          <ns3:TrackPointExtension>
            <ns3:hr>82</ns3:hr>
          </ns3:TrackPointExtension>
        </extensions>
      </trkpt>
      <trkpt lat="44.6896048821508884429931640625" lon="4.830298013985157012939453125">
        <ele>225.600006103515625</ele>
        <time>2025-10-25T13:38:02.000Z</time>
        <extensions>
          <ns3:TrackPointExtension>
            <ns3:hr>81</ns3:hr>
          </ns3:TrackPointExtension>
        </extensions>
      </trkpt>
      <trkpt lat="44.68962457962334156036376953125" lon="4.83032039366662502288818359375">
        <ele>226.1999969482421875</ele>
        <time>2025-10-25T13:38:05.000Z</time>
        <extensions>
          <ns3:TrackPointExtension>
            <ns3:hr>85</ns3:hr>
          </ns3:TrackPointExtension>
        </extensions>
      </trkpt>
      <trkpt lat="44.689641930162906646728515625" lon="4.83033916912972927093505859375">
        <ele>226.600006103515625</ele>
        <time>2025-10-25T13:38:07.000Z</time>
        <extensions>
          <ns3:TrackPointExtension>
            <ns3:hr>87</ns3:hr>
          </ns3:TrackPointExtension>
        </extensions>
      </trkpt>
      <trkpt lat="44.6896521560847759246826171875" lon="4.830355010926723480224609375">
        <ele>226.8000030517578125</ele>
        <time>2025-10-25T13:38:09.000Z</time>
        <extensions>
          <ns3:TrackPointExtension>
            <ns3:hr>90</ns3:hr>
          </ns3:TrackPointExtension>
        </extensions>
      </trkpt>
      <trkpt lat="44.6896742843091487884521484375" lon="4.83040085993707180023193359375">
        <ele>227.399993896484375</ele>
        <time>2025-10-25T13:38:13.000Z</time>
        <extensions>
          <ns3:TrackPointExtension>
            <ns3:hr>88</ns3:hr>
          </ns3:TrackPointExtension>
        </extensions>
      </trkpt>
      <trkpt lat="44.68967889435589313507080078125" lon="4.83041292987763881683349609375">
        <ele>227.600006103515625</ele>
        <time>2025-10-25T13:38:14.000Z</time>
        <extensions>
          <ns3:TrackPointExtension>
            <ns3:hr>87</ns3:hr>
          </ns3:TrackPointExtension>
        </extensions>
      </trkpt>
      <trkpt lat="44.6896806545555591583251953125" lon="4.8304359801113605499267578125">
        <ele>228</ele>
        <time>2025-10-25T13:38:16.000Z</time>
        <extensions>
          <ns3:TrackPointExtension>
            <ns3:hr>84</ns3:hr>
          </ns3:TrackPointExtension>
        </extensions>
      </trkpt>
      <trkpt lat="44.6896846778690814971923828125" lon="4.83050161041319370269775390625">
        <ele>228.8000030517578125</ele>
        <time>2025-10-25T13:38:22.000Z</time>
        <extensions>
          <ns3:TrackPointExtension>
            <ns3:hr>82</ns3:hr>
          </ns3:TrackPointExtension>
        </extensions>
      </trkpt>
      <trkpt lat="44.68968727625906467437744140625" lon="4.83051284216344356536865234375">
        <ele>229</ele>
        <time>2025-10-25T13:38:23.000Z</time>
        <extensions>
          <ns3:TrackPointExtension>
            <ns3:hr>77</ns3:hr>
          </ns3:TrackPointExtension>
        </extensions>
      </trkpt>
      <trkpt lat="44.6896920539438724517822265625" lon="4.83052575029432773590087890625">
        <ele>229.1999969482421875</ele>
        <time>2025-10-25T13:38:24.000Z</time>
        <extensions>
          <ns3:TrackPointExtension>
            <ns3:hr>77</ns3:hr>
          </ns3:TrackPointExtension>
        </extensions>
      </trkpt>
      <trkpt lat="44.6897041238844394683837890625" lon="4.830599091947078704833984375">
        <ele>230</ele>
        <time>2025-10-25T13:38:31.000Z</time>
        <extensions>
          <ns3:TrackPointExtension>
            <ns3:hr>77</ns3:hr>
          </ns3:TrackPointExtension>
        </extensions>
      </trkpt>
      <trkpt lat="44.6897017769515514373779296875" lon="4.83068634755909442901611328125">
        <ele>231</ele>
        <time>2025-10-25T13:38:41.000Z</time>
        <extensions>
          <ns3:TrackPointExtension>
            <ns3:hr>78</ns3:hr>
          </ns3:TrackPointExtension>
        </extensions>
      </trkpt>
      <trkpt lat="44.6897228993475437164306640625" lon="4.8308057896792888641357421875">
        <ele>232.1999969482421875</ele>
        <time>2025-10-25T13:38:52.000Z</time>
        <extensions>
          <ns3:TrackPointExtension>
            <ns3:hr>77</ns3:hr>
          </ns3:TrackPointExtension>
        </extensions>
      </trkpt>
      <trkpt lat="44.6897487156093120574951171875" lon="4.83086203224956989288330078125">
        <ele>232.600006103515625</ele>
        <time>2025-10-25T13:39:00.000Z</time>
        <extensions>
          <ns3:TrackPointExtension>
            <ns3:hr>80</ns3:hr>
          </ns3:TrackPointExtension>
        </extensions>
      </trkpt>
      <trkpt lat="44.6897708438336849212646484375" lon="4.8308560810983180999755859375">
        <ele>233.1999969482421875</ele>
        <time>2025-10-25T13:39:03.000Z</time>
        <extensions>
          <ns3:TrackPointExtension>
            <ns3:hr>80</ns3:hr>
          </ns3:TrackPointExtension>
        </extensions>
      </trkpt>
      <trkpt lat="44.68979305587708950042724609375" lon="4.83083386905491352081298828125">
        <ele>233.8000030517578125</ele>
        <time>2025-10-25T13:39:07.000Z</time>
        <extensions>
          <ns3:TrackPointExtension>
            <ns3:hr>84</ns3:hr>
          </ns3:TrackPointExtension>
        </extensions>
      </trkpt>
      <trkpt lat="44.68977771699428558349609375" lon="4.830800928175449371337890625">
        <ele>234.1999969482421875</ele>
        <time>2025-10-25T13:39:11.000Z</time>
        <extensions>
          <ns3:TrackPointExtension>
            <ns3:hr>87</ns3:hr>
          </ns3:TrackPointExtension>
        </extensions>
      </trkpt>
      <trkpt lat="44.68977503478527069091796875" lon="4.8307913728058338165283203125">
        <ele>234.1999969482421875</ele>
        <time>2025-10-25T13:39:12.000Z</time>
        <extensions>
          <ns3:TrackPointExtension>
            <ns3:hr>87</ns3:hr>
          </ns3:TrackPointExtension>
        </extensions>
      </trkpt>
      <trkpt lat="44.68977360986173152923583984375" lon="4.83074015937745571136474609375">
        <ele>234.8000030517578125</ele>
        <time>2025-10-25T13:39:17.000Z</time>
        <extensions>
          <ns3:TrackPointExtension>
            <ns3:hr>90</ns3:hr>
          </ns3:TrackPointExtension>
        </extensions>
      </trkpt>
      <trkpt lat="44.68976606614887714385986328125" lon="4.8307080566883087158203125">
        <ele>235</ele>
        <time>2025-10-25T13:39:20.000Z</time>
        <extensions>
          <ns3:TrackPointExtension>
            <ns3:hr>94</ns3:hr>
          </ns3:TrackPointExtension>
        </extensions>
      </trkpt>
      <trkpt lat="44.6897497214376926422119140625" lon="4.83069288544356822967529296875">
        <ele>235.1999969482421875</ele>
        <time>2025-10-25T13:39:23.000Z</time>
        <extensions>
          <ns3:TrackPointExtension>
            <ns3:hr>97</ns3:hr>
          </ns3:TrackPointExtension>
        </extensions>
      </trkpt>
      <trkpt lat="44.6897443570196628570556640625" lon="4.830686263740062713623046875">
        <ele>235.1999969482421875</ele>
        <time>2025-10-25T13:39:24.000Z</time>
        <extensions>
          <ns3:TrackPointExtension>
            <ns3:hr>97</ns3:hr>
          </ns3:TrackPointExtension>
        </extensions>
      </trkpt>
      <trkpt lat="44.689721725881099700927734375" lon="4.830647371709346771240234375">
        <ele>235.600006103515625</ele>
        <time>2025-10-25T13:39:28.000Z</time>
        <extensions>
          <ns3:TrackPointExtension>
            <ns3:hr>102</ns3:hr>
          </ns3:TrackPointExtension>
        </extensions>
      </trkpt>
      <trkpt lat="44.6897218935191631317138671875" lon="4.83058945275843143463134765625">
        <ele>236.399993896484375</ele>
        <time>2025-10-25T13:39:33.000Z</time>
        <extensions>
          <ns3:TrackPointExtension>
            <ns3:hr>103</ns3:hr>
          </ns3:TrackPointExtension>
        </extensions>
      </trkpt>
      <trkpt lat="44.689742513000965118408203125" lon="4.83054854907095432281494140625">
        <ele>236.600006103515625</ele>
        <time>2025-10-25T13:39:37.000Z</time>
        <extensions>
          <ns3:TrackPointExtension>
            <ns3:hr>106</ns3:hr>
          </ns3:TrackPointExtension>
        </extensions>
      </trkpt>
      <trkpt lat="44.689796827733516693115234375" lon="4.83045450411736965179443359375">
        <ele>237.1999969482421875</ele>
        <time>2025-10-25T13:39:45.000Z</time>
        <extensions>
          <ns3:TrackPointExtension>
            <ns3:hr>103</ns3:hr>
          </ns3:TrackPointExtension>
        </extensions>
      </trkpt>
      <trkpt lat="44.68980596400797367095947265625" lon="4.83042416162788867950439453125">
        <ele>237.399993896484375</ele>
        <time>2025-10-25T13:39:47.000Z</time>
        <extensions>
          <ns3:TrackPointExtension>
            <ns3:hr>105</ns3:hr>
          </ns3:TrackPointExtension>
        </extensions>
      </trkpt>
      <trkpt lat="44.6898161061108112335205078125" lon="4.83023657463490962982177734375">
        <ele>238.1999969482421875</ele>
        <time>2025-10-25T13:39:59.000Z</time>
        <extensions>
          <ns3:TrackPointExtension>
            <ns3:hr>101</ns3:hr>
          </ns3:TrackPointExtension>
        </extensions>
      </trkpt>
      <trkpt lat="44.68981568701565265655517578125" lon="4.8301791585981845855712890625">
        <ele>238.399993896484375</ele>
        <time>2025-10-25T13:40:03.000Z</time>
        <extensions>
          <ns3:TrackPointExtension>
            <ns3:hr>104</ns3:hr>
          </ns3:TrackPointExtension>
        </extensions>
      </trkpt>
      <trkpt lat="44.6898157708346843719482421875" lon="4.83012995682656764984130859375">
        <ele>238.600006103515625</ele>
        <time>2025-10-25T13:40:06.000Z</time>
        <extensions>
          <ns3:TrackPointExtension>
            <ns3:hr>107</ns3:hr>
          </ns3:TrackPointExtension>
        </extensions>
      </trkpt>
      <trkpt lat="44.6898529864847660064697265625" lon="4.82999601401388645172119140625">
        <ele>239.600006103515625</ele>
        <time>2025-10-25T13:40:17.000Z</time>
        <extensions>
          <ns3:TrackPointExtension>
            <ns3:hr>105</ns3:hr>
          </ns3:TrackPointExtension>
        </extensions>
      </trkpt>
      <trkpt lat="44.68991660512983798980712890625" lon="4.82986223883926868438720703125">
        <ele>240.600006103515625</ele>
        <time>2025-10-25T13:40:30.000Z</time>
        <extensions>
          <ns3:TrackPointExtension>
            <ns3:hr>102</ns3:hr>
          </ns3:TrackPointExtension>
        </extensions>
      </trkpt>
      <trkpt lat="44.68994728289544582366943359375" lon="4.8298080079257488250732421875">
        <ele>241.8000030517578125</ele>
        <time>2025-10-25T13:40:38.000Z</time>
        <extensions>
          <ns3:TrackPointExtension>
            <ns3:hr>102</ns3:hr>
          </ns3:TrackPointExtension>
        </extensions>
      </trkpt>
      <trkpt lat="44.6900035254657268524169921875" lon="4.8298415355384349822998046875">
        <ele>242.399993896484375</ele>
        <time>2025-10-25T13:40:47.000Z</time>
        <extensions>
          <ns3:TrackPointExtension>
            <ns3:hr>99</ns3:hr>
          </ns3:TrackPointExtension>
        </extensions>
      </trkpt>
      <trkpt lat="44.6900219656527042388916015625" lon="4.829858131706714630126953125">
        <ele>242.8000030517578125</ele>
        <time>2025-10-25T13:40:50.000Z</time>
        <extensions>
          <ns3:TrackPointExtension>
            <ns3:hr>98</ns3:hr>
          </ns3:TrackPointExtension>
        </extensions>
      </trkpt>
      <trkpt lat="44.69003059901297092437744140625" lon="4.8298623226583003997802734375">
        <ele>243</ele>
        <time>2025-10-25T13:40:51.000Z</time>
        <extensions>
          <ns3:TrackPointExtension>
            <ns3:hr>94</ns3:hr>
          </ns3:TrackPointExtension>
        </extensions>
      </trkpt>
      <trkpt lat="44.6900377236306667327880859375" lon="4.82986793853342533111572265625">
        <ele>243.1999969482421875</ele>
        <time>2025-10-25T13:40:52.000Z</time>
        <extensions>
          <ns3:TrackPointExtension>
            <ns3:hr>88</ns3:hr>
          </ns3:TrackPointExtension>
        </extensions>
      </trkpt>
      <trkpt lat="44.690045602619647979736328125" lon="4.82987246476113796234130859375">
        <ele>243.399993896484375</ele>
        <time>2025-10-25T13:40:53.000Z</time>
        <extensions>
          <ns3:TrackPointExtension>
            <ns3:hr>92</ns3:hr>
          </ns3:TrackPointExtension>
        </extensions>
      </trkpt>
      <trkpt lat="44.69006337225437164306640625" lon="4.82988436706364154815673828125">
        <ele>243.8000030517578125</ele>
        <time>2025-10-25T13:40:55.000Z</time>
        <extensions>
          <ns3:TrackPointExtension>
            <ns3:hr>96</ns3:hr>
          </ns3:TrackPointExtension>
        </extensions>
      </trkpt>
      <trkpt lat="44.6900722570717334747314453125" lon="4.8298928327858448028564453125">
        <ele>243.8000030517578125</ele>
        <time>2025-10-25T13:40:56.000Z</time>
        <extensions>
          <ns3:TrackPointExtension>
            <ns3:hr>98</ns3:hr>
          </ns3:TrackPointExtension>
        </extensions>
      </trkpt>
      <trkpt lat="44.690106622874736785888671875" lon="4.82992057688534259796142578125">
        <ele>244.1999969482421875</ele>
        <time>2025-10-25T13:41:00.000Z</time>
        <extensions>
          <ns3:TrackPointExtension>
            <ns3:hr>102</ns3:hr>
          </ns3:TrackPointExtension>
        </extensions>
      </trkpt>
      <trkpt lat="44.690186083316802978515625" lon="4.82994966208934783935546875">
        <ele>245</ele>
        <time>2025-10-25T13:41:07.000Z</time>
        <extensions>
          <ns3:TrackPointExtension>
            <ns3:hr>103</ns3:hr>
          </ns3:TrackPointExtension>
        </extensions>
      </trkpt>
      <trkpt lat="44.690259508788585662841796875" lon="4.829998277127742767333984375">
        <ele>246</ele>
        <time>2025-10-25T13:41:15.000Z</time>
        <extensions>
          <ns3:TrackPointExtension>
            <ns3:hr>104</ns3:hr>
          </ns3:TrackPointExtension>
        </extensions>
      </trkpt>
      <trkpt lat="44.69031943939626216888427734375" lon="4.8300390131771564483642578125">
        <ele>247.1999969482421875</ele>
        <time>2025-10-25T13:41:22.000Z</time>
        <extensions>
          <ns3:TrackPointExtension>
            <ns3:hr>104</ns3:hr>
          </ns3:TrackPointExtension>
        </extensions>
      </trkpt>
      <trkpt lat="44.69037157483398914337158203125" lon="4.830062650144100189208984375">
        <ele>248.1999969482421875</ele>
        <time>2025-10-25T13:41:28.000Z</time>
        <extensions>
          <ns3:TrackPointExtension>
            <ns3:hr>104</ns3:hr>
          </ns3:TrackPointExtension>
        </extensions>
      </trkpt>
      <trkpt lat="44.69041935168206691741943359375" lon="4.83008938841521739959716796875">
        <ele>249.1999969482421875</ele>
        <time>2025-10-25T13:41:34.000Z</time>
        <extensions>
          <ns3:TrackPointExtension>
            <ns3:hr>106</ns3:hr>
          </ns3:TrackPointExtension>
        </extensions>
      </trkpt>
      <trkpt lat="44.69046696089208126068115234375" lon="4.83012073673307895660400390625">
        <ele>250.1999969482421875</ele>
        <time>2025-10-25T13:41:41.000Z</time>
        <extensions>
          <ns3:TrackPointExtension>
            <ns3:hr>108</ns3:hr>
          </ns3:TrackPointExtension>
        </extensions>
      </trkpt>
      <trkpt lat="44.69051306135952472686767578125" lon="4.83013582415878772735595703125">
        <ele>251</ele>
        <time>2025-10-25T13:41:45.000Z</time>
        <extensions>
          <ns3:TrackPointExtension>
            <ns3:hr>111</ns3:hr>
          </ns3:TrackPointExtension>
        </extensions>
      </trkpt>
      <trkpt lat="44.6905522048473358154296875" lon="4.83015409670770168304443359375">
        <ele>251.399993896484375</ele>
        <time>2025-10-25T13:41:48.000Z</time>
        <extensions>
          <ns3:TrackPointExtension>
            <ns3:hr>113</ns3:hr>
          </ns3:TrackPointExtension>
        </extensions>
      </trkpt>
      <trkpt lat="44.690565951168537139892578125" lon="4.83017505146563053131103515625">
        <ele>251.8000030517578125</ele>
        <time>2025-10-25T13:41:50.000Z</time>
        <extensions>
          <ns3:TrackPointExtension>
            <ns3:hr>116</ns3:hr>
          </ns3:TrackPointExtension>
        </extensions>
      </trkpt>
      <trkpt lat="44.690581373870372772216796875" lon="4.83019466511905193328857421875">
        <ele>252.399993896484375</ele>
        <time>2025-10-25T13:41:52.000Z</time>
        <extensions>
          <ns3:TrackPointExtension>
            <ns3:hr>115</ns3:hr>
          </ns3:TrackPointExtension>
        </extensions>
      </trkpt>
      <trkpt lat="44.69061917625367641448974609375" lon="4.830242693424224853515625">
        <ele>253</ele>
        <time>2025-10-25T13:41:58.000Z</time>
        <extensions>
          <ns3:TrackPointExtension>
            <ns3:hr>112</ns3:hr>
          </ns3:TrackPointExtension>
        </extensions>
      </trkpt>
      <trkpt lat="44.69065890647470951080322265625" lon="4.8302733711898326873779296875">
        <ele>253.399993896484375</ele>
        <time>2025-10-25T13:42:03.000Z</time>
        <extensions>
          <ns3:TrackPointExtension>
            <ns3:hr>115</ns3:hr>
          </ns3:TrackPointExtension>
        </extensions>
      </trkpt>
      <trkpt lat="44.69072579406201839447021484375" lon="4.8302981816232204437255859375">
        <ele>254.399993896484375</ele>
        <time>2025-10-25T13:42:11.000Z</time>
        <extensions>
          <ns3:TrackPointExtension>
            <ns3:hr>112</ns3:hr>
          </ns3:TrackPointExtension>
        </extensions>
      </trkpt>
      <trkpt lat="44.69087180681526660919189453125" lon="4.8303803242743015289306640625">
        <ele>255.600006103515625</ele>
        <time>2025-10-25T13:42:26.000Z</time>
        <extensions>
          <ns3:TrackPointExtension>
            <ns3:hr>111</ns3:hr>
          </ns3:TrackPointExtension>
        </extensions>
      </trkpt>
      <trkpt lat="44.6910267882049083709716796875" lon="4.8305140994489192962646484375">
        <ele>256.20001220703125</ele>
        <time>2025-10-25T13:42:44.000Z</time>
        <extensions>
          <ns3:TrackPointExtension>
            <ns3:hr>109</ns3:hr>
          </ns3:TrackPointExtension>
        </extensions>
      </trkpt>
      <trkpt lat="44.69105151481926441192626953125" lon="4.83052759431302547454833984375">
        <ele>256.600006103515625</ele>
        <time>2025-10-25T13:42:47.000Z</time>
        <extensions>
          <ns3:TrackPointExtension>
            <ns3:hr>109</ns3:hr>
          </ns3:TrackPointExtension>
        </extensions>
      </trkpt>
      <trkpt lat="44.69107833690941333770751953125" lon="4.83055575750768184661865234375">
        <ele>256.79998779296875</ele>
        <time>2025-10-25T13:42:51.000Z</time>
        <extensions>
          <ns3:TrackPointExtension>
            <ns3:hr>107</ns3:hr>
          </ns3:TrackPointExtension>
        </extensions>
      </trkpt>
      <trkpt lat="44.691108763217926025390625" lon="4.8305831663310527801513671875">
        <ele>257</ele>
        <time>2025-10-25T13:42:55.000Z</time>
        <extensions>
          <ns3:TrackPointExtension>
            <ns3:hr>104</ns3:hr>
          </ns3:TrackPointExtension>
        </extensions>
      </trkpt>
      <trkpt lat="44.6911588869988918304443359375" lon="4.83063521794974803924560546875">
        <ele>257.20001220703125</ele>
        <time>2025-10-25T13:43:01.000Z</time>
        <extensions>
          <ns3:TrackPointExtension>
            <ns3:hr>107</ns3:hr>
          </ns3:TrackPointExtension>
        </extensions>
      </trkpt>
      <trkpt lat="44.69120205380022525787353515625" lon="4.8306669853627681732177734375">
        <ele>257.600006103515625</ele>
        <time>2025-10-25T13:43:05.000Z</time>
        <extensions>
          <ns3:TrackPointExtension>
            <ns3:hr>106</ns3:hr>
          </ns3:TrackPointExtension>
        </extensions>
      </trkpt>
      <trkpt lat="44.6912078373134136199951171875" lon="4.83067830093204975128173828125">
        <ele>257.600006103515625</ele>
        <time>2025-10-25T13:43:06.000Z</time>
        <extensions>
          <ns3:TrackPointExtension>
            <ns3:hr>102</ns3:hr>
          </ns3:TrackPointExtension>
        </extensions>
      </trkpt>
      <trkpt lat="44.69122032634913921356201171875" lon="4.83070042915642261505126953125">
        <ele>257.79998779296875</ele>
        <time>2025-10-25T13:43:08.000Z</time>
        <extensions>
          <ns3:TrackPointExtension>
            <ns3:hr>99</ns3:hr>
          </ns3:TrackPointExtension>
        </extensions>
      </trkpt>
      <trkpt lat="44.69131839461624622344970703125" lon="4.83079631812870502471923828125">
        <ele>258.600006103515625</ele>
        <time>2025-10-25T13:43:18.000Z</time>
        <extensions>
          <ns3:TrackPointExtension>
            <ns3:hr>97</ns3:hr>
          </ns3:TrackPointExtension>
        </extensions>
      </trkpt>
      <trkpt lat="44.691483266651630401611328125" lon="4.83089807443320751190185546875">
        <ele>258.79998779296875</ele>
        <time>2025-10-25T13:43:37.000Z</time>
        <extensions>
          <ns3:TrackPointExtension>
            <ns3:hr>99</ns3:hr>
          </ns3:TrackPointExtension>
        </extensions>
      </trkpt>
      <trkpt lat="44.69152576290071010589599609375" lon="4.83091659843921661376953125">
        <ele>259.20001220703125</ele>
        <time>2025-10-25T13:43:47.000Z</time>
        <extensions>
          <ns3:TrackPointExtension>
            <ns3:hr>100</ns3:hr>
          </ns3:TrackPointExtension>
        </extensions>
      </trkpt>
      <trkpt lat="44.69155861996114253997802734375" lon="4.83101609162986278533935546875">
        <ele>259.600006103515625</ele>
        <time>2025-10-25T13:44:34.000Z</time>
        <extensions>
          <ns3:TrackPointExtension>
            <ns3:hr>86</ns3:hr>
          </ns3:TrackPointExtension>
        </extensions>
      </trkpt>
      <trkpt lat="44.69156700186431407928466796875" lon="4.8310253955423831939697265625">
        <ele>259.600006103515625</ele>
        <time>2025-10-25T13:44:35.000Z</time>
        <extensions>
          <ns3:TrackPointExtension>
            <ns3:hr>86</ns3:hr>
          </ns3:TrackPointExtension>
        </extensions>
      </trkpt>
      <trkpt lat="44.69164176844060420989990234375" lon="4.831125475466251373291015625">
        <ele>259.79998779296875</ele>
        <time>2025-10-25T13:44:45.000Z</time>
        <extensions>
          <ns3:TrackPointExtension>
            <ns3:hr>89</ns3:hr>
          </ns3:TrackPointExtension>
        </extensions>
      </trkpt>
      <trkpt lat="44.69167060218751430511474609375" lon="4.83116948045790195465087890625">
        <ele>260</ele>
        <time>2025-10-25T13:44:49.000Z</time>
        <extensions>
          <ns3:TrackPointExtension>
            <ns3:hr>94</ns3:hr>
          </ns3:TrackPointExtension>
        </extensions>
      </trkpt>
      <trkpt lat="44.69169490970671176910400390625" lon="4.8311962187290191650390625">
        <ele>260</ele>
        <time>2025-10-25T13:44:52.000Z</time>
        <extensions>
          <ns3:TrackPointExtension>
            <ns3:hr>97</ns3:hr>
          </ns3:TrackPointExtension>
        </extensions>
      </trkpt>
      <trkpt lat="44.6917647309601306915283203125" lon="4.831288419663906097412109375">
        <ele>260</ele>
        <time>2025-10-25T13:45:01.000Z</time>
        <extensions>
          <ns3:TrackPointExtension>
            <ns3:hr>94</ns3:hr>
          </ns3:TrackPointExtension>
        </extensions>
      </trkpt>
      <trkpt lat="44.6918257512152194976806640625" lon="4.83137584291398525238037109375">
        <ele>260.20001220703125</ele>
        <time>2025-10-25T13:45:10.000Z</time>
        <extensions>
          <ns3:TrackPointExtension>
            <ns3:hr>99</ns3:hr>
          </ns3:TrackPointExtension>
        </extensions>
      </trkpt>
      <trkpt lat="44.69183321110904216766357421875" lon="4.83138439245522022247314453125">
        <ele>260.20001220703125</ele>
        <time>2025-10-25T13:45:11.000Z</time>
        <extensions>
          <ns3:TrackPointExtension>
            <ns3:hr>102</ns3:hr>
          </ns3:TrackPointExtension>
        </extensions>
      </trkpt>
      <trkpt lat="44.69184209592640399932861328125" lon="4.83139193616807460784912109375">
        <ele>260.20001220703125</ele>
        <time>2025-10-25T13:45:12.000Z</time>
        <extensions>
          <ns3:TrackPointExtension>
            <ns3:hr>102</ns3:hr>
          </ns3:TrackPointExtension>
        </extensions>
      </trkpt>
      <trkpt lat="44.69186422415077686309814453125" lon="4.83142353594303131103515625">
        <ele>260.20001220703125</ele>
        <time>2025-10-25T13:45:16.000Z</time>
        <extensions>
          <ns3:TrackPointExtension>
            <ns3:hr>105</ns3:hr>
          </ns3:TrackPointExtension>
        </extensions>
      </trkpt>
      <trkpt lat="44.6919303573668003082275390625" lon="4.8315708898007869720458984375">
        <ele>259.79998779296875</ele>
        <time>2025-10-25T13:45:29.000Z</time>
        <extensions>
          <ns3:TrackPointExtension>
            <ns3:hr>102</ns3:hr>
          </ns3:TrackPointExtension>
        </extensions>
      </trkpt>
      <trkpt lat="44.69200185500085353851318359375" lon="4.8317586444318294525146484375">
        <ele>259.600006103515625</ele>
        <time>2025-10-25T13:45:44.000Z</time>
        <extensions>
          <ns3:TrackPointExtension>
            <ns3:hr>99</ns3:hr>
          </ns3:TrackPointExtension>
        </extensions>
      </trkpt>
      <trkpt lat="44.69205063767731189727783203125" lon="4.83193055726587772369384765625">
        <ele>258.600006103515625</ele>
        <time>2025-10-25T13:46:02.000Z</time>
        <extensions>
          <ns3:TrackPointExtension>
            <ns3:hr>98</ns3:hr>
          </ns3:TrackPointExtension>
        </extensions>
      </trkpt>
      <trkpt lat="44.6920730173587799072265625" lon="4.83203600160777568817138671875">
        <ele>258</ele>
        <time>2025-10-25T13:46:12.000Z</time>
        <extensions>
          <ns3:TrackPointExtension>
            <ns3:hr>101</ns3:hr>
          </ns3:TrackPointExtension>
        </extensions>
      </trkpt>
      <trkpt lat="44.692060612142086029052734375" lon="4.832152426242828369140625">
        <ele>257.600006103515625</ele>
        <time>2025-10-25T13:46:21.000Z</time>
        <extensions>
          <ns3:TrackPointExtension>
            <ns3:hr>101</ns3:hr>
          </ns3:TrackPointExtension>
        </extensions>
      </trkpt>
      <trkpt lat="44.69205558300018310546875" lon="4.832231216132640838623046875">
        <ele>257.20001220703125</ele>
        <time>2025-10-25T13:46:27.000Z</time>
        <extensions>
          <ns3:TrackPointExtension>
            <ns3:hr>98</ns3:hr>
          </ns3:TrackPointExtension>
        </extensions>
      </trkpt>
      <trkpt lat="44.69204644672572612762451171875" lon="4.832340180873870849609375">
        <ele>256.600006103515625</ele>
        <time>2025-10-25T13:46:37.000Z</time>
        <extensions>
          <ns3:TrackPointExtension>
            <ns3:hr>99</ns3:hr>
          </ns3:TrackPointExtension>
        </extensions>
      </trkpt>
      <trkpt lat="44.692016355693340301513671875" lon="4.8324219882488250732421875">
        <ele>255.600006103515625</ele>
        <time>2025-10-25T13:46:47.000Z</time>
        <extensions>
          <ns3:TrackPointExtension>
            <ns3:hr>96</ns3:hr>
          </ns3:TrackPointExtension>
        </extensions>
      </trkpt>
      <trkpt lat="44.6919427625834941864013671875" lon="4.83256221748888492584228515625">
        <ele>254.399993896484375</ele>
        <time>2025-10-25T13:47:00.000Z</time>
        <extensions>
          <ns3:TrackPointExtension>
            <ns3:hr>98</ns3:hr>
          </ns3:TrackPointExtension>
        </extensions>
      </trkpt>
      <trkpt lat="44.69190479256212711334228515625" lon="4.83272633515298366546630859375">
        <ele>253.399993896484375</ele>
        <time>2025-10-25T13:47:14.000Z</time>
        <extensions>
          <ns3:TrackPointExtension>
            <ns3:hr>98</ns3:hr>
          </ns3:TrackPointExtension>
        </extensions>
      </trkpt>
      <trkpt lat="44.691886603832244873046875" lon="4.83282725326716899871826171875">
        <ele>252.600006103515625</ele>
        <time>2025-10-25T13:47:22.000Z</time>
        <extensions>
          <ns3:TrackPointExtension>
            <ns3:hr>95</ns3:hr>
          </ns3:TrackPointExtension>
        </extensions>
      </trkpt>
      <trkpt lat="44.69194787554442882537841796875" lon="4.83290771953761577606201171875">
        <ele>252.399993896484375</ele>
        <time>2025-10-25T13:47:35.000Z</time>
        <extensions>
          <ns3:TrackPointExtension>
            <ns3:hr>90</ns3:hr>
          </ns3:TrackPointExtension>
        </extensions>
      </trkpt>
      <trkpt lat="44.69195458106696605682373046875" lon="4.8329136706888675689697265625">
        <ele>252.399993896484375</ele>
        <time>2025-10-25T13:47:36.000Z</time>
        <extensions>
          <ns3:TrackPointExtension>
            <ns3:hr>87</ns3:hr>
          </ns3:TrackPointExtension>
        </extensions>
      </trkpt>
      <trkpt lat="44.69197436235845088958740234375" lon="4.8329203762114048004150390625">
        <ele>252.600006103515625</ele>
        <time>2025-10-25T13:47:39.000Z</time>
        <extensions>
          <ns3:TrackPointExtension>
            <ns3:hr>84</ns3:hr>
          </ns3:TrackPointExtension>
        </extensions>
      </trkpt>
      <trkpt lat="44.6921147592365741729736328125" lon="4.83292046003043651580810546875">
        <ele>254.399993896484375</ele>
        <time>2025-10-25T13:47:59.000Z</time>
        <extensions>
          <ns3:TrackPointExtension>
            <ns3:hr>87</ns3:hr>
          </ns3:TrackPointExtension>
        </extensions>
      </trkpt>
      <trkpt lat="44.69212196767330169677734375" lon="4.83291886746883392333984375">
        <ele>254.399993896484375</ele>
        <time>2025-10-25T13:48:01.000Z</time>
        <extensions>
          <ns3:TrackPointExtension>
            <ns3:hr>87</ns3:hr>
          </ns3:TrackPointExtension>
        </extensions>
      </trkpt>
      <trkpt lat="44.69217955134809017181396484375" lon="4.83292414806783199310302734375">
        <ele>255.399993896484375</ele>
        <time>2025-10-25T13:48:11.000Z</time>
        <extensions>
          <ns3:TrackPointExtension>
            <ns3:hr>88</ns3:hr>
          </ns3:TrackPointExtension>
        </extensions>
      </trkpt>
      <trkpt lat="44.6922116540372371673583984375" lon="4.832907803356647491455078125">
        <ele>256.20001220703125</ele>
        <time>2025-10-25T13:48:18.000Z</time>
        <extensions>
          <ns3:TrackPointExtension>
            <ns3:hr>91</ns3:hr>
          </ns3:TrackPointExtension>
        </extensions>
      </trkpt>
      <trkpt lat="44.6922431699931621551513671875" lon="4.83289816416800022125244140625">
        <ele>256.399993896484375</ele>
        <time>2025-10-25T13:48:21.000Z</time>
        <extensions>
          <ns3:TrackPointExtension>
            <ns3:hr>91</ns3:hr>
          </ns3:TrackPointExtension>
        </extensions>
      </trkpt>
      <trkpt lat="44.6923973970115184783935546875" lon="4.83284669928252696990966796875">
        <ele>257.399993896484375</ele>
        <time>2025-10-25T13:48:35.000Z</time>
        <extensions>
          <ns3:TrackPointExtension>
            <ns3:hr>91</ns3:hr>
          </ns3:TrackPointExtension>
        </extensions>
      </trkpt>
      <trkpt lat="44.6924664638936519622802734375" lon="4.83283060602843761444091796875">
        <ele>257.79998779296875</ele>
        <time>2025-10-25T13:48:41.000Z</time>
        <extensions>
          <ns3:TrackPointExtension>
            <ns3:hr>94</ns3:hr>
          </ns3:TrackPointExtension>
        </extensions>
      </trkpt>
      <trkpt lat="44.69254248775541782379150390625" lon="4.8327591083943843841552734375">
        <ele>258.399993896484375</ele>
        <time>2025-10-25T13:48:51.000Z</time>
        <extensions>
          <ns3:TrackPointExtension>
            <ns3:hr>97</ns3:hr>
          </ns3:TrackPointExtension>
        </extensions>
      </trkpt>
      <trkpt lat="44.69271817244589328765869140625" lon="4.83271124772727489471435546875">
        <ele>259</ele>
        <time>2025-10-25T13:49:07.000Z</time>
        <extensions>
          <ns3:TrackPointExtension>
            <ns3:hr>97</ns3:hr>
          </ns3:TrackPointExtension>
        </extensions>
      </trkpt>
      <trkpt lat="44.6929006464779376983642578125" lon="4.83273454941809177398681640625">
        <ele>259.20001220703125</ele>
        <time>2025-10-25T13:49:29.000Z</time>
        <extensions>
          <ns3:TrackPointExtension>
            <ns3:hr>97</ns3:hr>
          </ns3:TrackPointExtension>
        </extensions>
      </trkpt>
      <trkpt lat="44.69302461482584476470947265625" lon="4.83279691077768802642822265625">
        <ele>258.399993896484375</ele>
        <time>2025-10-25T13:49:46.000Z</time>
        <extensions>
          <ns3:TrackPointExtension>
            <ns3:hr>94</ns3:hr>
          </ns3:TrackPointExtension>
        </extensions>
      </trkpt>
      <trkpt lat="44.693180434405803680419921875" lon="4.8328667320311069488525390625">
        <ele>257.79998779296875</ele>
        <time>2025-10-25T13:50:09.000Z</time>
        <extensions>
          <ns3:TrackPointExtension>
            <ns3:hr>91</ns3:hr>
          </ns3:TrackPointExtension>
        </extensions>
      </trkpt>
      <trkpt lat="44.69321899116039276123046875" lon="4.8328684084117412567138671875">
        <ele>258.20001220703125</ele>
        <time>2025-10-25T13:50:30.000Z</time>
        <extensions>
          <ns3:TrackPointExtension>
            <ns3:hr>92</ns3:hr>
          </ns3:TrackPointExtension>
        </extensions>
      </trkpt>
      <trkpt lat="44.69333172775804996490478515625" lon="4.83285876922309398651123046875">
        <ele>258.20001220703125</ele>
        <time>2025-10-25T13:52:22.000Z</time>
        <extensions>
          <ns3:TrackPointExtension>
            <ns3:hr>88</ns3:hr>
          </ns3:TrackPointExtension>
        </extensions>
      </trkpt>
      <trkpt lat="44.69334597699344158172607421875" lon="4.83286480419337749481201171875">
        <ele>258.20001220703125</ele>
        <time>2025-10-25T13:52:25.000Z</time>
        <extensions>
          <ns3:TrackPointExtension>
            <ns3:hr>85</ns3:hr>
          </ns3:TrackPointExtension>
        </extensions>
      </trkpt>
      <trkpt lat="44.6933525986969470977783203125" lon="4.8328647203743457794189453125">
        <ele>258.20001220703125</ele>
        <time>2025-10-25T13:52:29.000Z</time>
        <extensions>
          <ns3:TrackPointExtension>
            <ns3:hr>84</ns3:hr>
          </ns3:TrackPointExtension>
        </extensions>
      </trkpt>
      <trkpt lat="44.69340465031564235687255859375" lon="4.83288668096065521240234375">
        <ele>257.79998779296875</ele>
        <time>2025-10-25T13:52:38.000Z</time>
        <extensions>
          <ns3:TrackPointExtension>
            <ns3:hr>83</ns3:hr>
          </ns3:TrackPointExtension>
        </extensions>
      </trkpt>
      <trkpt lat="44.69354244880378246307373046875" lon="4.83296991325914859771728515625">
        <ele>257.399993896484375</ele>
        <time>2025-10-25T13:52:55.000Z</time>
        <extensions>
          <ns3:TrackPointExtension>
            <ns3:hr>85</ns3:hr>
          </ns3:TrackPointExtension>
        </extensions>
      </trkpt>
      <trkpt lat="44.6936506591737270355224609375" lon="4.83309346251189708709716796875">
        <ele>256.79998779296875</ele>
        <time>2025-10-25T13:53:16.000Z</time>
        <extensions>
          <ns3:TrackPointExtension>
            <ns3:hr>88</ns3:hr>
          </ns3:TrackPointExtension>
        </extensions>
      </trkpt>
      <trkpt lat="44.6936670877039432525634765625" lon="4.83312112279236316680908203125">
        <ele>256.399993896484375</ele>
        <time>2025-10-25T13:53:20.000Z</time>
        <extensions>
          <ns3:TrackPointExtension>
            <ns3:hr>89</ns3:hr>
          </ns3:TrackPointExtension>
        </extensions>
      </trkpt>
      <trkpt lat="44.69370438717305660247802734375" lon="4.83316454105079174041748046875">
        <ele>255.399993896484375</ele>
        <time>2025-10-25T13:53:27.000Z</time>
        <extensions>
          <ns3:TrackPointExtension>
            <ns3:hr>90</ns3:hr>
          </ns3:TrackPointExtension>
        </extensions>
      </trkpt>
      <trkpt lat="44.6938712708652019500732421875" lon="4.83320527710020542144775390625">
        <ele>254.1999969482421875</ele>
        <time>2025-10-25T13:53:48.000Z</time>
        <extensions>
          <ns3:TrackPointExtension>
            <ns3:hr>88</ns3:hr>
          </ns3:TrackPointExtension>
        </extensions>
      </trkpt>
      <trkpt lat="44.69405894167721271514892578125" lon="4.83322857879102230072021484375">
        <ele>253.399993896484375</ele>
        <time>2025-10-25T13:54:09.000Z</time>
        <extensions>
          <ns3:TrackPointExtension>
            <ns3:hr>87</ns3:hr>
          </ns3:TrackPointExtension>
        </extensions>
      </trkpt>
      <trkpt lat="44.694069921970367431640625" lon="4.8332325182855129241943359375">
        <ele>253.1999969482421875</ele>
        <time>2025-10-25T13:54:10.000Z</time>
        <extensions>
          <ns3:TrackPointExtension>
            <ns3:hr>87</ns3:hr>
          </ns3:TrackPointExtension>
        </extensions>
      </trkpt>
      <trkpt lat="44.69412549398839473724365234375" lon="4.8332761041820049285888671875">
        <ele>252.8000030517578125</ele>
        <time>2025-10-25T13:54:15.000Z</time>
        <extensions>
          <ns3:TrackPointExtension>
            <ns3:hr>87</ns3:hr>
          </ns3:TrackPointExtension>
        </extensions>
      </trkpt>
      <trkpt lat="44.694227837026119232177734375" lon="4.8333827219903469085693359375">
        <ele>252.1999969482421875</ele>
        <time>2025-10-25T13:54:28.000Z</time>
        <extensions>
          <ns3:TrackPointExtension>
            <ns3:hr>86</ns3:hr>
          </ns3:TrackPointExtension>
        </extensions>
      </trkpt>
      <trkpt lat="44.6943704970180988311767578125" lon="4.83337886631488800048828125">
        <ele>251.399993896484375</ele>
        <time>2025-10-25T13:54:43.000Z</time>
        <extensions>
          <ns3:TrackPointExtension>
            <ns3:hr>87</ns3:hr>
          </ns3:TrackPointExtension>
        </extensions>
      </trkpt>
      <trkpt lat="44.694536961615085601806640625" lon="4.83326914720237255096435546875">
        <ele>251.399993896484375</ele>
        <time>2025-10-25T13:54:59.000Z</time>
        <extensions>
          <ns3:TrackPointExtension>
            <ns3:hr>86</ns3:hr>
          </ns3:TrackPointExtension>
        </extensions>
      </trkpt>
      <trkpt lat="44.6947191841900348663330078125" lon="4.83324903063476085662841796875">
        <ele>252.600006103515625</ele>
        <time>2025-10-25T13:55:19.000Z</time>
        <extensions>
          <ns3:TrackPointExtension>
            <ns3:hr>88</ns3:hr>
          </ns3:TrackPointExtension>
        </extensions>
      </trkpt>
      <trkpt lat="44.69488103874027729034423828125" lon="4.83328993432223796844482421875">
        <ele>252.600006103515625</ele>
        <time>2025-10-25T13:55:35.000Z</time>
        <extensions>
          <ns3:TrackPointExtension>
            <ns3:hr>89</ns3:hr>
          </ns3:TrackPointExtension>
        </extensions>
      </trkpt>
      <trkpt lat="44.695052616298198699951171875" lon="4.8333656229078769683837890625">
        <ele>252.600006103515625</ele>
        <time>2025-10-25T13:55:49.000Z</time>
        <extensions>
          <ns3:TrackPointExtension>
            <ns3:hr>90</ns3:hr>
          </ns3:TrackPointExtension>
        </extensions>
      </trkpt>
      <trkpt lat="44.6952254511415958404541015625" lon="4.8334588296711444854736328125">
        <ele>252.8000030517578125</ele>
        <time>2025-10-25T13:56:06.000Z</time>
        <extensions>
          <ns3:TrackPointExtension>
            <ns3:hr>90</ns3:hr>
          </ns3:TrackPointExtension>
        </extensions>
      </trkpt>
      <trkpt lat="44.69539317302405834197998046875" lon="4.8335619270801544189453125">
        <ele>252.600006103515625</ele>
        <time>2025-10-25T13:56:24.000Z</time>
        <extensions>
          <ns3:TrackPointExtension>
            <ns3:hr>90</ns3:hr>
          </ns3:TrackPointExtension>
        </extensions>
      </trkpt>
      <trkpt lat="44.6955704502761363983154296875" lon="4.8336445726454257965087890625">
        <ele>252.399993896484375</ele>
        <time>2025-10-25T13:56:42.000Z</time>
        <extensions>
          <ns3:TrackPointExtension>
            <ns3:hr>88</ns3:hr>
          </ns3:TrackPointExtension>
        </extensions>
      </trkpt>
      <trkpt lat="44.6957370825111865997314453125" lon="4.83373803086578845977783203125">
        <ele>251.8000030517578125</ele>
        <time>2025-10-25T13:56:59.000Z</time>
        <extensions>
          <ns3:TrackPointExtension>
            <ns3:hr>87</ns3:hr>
          </ns3:TrackPointExtension>
        </extensions>
      </trkpt>
      <trkpt lat="44.695898182690143585205078125" lon="4.83380793593823909759521484375">
        <ele>251.1999969482421875</ele>
        <time>2025-10-25T13:57:16.000Z</time>
        <extensions>
          <ns3:TrackPointExtension>
            <ns3:hr>86</ns3:hr>
          </ns3:TrackPointExtension>
        </extensions>
      </trkpt>
      <trkpt lat="44.69607478938996791839599609375" lon="4.83389921486377716064453125">
        <ele>250.399993896484375</ele>
        <time>2025-10-25T13:57:34.000Z</time>
        <extensions>
          <ns3:TrackPointExtension>
            <ns3:hr>85</ns3:hr>
          </ns3:TrackPointExtension>
        </extensions>
      </trkpt>
      <trkpt lat="44.6961122564971446990966796875" lon="4.83391522429883480072021484375">
        <ele>250.1999969482421875</ele>
        <time>2025-10-25T13:57:40.000Z</time>
        <extensions>
          <ns3:TrackPointExtension>
            <ns3:hr>85</ns3:hr>
          </ns3:TrackPointExtension>
        </extensions>
      </trkpt>
      <trkpt lat="44.69622046686708927154541015625" lon="4.8339964449405670166015625">
        <ele>249.8000030517578125</ele>
        <time>2025-10-25T13:57:50.000Z</time>
        <extensions>
          <ns3:TrackPointExtension>
            <ns3:hr>88</ns3:hr>
          </ns3:TrackPointExtension>
        </extensions>
      </trkpt>
      <trkpt lat="44.696277044713497161865234375" lon="4.83405235223472118377685546875">
        <ele>249.8000030517578125</ele>
        <time>2025-10-25T13:57:56.000Z</time>
        <extensions>
          <ns3:TrackPointExtension>
            <ns3:hr>91</ns3:hr>
          </ns3:TrackPointExtension>
        </extensions>
      </trkpt>
      <trkpt lat="44.69639028422534465789794921875" lon="4.8342564515769481658935546875">
        <ele>250.1999969482421875</ele>
        <time>2025-10-25T13:58:15.000Z</time>
        <extensions>
          <ns3:TrackPointExtension>
            <ns3:hr>89</ns3:hr>
          </ns3:TrackPointExtension>
        </extensions>
      </trkpt>
      <trkpt lat="44.69639883376657962799072265625" lon="4.83428335748612880706787109375">
        <ele>250.399993896484375</ele>
        <time>2025-10-25T13:58:17.000Z</time>
        <extensions>
          <ns3:TrackPointExtension>
            <ns3:hr>89</ns3:hr>
          </ns3:TrackPointExtension>
        </extensions>
      </trkpt>
      <trkpt lat="44.69640268944203853607177734375" lon="4.8342980258166790008544921875">
        <ele>250.399993896484375</ele>
        <time>2025-10-25T13:58:18.000Z</time>
        <extensions>
          <ns3:TrackPointExtension>
            <ns3:hr>86</ns3:hr>
          </ns3:TrackPointExtension>
        </extensions>
      </trkpt>
      <trkpt lat="44.69641962088644504547119140625" lon="4.834329374134540557861328125">
        <ele>250.600006103515625</ele>
        <time>2025-10-25T13:58:21.000Z</time>
        <extensions>
          <ns3:TrackPointExtension>
            <ns3:hr>89</ns3:hr>
          </ns3:TrackPointExtension>
        </extensions>
      </trkpt>
      <trkpt lat="44.69642515294253826141357421875" lon="4.83434043824672698974609375">
        <ele>250.600006103515625</ele>
        <time>2025-10-25T13:58:22.000Z</time>
        <extensions>
          <ns3:TrackPointExtension>
            <ns3:hr>93</ns3:hr>
          </ns3:TrackPointExtension>
        </extensions>
      </trkpt>
      <trkpt lat="44.6964300982654094696044921875" lon="4.834350831806659698486328125">
        <ele>250.600006103515625</ele>
        <time>2025-10-25T13:58:23.000Z</time>
        <extensions>
          <ns3:TrackPointExtension>
            <ns3:hr>100</ns3:hr>
          </ns3:TrackPointExtension>
        </extensions>
      </trkpt>
      <trkpt lat="44.6964341215789318084716796875" lon="4.83436298556625843048095703125">
        <ele>250.8000030517578125</ele>
        <time>2025-10-25T13:58:24.000Z</time>
        <extensions>
          <ns3:TrackPointExtension>
            <ns3:hr>104</ns3:hr>
          </ns3:TrackPointExtension>
        </extensions>
      </trkpt>
      <trkpt lat="44.69644158147275447845458984375" lon="4.834370277822017669677734375">
        <ele>250.8000030517578125</ele>
        <time>2025-10-25T13:58:25.000Z</time>
        <extensions>
          <ns3:TrackPointExtension>
            <ns3:hr>109</ns3:hr>
          </ns3:TrackPointExtension>
        </extensions>
      </trkpt>
      <trkpt lat="44.69644644297659397125244140625" lon="4.8343821801245212554931640625">
        <ele>251</ele>
        <time>2025-10-25T13:58:26.000Z</time>
        <extensions>
          <ns3:TrackPointExtension>
            <ns3:hr>114</ns3:hr>
          </ns3:TrackPointExtension>
        </extensions>
      </trkpt>
      <trkpt lat="44.69645147211849689483642578125" lon="4.83440455980598926544189453125">
        <ele>251</ele>
        <time>2025-10-25T13:58:28.000Z</time>
        <extensions>
          <ns3:TrackPointExtension>
            <ns3:hr>118</ns3:hr>
          </ns3:TrackPointExtension>
        </extensions>
      </trkpt>
      <trkpt lat="44.69645381905138492584228515625" lon="4.83441554009914398193359375">
        <ele>251</ele>
        <time>2025-10-25T13:58:29.000Z</time>
        <extensions>
          <ns3:TrackPointExtension>
            <ns3:hr>122</ns3:hr>
          </ns3:TrackPointExtension>
        </extensions>
      </trkpt>
      <trkpt lat="44.6964565850794315338134765625" lon="4.83442702330648899078369140625">
        <ele>251.1999969482421875</ele>
        <time>2025-10-25T13:58:30.000Z</time>
        <extensions>
          <ns3:TrackPointExtension>
            <ns3:hr>129</ns3:hr>
          </ns3:TrackPointExtension>
        </extensions>
      </trkpt>
      <trkpt lat="44.696460105478763580322265625" lon="4.8344390094280242919921875">
        <ele>251.1999969482421875</ele>
        <time>2025-10-25T13:58:31.000Z</time>
        <extensions>
          <ns3:TrackPointExtension>
            <ns3:hr>133</ns3:hr>
          </ns3:TrackPointExtension>
        </extensions>
      </trkpt>
      <trkpt lat="44.6964639611542224884033203125" lon="4.8344495706260204315185546875">
        <ele>251.399993896484375</ele>
        <time>2025-10-25T13:58:32.000Z</time>
        <extensions>
          <ns3:TrackPointExtension>
            <ns3:hr>138</ns3:hr>
          </ns3:TrackPointExtension>
        </extensions>
      </trkpt>
      <trkpt lat="44.69646806828677654266357421875" lon="4.83446189202368259429931640625">
        <ele>251.399993896484375</ele>
        <time>2025-10-25T13:58:33.000Z</time>
        <extensions>
          <ns3:TrackPointExtension>
            <ns3:hr>138</ns3:hr>
          </ns3:TrackPointExtension>
        </extensions>
      </trkpt>
      <trkpt lat="44.69648902304470539093017578125" lon="4.8345320485532283782958984375">
        <ele>251.8000030517578125</ele>
        <time>2025-10-25T13:58:38.000Z</time>
        <extensions>
          <ns3:TrackPointExtension>
            <ns3:hr>141</ns3:hr>
          </ns3:TrackPointExtension>
        </extensions>
      </trkpt>
      <trkpt lat="44.69649522565305233001708984375" lon="4.8345615528523921966552734375">
        <ele>252.1999969482421875</ele>
        <time>2025-10-25T13:58:40.000Z</time>
        <extensions>
          <ns3:TrackPointExtension>
            <ns3:hr>142</ns3:hr>
          </ns3:TrackPointExtension>
        </extensions>
      </trkpt>
      <trkpt lat="44.69651450403034687042236328125" lon="4.8346678353846073150634765625">
        <ele>253.1999969482421875</ele>
        <time>2025-10-25T13:58:47.000Z</time>
        <extensions>
          <ns3:TrackPointExtension>
            <ns3:hr>140</ns3:hr>
          </ns3:TrackPointExtension>
        </extensions>
      </trkpt>
      <trkpt lat="44.69656865112483501434326171875" lon="4.83486589975655078887939453125">
        <ele>253.399993896484375</ele>
        <time>2025-10-25T13:59:02.000Z</time>
        <extensions>
          <ns3:TrackPointExtension>
            <ns3:hr>137</ns3:hr>
          </ns3:TrackPointExtension>
        </extensions>
      </trkpt>
      <trkpt lat="44.69658088870346546173095703125" lon="4.834911413490772247314453125">
        <ele>253.1999969482421875</ele>
        <time>2025-10-25T13:59:05.000Z</time>
        <extensions>
          <ns3:TrackPointExtension>
            <ns3:hr>134</ns3:hr>
          </ns3:TrackPointExtension>
        </extensions>
      </trkpt>
      <trkpt lat="44.6965960599482059478759765625" lon="4.8349555023014545440673828125">
        <ele>253</ele>
        <time>2025-10-25T13:59:08.000Z</time>
        <extensions>
          <ns3:TrackPointExtension>
            <ns3:hr>131</ns3:hr>
          </ns3:TrackPointExtension>
        </extensions>
      </trkpt>
      <trkpt lat="44.6966086328029632568359375" lon="4.834997244179248809814453125">
        <ele>252.8000030517578125</ele>
        <time>2025-10-25T13:59:11.000Z</time>
        <extensions>
          <ns3:TrackPointExtension>
            <ns3:hr>128</ns3:hr>
          </ns3:TrackPointExtension>
        </extensions>
      </trkpt>
      <trkpt lat="44.69662732444703578948974609375" lon="4.83504929579794406890869140625">
        <ele>252.399993896484375</ele>
        <time>2025-10-25T13:59:15.000Z</time>
        <extensions>
          <ns3:TrackPointExtension>
            <ns3:hr>125</ns3:hr>
          </ns3:TrackPointExtension>
        </extensions>
      </trkpt>
      <trkpt lat="44.69663872383534908294677734375" lon="4.8350956477224826812744140625">
        <ele>252.1999969482421875</ele>
        <time>2025-10-25T13:59:19.000Z</time>
        <extensions>
          <ns3:TrackPointExtension>
            <ns3:hr>122</ns3:hr>
          </ns3:TrackPointExtension>
        </extensions>
      </trkpt>
      <trkpt lat="44.69663989730179309844970703125" lon="4.83510889112949371337890625">
        <ele>252</ele>
        <time>2025-10-25T13:59:20.000Z</time>
        <extensions>
          <ns3:TrackPointExtension>
            <ns3:hr>122</ns3:hr>
          </ns3:TrackPointExtension>
        </extensions>
      </trkpt>
      <trkpt lat="44.69666428864002227783203125" lon="4.835214503109455108642578125">
        <ele>251</ele>
        <time>2025-10-25T13:59:28.000Z</time>
        <extensions>
          <ns3:TrackPointExtension>
            <ns3:hr>119</ns3:hr>
          </ns3:TrackPointExtension>
        </extensions>
      </trkpt>
      <trkpt lat="44.69666655175387859344482421875" lon="4.83522799797356128692626953125">
        <ele>251</ele>
        <time>2025-10-25T13:59:29.000Z</time>
        <extensions>
          <ns3:TrackPointExtension>
            <ns3:hr>119</ns3:hr>
          </ns3:TrackPointExtension>
        </extensions>
      </trkpt>
      <trkpt lat="44.69669236801564693450927734375" lon="4.83534182421863079071044921875">
        <ele>250</ele>
        <time>2025-10-25T13:59:37.000Z</time>
        <extensions>
          <ns3:TrackPointExtension>
            <ns3:hr>118</ns3:hr>
          </ns3:TrackPointExtension>
        </extensions>
      </trkpt>
      <trkpt lat="44.6967023424804210662841796875" lon="4.83543989248573780059814453125">
        <ele>248.8000030517578125</ele>
        <time>2025-10-25T13:59:45.000Z</time>
        <extensions>
          <ns3:TrackPointExtension>
            <ns3:hr>118</ns3:hr>
          </ns3:TrackPointExtension>
        </extensions>
      </trkpt>
      <trkpt lat="44.69671525061130523681640625" lon="4.8355615139007568359375">
        <ele>247.8000030517578125</ele>
        <time>2025-10-25T13:59:54.000Z</time>
        <extensions>
          <ns3:TrackPointExtension>
            <ns3:hr>118</ns3:hr>
          </ns3:TrackPointExtension>
        </extensions>
      </trkpt>
      <trkpt lat="44.69671650789678096771240234375" lon="4.835720770061016082763671875">
        <ele>246.8000030517578125</ele>
        <time>2025-10-25T14:00:05.000Z</time>
        <extensions>
          <ns3:TrackPointExtension>
            <ns3:hr>120</ns3:hr>
          </ns3:TrackPointExtension>
        </extensions>
      </trkpt>
      <trkpt lat="44.69668700359761714935302734375" lon="4.835913889110088348388671875">
        <ele>245.600006103515625</ele>
        <time>2025-10-25T14:00:19.000Z</time>
        <extensions>
          <ns3:TrackPointExtension>
            <ns3:hr>120</ns3:hr>
          </ns3:TrackPointExtension>
        </extensions>
      </trkpt>
      <trkpt lat="44.69672354869544506072998046875" lon="4.83591581694781780242919921875">
        <ele>245.1999969482421875</ele>
        <time>2025-10-25T14:00:24.000Z</time>
        <extensions>
          <ns3:TrackPointExtension>
            <ns3:hr>117</ns3:hr>
          </ns3:TrackPointExtension>
        </extensions>
      </trkpt>
      <trkpt lat="44.69676009379327297210693359375" lon="4.8358674533665180206298828125">
        <ele>244.8000030517578125</ele>
        <time>2025-10-25T14:00:30.000Z</time>
        <extensions>
          <ns3:TrackPointExtension>
            <ns3:hr>115</ns3:hr>
          </ns3:TrackPointExtension>
        </extensions>
      </trkpt>
      <trkpt lat="44.69677023589611053466796875" lon="4.8358466662466526031494140625">
        <ele>244.600006103515625</ele>
        <time>2025-10-25T14:00:32.000Z</time>
        <extensions>
          <ns3:TrackPointExtension>
            <ns3:hr>114</ns3:hr>
          </ns3:TrackPointExtension>
        </extensions>
      </trkpt>
      <trkpt lat="44.69682128168642520904541015625" lon="4.8357008211314678192138671875">
        <ele>243.600006103515625</ele>
        <time>2025-10-25T14:00:43.000Z</time>
        <extensions>
          <ns3:TrackPointExtension>
            <ns3:hr>116</ns3:hr>
          </ns3:TrackPointExtension>
        </extensions>
      </trkpt>
      <trkpt lat="44.69685606658458709716796875" lon="4.8355844803154468536376953125">
        <ele>242.8000030517578125</ele>
        <time>2025-10-25T14:00:52.000Z</time>
        <extensions>
          <ns3:TrackPointExtension>
            <ns3:hr>119</ns3:hr>
          </ns3:TrackPointExtension>
        </extensions>
      </trkpt>
      <trkpt lat="44.6968773566186428070068359375" lon="4.83554030768573284149169921875">
        <ele>242.600006103515625</ele>
        <time>2025-10-25T14:00:55.000Z</time>
        <extensions>
          <ns3:TrackPointExtension>
            <ns3:hr>120</ns3:hr>
          </ns3:TrackPointExtension>
        </extensions>
      </trkpt>
      <trkpt lat="44.69694432802498340606689453125" lon="4.83538038097321987152099609375">
        <ele>241.399993896484375</ele>
        <time>2025-10-25T14:01:07.000Z</time>
        <extensions>
          <ns3:TrackPointExtension>
            <ns3:hr>119</ns3:hr>
          </ns3:TrackPointExtension>
        </extensions>
      </trkpt>
      <trkpt lat="44.69698271714150905609130859375" lon="4.83523721806704998016357421875">
        <ele>240.399993896484375</ele>
        <time>2025-10-25T14:01:20.000Z</time>
        <extensions>
          <ns3:TrackPointExtension>
            <ns3:hr>120</ns3:hr>
          </ns3:TrackPointExtension>
        </extensions>
      </trkpt>
      <trkpt lat="44.6970010735094547271728515625" lon="4.83514149673283100128173828125">
        <ele>239.399993896484375</ele>
        <time>2025-10-25T14:01:37.000Z</time>
        <extensions>
          <ns3:TrackPointExtension>
            <ns3:hr>117</ns3:hr>
          </ns3:TrackPointExtension>
        </extensions>
      </trkpt>
      <trkpt lat="44.69702026806771755218505859375" lon="4.83508206903934478759765625">
        <ele>239.1999969482421875</ele>
        <time>2025-10-25T14:01:43.000Z</time>
        <extensions>
          <ns3:TrackPointExtension>
            <ns3:hr>115</ns3:hr>
          </ns3:TrackPointExtension>
        </extensions>
      </trkpt>
      <trkpt lat="44.69703736715018749237060546875" lon="4.83498844318091869354248046875">
        <ele>239</ele>
        <time>2025-10-25T14:01:49.000Z</time>
        <extensions>
          <ns3:TrackPointExtension>
            <ns3:hr>112</ns3:hr>
          </ns3:TrackPointExtension>
        </extensions>
      </trkpt>
      <trkpt lat="44.697082377970218658447265625" lon="4.83480286784470081329345703125">
        <ele>238.399993896484375</ele>
        <time>2025-10-25T14:02:06.000Z</time>
        <extensions>
          <ns3:TrackPointExtension>
            <ns3:hr>109</ns3:hr>
          </ns3:TrackPointExtension>
        </extensions>
      </trkpt>
      <trkpt lat="44.69709956087172031402587890625" lon="4.8347633890807628631591796875">
        <ele>238.1999969482421875</ele>
        <time>2025-10-25T14:02:10.000Z</time>
        <extensions>
          <ns3:TrackPointExtension>
            <ns3:hr>109</ns3:hr>
          </ns3:TrackPointExtension>
        </extensions>
      </trkpt>
      <trkpt lat="44.69713543541729450225830078125" lon="4.83466900885105133056640625">
        <ele>237.399993896484375</ele>
        <time>2025-10-25T14:02:18.000Z</time>
        <extensions>
          <ns3:TrackPointExtension>
            <ns3:hr>112</ns3:hr>
          </ns3:TrackPointExtension>
        </extensions>
      </trkpt>
      <trkpt lat="44.69714784063398838043212890625" lon="4.83464193530380725860595703125">
        <ele>237.1999969482421875</ele>
        <time>2025-10-25T14:02:20.000Z</time>
        <extensions>
          <ns3:TrackPointExtension>
            <ns3:hr>111</ns3:hr>
          </ns3:TrackPointExtension>
        </extensions>
      </trkpt>
      <trkpt lat="44.69724222086369991302490234375" lon="4.83447429724037647247314453125">
        <ele>236</ele>
        <time>2025-10-25T14:02:33.000Z</time>
        <extensions>
          <ns3:TrackPointExtension>
            <ns3:hr>111</ns3:hr>
          </ns3:TrackPointExtension>
        </extensions>
      </trkpt>
      <trkpt lat="44.6973326615989208221435546875" lon="4.834362231194972991943359375">
        <ele>235</ele>
        <time>2025-10-25T14:02:42.000Z</time>
        <extensions>
          <ns3:TrackPointExtension>
            <ns3:hr>110</ns3:hr>
          </ns3:TrackPointExtension>
        </extensions>
      </trkpt>
      <trkpt lat="44.69740600325167179107666015625" lon="4.8342691920697689056396484375">
        <ele>233.600006103515625</ele>
        <time>2025-10-25T14:02:50.000Z</time>
        <extensions>
          <ns3:TrackPointExtension>
            <ns3:hr>111</ns3:hr>
          </ns3:TrackPointExtension>
        </extensions>
      </trkpt>
      <trkpt lat="44.6974406205117702484130859375" lon="4.8342155478894710540771484375">
        <ele>232.8000030517578125</ele>
        <time>2025-10-25T14:02:55.000Z</time>
        <extensions>
          <ns3:TrackPointExtension>
            <ns3:hr>114</ns3:hr>
          </ns3:TrackPointExtension>
        </extensions>
      </trkpt>
      <trkpt lat="44.69745662994682788848876953125" lon="4.83419031836092472076416015625">
        <ele>232.600006103515625</ele>
        <time>2025-10-25T14:02:57.000Z</time>
        <extensions>
          <ns3:TrackPointExtension>
            <ns3:hr>114</ns3:hr>
          </ns3:TrackPointExtension>
        </extensions>
      </trkpt>
      <trkpt lat="44.69753843732178211212158203125" lon="4.83410515822470188140869140625">
        <ele>231.600006103515625</ele>
        <time>2025-10-25T14:03:06.000Z</time>
        <extensions>
          <ns3:TrackPointExtension>
            <ns3:hr>116</ns3:hr>
          </ns3:TrackPointExtension>
        </extensions>
      </trkpt>
      <trkpt lat="44.6975821070373058319091796875" lon="4.8340640030801296234130859375">
        <ele>230.399993896484375</ele>
        <time>2025-10-25T14:03:11.000Z</time>
        <extensions>
          <ns3:TrackPointExtension>
            <ns3:hr>116</ns3:hr>
          </ns3:TrackPointExtension>
        </extensions>
      </trkpt>
      <trkpt lat="44.69765142537653446197509765625" lon="4.8339878953993320465087890625">
        <ele>229.399993896484375</ele>
        <time>2025-10-25T14:03:19.000Z</time>
        <extensions>
          <ns3:TrackPointExtension>
            <ns3:hr>115</ns3:hr>
          </ns3:TrackPointExtension>
        </extensions>
      </trkpt>
      <trkpt lat="44.6977034769952297210693359375" lon="4.83392561785876750946044921875">
        <ele>228.600006103515625</ele>
        <time>2025-10-25T14:03:25.000Z</time>
        <extensions>
          <ns3:TrackPointExtension>
            <ns3:hr>112</ns3:hr>
          </ns3:TrackPointExtension>
        </extensions>
      </trkpt>
      <trkpt lat="44.6977165527641773223876953125" lon="4.833899550139904022216796875">
        <ele>228.399993896484375</ele>
        <time>2025-10-25T14:03:27.000Z</time>
        <extensions>
          <ns3:TrackPointExtension>
            <ns3:hr>112</ns3:hr>
          </ns3:TrackPointExtension>
        </extensions>
      </trkpt>
      <trkpt lat="44.69774966128170490264892578125" lon="4.83382872305810451507568359375">
        <ele>227.399993896484375</ele>
        <time>2025-10-25T14:03:33.000Z</time>
        <extensions>
          <ns3:TrackPointExtension>
            <ns3:hr>115</ns3:hr>
          </ns3:TrackPointExtension>
        </extensions>
      </trkpt>
      <trkpt lat="44.6977619826793670654296875" lon="4.833805002272129058837890625">
        <ele>227.1999969482421875</ele>
        <time>2025-10-25T14:03:35.000Z</time>
        <extensions>
          <ns3:TrackPointExtension>
            <ns3:hr>116</ns3:hr>
          </ns3:TrackPointExtension>
        </extensions>
      </trkpt>
      <trkpt lat="44.69782794825732707977294921875" lon="4.83372026123106479644775390625">
        <ele>226.1999969482421875</ele>
        <time>2025-10-25T14:03:44.000Z</time>
        <extensions>
          <ns3:TrackPointExtension>
            <ns3:hr>116</ns3:hr>
          </ns3:TrackPointExtension>
        </extensions>
      </trkpt>
      <trkpt lat="44.69788226298987865447998046875" lon="4.8336348496377468109130859375">
        <ele>225.1999969482421875</ele>
        <time>2025-10-25T14:03:51.000Z</time>
        <extensions>
          <ns3:TrackPointExtension>
            <ns3:hr>116</ns3:hr>
          </ns3:TrackPointExtension>
        </extensions>
      </trkpt>
      <trkpt lat="44.69796440564095973968505859375" lon="4.83353577554225921630859375">
        <ele>224.1999969482421875</ele>
        <time>2025-10-25T14:04:00.000Z</time>
        <extensions>
          <ns3:TrackPointExtension>
            <ns3:hr>115</ns3:hr>
          </ns3:TrackPointExtension>
        </extensions>
      </trkpt>
      <trkpt lat="44.69806666485965251922607421875" lon="4.83341013081371784210205078125">
        <ele>223</ele>
        <time>2025-10-25T14:04:11.000Z</time>
        <extensions>
          <ns3:TrackPointExtension>
            <ns3:hr>117</ns3:hr>
          </ns3:TrackPointExtension>
        </extensions>
      </trkpt>
      <trkpt lat="44.69810186885297298431396484375" lon="4.83335606753826141357421875">
        <ele>222</ele>
        <time>2025-10-25T14:04:16.000Z</time>
        <extensions>
          <ns3:TrackPointExtension>
            <ns3:hr>118</ns3:hr>
          </ns3:TrackPointExtension>
        </extensions>
      </trkpt>
      <trkpt lat="44.6981594525277614593505859375" lon="4.833280630409717559814453125">
        <ele>220.8000030517578125</ele>
        <time>2025-10-25T14:04:23.000Z</time>
        <extensions>
          <ns3:TrackPointExtension>
            <ns3:hr>119</ns3:hr>
          </ns3:TrackPointExtension>
        </extensions>
      </trkpt>
      <trkpt lat="44.69821200706064701080322265625" lon="4.8331999965012073516845703125">
        <ele>219.8000030517578125</ele>
        <time>2025-10-25T14:04:30.000Z</time>
        <extensions>
          <ns3:TrackPointExtension>
            <ns3:hr>121</ns3:hr>
          </ns3:TrackPointExtension>
        </extensions>
      </trkpt>
      <trkpt lat="44.6982617117464542388916015625" lon="4.8331366293132305145263671875">
        <ele>218.600006103515625</ele>
        <time>2025-10-25T14:04:36.000Z</time>
        <extensions>
          <ns3:TrackPointExtension>
            <ns3:hr>123</ns3:hr>
          </ns3:TrackPointExtension>
        </extensions>
      </trkpt>
      <trkpt lat="44.6983455307781696319580078125" lon="4.83305809088051319122314453125">
        <ele>217.600006103515625</ele>
        <time>2025-10-25T14:04:44.000Z</time>
        <extensions>
          <ns3:TrackPointExtension>
            <ns3:hr>123</ns3:hr>
          </ns3:TrackPointExtension>
        </extensions>
      </trkpt>
      <trkpt lat="44.69840629957616329193115234375" lon="4.83301064930856227874755859375">
        <ele>216.1999969482421875</ele>
        <time>2025-10-25T14:04:50.000Z</time>
        <extensions>
          <ns3:TrackPointExtension>
            <ns3:hr>121</ns3:hr>
          </ns3:TrackPointExtension>
        </extensions>
      </trkpt>
      <trkpt lat="44.6984628774225711822509765625" lon="4.83297511003911495208740234375">
        <ele>215.1999969482421875</ele>
        <time>2025-10-25T14:04:55.000Z</time>
        <extensions>
          <ns3:TrackPointExtension>
            <ns3:hr>121</ns3:hr>
          </ns3:TrackPointExtension>
        </extensions>
      </trkpt>
      <trkpt lat="44.69853621907532215118408203125" lon="4.83291149139404296875">
        <ele>214.1999969482421875</ele>
        <time>2025-10-25T14:05:02.000Z</time>
        <extensions>
          <ns3:TrackPointExtension>
            <ns3:hr>120</ns3:hr>
          </ns3:TrackPointExtension>
        </extensions>
      </trkpt>
      <trkpt lat="44.6986251510679721832275390625" lon="4.832844100892543792724609375">
        <ele>213</ele>
        <time>2025-10-25T14:05:10.000Z</time>
        <extensions>
          <ns3:TrackPointExtension>
            <ns3:hr>119</ns3:hr>
          </ns3:TrackPointExtension>
        </extensions>
      </trkpt>
      <trkpt lat="44.6986811421811580657958984375" lon="4.8327805660665035247802734375">
        <ele>212</ele>
        <time>2025-10-25T14:05:17.000Z</time>
        <extensions>
          <ns3:TrackPointExtension>
            <ns3:hr>116</ns3:hr>
          </ns3:TrackPointExtension>
        </extensions>
      </trkpt>
      <trkpt lat="44.69873637892305850982666015625" lon="4.83271543867886066436767578125">
        <ele>210.8000030517578125</ele>
        <time>2025-10-25T14:05:24.000Z</time>
        <extensions>
          <ns3:TrackPointExtension>
            <ns3:hr>115</ns3:hr>
          </ns3:TrackPointExtension>
        </extensions>
      </trkpt>
      <trkpt lat="44.698760770261287689208984375" lon="4.8327128402888774871826171875">
        <ele>210.399993896484375</ele>
        <time>2025-10-25T14:05:26.000Z</time>
        <extensions>
          <ns3:TrackPointExtension>
            <ns3:hr>115</ns3:hr>
          </ns3:TrackPointExtension>
        </extensions>
      </trkpt>
      <trkpt lat="44.69877183437347412109375" lon="4.83272247947752475738525390625">
        <ele>210.1999969482421875</ele>
        <time>2025-10-25T14:05:27.000Z</time>
        <extensions>
          <ns3:TrackPointExtension>
            <ns3:hr>115</ns3:hr>
          </ns3:TrackPointExtension>
        </extensions>
      </trkpt>
      <trkpt lat="44.69879128038883209228515625" lon="4.83274695463478565216064453125">
        <ele>209.8000030517578125</ele>
        <time>2025-10-25T14:05:29.000Z</time>
        <extensions>
          <ns3:TrackPointExtension>
            <ns3:hr>116</ns3:hr>
          </ns3:TrackPointExtension>
        </extensions>
      </trkpt>
      <trkpt lat="44.69883595593273639678955078125" lon="4.83280059881508350372314453125">
        <ele>208.8000030517578125</ele>
        <time>2025-10-25T14:05:34.000Z</time>
        <extensions>
          <ns3:TrackPointExtension>
            <ns3:hr>116</ns3:hr>
          </ns3:TrackPointExtension>
        </extensions>
      </trkpt>
      <trkpt lat="44.6989439986646175384521484375" lon="4.83291693963110446929931640625">
        <ele>207.8000030517578125</ele>
        <time>2025-10-25T14:05:46.000Z</time>
        <extensions>
          <ns3:TrackPointExtension>
            <ns3:hr>115</ns3:hr>
          </ns3:TrackPointExtension>
        </extensions>
      </trkpt>
      <trkpt lat="44.69902588985860347747802734375" lon="4.83296941034495830535888671875">
        <ele>206.600006103515625</ele>
        <time>2025-10-25T14:05:54.000Z</time>
        <extensions>
          <ns3:TrackPointExtension>
            <ns3:hr>113</ns3:hr>
          </ns3:TrackPointExtension>
        </extensions>
      </trkpt>
      <trkpt lat="44.6991129778325557708740234375" lon="4.83301718719303607940673828125">
        <ele>205.600006103515625</ele>
        <time>2025-10-25T14:06:03.000Z</time>
        <extensions>
          <ns3:TrackPointExtension>
            <ns3:hr>114</ns3:hr>
          </ns3:TrackPointExtension>
        </extensions>
      </trkpt>
      <trkpt lat="44.6991786919534206390380859375" lon="4.83305239118635654449462890625">
        <ele>204.399993896484375</ele>
        <time>2025-10-25T14:06:10.000Z</time>
        <extensions>
          <ns3:TrackPointExtension>
            <ns3:hr>114</ns3:hr>
          </ns3:TrackPointExtension>
        </extensions>
      </trkpt>
      <trkpt lat="44.69927298836410045623779296875" lon="4.833080135285854339599609375">
        <ele>203.1999969482421875</ele>
        <time>2025-10-25T14:06:19.000Z</time>
        <extensions>
          <ns3:TrackPointExtension>
            <ns3:hr>113</ns3:hr>
          </ns3:TrackPointExtension>
        </extensions>
      </trkpt>
      <trkpt lat="44.69934490509331226348876953125" lon="4.83308558352291584014892578125">
        <ele>202.8000030517578125</ele>
        <time>2025-10-25T14:06:27.000Z</time>
        <extensions>
          <ns3:TrackPointExtension>
            <ns3:hr>116</ns3:hr>
          </ns3:TrackPointExtension>
        </extensions>
      </trkpt>
      <trkpt lat="44.69941078685224056243896484375" lon="4.8330866731703281402587890625">
        <ele>202.1999969482421875</ele>
        <time>2025-10-25T14:06:39.000Z</time>
        <extensions>
          <ns3:TrackPointExtension>
            <ns3:hr>118</ns3:hr>
          </ns3:TrackPointExtension>
        </extensions>
      </trkpt>
      <trkpt lat="44.6994093619287014007568359375" lon="4.83308658935129642486572265625">
        <ele>202.1999969482421875</ele>
        <time>2025-10-25T14:06:42.000Z</time>
        <extensions>
          <ns3:TrackPointExtension>
            <ns3:hr>118</ns3:hr>
          </ns3:TrackPointExtension>
        </extensions>
      </trkpt>
      <trkpt lat="44.69939134083688259124755859375" lon="4.83309010975062847137451171875">
        <ele>201.8000030517578125</ele>
        <time>2025-10-25T14:07:15.000Z</time>
        <extensions>
          <ns3:TrackPointExtension>
            <ns3:hr>110</ns3:hr>
          </ns3:TrackPointExtension>
        </extensions>
      </trkpt>
      <trkpt lat="44.69939033500850200653076171875" lon="4.83308960683643817901611328125">
        <ele>201.8000030517578125</ele>
        <time>2025-10-25T14:07:16.000Z</time>
        <extensions>
          <ns3:TrackPointExtension>
            <ns3:hr>110</ns3:hr>
          </ns3:TrackPointExtension>
        </extensions>
      </trkpt>
      <trkpt lat="44.69939150847494602203369140625" lon="4.83308851718902587890625">
        <ele>201.8000030517578125</ele>
        <time>2025-10-25T14:07:18.000Z</time>
        <extensions>
          <ns3:TrackPointExtension>
            <ns3:hr>110</ns3:hr>
          </ns3:TrackPointExtension>
        </extensions>
      </trkpt>
      <trkpt lat="44.69941397197544574737548828125" lon="4.83306764625012874603271484375">
        <ele>202</ele>
        <time>2025-10-25T14:07:24.000Z</time>
        <extensions>
          <ns3:TrackPointExtension>
            <ns3:hr>110</ns3:hr>
          </ns3:TrackPointExtension>
        </extensions>
      </trkpt>
      <trkpt lat="44.69944850541651248931884765625" lon="4.83306932263076305389404296875">
        <ele>202</ele>
        <time>2025-10-25T14:07:28.000Z</time>
        <extensions>
          <ns3:TrackPointExtension>
            <ns3:hr>107</ns3:hr>
          </ns3:TrackPointExtension>
        </extensions>
      </trkpt>
      <trkpt lat="44.69946912489831447601318359375" lon="4.833046607673168182373046875">
        <ele>201.8000030517578125</ele>
        <time>2025-10-25T14:07:34.000Z</time>
        <extensions>
          <ns3:TrackPointExtension>
            <ns3:hr>104</ns3:hr>
          </ns3:TrackPointExtension>
        </extensions>
      </trkpt>
      <trkpt lat="44.6994676999747753143310546875" lon="4.8330402374267578125">
        <ele>201.399993896484375</ele>
        <time>2025-10-25T14:07:38.000Z</time>
        <extensions>
          <ns3:TrackPointExtension>
            <ns3:hr>103</ns3:hr>
          </ns3:TrackPointExtension>
        </extensions>
      </trkpt>
      <trkpt lat="44.69953416846692562103271484375" lon="4.8329854197800159454345703125">
        <ele>201</ele>
        <time>2025-10-25T14:08:38.000Z</time>
        <extensions>
          <ns3:TrackPointExtension>
            <ns3:hr>83</ns3:hr>
          </ns3:TrackPointExtension>
        </extensions>
      </trkpt>
      <trkpt lat="44.69954255037009716033935546875" lon="4.8329800553619861602783203125">
        <ele>200.8000030517578125</ele>
        <time>2025-10-25T14:08:39.000Z</time>
        <extensions>
          <ns3:TrackPointExtension>
            <ns3:hr>83</ns3:hr>
          </ns3:TrackPointExtension>
        </extensions>
      </trkpt>
      <trkpt lat="44.69960667192935943603515625" lon="4.83295080251991748809814453125">
        <ele>200.600006103515625</ele>
        <time>2025-10-25T14:08:46.000Z</time>
        <extensions>
          <ns3:TrackPointExtension>
            <ns3:hr>80</ns3:hr>
          </ns3:TrackPointExtension>
        </extensions>
      </trkpt>
      <trkpt lat="44.69963626004755496978759765625" lon="4.8329569213092327117919921875">
        <ele>200.1999969482421875</ele>
        <time>2025-10-25T14:08:49.000Z</time>
        <extensions>
          <ns3:TrackPointExtension>
            <ns3:hr>83</ns3:hr>
          </ns3:TrackPointExtension>
        </extensions>
      </trkpt>
      <trkpt lat="44.6996692009270191192626953125" lon="4.83296521939337253570556640625">
        <ele>200</ele>
        <time>2025-10-25T14:08:52.000Z</time>
        <extensions>
          <ns3:TrackPointExtension>
            <ns3:hr>84</ns3:hr>
          </ns3:TrackPointExtension>
        </extensions>
      </trkpt>
      <trkpt lat="44.69974078238010406494140625" lon="4.83299262821674346923828125">
        <ele>199.1999969482421875</ele>
        <time>2025-10-25T14:08:59.000Z</time>
        <extensions>
          <ns3:TrackPointExtension>
            <ns3:hr>81</ns3:hr>
          </ns3:TrackPointExtension>
        </extensions>
      </trkpt>
      <trkpt lat="44.6997761540114879608154296875" lon="4.833005703985691070556640625">
        <ele>198.8000030517578125</ele>
        <time>2025-10-25T14:09:02.000Z</time>
        <extensions>
          <ns3:TrackPointExtension>
            <ns3:hr>81</ns3:hr>
          </ns3:TrackPointExtension>
        </extensions>
      </trkpt>
      <trkpt lat="44.69985620118677616119384765625" lon="4.83301081694662570953369140625">
        <ele>198.1999969482421875</ele>
        <time>2025-10-25T14:09:09.000Z</time>
        <extensions>
          <ns3:TrackPointExtension>
            <ns3:hr>84</ns3:hr>
          </ns3:TrackPointExtension>
        </extensions>
      </trkpt>
      <trkpt lat="44.6999116055667400360107421875" lon="4.83299975283443927764892578125">
        <ele>197.600006103515625</ele>
        <time>2025-10-25T14:09:15.000Z</time>
        <extensions>
          <ns3:TrackPointExtension>
            <ns3:hr>86</ns3:hr>
          </ns3:TrackPointExtension>
        </extensions>
      </trkpt>
      <trkpt lat="44.699972458183765411376953125" lon="4.83296203427016735076904296875">
        <ele>196.399993896484375</ele>
        <time>2025-10-25T14:09:23.000Z</time>
        <extensions>
          <ns3:TrackPointExtension>
            <ns3:hr>84</ns3:hr>
          </ns3:TrackPointExtension>
        </extensions>
      </trkpt>
      <trkpt lat="44.7000095061957836151123046875" lon="4.83295147307217121124267578125">
        <ele>196</ele>
        <time>2025-10-25T14:09:27.000Z</time>
        <extensions>
          <ns3:TrackPointExtension>
            <ns3:hr>86</ns3:hr>
          </ns3:TrackPointExtension>
        </extensions>
      </trkpt>
      <trkpt lat="44.70004948787391185760498046875" lon="4.83292599208652973175048828125">
        <ele>195.600006103515625</ele>
        <time>2025-10-25T14:09:31.000Z</time>
        <extensions>
          <ns3:TrackPointExtension>
            <ns3:hr>89</ns3:hr>
          </ns3:TrackPointExtension>
        </extensions>
      </trkpt>
      <trkpt lat="44.70005921088159084320068359375" lon="4.83292129822075366973876953125">
        <ele>195.399993896484375</ele>
        <time>2025-10-25T14:09:32.000Z</time>
        <extensions>
          <ns3:TrackPointExtension>
            <ns3:hr>90</ns3:hr>
          </ns3:TrackPointExtension>
        </extensions>
      </trkpt>
      <trkpt lat="44.7001841850578784942626953125" lon="4.83290704898536205291748046875">
        <ele>194.1999969482421875</ele>
        <time>2025-10-25T14:09:42.000Z</time>
        <extensions>
          <ns3:TrackPointExtension>
            <ns3:hr>88</ns3:hr>
          </ns3:TrackPointExtension>
        </extensions>
      </trkpt>
      <trkpt lat="44.70029532909393310546875" lon="4.83289833180606365203857421875">
        <ele>193.1999969482421875</ele>
        <time>2025-10-25T14:09:51.000Z</time>
        <extensions>
          <ns3:TrackPointExtension>
            <ns3:hr>89</ns3:hr>
          </ns3:TrackPointExtension>
        </extensions>
      </trkpt>
      <trkpt lat="44.7003878653049468994140625" lon="4.8328814841806888580322265625">
        <ele>192.1999969482421875</ele>
        <time>2025-10-25T14:09:59.000Z</time>
        <extensions>
          <ns3:TrackPointExtension>
            <ns3:hr>89</ns3:hr>
          </ns3:TrackPointExtension>
        </extensions>
      </trkpt>
      <trkpt lat="44.70050848089158535003662109375" lon="4.8328556679189205169677734375">
        <ele>191.1999969482421875</ele>
        <time>2025-10-25T14:10:09.000Z</time>
        <extensions>
          <ns3:TrackPointExtension>
            <ns3:hr>90</ns3:hr>
          </ns3:TrackPointExtension>
        </extensions>
      </trkpt>
      <trkpt lat="44.700640998780727386474609375" lon="4.8328412510454654693603515625">
        <ele>190.1999969482421875</ele>
        <time>2025-10-25T14:10:20.000Z</time>
        <extensions>
          <ns3:TrackPointExtension>
            <ns3:hr>90</ns3:hr>
          </ns3:TrackPointExtension>
        </extensions>
      </trkpt>
      <trkpt lat="44.7008242271840572357177734375" lon="4.83280445449054241180419921875">
        <ele>189</ele>
        <time>2025-10-25T14:10:36.000Z</time>
        <extensions>
          <ns3:TrackPointExtension>
            <ns3:hr>92</ns3:hr>
          </ns3:TrackPointExtension>
        </extensions>
      </trkpt>
      <trkpt lat="44.70092690549790859222412109375" lon="4.83277536928653717041015625">
        <ele>188</ele>
        <time>2025-10-25T14:10:46.000Z</time>
        <extensions>
          <ns3:TrackPointExtension>
            <ns3:hr>92</ns3:hr>
          </ns3:TrackPointExtension>
        </extensions>
      </trkpt>
      <trkpt lat="44.70105263404548168182373046875" lon="4.8327500559389591217041015625">
        <ele>186.8000030517578125</ele>
        <time>2025-10-25T14:10:58.000Z</time>
        <extensions>
          <ns3:TrackPointExtension>
            <ns3:hr>90</ns3:hr>
          </ns3:TrackPointExtension>
        </extensions>
      </trkpt>
      <trkpt lat="44.7011444158852100372314453125" lon="4.8327309451997280120849609375">
        <ele>186.399993896484375</ele>
        <time>2025-10-25T14:11:10.000Z</time>
        <extensions>
          <ns3:TrackPointExtension>
            <ns3:hr>93</ns3:hr>
          </ns3:TrackPointExtension>
        </extensions>
      </trkpt>
      <trkpt lat="44.70125178806483745574951171875" lon="4.83272767625749111175537109375">
        <ele>185.8000030517578125</ele>
        <time>2025-10-25T14:11:20.000Z</time>
        <extensions>
          <ns3:TrackPointExtension>
            <ns3:hr>94</ns3:hr>
          </ns3:TrackPointExtension>
        </extensions>
      </trkpt>
      <trkpt lat="44.70144658349454402923583984375" lon="4.83271560631692409515380859375">
        <ele>185.600006103515625</ele>
        <time>2025-10-25T14:11:36.000Z</time>
        <extensions>
          <ns3:TrackPointExtension>
            <ns3:hr>96</ns3:hr>
          </ns3:TrackPointExtension>
        </extensions>
      </trkpt>
      <trkpt lat="44.7015859745442867279052734375" lon="4.83267989940941333770751953125">
        <ele>185.399993896484375</ele>
        <time>2025-10-25T14:11:45.000Z</time>
        <extensions>
          <ns3:TrackPointExtension>
            <ns3:hr>99</ns3:hr>
          </ns3:TrackPointExtension>
        </extensions>
      </trkpt>
      <trkpt lat="44.70168043859302997589111328125" lon="4.83265735208988189697265625">
        <ele>185.1999969482421875</ele>
        <time>2025-10-25T14:11:52.000Z</time>
        <extensions>
          <ns3:TrackPointExtension>
            <ns3:hr>102</ns3:hr>
          </ns3:TrackPointExtension>
        </extensions>
      </trkpt>
      <trkpt lat="44.70186165533959865570068359375" lon="4.8326749540865421295166015625">
        <ele>185.1999969482421875</ele>
        <time>2025-10-25T14:12:08.000Z</time>
        <extensions>
          <ns3:TrackPointExtension>
            <ns3:hr>102</ns3:hr>
          </ns3:TrackPointExtension>
        </extensions>
      </trkpt>
      <trkpt lat="44.70198637805879116058349609375" lon="4.83273086138069629669189453125">
        <ele>185.600006103515625</ele>
        <time>2025-10-25T14:12:17.000Z</time>
        <extensions>
          <ns3:TrackPointExtension>
            <ns3:hr>99</ns3:hr>
          </ns3:TrackPointExtension>
        </extensions>
      </trkpt>
      <trkpt lat="44.7020991146564483642578125" lon="4.8328184522688388824462890625">
        <ele>186.399993896484375</ele>
        <time>2025-10-25T14:12:27.000Z</time>
        <extensions>
          <ns3:TrackPointExtension>
            <ns3:hr>96</ns3:hr>
          </ns3:TrackPointExtension>
        </extensions>
      </trkpt>
      <trkpt lat="44.702265746891498565673828125" lon="4.8329155147075653076171875">
        <ele>186.8000030517578125</ele>
        <time>2025-10-25T14:12:44.000Z</time>
        <extensions>
          <ns3:TrackPointExtension>
            <ns3:hr>97</ns3:hr>
          </ns3:TrackPointExtension>
        </extensions>
      </trkpt>
      <trkpt lat="44.70230623148381710052490234375" lon="4.832928590476512908935546875">
        <ele>187</ele>
        <time>2025-10-25T14:12:47.000Z</time>
        <extensions>
          <ns3:TrackPointExtension>
            <ns3:hr>97</ns3:hr>
          </ns3:TrackPointExtension>
        </extensions>
      </trkpt>
      <trkpt lat="44.70248761586844921112060546875" lon="4.832978211343288421630859375">
        <ele>187.600006103515625</ele>
        <time>2025-10-25T14:13:03.000Z</time>
        <extensions>
          <ns3:TrackPointExtension>
            <ns3:hr>97</ns3:hr>
          </ns3:TrackPointExtension>
        </extensions>
      </trkpt>
      <trkpt lat="44.70254595391452312469482421875" lon="4.83301064930856227874755859375">
        <ele>187.8000030517578125</ele>
        <time>2025-10-25T14:13:08.000Z</time>
        <extensions>
          <ns3:TrackPointExtension>
            <ns3:hr>103</ns3:hr>
          </ns3:TrackPointExtension>
        </extensions>
      </trkpt>
      <trkpt lat="44.70255710184574127197265625" lon="4.83301341533660888671875">
        <ele>188</ele>
        <time>2025-10-25T14:13:09.000Z</time>
        <extensions>
          <ns3:TrackPointExtension>
            <ns3:hr>103</ns3:hr>
          </ns3:TrackPointExtension>
        </extensions>
      </trkpt>
      <trkpt lat="44.7025981731712818145751953125" lon="4.83302079141139984130859375">
        <ele>188.1999969482421875</ele>
        <time>2025-10-25T14:13:13.000Z</time>
        <extensions>
          <ns3:TrackPointExtension>
            <ns3:hr>106</ns3:hr>
          </ns3:TrackPointExtension>
        </extensions>
      </trkpt>
      <trkpt lat="44.70262994058430194854736328125" lon="4.83302623964846134185791015625">
        <ele>188.399993896484375</ele>
        <time>2025-10-25T14:13:16.000Z</time>
        <extensions>
          <ns3:TrackPointExtension>
            <ns3:hr>109</ns3:hr>
          </ns3:TrackPointExtension>
        </extensions>
      </trkpt>
      <trkpt lat="44.70266547985374927520751953125" lon="4.833027832210063934326171875">
        <ele>188.600006103515625</ele>
        <time>2025-10-25T14:13:20.000Z</time>
        <extensions>
          <ns3:TrackPointExtension>
            <ns3:hr>112</ns3:hr>
          </ns3:TrackPointExtension>
        </extensions>
      </trkpt>
      <trkpt lat="44.70270956866443157196044921875" lon="4.8330357111990451812744140625">
        <ele>189</ele>
        <time>2025-10-25T14:13:24.000Z</time>
        <extensions>
          <ns3:TrackPointExtension>
            <ns3:hr>114</ns3:hr>
          </ns3:TrackPointExtension>
        </extensions>
      </trkpt>
      <trkpt lat="44.70279891975224018096923828125" lon="4.83305574394762516021728515625">
        <ele>189.600006103515625</ele>
        <time>2025-10-25T14:13:32.000Z</time>
        <extensions>
          <ns3:TrackPointExtension>
            <ns3:hr>111</ns3:hr>
          </ns3:TrackPointExtension>
        </extensions>
      </trkpt>
      <trkpt lat="44.70288969576358795166015625" lon="4.8330856673419475555419921875">
        <ele>190</ele>
        <time>2025-10-25T14:13:40.000Z</time>
        <extensions>
          <ns3:TrackPointExtension>
            <ns3:hr>109</ns3:hr>
          </ns3:TrackPointExtension>
        </extensions>
      </trkpt>
      <trkpt lat="44.703018777072429656982421875" lon="4.83312615193426609039306640625">
        <ele>191</ele>
        <time>2025-10-25T14:13:52.000Z</time>
        <extensions>
          <ns3:TrackPointExtension>
            <ns3:hr>108</ns3:hr>
          </ns3:TrackPointExtension>
        </extensions>
      </trkpt>
      <trkpt lat="44.703076444566249847412109375" lon="4.83313344419002532958984375">
        <ele>191.600006103515625</ele>
        <time>2025-10-25T14:13:58.000Z</time>
        <extensions>
          <ns3:TrackPointExtension>
            <ns3:hr>105</ns3:hr>
          </ns3:TrackPointExtension>
        </extensions>
      </trkpt>
      <trkpt lat="44.7031352855265140533447265625" lon="4.83314157463610172271728515625">
        <ele>192</ele>
        <time>2025-10-25T14:14:04.000Z</time>
        <extensions>
          <ns3:TrackPointExtension>
            <ns3:hr>104</ns3:hr>
          </ns3:TrackPointExtension>
        </extensions>
      </trkpt>
      <trkpt lat="44.7031976468861103057861328125" lon="4.8331570811569690704345703125">
        <ele>193.1999969482421875</ele>
        <time>2025-10-25T14:14:11.000Z</time>
        <extensions>
          <ns3:TrackPointExtension>
            <ns3:hr>104</ns3:hr>
          </ns3:TrackPointExtension>
        </extensions>
      </trkpt>
      <trkpt lat="44.7032712399959564208984375" lon="4.833166636526584625244140625">
        <ele>194.399993896484375</ele>
        <time>2025-10-25T14:14:20.000Z</time>
        <extensions>
          <ns3:TrackPointExtension>
            <ns3:hr>104</ns3:hr>
          </ns3:TrackPointExtension>
        </extensions>
      </trkpt>
      <trkpt lat="44.7033626027405261993408203125" lon="4.833182059228420257568359375">
        <ele>195.399993896484375</ele>
        <time>2025-10-25T14:14:29.000Z</time>
        <extensions>
          <ns3:TrackPointExtension>
            <ns3:hr>102</ns3:hr>
          </ns3:TrackPointExtension>
        </extensions>
      </trkpt>
      <trkpt lat="44.7034035064280033111572265625" lon="4.83319136314094066619873046875">
        <ele>195.8000030517578125</ele>
        <time>2025-10-25T14:14:33.000Z</time>
        <extensions>
          <ns3:TrackPointExtension>
            <ns3:hr>106</ns3:hr>
          </ns3:TrackPointExtension>
        </extensions>
      </trkpt>
      <trkpt lat="44.70342320390045642852783203125" lon="4.83319521881639957427978515625">
        <ele>196</ele>
        <time>2025-10-25T14:14:35.000Z</time>
        <extensions>
          <ns3:TrackPointExtension>
            <ns3:hr>110</ns3:hr>
          </ns3:TrackPointExtension>
        </extensions>
      </trkpt>
      <trkpt lat="44.70345404930412769317626953125" lon="4.8331999965012073516845703125">
        <ele>196.600006103515625</ele>
        <time>2025-10-25T14:14:38.000Z</time>
        <extensions>
          <ns3:TrackPointExtension>
            <ns3:hr>111</ns3:hr>
          </ns3:TrackPointExtension>
        </extensions>
      </trkpt>
      <trkpt lat="44.7034735791385173797607421875" lon="4.83319915831089019775390625">
        <ele>196.8000030517578125</ele>
        <time>2025-10-25T14:14:40.000Z</time>
        <extensions>
          <ns3:TrackPointExtension>
            <ns3:hr>114</ns3:hr>
          </ns3:TrackPointExtension>
        </extensions>
      </trkpt>
      <trkpt lat="44.7034831345081329345703125" lon="4.83320192433893680572509765625">
        <ele>197</ele>
        <time>2025-10-25T14:14:41.000Z</time>
        <extensions>
          <ns3:TrackPointExtension>
            <ns3:hr>117</ns3:hr>
          </ns3:TrackPointExtension>
        </extensions>
      </trkpt>
      <trkpt lat="44.70353468321263790130615234375" lon="4.833220280706882476806640625">
        <ele>197.600006103515625</ele>
        <time>2025-10-25T14:14:47.000Z</time>
        <extensions>
          <ns3:TrackPointExtension>
            <ns3:hr>118</ns3:hr>
          </ns3:TrackPointExtension>
        </extensions>
      </trkpt>
      <trkpt lat="44.703594110906124114990234375" lon="4.833231680095195770263671875">
        <ele>198.8000030517578125</ele>
        <time>2025-10-25T14:14:53.000Z</time>
        <extensions>
          <ns3:TrackPointExtension>
            <ns3:hr>116</ns3:hr>
          </ns3:TrackPointExtension>
        </extensions>
      </trkpt>
      <trkpt lat="44.70366041176021099090576171875" lon="4.83325548470020294189453125">
        <ele>199.399993896484375</ele>
        <time>2025-10-25T14:15:00.000Z</time>
        <extensions>
          <ns3:TrackPointExtension>
            <ns3:hr>120</ns3:hr>
          </ns3:TrackPointExtension>
        </extensions>
      </trkpt>
      <trkpt lat="44.70366778783500194549560546875" lon="4.8332583345472812652587890625">
        <ele>199.600006103515625</ele>
        <time>2025-10-25T14:15:01.000Z</time>
        <extensions>
          <ns3:TrackPointExtension>
            <ns3:hr>120</ns3:hr>
          </ns3:TrackPointExtension>
        </extensions>
      </trkpt>
      <trkpt lat="44.70368337817490100860595703125" lon="4.83326361514627933502197265625">
        <ele>199.8000030517578125</ele>
        <time>2025-10-25T14:15:03.000Z</time>
        <extensions>
          <ns3:TrackPointExtension>
            <ns3:hr>120</ns3:hr>
          </ns3:TrackPointExtension>
        </extensions>
      </trkpt>
      <trkpt lat="44.70373836345970630645751953125" lon="4.83327023684978485107421875">
        <ele>200.8000030517578125</ele>
        <time>2025-10-25T14:15:09.000Z</time>
        <extensions>
          <ns3:TrackPointExtension>
            <ns3:hr>117</ns3:hr>
          </ns3:TrackPointExtension>
        </extensions>
      </trkpt>
      <trkpt lat="44.70379418693482875823974609375" lon="4.8332714103162288665771484375">
        <ele>202</ele>
        <time>2025-10-25T14:15:17.000Z</time>
        <extensions>
          <ns3:TrackPointExtension>
            <ns3:hr>120</ns3:hr>
          </ns3:TrackPointExtension>
        </extensions>
      </trkpt>
      <trkpt lat="44.703833498060703277587890625" lon="4.83328255824744701385498046875">
        <ele>202.8000030517578125</ele>
        <time>2025-10-25T14:15:22.000Z</time>
        <extensions>
          <ns3:TrackPointExtension>
            <ns3:hr>123</ns3:hr>
          </ns3:TrackPointExtension>
        </extensions>
      </trkpt>
      <trkpt lat="44.70385855995118618011474609375" lon="4.83328306116163730621337890625">
        <ele>203.1999969482421875</ele>
        <time>2025-10-25T14:15:25.000Z</time>
        <extensions>
          <ns3:TrackPointExtension>
            <ns3:hr>123</ns3:hr>
          </ns3:TrackPointExtension>
        </extensions>
      </trkpt>
      <trkpt lat="44.7039392776787281036376953125" lon="4.833259843289852142333984375">
        <ele>204.399993896484375</ele>
        <time>2025-10-25T14:15:32.000Z</time>
        <extensions>
          <ns3:TrackPointExtension>
            <ns3:hr>122</ns3:hr>
          </ns3:TrackPointExtension>
        </extensions>
      </trkpt>
      <trkpt lat="44.70397372730076313018798828125" lon="4.83324349857866764068603515625">
        <ele>204.8000030517578125</ele>
        <time>2025-10-25T14:15:35.000Z</time>
        <extensions>
          <ns3:TrackPointExtension>
            <ns3:hr>118</ns3:hr>
          </ns3:TrackPointExtension>
        </extensions>
      </trkpt>
      <trkpt lat="44.70398940145969390869140625" lon="4.833243079483509063720703125">
        <ele>205.399993896484375</ele>
        <time>2025-10-25T14:15:37.000Z</time>
        <extensions>
          <ns3:TrackPointExtension>
            <ns3:hr>117</ns3:hr>
          </ns3:TrackPointExtension>
        </extensions>
      </trkpt>
      <trkpt lat="44.704050756990909576416015625" lon="4.8332134075462818145751953125">
        <ele>206.399993896484375</ele>
        <time>2025-10-25T14:15:43.000Z</time>
        <extensions>
          <ns3:TrackPointExtension>
            <ns3:hr>120</ns3:hr>
          </ns3:TrackPointExtension>
        </extensions>
      </trkpt>
      <trkpt lat="44.7041510045528411865234375" lon="4.8331282474100589752197265625">
        <ele>207.399993896484375</ele>
        <time>2025-10-25T14:15:53.000Z</time>
        <extensions>
          <ns3:TrackPointExtension>
            <ns3:hr>117</ns3:hr>
          </ns3:TrackPointExtension>
        </extensions>
      </trkpt>
      <trkpt lat="44.70417388714849948883056640625" lon="4.8330893553793430328369140625">
        <ele>207.399993896484375</ele>
        <time>2025-10-25T14:15:56.000Z</time>
        <extensions>
          <ns3:TrackPointExtension>
            <ns3:hr>115</ns3:hr>
          </ns3:TrackPointExtension>
        </extensions>
      </trkpt>
      <trkpt lat="44.704197607934474945068359375" lon="4.8330233059823513031005859375">
        <ele>207.8000030517578125</ele>
        <time>2025-10-25T14:16:00.000Z</time>
        <extensions>
          <ns3:TrackPointExtension>
            <ns3:hr>112</ns3:hr>
          </ns3:TrackPointExtension>
        </extensions>
      </trkpt>
      <trkpt lat="44.7042074985802173614501953125" lon="4.83299505896866321563720703125">
        <ele>208</ele>
        <time>2025-10-25T14:16:02.000Z</time>
        <extensions>
          <ns3:TrackPointExtension>
            <ns3:hr>117</ns3:hr>
          </ns3:TrackPointExtension>
        </extensions>
      </trkpt>
      <trkpt lat="44.70422635786235332489013671875" lon="4.83293630182743072509765625">
        <ele>208.399993896484375</ele>
        <time>2025-10-25T14:16:06.000Z</time>
        <extensions>
          <ns3:TrackPointExtension>
            <ns3:hr>113</ns3:hr>
          </ns3:TrackPointExtension>
        </extensions>
      </trkpt>
      <trkpt lat="44.704227112233638763427734375" lon="4.8329203762114048004150390625">
        <ele>208.600006103515625</ele>
        <time>2025-10-25T14:16:07.000Z</time>
        <extensions>
          <ns3:TrackPointExtension>
            <ns3:hr>114</ns3:hr>
          </ns3:TrackPointExtension>
        </extensions>
      </trkpt>
      <trkpt lat="44.70419593155384063720703125" lon="4.832781068980693817138671875">
        <ele>209.399993896484375</ele>
        <time>2025-10-25T14:16:16.000Z</time>
        <extensions>
          <ns3:TrackPointExtension>
            <ns3:hr>111</ns3:hr>
          </ns3:TrackPointExtension>
        </extensions>
      </trkpt>
      <trkpt lat="44.70418210141360759735107421875" lon="4.8327668197453022003173828125">
        <ele>209.600006103515625</ele>
        <time>2025-10-25T14:16:17.000Z</time>
        <extensions>
          <ns3:TrackPointExtension>
            <ns3:hr>108</ns3:hr>
          </ns3:TrackPointExtension>
        </extensions>
      </trkpt>
      <trkpt lat="44.70417204312980175018310546875" lon="4.83275416307151317596435546875">
        <ele>209.600006103515625</ele>
        <time>2025-10-25T14:16:18.000Z</time>
        <extensions>
          <ns3:TrackPointExtension>
            <ns3:hr>105</ns3:hr>
          </ns3:TrackPointExtension>
        </extensions>
      </trkpt>
      <trkpt lat="44.70411588437855243682861328125" lon="4.83264922164380550384521484375">
        <ele>210.8000030517578125</ele>
        <time>2025-10-25T14:16:26.000Z</time>
        <extensions>
          <ns3:TrackPointExtension>
            <ns3:hr>106</ns3:hr>
          </ns3:TrackPointExtension>
        </extensions>
      </trkpt>
      <trkpt lat="44.70408218912780284881591796875" lon="4.8325864411890506744384765625">
        <ele>211.1999969482421875</ele>
        <time>2025-10-25T14:16:31.000Z</time>
        <extensions>
          <ns3:TrackPointExtension>
            <ns3:hr>109</ns3:hr>
          </ns3:TrackPointExtension>
        </extensions>
      </trkpt>
      <trkpt lat="44.70406391657888889312744140625" lon="4.8325260914862155914306640625">
        <ele>211.8000030517578125</ele>
        <time>2025-10-25T14:16:36.000Z</time>
        <extensions>
          <ns3:TrackPointExtension>
            <ns3:hr>110</ns3:hr>
          </ns3:TrackPointExtension>
        </extensions>
      </trkpt>
      <trkpt lat="44.70404681749641895294189453125" lon="4.83238301239907741546630859375">
        <ele>212.8000030517578125</ele>
        <time>2025-10-25T14:16:46.000Z</time>
        <extensions>
          <ns3:TrackPointExtension>
            <ns3:hr>112</ns3:hr>
          </ns3:TrackPointExtension>
        </extensions>
      </trkpt>
      <trkpt lat="44.70402351580560207366943359375" lon="4.83229751698672771453857421875">
        <ele>214</ele>
        <time>2025-10-25T14:16:53.000Z</time>
        <extensions>
          <ns3:TrackPointExtension>
            <ns3:hr>114</ns3:hr>
          </ns3:TrackPointExtension>
        </extensions>
      </trkpt>
      <trkpt lat="44.7040080092847347259521484375" lon="4.83225460164248943328857421875">
        <ele>214.1999969482421875</ele>
        <time>2025-10-25T14:16:56.000Z</time>
        <extensions>
          <ns3:TrackPointExtension>
            <ns3:hr>111</ns3:hr>
          </ns3:TrackPointExtension>
        </extensions>
      </trkpt>
      <trkpt lat="44.70399149693548679351806640625" lon="4.83210020698606967926025390625">
        <ele>215</ele>
        <time>2025-10-25T14:17:06.000Z</time>
        <extensions>
          <ns3:TrackPointExtension>
            <ns3:hr>111</ns3:hr>
          </ns3:TrackPointExtension>
        </extensions>
      </trkpt>
      <trkpt lat="44.70399267040193080902099609375" lon="4.8319718800485134124755859375">
        <ele>216.1999969482421875</ele>
        <time>2025-10-25T14:17:15.000Z</time>
        <extensions>
          <ns3:TrackPointExtension>
            <ns3:hr>111</ns3:hr>
          </ns3:TrackPointExtension>
        </extensions>
      </trkpt>
      <trkpt lat="44.7039764933288097381591796875" lon="4.83175336383283138275146484375">
        <ele>217.1999969482421875</ele>
        <time>2025-10-25T14:17:30.000Z</time>
        <extensions>
          <ns3:TrackPointExtension>
            <ns3:hr>110</ns3:hr>
          </ns3:TrackPointExtension>
        </extensions>
      </trkpt>
      <trkpt lat="44.70397288911044597625732421875" lon="4.83169938437640666961669921875">
        <ele>217.600006103515625</ele>
        <time>2025-10-25T14:17:34.000Z</time>
        <extensions>
          <ns3:TrackPointExtension>
            <ns3:hr>105</ns3:hr>
          </ns3:TrackPointExtension>
        </extensions>
      </trkpt>
      <trkpt lat="44.703971631824970245361328125" lon="4.831687398254871368408203125">
        <ele>217.600006103515625</ele>
        <time>2025-10-25T14:17:35.000Z</time>
        <extensions>
          <ns3:TrackPointExtension>
            <ns3:hr>105</ns3:hr>
          </ns3:TrackPointExtension>
        </extensions>
      </trkpt>
      <trkpt lat="44.7039632499217987060546875" lon="4.8315826244652271270751953125">
        <ele>218.1999969482421875</ele>
        <time>2025-10-25T14:17:42.000Z</time>
        <extensions>
          <ns3:TrackPointExtension>
            <ns3:hr>102</ns3:hr>
          </ns3:TrackPointExtension>
        </extensions>
      </trkpt>
      <trkpt lat="44.70396853052079677581787109375" lon="4.831524789333343505859375">
        <ele>218.399993896484375</ele>
        <time>2025-10-25T14:17:45.000Z</time>
        <extensions>
          <ns3:TrackPointExtension>
            <ns3:hr>99</ns3:hr>
          </ns3:TrackPointExtension>
        </extensions>
      </trkpt>
      <trkpt lat="44.70398604869842529296875" lon="4.83140635304152965545654296875">
        <ele>219.1999969482421875</ele>
        <time>2025-10-25T14:17:52.000Z</time>
        <extensions>
          <ns3:TrackPointExtension>
            <ns3:hr>98</ns3:hr>
          </ns3:TrackPointExtension>
        </extensions>
      </trkpt>
      <trkpt lat="44.70398512668907642364501953125" lon="4.83137802220880985260009765625">
        <ele>219.600006103515625</ele>
        <time>2025-10-25T14:17:54.000Z</time>
        <extensions>
          <ns3:TrackPointExtension>
            <ns3:hr>102</ns3:hr>
          </ns3:TrackPointExtension>
        </extensions>
      </trkpt>
      <trkpt lat="44.703989736735820770263671875" lon="4.8312525451183319091796875">
        <ele>220.399993896484375</ele>
        <time>2025-10-25T14:18:02.000Z</time>
        <extensions>
          <ns3:TrackPointExtension>
            <ns3:hr>102</ns3:hr>
          </ns3:TrackPointExtension>
        </extensions>
      </trkpt>
      <trkpt lat="44.70397506840527057647705078125" lon="4.831069149076938629150390625">
        <ele>221.1999969482421875</ele>
        <time>2025-10-25T14:18:13.000Z</time>
        <extensions>
          <ns3:TrackPointExtension>
            <ns3:hr>105</ns3:hr>
          </ns3:TrackPointExtension>
        </extensions>
      </trkpt>
      <trkpt lat="44.7039617411792278289794921875" lon="4.83104073442518711090087890625">
        <ele>221.399993896484375</ele>
        <time>2025-10-25T14:18:15.000Z</time>
        <extensions>
          <ns3:TrackPointExtension>
            <ns3:hr>105</ns3:hr>
          </ns3:TrackPointExtension>
        </extensions>
      </trkpt>
      <trkpt lat="44.7038326598703861236572265625" lon="4.8308476991951465606689453125">
        <ele>222.399993896484375</ele>
        <time>2025-10-25T14:18:32.000Z</time>
        <extensions>
          <ns3:TrackPointExtension>
            <ns3:hr>104</ns3:hr>
          </ns3:TrackPointExtension>
        </extensions>
      </trkpt>
      <trkpt lat="44.70382352359592914581298828125" lon="4.83083546161651611328125">
        <ele>222.399993896484375</ele>
        <time>2025-10-25T14:18:33.000Z</time>
        <extensions>
          <ns3:TrackPointExtension>
            <ns3:hr>103</ns3:hr>
          </ns3:TrackPointExtension>
        </extensions>
      </trkpt>
      <trkpt lat="44.70370047725737094879150390625" lon="4.83064963482320308685302734375">
        <ele>223.1999969482421875</ele>
        <time>2025-10-25T14:18:48.000Z</time>
        <extensions>
          <ns3:TrackPointExtension>
            <ns3:hr>103</ns3:hr>
          </ns3:TrackPointExtension>
        </extensions>
      </trkpt>
      <trkpt lat="44.70367231406271457672119140625" lon="4.83057855628430843353271484375">
        <ele>223.399993896484375</ele>
        <time>2025-10-25T14:18:53.000Z</time>
        <extensions>
          <ns3:TrackPointExtension>
            <ns3:hr>103</ns3:hr>
          </ns3:TrackPointExtension>
        </extensions>
      </trkpt>
      <trkpt lat="44.7036060132086277008056640625" lon="4.83033045195043087005615234375">
        <ele>224</ele>
        <time>2025-10-25T14:19:09.000Z</time>
        <extensions>
          <ns3:TrackPointExtension>
            <ns3:hr>104</ns3:hr>
          </ns3:TrackPointExtension>
        </extensions>
      </trkpt>
      <trkpt lat="44.70357902348041534423828125" lon="4.83017656020820140838623046875">
        <ele>224.399993896484375</ele>
        <time>2025-10-25T14:19:19.000Z</time>
        <extensions>
          <ns3:TrackPointExtension>
            <ns3:hr>105</ns3:hr>
          </ns3:TrackPointExtension>
        </extensions>
      </trkpt>
      <trkpt lat="44.70353216864168643951416015625" lon="4.82999852858483791351318359375">
        <ele>225.399993896484375</ele>
        <time>2025-10-25T14:19:31.000Z</time>
        <extensions>
          <ns3:TrackPointExtension>
            <ns3:hr>102</ns3:hr>
          </ns3:TrackPointExtension>
        </extensions>
      </trkpt>
      <trkpt lat="44.70352613367140293121337890625" lon="4.8299639113247394561767578125">
        <ele>225.600006103515625</ele>
        <time>2025-10-25T14:19:33.000Z</time>
        <extensions>
          <ns3:TrackPointExtension>
            <ns3:hr>102</ns3:hr>
          </ns3:TrackPointExtension>
        </extensions>
      </trkpt>
      <trkpt lat="44.7034910134971141815185546875" lon="4.82985042035579681396484375">
        <ele>226.399993896484375</ele>
        <time>2025-10-25T14:19:46.000Z</time>
        <extensions>
          <ns3:TrackPointExtension>
            <ns3:hr>103</ns3:hr>
          </ns3:TrackPointExtension>
        </extensions>
      </trkpt>
      <trkpt lat="44.7034695558249950408935546875" lon="4.829789064824581146240234375">
        <ele>226.399993896484375</ele>
        <time>2025-10-25T14:19:56.000Z</time>
        <extensions>
          <ns3:TrackPointExtension>
            <ns3:hr>101</ns3:hr>
          </ns3:TrackPointExtension>
        </extensions>
      </trkpt>
      <trkpt lat="44.7034561447799205780029296875" lon="4.82972024939954280853271484375">
        <ele>226.399993896484375</ele>
        <time>2025-10-25T14:20:00.000Z</time>
        <extensions>
          <ns3:TrackPointExtension>
            <ns3:hr>105</ns3:hr>
          </ns3:TrackPointExtension>
        </extensions>
      </trkpt>
      <trkpt lat="44.70345304347574710845947265625" lon="4.82960977591574192047119140625">
        <ele>226.600006103515625</ele>
        <time>2025-10-25T14:20:07.000Z</time>
        <extensions>
          <ns3:TrackPointExtension>
            <ns3:hr>108</ns3:hr>
          </ns3:TrackPointExtension>
        </extensions>
      </trkpt>
      <trkpt lat="44.703441895544528961181640625" lon="4.829516150057315826416015625">
        <ele>226.8000030517578125</ele>
        <time>2025-10-25T14:20:13.000Z</time>
        <extensions>
          <ns3:TrackPointExtension>
            <ns3:hr>111</ns3:hr>
          </ns3:TrackPointExtension>
        </extensions>
      </trkpt>
      <trkpt lat="44.70347215421497821807861328125" lon="4.829262681305408477783203125">
        <ele>226.600006103515625</ele>
        <time>2025-10-25T14:20:28.000Z</time>
        <extensions>
          <ns3:TrackPointExtension>
            <ns3:hr>110</ns3:hr>
          </ns3:TrackPointExtension>
        </extensions>
      </trkpt>
      <trkpt lat="44.70349143259227275848388671875" lon="4.829188250005245208740234375">
        <ele>226.399993896484375</ele>
        <time>2025-10-25T14:20:33.000Z</time>
        <extensions>
          <ns3:TrackPointExtension>
            <ns3:hr>107</ns3:hr>
          </ns3:TrackPointExtension>
        </extensions>
      </trkpt>
      <trkpt lat="44.703581370413303375244140625" lon="4.828958250582218170166015625">
        <ele>226.600006103515625</ele>
        <time>2025-10-25T14:20:47.000Z</time>
        <extensions>
          <ns3:TrackPointExtension>
            <ns3:hr>105</ns3:hr>
          </ns3:TrackPointExtension>
        </extensions>
      </trkpt>
      <trkpt lat="44.70371539704501628875732421875" lon="4.82877510599792003631591796875">
        <ele>227</ele>
        <time>2025-10-25T14:21:02.000Z</time>
        <extensions>
          <ns3:TrackPointExtension>
            <ns3:hr>105</ns3:hr>
          </ns3:TrackPointExtension>
        </extensions>
      </trkpt>
      <trkpt lat="44.70378111116588115692138671875" lon="4.82874308712780475616455078125">
        <ele>227.1999969482421875</ele>
        <time>2025-10-25T14:21:08.000Z</time>
        <extensions>
          <ns3:TrackPointExtension>
            <ns3:hr>102</ns3:hr>
          </ns3:TrackPointExtension>
        </extensions>
      </trkpt>
      <trkpt lat="44.70395528711378574371337890625" lon="4.82866446487605571746826171875">
        <ele>227.1999969482421875</ele>
        <time>2025-10-25T14:21:24.000Z</time>
        <extensions>
          <ns3:TrackPointExtension>
            <ns3:hr>100</ns3:hr>
          </ns3:TrackPointExtension>
        </extensions>
      </trkpt>
      <trkpt lat="44.7040187381207942962646484375" lon="4.82864384539425373077392578125">
        <ele>227.1999969482421875</ele>
        <time>2025-10-25T14:21:30.000Z</time>
        <extensions>
          <ns3:TrackPointExtension>
            <ns3:hr>99</ns3:hr>
          </ns3:TrackPointExtension>
        </extensions>
      </trkpt>
      <trkpt lat="44.7041924111545085906982421875" lon="4.8285668157041072845458984375">
        <ele>226.8000030517578125</ele>
        <time>2025-10-25T14:21:45.000Z</time>
        <extensions>
          <ns3:TrackPointExtension>
            <ns3:hr>99</ns3:hr>
          </ns3:TrackPointExtension>
        </extensions>
      </trkpt>
      <trkpt lat="44.70437656156718730926513671875" lon="4.8285235650837421417236328125">
        <ele>226.399993896484375</ele>
        <time>2025-10-25T14:21:59.000Z</time>
        <extensions>
          <ns3:TrackPointExtension>
            <ns3:hr>100</ns3:hr>
          </ns3:TrackPointExtension>
        </extensions>
      </trkpt>
      <trkpt lat="44.70454730093479156494140625" lon="4.82844217680394649505615234375">
        <ele>225.600006103515625</ele>
        <time>2025-10-25T14:22:15.000Z</time>
        <extensions>
          <ns3:TrackPointExtension>
            <ns3:hr>100</ns3:hr>
          </ns3:TrackPointExtension>
        </extensions>
      </trkpt>
      <trkpt lat="44.70457051880657672882080078125" lon="4.8284362256526947021484375">
        <ele>225.399993896484375</ele>
        <time>2025-10-25T14:22:17.000Z</time>
        <extensions>
          <ns3:TrackPointExtension>
            <ns3:hr>101</ns3:hr>
          </ns3:TrackPointExtension>
        </extensions>
      </trkpt>
      <trkpt lat="44.70474452711641788482666015625" lon="4.8283619619905948638916015625">
        <ele>225.1999969482421875</ele>
        <time>2025-10-25T14:22:36.000Z</time>
        <extensions>
          <ns3:TrackPointExtension>
            <ns3:hr>101</ns3:hr>
          </ns3:TrackPointExtension>
        </extensions>
      </trkpt>
      <trkpt lat="44.70491752959787845611572265625" lon="4.828256852924823760986328125">
        <ele>225.1999969482421875</ele>
        <time>2025-10-25T14:22:52.000Z</time>
        <extensions>
          <ns3:TrackPointExtension>
            <ns3:hr>103</ns3:hr>
          </ns3:TrackPointExtension>
        </extensions>
      </trkpt>
      <trkpt lat="44.70500864088535308837890625" lon="4.82803800143301486968994140625">
        <ele>225.600006103515625</ele>
        <time>2025-10-25T14:23:07.000Z</time>
        <extensions>
          <ns3:TrackPointExtension>
            <ns3:hr>102</ns3:hr>
          </ns3:TrackPointExtension>
        </extensions>
      </trkpt>
      <trkpt lat="44.705062620341777801513671875" lon="4.82778134755790233612060546875">
        <ele>225.8000030517578125</ele>
        <time>2025-10-25T14:23:23.000Z</time>
        <extensions>
          <ns3:TrackPointExtension>
            <ns3:hr>100</ns3:hr>
          </ns3:TrackPointExtension>
        </extensions>
      </trkpt>
      <trkpt lat="44.7051139175891876220703125" lon="4.82753491960465908050537109375">
        <ele>225.600006103515625</ele>
        <time>2025-10-25T14:23:38.000Z</time>
        <extensions>
          <ns3:TrackPointExtension>
            <ns3:hr>101</ns3:hr>
          </ns3:TrackPointExtension>
        </extensions>
      </trkpt>
      <trkpt lat="44.70516680739820003509521484375" lon="4.827287234365940093994140625">
        <ele>225.600006103515625</ele>
        <time>2025-10-25T14:23:53.000Z</time>
        <extensions>
          <ns3:TrackPointExtension>
            <ns3:hr>102</ns3:hr>
          </ns3:TrackPointExtension>
        </extensions>
      </trkpt>
      <trkpt lat="44.7051804699003696441650390625" lon="4.8272179998457431793212890625">
        <ele>225.600006103515625</ele>
        <time>2025-10-25T14:23:57.000Z</time>
        <extensions>
          <ns3:TrackPointExtension>
            <ns3:hr>97</ns3:hr>
          </ns3:TrackPointExtension>
        </extensions>
      </trkpt>
      <trkpt lat="44.7051970660686492919921875" lon="4.8271445743739604949951171875">
        <ele>225.600006103515625</ele>
        <time>2025-10-25T14:24:02.000Z</time>
        <extensions>
          <ns3:TrackPointExtension>
            <ns3:hr>101</ns3:hr>
          </ns3:TrackPointExtension>
        </extensions>
      </trkpt>
      <trkpt lat="44.70524073578417301177978515625" lon="4.8268912732601165771484375">
        <ele>225.399993896484375</ele>
        <time>2025-10-25T14:24:17.000Z</time>
        <extensions>
          <ns3:TrackPointExtension>
            <ns3:hr>100</ns3:hr>
          </ns3:TrackPointExtension>
        </extensions>
      </trkpt>
      <trkpt lat="44.7051945514976978302001953125" lon="4.82670695520937442779541015625">
        <ele>225.399993896484375</ele>
        <time>2025-10-25T14:24:30.000Z</time>
        <extensions>
          <ns3:TrackPointExtension>
            <ns3:hr>97</ns3:hr>
          </ns3:TrackPointExtension>
        </extensions>
      </trkpt>
      <trkpt lat="44.70501945354044437408447265625" lon="4.8266550712287425994873046875">
        <ele>225.399993896484375</ele>
        <time>2025-10-25T14:24:48.000Z</time>
        <extensions>
          <ns3:TrackPointExtension>
            <ns3:hr>98</ns3:hr>
          </ns3:TrackPointExtension>
        </extensions>
      </trkpt>
      <trkpt lat="44.70484142191708087921142578125" lon="4.82662363909184932708740234375">
        <ele>225.399993896484375</ele>
        <time>2025-10-25T14:25:03.000Z</time>
        <extensions>
          <ns3:TrackPointExtension>
            <ns3:hr>97</ns3:hr>
          </ns3:TrackPointExtension>
        </extensions>
      </trkpt>
      <trkpt lat="44.704671688377857208251953125" lon="4.82653864659368991851806640625">
        <ele>225.600006103515625</ele>
        <time>2025-10-25T14:25:18.000Z</time>
        <extensions>
          <ns3:TrackPointExtension>
            <ns3:hr>95</ns3:hr>
          </ns3:TrackPointExtension>
        </extensions>
      </trkpt>
      <trkpt lat="44.70465299673378467559814453125" lon="4.8265132494270801544189453125">
        <ele>225.600006103515625</ele>
        <time>2025-10-25T14:25:20.000Z</time>
        <extensions>
          <ns3:TrackPointExtension>
            <ns3:hr>95</ns3:hr>
          </ns3:TrackPointExtension>
        </extensions>
      </trkpt>
      <trkpt lat="44.70457353629171848297119140625" lon="4.8262824118137359619140625">
        <ele>225.1999969482421875</ele>
        <time>2025-10-25T14:25:33.000Z</time>
        <extensions>
          <ns3:TrackPointExtension>
            <ns3:hr>97</ns3:hr>
          </ns3:TrackPointExtension>
        </extensions>
      </trkpt>
      <trkpt lat="44.70454520545899868011474609375" lon="4.82602148316800594329833984375">
        <ele>225</ele>
        <time>2025-10-25T14:25:47.000Z</time>
        <extensions>
          <ns3:TrackPointExtension>
            <ns3:hr>99</ns3:hr>
          </ns3:TrackPointExtension>
        </extensions>
      </trkpt>
      <trkpt lat="44.7045330516993999481201171875" lon="4.82576147653162479400634765625">
        <ele>224.8000030517578125</ele>
        <time>2025-10-25T14:26:02.000Z</time>
        <extensions>
          <ns3:TrackPointExtension>
            <ns3:hr>97</ns3:hr>
          </ns3:TrackPointExtension>
        </extensions>
      </trkpt>
      <trkpt lat="44.70451888628304004669189453125" lon="4.8255841992795467376708984375">
        <ele>224.399993896484375</ele>
        <time>2025-10-25T14:26:13.000Z</time>
        <extensions>
          <ns3:TrackPointExtension>
            <ns3:hr>96</ns3:hr>
          </ns3:TrackPointExtension>
        </extensions>
      </trkpt>
      <trkpt lat="44.7045082412660121917724609375" lon="4.82544489204883575439453125">
        <ele>224</ele>
        <time>2025-10-25T14:26:21.000Z</time>
        <extensions>
          <ns3:TrackPointExtension>
            <ns3:hr>99</ns3:hr>
          </ns3:TrackPointExtension>
        </extensions>
      </trkpt>
      <trkpt lat="44.70450975000858306884765625" lon="4.825185723602771759033203125">
        <ele>223.600006103515625</ele>
        <time>2025-10-25T14:26:35.000Z</time>
        <extensions>
          <ns3:TrackPointExtension>
            <ns3:hr>97</ns3:hr>
          </ns3:TrackPointExtension>
        </extensions>
      </trkpt>
      <trkpt lat="44.70451167784631252288818359375" lon="4.82508237473666667938232421875">
        <ele>223.399993896484375</ele>
        <time>2025-10-25T14:26:41.000Z</time>
        <extensions>
          <ns3:TrackPointExtension>
            <ns3:hr>96</ns3:hr>
          </ns3:TrackPointExtension>
        </extensions>
      </trkpt>
      <trkpt lat="44.70453397370874881744384765625" lon="4.824985228478908538818359375">
        <ele>223.1999969482421875</ele>
        <time>2025-10-25T14:26:47.000Z</time>
        <extensions>
          <ns3:TrackPointExtension>
            <ns3:hr>94</ns3:hr>
          </ns3:TrackPointExtension>
        </extensions>
      </trkpt>
      <trkpt lat="44.70457269810140132904052734375" lon="4.8247336037456989288330078125">
        <ele>222.8000030517578125</ele>
        <time>2025-10-25T14:27:02.000Z</time>
        <extensions>
          <ns3:TrackPointExtension>
            <ns3:hr>93</ns3:hr>
          </ns3:TrackPointExtension>
        </extensions>
      </trkpt>
      <trkpt lat="44.70459365285933017730712890625" lon="4.82452782802283763885498046875">
        <ele>222.399993896484375</ele>
        <time>2025-10-25T14:27:14.000Z</time>
        <extensions>
          <ns3:TrackPointExtension>
            <ns3:hr>93</ns3:hr>
          </ns3:TrackPointExtension>
        </extensions>
      </trkpt>
      <trkpt lat="44.7045830078423023223876953125" lon="4.82436790131032466888427734375">
        <ele>222</ele>
        <time>2025-10-25T14:27:23.000Z</time>
        <extensions>
          <ns3:TrackPointExtension>
            <ns3:hr>96</ns3:hr>
          </ns3:TrackPointExtension>
        </extensions>
      </trkpt>
      <trkpt lat="44.70449558459222316741943359375" lon="4.82414276339113712310791015625">
        <ele>221.600006103515625</ele>
        <time>2025-10-25T14:27:40.000Z</time>
        <extensions>
          <ns3:TrackPointExtension>
            <ns3:hr>96</ns3:hr>
          </ns3:TrackPointExtension>
        </extensions>
      </trkpt>
      <trkpt lat="44.704408161342144012451171875" lon="4.82406665571033954620361328125">
        <ele>221.399993896484375</ele>
        <time>2025-10-25T14:27:50.000Z</time>
        <extensions>
          <ns3:TrackPointExtension>
            <ns3:hr>97</ns3:hr>
          </ns3:TrackPointExtension>
        </extensions>
      </trkpt>
      <trkpt lat="44.70423272810876369476318359375" lon="4.82397294603288173675537109375">
        <ele>220.8000030517578125</ele>
        <time>2025-10-25T14:28:07.000Z</time>
        <extensions>
          <ns3:TrackPointExtension>
            <ns3:hr>96</ns3:hr>
          </ns3:TrackPointExtension>
        </extensions>
      </trkpt>
      <trkpt lat="44.7040566243231296539306640625" lon="4.82389767654240131378173828125">
        <ele>220.8000030517578125</ele>
        <time>2025-10-25T14:28:23.000Z</time>
        <extensions>
          <ns3:TrackPointExtension>
            <ns3:hr>95</ns3:hr>
          </ns3:TrackPointExtension>
        </extensions>
      </trkpt>
      <trkpt lat="44.70388387329876422882080078125" lon="4.82378753833472728729248046875">
        <ele>220.8000030517578125</ele>
        <time>2025-10-25T14:28:39.000Z</time>
        <extensions>
          <ns3:TrackPointExtension>
            <ns3:hr>93</ns3:hr>
          </ns3:TrackPointExtension>
        </extensions>
      </trkpt>
      <trkpt lat="44.7037283889949321746826171875" lon="4.82372760772705078125">
        <ele>220.399993896484375</ele>
        <time>2025-10-25T14:28:53.000Z</time>
        <extensions>
          <ns3:TrackPointExtension>
            <ns3:hr>95</ns3:hr>
          </ns3:TrackPointExtension>
        </extensions>
      </trkpt>
      <trkpt lat="44.7037092782557010650634765625" lon="4.82371411286294460296630859375">
        <ele>220.1999969482421875</ele>
        <time>2025-10-25T14:28:55.000Z</time>
        <extensions>
          <ns3:TrackPointExtension>
            <ns3:hr>96</ns3:hr>
          </ns3:TrackPointExtension>
        </extensions>
      </trkpt>
      <trkpt lat="44.7035367786884307861328125" lon="4.82360221445560455322265625">
        <ele>219.8000030517578125</ele>
        <time>2025-10-25T14:29:11.000Z</time>
        <extensions>
          <ns3:TrackPointExtension>
            <ns3:hr>96</ns3:hr>
          </ns3:TrackPointExtension>
        </extensions>
      </trkpt>
      <trkpt lat="44.70336050726473331451416015625" lon="4.8235343210399150848388671875">
        <ele>219.600006103515625</ele>
        <time>2025-10-25T14:29:27.000Z</time>
        <extensions>
          <ns3:TrackPointExtension>
            <ns3:hr>96</ns3:hr>
          </ns3:TrackPointExtension>
        </extensions>
      </trkpt>
      <trkpt lat="44.70318398438394069671630859375" lon="4.8234427906572818756103515625">
        <ele>219.399993896484375</ele>
        <time>2025-10-25T14:29:43.000Z</time>
        <extensions>
          <ns3:TrackPointExtension>
            <ns3:hr>96</ns3:hr>
          </ns3:TrackPointExtension>
        </extensions>
      </trkpt>
      <trkpt lat="44.70313671045005321502685546875" lon="4.82341655530035495758056640625">
        <ele>219.1999969482421875</ele>
        <time>2025-10-25T14:29:47.000Z</time>
        <extensions>
          <ns3:TrackPointExtension>
            <ns3:hr>95</ns3:hr>
          </ns3:TrackPointExtension>
        </extensions>
      </trkpt>
      <trkpt lat="44.70295566134154796600341796875" lon="4.82334178872406482696533203125">
        <ele>219</ele>
        <time>2025-10-25T14:30:04.000Z</time>
        <extensions>
          <ns3:TrackPointExtension>
            <ns3:hr>95</ns3:hr>
          </ns3:TrackPointExtension>
        </extensions>
      </trkpt>
      <trkpt lat="44.702782742679119110107421875" lon="4.8232553713023662567138671875">
        <ele>218.600006103515625</ele>
        <time>2025-10-25T14:30:19.000Z</time>
        <extensions>
          <ns3:TrackPointExtension>
            <ns3:hr>94</ns3:hr>
          </ns3:TrackPointExtension>
        </extensions>
      </trkpt>
      <trkpt lat="44.70274074934422969818115234375" lon="4.82322611846029758453369140625">
        <ele>218.1999969482421875</ele>
        <time>2025-10-25T14:30:23.000Z</time>
        <extensions>
          <ns3:TrackPointExtension>
            <ns3:hr>95</ns3:hr>
          </ns3:TrackPointExtension>
        </extensions>
      </trkpt>
      <trkpt lat="44.70266195945441722869873046875" lon="4.82318940572440624237060546875">
        <ele>217.8000030517578125</ele>
        <time>2025-10-25T14:30:30.000Z</time>
        <extensions>
          <ns3:TrackPointExtension>
            <ns3:hr>98</ns3:hr>
          </ns3:TrackPointExtension>
        </extensions>
      </trkpt>
      <trkpt lat="44.70247931778430938720703125" lon="4.82312654145061969757080078125">
        <ele>217.8000030517578125</ele>
        <time>2025-10-25T14:30:46.000Z</time>
        <extensions>
          <ns3:TrackPointExtension>
            <ns3:hr>98</ns3:hr>
          </ns3:TrackPointExtension>
        </extensions>
      </trkpt>
      <trkpt lat="44.70232869498431682586669921875" lon="4.82299125753343105316162109375">
        <ele>217.399993896484375</ele>
        <time>2025-10-25T14:31:04.000Z</time>
        <extensions>
          <ns3:TrackPointExtension>
            <ns3:hr>97</ns3:hr>
          </ns3:TrackPointExtension>
        </extensions>
      </trkpt>
      <trkpt lat="44.70231746323406696319580078125" lon="4.8229495994746685028076171875">
        <ele>217.1999969482421875</ele>
        <time>2025-10-25T14:31:07.000Z</time>
        <extensions>
          <ns3:TrackPointExtension>
            <ns3:hr>97</ns3:hr>
          </ns3:TrackPointExtension>
        </extensions>
      </trkpt>
      <trkpt lat="44.702314697206020355224609375" lon="4.82293442822992801666259765625">
        <ele>217.1999969482421875</ele>
        <time>2025-10-25T14:31:08.000Z</time>
        <extensions>
          <ns3:TrackPointExtension>
            <ns3:hr>97</ns3:hr>
          </ns3:TrackPointExtension>
        </extensions>
      </trkpt>
      <trkpt lat="44.70231846906244754791259765625" lon="4.8228969611227512359619140625">
        <ele>217.1999969482421875</ele>
        <time>2025-10-25T14:31:11.000Z</time>
        <extensions>
          <ns3:TrackPointExtension>
            <ns3:hr>96</ns3:hr>
          </ns3:TrackPointExtension>
        </extensions>
      </trkpt>
      <trkpt lat="44.70238275825977325439453125" lon="4.82265246100723743438720703125">
        <ele>217.600006103515625</ele>
        <time>2025-10-25T14:31:27.000Z</time>
        <extensions>
          <ns3:TrackPointExtension>
            <ns3:hr>98</ns3:hr>
          </ns3:TrackPointExtension>
        </extensions>
      </trkpt>
      <trkpt lat="44.70240966416895389556884765625" lon="4.8225315101444721221923828125">
        <ele>218</ele>
        <time>2025-10-25T14:31:34.000Z</time>
        <extensions>
          <ns3:TrackPointExtension>
            <ns3:hr>101</ns3:hr>
          </ns3:TrackPointExtension>
        </extensions>
      </trkpt>
      <trkpt lat="44.702448137104511260986328125" lon="4.82226781547069549560546875">
        <ele>218.1999969482421875</ele>
        <time>2025-10-25T14:31:49.000Z</time>
        <extensions>
          <ns3:TrackPointExtension>
            <ns3:hr>100</ns3:hr>
          </ns3:TrackPointExtension>
        </extensions>
      </trkpt>
      <trkpt lat="44.7024493105709552764892578125" lon="4.82224962674081325531005859375">
        <ele>218.1999969482421875</ele>
        <time>2025-10-25T14:31:50.000Z</time>
        <extensions>
          <ns3:TrackPointExtension>
            <ns3:hr>100</ns3:hr>
          </ns3:TrackPointExtension>
        </extensions>
      </trkpt>
      <trkpt lat="44.70248929224908351898193359375" lon="4.82198509387671947479248046875">
        <ele>218</ele>
        <time>2025-10-25T14:32:05.000Z</time>
        <extensions>
          <ns3:TrackPointExtension>
            <ns3:hr>100</ns3:hr>
          </ns3:TrackPointExtension>
        </extensions>
      </trkpt>
      <trkpt lat="44.7025255858898162841796875" lon="4.821729697287082672119140625">
        <ele>217.1999969482421875</ele>
        <time>2025-10-25T14:32:21.000Z</time>
        <extensions>
          <ns3:TrackPointExtension>
            <ns3:hr>97</ns3:hr>
          </ns3:TrackPointExtension>
        </extensions>
      </trkpt>
      <trkpt lat="44.702448807656764984130859375" lon="4.8215340636670589447021484375">
        <ele>216.600006103515625</ele>
        <time>2025-10-25T14:32:37.000Z</time>
        <extensions>
          <ns3:TrackPointExtension>
            <ns3:hr>97</ns3:hr>
          </ns3:TrackPointExtension>
        </extensions>
      </trkpt>
      <trkpt lat="44.70227471552789211273193359375" lon="4.8214569501578807830810546875">
        <ele>216.399993896484375</ele>
        <time>2025-10-25T14:32:52.000Z</time>
        <extensions>
          <ns3:TrackPointExtension>
            <ns3:hr>97</ns3:hr>
          </ns3:TrackPointExtension>
        </extensions>
      </trkpt>
      <trkpt lat="44.70211663283407688140869140625" lon="4.82137841172516345977783203125">
        <ele>216.399993896484375</ele>
        <time>2025-10-25T14:33:07.000Z</time>
        <extensions>
          <ns3:TrackPointExtension>
            <ns3:hr>94</ns3:hr>
          </ns3:TrackPointExtension>
        </extensions>
      </trkpt>
      <trkpt lat="44.7019346617162227630615234375" lon="4.821295849978923797607421875">
        <ele>216.600006103515625</ele>
        <time>2025-10-25T14:33:23.000Z</time>
        <extensions>
          <ns3:TrackPointExtension>
            <ns3:hr>94</ns3:hr>
          </ns3:TrackPointExtension>
        </extensions>
      </trkpt>
      <trkpt lat="44.70176056958734989166259765625" lon="4.82122083194553852081298828125">
        <ele>216.600006103515625</ele>
        <time>2025-10-25T14:33:38.000Z</time>
        <extensions>
          <ns3:TrackPointExtension>
            <ns3:hr>96</ns3:hr>
          </ns3:TrackPointExtension>
        </extensions>
      </trkpt>
      <trkpt lat="44.70164649188518524169921875" lon="4.82119702734053134918212890625">
        <ele>216.600006103515625</ele>
        <time>2025-10-25T14:33:47.000Z</time>
        <extensions>
          <ns3:TrackPointExtension>
            <ns3:hr>99</ns3:hr>
          </ns3:TrackPointExtension>
        </extensions>
      </trkpt>
      <trkpt lat="44.701473824679851531982421875" lon="4.82112226076424121856689453125">
        <ele>216.600006103515625</ele>
        <time>2025-10-25T14:34:02.000Z</time>
        <extensions>
          <ns3:TrackPointExtension>
            <ns3:hr>98</ns3:hr>
          </ns3:TrackPointExtension>
        </extensions>
      </trkpt>
      <trkpt lat="44.7012926079332828521728515625" lon="4.82105277478694915771484375">
        <ele>216.399993896484375</ele>
        <time>2025-10-25T14:34:17.000Z</time>
        <extensions>
          <ns3:TrackPointExtension>
            <ns3:hr>99</ns3:hr>
          </ns3:TrackPointExtension>
        </extensions>
      </trkpt>
      <trkpt lat="44.701149947941303253173828125" lon="4.82101161964237689971923828125">
        <ele>216.1999969482421875</ele>
        <time>2025-10-25T14:34:28.000Z</time>
        <extensions>
          <ns3:TrackPointExtension>
            <ns3:hr>96</ns3:hr>
          </ns3:TrackPointExtension>
        </extensions>
      </trkpt>
      <trkpt lat="44.70097049139440059661865234375" lon="4.82096954248845577239990234375">
        <ele>216.399993896484375</ele>
        <time>2025-10-25T14:34:43.000Z</time>
        <extensions>
          <ns3:TrackPointExtension>
            <ns3:hr>98</ns3:hr>
          </ns3:TrackPointExtension>
        </extensions>
      </trkpt>
      <trkpt lat="44.700794555246829986572265625" lon="4.82092268764972686767578125">
        <ele>216.1999969482421875</ele>
        <time>2025-10-25T14:34:58.000Z</time>
        <extensions>
          <ns3:TrackPointExtension>
            <ns3:hr>99</ns3:hr>
          </ns3:TrackPointExtension>
        </extensions>
      </trkpt>
      <trkpt lat="44.7006076388061046600341796875" lon="4.82090366072952747344970703125">
        <ele>216.1999969482421875</ele>
        <time>2025-10-25T14:35:13.000Z</time>
        <extensions>
          <ns3:TrackPointExtension>
            <ns3:hr>101</ns3:hr>
          </ns3:TrackPointExtension>
        </extensions>
      </trkpt>
      <trkpt lat="44.7004286013543605804443359375" lon="4.82087030075490474700927734375">
        <ele>215.8000030517578125</ele>
        <time>2025-10-25T14:35:28.000Z</time>
        <extensions>
          <ns3:TrackPointExtension>
            <ns3:hr>101</ns3:hr>
          </ns3:TrackPointExtension>
        </extensions>
      </trkpt>
      <trkpt lat="44.70035500824451446533203125" lon="4.8208457417786121368408203125">
        <ele>215.399993896484375</ele>
        <time>2025-10-25T14:35:34.000Z</time>
        <extensions>
          <ns3:TrackPointExtension>
            <ns3:hr>98</ns3:hr>
          </ns3:TrackPointExtension>
        </extensions>
      </trkpt>
      <trkpt lat="44.70029977150261402130126953125" lon="4.82081808149814605712890625">
        <ele>215.1999969482421875</ele>
        <time>2025-10-25T14:35:39.000Z</time>
        <extensions>
          <ns3:TrackPointExtension>
            <ns3:hr>97</ns3:hr>
          </ns3:TrackPointExtension>
        </extensions>
      </trkpt>
      <trkpt lat="44.70012827776372432708740234375" lon="4.82069746591150760650634765625">
        <ele>214.600006103515625</ele>
        <time>2025-10-25T14:35:53.000Z</time>
        <extensions>
          <ns3:TrackPointExtension>
            <ns3:hr>98</ns3:hr>
          </ns3:TrackPointExtension>
        </extensions>
      </trkpt>
      <trkpt lat="44.6999974362552165985107421875" lon="4.82050719670951366424560546875">
        <ele>214.399993896484375</ele>
        <time>2025-10-25T14:36:06.000Z</time>
        <extensions>
          <ns3:TrackPointExtension>
            <ns3:hr>97</ns3:hr>
          </ns3:TrackPointExtension>
        </extensions>
      </trkpt>
      <trkpt lat="44.69993985258042812347412109375" lon="4.820269234478473663330078125">
        <ele>215.1999969482421875</ele>
        <time>2025-10-25T14:36:20.000Z</time>
        <extensions>
          <ns3:TrackPointExtension>
            <ns3:hr>96</ns3:hr>
          </ns3:TrackPointExtension>
        </extensions>
      </trkpt>
      <trkpt lat="44.699928201735019683837890625" lon="4.82000134885311126708984375">
        <ele>215.399993896484375</ele>
        <time>2025-10-25T14:36:35.000Z</time>
        <extensions>
          <ns3:TrackPointExtension>
            <ns3:hr>98</ns3:hr>
          </ns3:TrackPointExtension>
        </extensions>
      </trkpt>
      <trkpt lat="44.6998921595513820648193359375" lon="4.81973044574260711669921875">
        <ele>214</ele>
        <time>2025-10-25T14:36:54.000Z</time>
        <extensions>
          <ns3:TrackPointExtension>
            <ns3:hr>98</ns3:hr>
          </ns3:TrackPointExtension>
        </extensions>
      </trkpt>
      <trkpt lat="44.69986961223185062408447265625" lon="4.81962508521974086761474609375">
        <ele>213.8000030517578125</ele>
        <time>2025-10-25T14:37:02.000Z</time>
        <extensions>
          <ns3:TrackPointExtension>
            <ns3:hr>95</ns3:hr>
          </ns3:TrackPointExtension>
        </extensions>
      </trkpt>
      <trkpt lat="44.69986324198544025421142578125" lon="4.81958703137934207916259765625">
        <ele>213.8000030517578125</ele>
        <time>2025-10-25T14:37:04.000Z</time>
        <extensions>
          <ns3:TrackPointExtension>
            <ns3:hr>92</ns3:hr>
          </ns3:TrackPointExtension>
        </extensions>
      </trkpt>
      <trkpt lat="44.6998460590839385986328125" lon="4.81947018764913082122802734375">
        <ele>213.8000030517578125</ele>
        <time>2025-10-25T14:37:10.000Z</time>
        <extensions>
          <ns3:TrackPointExtension>
            <ns3:hr>89</ns3:hr>
          </ns3:TrackPointExtension>
        </extensions>
      </trkpt>
      <trkpt lat="44.6998541057109832763671875" lon="4.81921068392693996429443359375">
        <ele>214.399993896484375</ele>
        <time>2025-10-25T14:37:23.000Z</time>
        <extensions>
          <ns3:TrackPointExtension>
            <ns3:hr>89</ns3:hr>
          </ns3:TrackPointExtension>
        </extensions>
      </trkpt>
      <trkpt lat="44.69991571269929409027099609375" lon="4.8189648427069187164306640625">
        <ele>215</ele>
        <time>2025-10-25T14:37:37.000Z</time>
        <extensions>
          <ns3:TrackPointExtension>
            <ns3:hr>90</ns3:hr>
          </ns3:TrackPointExtension>
        </extensions>
      </trkpt>
      <trkpt lat="44.6999213285744190216064453125" lon="4.818948917090892791748046875">
        <ele>215</ele>
        <time>2025-10-25T14:37:38.000Z</time>
        <extensions>
          <ns3:TrackPointExtension>
            <ns3:hr>90</ns3:hr>
          </ns3:TrackPointExtension>
        </extensions>
      </trkpt>
      <trkpt lat="44.70001730136573314666748046875" lon="4.818724952638149261474609375">
        <ele>214.8000030517578125</ele>
        <time>2025-10-25T14:37:53.000Z</time>
        <extensions>
          <ns3:TrackPointExtension>
            <ns3:hr>90</ns3:hr>
          </ns3:TrackPointExtension>
        </extensions>
      </trkpt>
      <trkpt lat="44.7001151181757450103759765625" lon="4.81849838979542255401611328125">
        <ele>214.1999969482421875</ele>
        <time>2025-10-25T14:38:08.000Z</time>
        <extensions>
          <ns3:TrackPointExtension>
            <ns3:hr>90</ns3:hr>
          </ns3:TrackPointExtension>
        </extensions>
      </trkpt>
      <trkpt lat="44.7002311237156391143798828125" lon="4.81831692159175872802734375">
        <ele>213</ele>
        <time>2025-10-25T14:38:22.000Z</time>
        <extensions>
          <ns3:TrackPointExtension>
            <ns3:hr>92</ns3:hr>
          </ns3:TrackPointExtension>
        </extensions>
      </trkpt>
      <trkpt lat="44.70035903155803680419921875" lon="4.81827895157039165496826171875">
        <ele>211.8000030517578125</ele>
        <time>2025-10-25T14:38:32.000Z</time>
        <extensions>
          <ns3:TrackPointExtension>
            <ns3:hr>94</ns3:hr>
          </ns3:TrackPointExtension>
        </extensions>
      </trkpt>
      <trkpt lat="44.70054552890360355377197265625" lon="4.81824944727122783660888671875">
        <ele>211</ele>
        <time>2025-10-25T14:38:45.000Z</time>
        <extensions>
          <ns3:TrackPointExtension>
            <ns3:hr>93</ns3:hr>
          </ns3:TrackPointExtension>
        </extensions>
      </trkpt>
      <trkpt lat="44.70065248198807239532470703125" lon="4.8182346113026142120361328125">
        <ele>210.8000030517578125</ele>
        <time>2025-10-25T14:38:53.000Z</time>
        <extensions>
          <ns3:TrackPointExtension>
            <ns3:hr>94</ns3:hr>
          </ns3:TrackPointExtension>
        </extensions>
      </trkpt>
      <trkpt lat="44.7008171863853931427001953125" lon="4.8181772790849208831787109375">
        <ele>209.8000030517578125</ele>
        <time>2025-10-25T14:39:09.000Z</time>
        <extensions>
          <ns3:TrackPointExtension>
            <ns3:hr>93</ns3:hr>
          </ns3:TrackPointExtension>
        </extensions>
      </trkpt>
      <trkpt lat="44.7008731774985790252685546875" lon="4.8180949687957763671875">
        <ele>208.600006103515625</ele>
        <time>2025-10-25T14:39:16.000Z</time>
        <extensions>
          <ns3:TrackPointExtension>
            <ns3:hr>93</ns3:hr>
          </ns3:TrackPointExtension>
        </extensions>
      </trkpt>
      <trkpt lat="44.70089874230325222015380859375" lon="4.81783688999712467193603515625">
        <ele>208.399993896484375</ele>
        <time>2025-10-25T14:39:32.000Z</time>
        <extensions>
          <ns3:TrackPointExtension>
            <ns3:hr>92</ns3:hr>
          </ns3:TrackPointExtension>
        </extensions>
      </trkpt>
      <trkpt lat="44.7008902765810489654541015625" lon="4.817668162286281585693359375">
        <ele>208.1999969482421875</ele>
        <time>2025-10-25T14:39:42.000Z</time>
        <extensions>
          <ns3:TrackPointExtension>
            <ns3:hr>95</ns3:hr>
          </ns3:TrackPointExtension>
        </extensions>
      </trkpt>
      <trkpt lat="44.70089673064649105072021484375" lon="4.81751904822885990142822265625">
        <ele>208.1999969482421875</ele>
        <time>2025-10-25T14:39:51.000Z</time>
        <extensions>
          <ns3:TrackPointExtension>
            <ns3:hr>91</ns3:hr>
          </ns3:TrackPointExtension>
        </extensions>
      </trkpt>
      <trkpt lat="44.70089572481811046600341796875" lon="4.8174862749874591827392578125">
        <ele>208.1999969482421875</ele>
        <time>2025-10-25T14:39:53.000Z</time>
        <extensions>
          <ns3:TrackPointExtension>
            <ns3:hr>88</ns3:hr>
          </ns3:TrackPointExtension>
        </extensions>
      </trkpt>
      <trkpt lat="44.7008829005062580108642578125" lon="4.8172326385974884033203125">
        <ele>209</ele>
        <time>2025-10-25T14:40:08.000Z</time>
        <extensions>
          <ns3:TrackPointExtension>
            <ns3:hr>90</ns3:hr>
          </ns3:TrackPointExtension>
        </extensions>
      </trkpt>
      <trkpt lat="44.7008607722818851470947265625" lon="4.81697170995175838470458984375">
        <ele>209.1999969482421875</ele>
        <time>2025-10-25T14:40:23.000Z</time>
        <extensions>
          <ns3:TrackPointExtension>
            <ns3:hr>93</ns3:hr>
          </ns3:TrackPointExtension>
        </extensions>
      </trkpt>
      <trkpt lat="44.700866639614105224609375" lon="4.81687163002789020538330078125">
        <ele>209</ele>
        <time>2025-10-25T14:40:29.000Z</time>
        <extensions>
          <ns3:TrackPointExtension>
            <ns3:hr>96</ns3:hr>
          </ns3:TrackPointExtension>
        </extensions>
      </trkpt>
      <trkpt lat="44.7008678130805492401123046875" lon="4.81661640107631683349609375">
        <ele>208</ele>
        <time>2025-10-25T14:40:46.000Z</time>
        <extensions>
          <ns3:TrackPointExtension>
            <ns3:hr>96</ns3:hr>
          </ns3:TrackPointExtension>
        </extensions>
      </trkpt>
      <trkpt lat="44.70086731016635894775390625" lon="4.816566444933414459228515625">
        <ele>207.600006103515625</ele>
        <time>2025-10-25T14:40:49.000Z</time>
        <extensions>
          <ns3:TrackPointExtension>
            <ns3:hr>97</ns3:hr>
          </ns3:TrackPointExtension>
        </extensions>
      </trkpt>
      <trkpt lat="44.7008652985095977783203125" lon="4.81645404361188411712646484375">
        <ele>206.1999969482421875</ele>
        <time>2025-10-25T14:40:56.000Z</time>
        <extensions>
          <ns3:TrackPointExtension>
            <ns3:hr>97</ns3:hr>
          </ns3:TrackPointExtension>
        </extensions>
      </trkpt>
      <trkpt lat="44.7008637897670269012451171875" lon="4.816310293972492218017578125">
        <ele>205.1999969482421875</ele>
        <time>2025-10-25T14:41:04.000Z</time>
        <extensions>
          <ns3:TrackPointExtension>
            <ns3:hr>96</ns3:hr>
          </ns3:TrackPointExtension>
        </extensions>
      </trkpt>
      <trkpt lat="44.7008634544909000396728515625" lon="4.8161865770816802978515625">
        <ele>204.1999969482421875</ele>
        <time>2025-10-25T14:41:12.000Z</time>
        <extensions>
          <ns3:TrackPointExtension>
            <ns3:hr>96</ns3:hr>
          </ns3:TrackPointExtension>
        </extensions>
      </trkpt>
      <trkpt lat="44.70086135901510715484619140625" lon="4.81612144969403743743896484375">
        <ele>203.1999969482421875</ele>
        <time>2025-10-25T14:41:16.000Z</time>
        <extensions>
          <ns3:TrackPointExtension>
            <ns3:hr>95</ns3:hr>
          </ns3:TrackPointExtension>
        </extensions>
      </trkpt>
      <trkpt lat="44.700858928263187408447265625" lon="4.8160090483725070953369140625">
        <ele>201.8000030517578125</ele>
        <time>2025-10-25T14:41:23.000Z</time>
        <extensions>
          <ns3:TrackPointExtension>
            <ns3:hr>94</ns3:hr>
          </ns3:TrackPointExtension>
        </extensions>
      </trkpt>
      <trkpt lat="44.70085079781711101531982421875" lon="4.8158970661461353302001953125">
        <ele>200.8000030517578125</ele>
        <time>2025-10-25T14:41:30.000Z</time>
        <extensions>
          <ns3:TrackPointExtension>
            <ns3:hr>94</ns3:hr>
          </ns3:TrackPointExtension>
        </extensions>
      </trkpt>
      <trkpt lat="44.7008460201323032379150390625" lon="4.815774522721767425537109375">
        <ele>199.8000030517578125</ele>
        <time>2025-10-25T14:41:37.000Z</time>
        <extensions>
          <ns3:TrackPointExtension>
            <ns3:hr>95</ns3:hr>
          </ns3:TrackPointExtension>
        </extensions>
      </trkpt>
      <trkpt lat="44.70085046254098415374755859375" lon="4.815613925457000732421875">
        <ele>198.8000030517578125</ele>
        <time>2025-10-25T14:41:46.000Z</time>
        <extensions>
          <ns3:TrackPointExtension>
            <ns3:hr>96</ns3:hr>
          </ns3:TrackPointExtension>
        </extensions>
      </trkpt>
      <trkpt lat="44.7008577547967433929443359375" lon="4.8154608719050884246826171875">
        <ele>197.8000030517578125</ele>
        <time>2025-10-25T14:41:55.000Z</time>
        <extensions>
          <ns3:TrackPointExtension>
            <ns3:hr>96</ns3:hr>
          </ns3:TrackPointExtension>
        </extensions>
      </trkpt>
      <trkpt lat="44.70086731016635894775390625" lon="4.81525727547705173492431640625">
        <ele>196.600006103515625</ele>
        <time>2025-10-25T14:42:08.000Z</time>
        <extensions>
          <ns3:TrackPointExtension>
            <ns3:hr>94</ns3:hr>
          </ns3:TrackPointExtension>
        </extensions>
      </trkpt>
      <trkpt lat="44.70088231377303600311279296875" lon="4.815057702362537384033203125">
        <ele>195.600006103515625</ele>
        <time>2025-10-25T14:42:21.000Z</time>
        <extensions>
          <ns3:TrackPointExtension>
            <ns3:hr>94</ns3:hr>
          </ns3:TrackPointExtension>
        </extensions>
      </trkpt>
      <trkpt lat="44.70091114751994609832763671875" lon="4.81487288139760494232177734375">
        <ele>194.600006103515625</ele>
        <time>2025-10-25T14:42:32.000Z</time>
        <extensions>
          <ns3:TrackPointExtension>
            <ns3:hr>91</ns3:hr>
          </ns3:TrackPointExtension>
        </extensions>
      </trkpt>
      <trkpt lat="44.70090947113931179046630859375" lon="4.81485377065837383270263671875">
        <ele>194.600006103515625</ele>
        <time>2025-10-25T14:42:33.000Z</time>
        <extensions>
          <ns3:TrackPointExtension>
            <ns3:hr>91</ns3:hr>
          </ns3:TrackPointExtension>
        </extensions>
      </trkpt>
      <trkpt lat="44.70092296600341796875" lon="4.81462595053017139434814453125">
        <ele>193.399993896484375</ele>
        <time>2025-10-25T14:42:45.000Z</time>
        <extensions>
          <ns3:TrackPointExtension>
            <ns3:hr>92</ns3:hr>
          </ns3:TrackPointExtension>
        </extensions>
      </trkpt>
      <trkpt lat="44.70089547336101531982421875" lon="4.81445160694420337677001953125">
        <ele>192.399993896484375</ele>
        <time>2025-10-25T14:42:56.000Z</time>
        <extensions>
          <ns3:TrackPointExtension>
            <ns3:hr>91</ns3:hr>
          </ns3:TrackPointExtension>
        </extensions>
      </trkpt>
      <trkpt lat="44.70088876783847808837890625" lon="4.8144402913749217987060546875">
        <ele>192.399993896484375</ele>
        <time>2025-10-25T14:42:57.000Z</time>
        <extensions>
          <ns3:TrackPointExtension>
            <ns3:hr>95</ns3:hr>
          </ns3:TrackPointExtension>
        </extensions>
      </trkpt>
      <trkpt lat="44.70086999237537384033203125" lon="4.8144208453595638275146484375">
        <ele>192</ele>
        <time>2025-10-25T14:42:59.000Z</time>
        <extensions>
          <ns3:TrackPointExtension>
            <ns3:hr>101</ns3:hr>
          </ns3:TrackPointExtension>
        </extensions>
      </trkpt>
      <trkpt lat="44.7008607722818851470947265625" lon="4.8144134692847728729248046875">
        <ele>191.8000030517578125</ele>
        <time>2025-10-25T14:43:00.000Z</time>
        <extensions>
          <ns3:TrackPointExtension>
            <ns3:hr>106</ns3:hr>
          </ns3:TrackPointExtension>
        </extensions>
      </trkpt>
      <trkpt lat="44.7008510492742061614990234375" lon="4.81440735049545764923095703125">
        <ele>191.8000030517578125</ele>
        <time>2025-10-25T14:43:01.000Z</time>
        <extensions>
          <ns3:TrackPointExtension>
            <ns3:hr>111</ns3:hr>
          </ns3:TrackPointExtension>
        </extensions>
      </trkpt>
      <trkpt lat="44.7008007578551769256591796875" lon="4.8144000582396984100341796875">
        <ele>191.399993896484375</ele>
        <time>2025-10-25T14:43:06.000Z</time>
        <extensions>
          <ns3:TrackPointExtension>
            <ns3:hr>109</ns3:hr>
          </ns3:TrackPointExtension>
        </extensions>
      </trkpt>
      <trkpt lat="44.7007290087640285491943359375" lon="4.8144184984266757965087890625">
        <ele>191.1999969482421875</ele>
        <time>2025-10-25T14:43:11.000Z</time>
        <extensions>
          <ns3:TrackPointExtension>
            <ns3:hr>106</ns3:hr>
          </ns3:TrackPointExtension>
        </extensions>
      </trkpt>
      <trkpt lat="44.70053848810493946075439453125" lon="4.814424030482769012451171875">
        <ele>191</ele>
        <time>2025-10-25T14:43:26.000Z</time>
        <extensions>
          <ns3:TrackPointExtension>
            <ns3:hr>107</ns3:hr>
          </ns3:TrackPointExtension>
        </extensions>
      </trkpt>
      <trkpt lat="44.7004306130111217498779296875" lon="4.8142605833709239959716796875">
        <ele>190.8000030517578125</ele>
        <time>2025-10-25T14:43:39.000Z</time>
        <extensions>
          <ns3:TrackPointExtension>
            <ns3:hr>104</ns3:hr>
          </ns3:TrackPointExtension>
        </extensions>
      </trkpt>
      <trkpt lat="44.70051669515669345855712890625" lon="4.81406838633120059967041015625">
        <ele>190.399993896484375</ele>
        <time>2025-10-25T14:43:50.000Z</time>
        <extensions>
          <ns3:TrackPointExtension>
            <ns3:hr>106</ns3:hr>
          </ns3:TrackPointExtension>
        </extensions>
      </trkpt>
      <trkpt lat="44.70065248198807239532470703125" lon="4.81388482265174388885498046875">
        <ele>189.8000030517578125</ele>
        <time>2025-10-25T14:44:04.000Z</time>
        <extensions>
          <ns3:TrackPointExtension>
            <ns3:hr>105</ns3:hr>
          </ns3:TrackPointExtension>
        </extensions>
      </trkpt>
      <trkpt lat="44.70077611505985260009765625" lon="4.8137197829782962799072265625">
        <ele>189.1999969482421875</ele>
        <time>2025-10-25T14:44:18.000Z</time>
        <extensions>
          <ns3:TrackPointExtension>
            <ns3:hr>106</ns3:hr>
          </ns3:TrackPointExtension>
        </extensions>
      </trkpt>
      <trkpt lat="44.70089941285550594329833984375" lon="4.81356203556060791015625">
        <ele>189.1999969482421875</ele>
        <time>2025-10-25T14:44:32.000Z</time>
        <extensions>
          <ns3:TrackPointExtension>
            <ns3:hr>103</ns3:hr>
          </ns3:TrackPointExtension>
        </extensions>
      </trkpt>
      <trkpt lat="44.70103234983980655670166015625" lon="4.81339163146913051605224609375">
        <ele>189</ele>
        <time>2025-10-25T14:44:46.000Z</time>
        <extensions>
          <ns3:TrackPointExtension>
            <ns3:hr>104</ns3:hr>
          </ns3:TrackPointExtension>
        </extensions>
      </trkpt>
      <trkpt lat="44.701173417270183563232421875" lon="4.81321376748383045196533203125">
        <ele>188.399993896484375</ele>
        <time>2025-10-25T14:45:02.000Z</time>
        <extensions>
          <ns3:TrackPointExtension>
            <ns3:hr>103</ns3:hr>
          </ns3:TrackPointExtension>
        </extensions>
      </trkpt>
      <trkpt lat="44.7012513689696788787841796875" lon="4.81309776194393634796142578125">
        <ele>188.1999969482421875</ele>
        <time>2025-10-25T14:45:11.000Z</time>
        <extensions>
          <ns3:TrackPointExtension>
            <ns3:hr>102</ns3:hr>
          </ns3:TrackPointExtension>
        </extensions>
      </trkpt>
      <trkpt lat="44.70131934620440006256103515625" lon="4.8128815926611423492431640625">
        <ele>187.8000030517578125</ele>
        <time>2025-10-25T14:45:26.000Z</time>
        <extensions>
          <ns3:TrackPointExtension>
            <ns3:hr>102</ns3:hr>
          </ns3:TrackPointExtension>
        </extensions>
      </trkpt>
      <trkpt lat="44.701366536319255828857421875" lon="4.81262661516666412353515625">
        <ele>187.8000030517578125</ele>
        <time>2025-10-25T14:45:41.000Z</time>
        <extensions>
          <ns3:TrackPointExtension>
            <ns3:hr>101</ns3:hr>
          </ns3:TrackPointExtension>
        </extensions>
      </trkpt>
      <trkpt lat="44.701472818851470947265625" lon="4.81241765432059764862060546875">
        <ele>187.399993896484375</ele>
        <time>2025-10-25T14:45:55.000Z</time>
        <extensions>
          <ns3:TrackPointExtension>
            <ns3:hr>102</ns3:hr>
          </ns3:TrackPointExtension>
        </extensions>
      </trkpt>
      <trkpt lat="44.70152311027050018310546875" lon="4.8123122937977313995361328125">
        <ele>187.1999969482421875</ele>
        <time>2025-10-25T14:46:03.000Z</time>
        <extensions>
          <ns3:TrackPointExtension>
            <ns3:hr>102</ns3:hr>
          </ns3:TrackPointExtension>
        </extensions>
      </trkpt>
      <trkpt lat="44.70162260346114635467529296875" lon="4.8120876587927341461181640625">
        <ele>186.8000030517578125</ele>
        <time>2025-10-25T14:46:18.000Z</time>
        <extensions>
          <ns3:TrackPointExtension>
            <ns3:hr>102</ns3:hr>
          </ns3:TrackPointExtension>
        </extensions>
      </trkpt>
      <trkpt lat="44.7017338313162326812744140625" lon="4.81187450699508190155029296875">
        <ele>186.399993896484375</ele>
        <time>2025-10-25T14:46:33.000Z</time>
        <extensions>
          <ns3:TrackPointExtension>
            <ns3:hr>103</ns3:hr>
          </ns3:TrackPointExtension>
        </extensions>
      </trkpt>
      <trkpt lat="44.70175118185579776763916015625" lon="4.811845086514949798583984375">
        <ele>186.1999969482421875</ele>
        <time>2025-10-25T14:46:35.000Z</time>
        <extensions>
          <ns3:TrackPointExtension>
            <ns3:hr>103</ns3:hr>
          </ns3:TrackPointExtension>
        </extensions>
      </trkpt>
      <trkpt lat="44.70188076607882976531982421875" lon="4.811659343540668487548828125">
        <ele>185.8000030517578125</ele>
        <time>2025-10-25T14:46:52.000Z</time>
        <extensions>
          <ns3:TrackPointExtension>
            <ns3:hr>102</ns3:hr>
          </ns3:TrackPointExtension>
        </extensions>
      </trkpt>
      <trkpt lat="44.70192804001271724700927734375" lon="4.81157141737639904022216796875">
        <ele>185.8000030517578125</ele>
        <time>2025-10-25T14:46:59.000Z</time>
        <extensions>
          <ns3:TrackPointExtension>
            <ns3:hr>102</ns3:hr>
          </ns3:TrackPointExtension>
        </extensions>
      </trkpt>
      <trkpt lat="44.702059887349605560302734375" lon="4.81138584204018115997314453125">
        <ele>185.399993896484375</ele>
        <time>2025-10-25T14:47:14.000Z</time>
        <extensions>
          <ns3:TrackPointExtension>
            <ns3:hr>103</ns3:hr>
          </ns3:TrackPointExtension>
        </extensions>
      </trkpt>
      <trkpt lat="44.70217966474592685699462890625" lon="4.8111923038959503173828125">
        <ele>185.399993896484375</ele>
        <time>2025-10-25T14:47:30.000Z</time>
        <extensions>
          <ns3:TrackPointExtension>
            <ns3:hr>101</ns3:hr>
          </ns3:TrackPointExtension>
        </extensions>
      </trkpt>
      <trkpt lat="44.7022957541048526763916015625" lon="4.8109842650592327117919921875">
        <ele>185.399993896484375</ele>
        <time>2025-10-25T14:47:45.000Z</time>
        <extensions>
          <ns3:TrackPointExtension>
            <ns3:hr>101</ns3:hr>
          </ns3:TrackPointExtension>
        </extensions>
      </trkpt>
      <trkpt lat="44.70240614376962184906005859375" lon="4.8107790760695934295654296875">
        <ele>185.399993896484375</ele>
        <time>2025-10-25T14:47:59.000Z</time>
        <extensions>
          <ns3:TrackPointExtension>
            <ns3:hr>101</ns3:hr>
          </ns3:TrackPointExtension>
        </extensions>
      </trkpt>
      <trkpt lat="44.702473618090152740478515625" lon="4.810541532933712005615234375">
        <ele>185.1999969482421875</ele>
        <time>2025-10-25T14:48:14.000Z</time>
        <extensions>
          <ns3:TrackPointExtension>
            <ns3:hr>102</ns3:hr>
          </ns3:TrackPointExtension>
        </extensions>
      </trkpt>
      <trkpt lat="44.70245861448347568511962890625" lon="4.81049803085625171661376953125">
        <ele>185.1999969482421875</ele>
        <time>2025-10-25T14:48:17.000Z</time>
        <extensions>
          <ns3:TrackPointExtension>
            <ns3:hr>102</ns3:hr>
          </ns3:TrackPointExtension>
        </extensions>
      </trkpt>
      <trkpt lat="44.70231033861637115478515625" lon="4.81035704724490642547607421875">
        <ele>184.600006103515625</ele>
        <time>2025-10-25T14:48:37.000Z</time>
        <extensions>
          <ns3:TrackPointExtension>
            <ns3:hr>105</ns3:hr>
          </ns3:TrackPointExtension>
        </extensions>
      </trkpt>
      <trkpt lat="44.70224940218031406402587890625" lon="4.81031463481485843658447265625">
        <ele>184.600006103515625</ele>
        <time>2025-10-25T14:48:43.000Z</time>
        <extensions>
          <ns3:TrackPointExtension>
            <ns3:hr>106</ns3:hr>
          </ns3:TrackPointExtension>
        </extensions>
      </trkpt>
      <trkpt lat="44.70210540108382701873779296875" lon="4.81019929982721805572509765625">
        <ele>184.1999969482421875</ele>
        <time>2025-10-25T14:48:57.000Z</time>
        <extensions>
          <ns3:TrackPointExtension>
            <ns3:hr>104</ns3:hr>
          </ns3:TrackPointExtension>
        </extensions>
      </trkpt>
      <trkpt lat="44.70193893648684024810791015625" lon="4.81008245609700679779052734375">
        <ele>183.600006103515625</ele>
        <time>2025-10-25T14:49:13.000Z</time>
        <extensions>
          <ns3:TrackPointExtension>
            <ns3:hr>105</ns3:hr>
          </ns3:TrackPointExtension>
        </extensions>
      </trkpt>
      <trkpt lat="44.70183533616364002227783203125" lon="4.81002327986061573028564453125">
        <ele>183.1999969482421875</ele>
        <time>2025-10-25T14:49:23.000Z</time>
        <extensions>
          <ns3:TrackPointExtension>
            <ns3:hr>107</ns3:hr>
          </ns3:TrackPointExtension>
        </extensions>
      </trkpt>
      <trkpt lat="44.70166862010955810546875" lon="4.80990962125360965728759765625">
        <ele>182.399993896484375</ele>
        <time>2025-10-25T14:49:39.000Z</time>
        <extensions>
          <ns3:TrackPointExtension>
            <ns3:hr>106</ns3:hr>
          </ns3:TrackPointExtension>
        </extensions>
      </trkpt>
      <trkpt lat="44.701595865190029144287109375" lon="4.80984784662723541259765625">
        <ele>182</ele>
        <time>2025-10-25T14:49:47.000Z</time>
        <extensions>
          <ns3:TrackPointExtension>
            <ns3:hr>103</ns3:hr>
          </ns3:TrackPointExtension>
        </extensions>
      </trkpt>
      <trkpt lat="44.70149335451424121856689453125" lon="4.8096595890820026397705078125">
        <ele>181.399993896484375</ele>
        <time>2025-10-25T14:50:04.000Z</time>
        <extensions>
          <ns3:TrackPointExtension>
            <ns3:hr>101</ns3:hr>
          </ns3:TrackPointExtension>
        </extensions>
      </trkpt>
      <trkpt lat="44.70154347829520702362060546875" lon="4.80950477533042430877685546875">
        <ele>181</ele>
        <time>2025-10-25T14:50:14.000Z</time>
        <extensions>
          <ns3:TrackPointExtension>
            <ns3:hr>101</ns3:hr>
          </ns3:TrackPointExtension>
        </extensions>
      </trkpt>
      <trkpt lat="44.701637439429759979248046875" lon="4.8092884384095668792724609375">
        <ele>180.399993896484375</ele>
        <time>2025-10-25T14:50:33.000Z</time>
        <extensions>
          <ns3:TrackPointExtension>
            <ns3:hr>100</ns3:hr>
          </ns3:TrackPointExtension>
        </extensions>
      </trkpt>
      <trkpt lat="44.70170013606548309326171875" lon="4.8091838322579860687255859375">
        <ele>180</ele>
        <time>2025-10-25T14:50:42.000Z</time>
        <extensions>
          <ns3:TrackPointExtension>
            <ns3:hr>99</ns3:hr>
          </ns3:TrackPointExtension>
        </extensions>
      </trkpt>
      <trkpt lat="44.70175185240805149078369140625" lon="4.80911971069872379302978515625">
        <ele>179.8000030517578125</ele>
        <time>2025-10-25T14:50:48.000Z</time>
        <extensions>
          <ns3:TrackPointExtension>
            <ns3:hr>102</ns3:hr>
          </ns3:TrackPointExtension>
        </extensions>
      </trkpt>
      <trkpt lat="44.70188378356397151947021484375" lon="4.80892441235482692718505859375">
        <ele>179.399993896484375</ele>
        <time>2025-10-25T14:51:05.000Z</time>
        <extensions>
          <ns3:TrackPointExtension>
            <ns3:hr>102</ns3:hr>
          </ns3:TrackPointExtension>
        </extensions>
      </trkpt>
      <trkpt lat="44.7019623219966888427734375" lon="4.8087917268276214599609375">
        <ele>179</ele>
        <time>2025-10-25T14:51:16.000Z</time>
        <extensions>
          <ns3:TrackPointExtension>
            <ns3:hr>102</ns3:hr>
          </ns3:TrackPointExtension>
        </extensions>
      </trkpt>
      <trkpt lat="44.7020724602043628692626953125" lon="4.8086205683648586273193359375">
        <ele>178.600006103515625</ele>
        <time>2025-10-25T14:51:30.000Z</time>
        <extensions>
          <ns3:TrackPointExtension>
            <ns3:hr>105</ns3:hr>
          </ns3:TrackPointExtension>
        </extensions>
      </trkpt>
      <trkpt lat="44.70220430754125118255615234375" lon="4.80842468328773975372314453125">
        <ele>178</ele>
        <time>2025-10-25T14:51:45.000Z</time>
        <extensions>
          <ns3:TrackPointExtension>
            <ns3:hr>103</ns3:hr>
          </ns3:TrackPointExtension>
        </extensions>
      </trkpt>
      <trkpt lat="44.702318720519542694091796875" lon="4.8082239367067813873291015625">
        <ele>177.600006103515625</ele>
        <time>2025-10-25T14:52:00.000Z</time>
        <extensions>
          <ns3:TrackPointExtension>
            <ns3:hr>105</ns3:hr>
          </ns3:TrackPointExtension>
        </extensions>
      </trkpt>
      <trkpt lat="44.70242542214691638946533203125" lon="4.8080177418887615203857421875">
        <ele>177.399993896484375</ele>
        <time>2025-10-25T14:52:15.000Z</time>
        <extensions>
          <ns3:TrackPointExtension>
            <ns3:hr>105</ns3:hr>
          </ns3:TrackPointExtension>
        </extensions>
      </trkpt>
      <trkpt lat="44.70245861448347568511962890625" lon="4.807869382202625274658203125">
        <ele>177</ele>
        <time>2025-10-25T14:52:24.000Z</time>
        <extensions>
          <ns3:TrackPointExtension>
            <ns3:hr>102</ns3:hr>
          </ns3:TrackPointExtension>
        </extensions>
      </trkpt>
      <trkpt lat="44.70245475880801677703857421875" lon="4.80781448073685169219970703125">
        <ele>176.8000030517578125</ele>
        <time>2025-10-25T14:52:27.000Z</time>
        <extensions>
          <ns3:TrackPointExtension>
            <ns3:hr>102</ns3:hr>
          </ns3:TrackPointExtension>
        </extensions>
      </trkpt>
      <trkpt lat="44.70245325006544589996337890625" lon="4.807639382779598236083984375">
        <ele>175.8000030517578125</ele>
        <time>2025-10-25T14:52:38.000Z</time>
        <extensions>
          <ns3:TrackPointExtension>
            <ns3:hr>105</ns3:hr>
          </ns3:TrackPointExtension>
        </extensions>
      </trkpt>
      <trkpt lat="44.702456854283809661865234375" lon="4.80760828591883182525634765625">
        <ele>175.8000030517578125</ele>
        <time>2025-10-25T14:52:40.000Z</time>
        <extensions>
          <ns3:TrackPointExtension>
            <ns3:hr>105</ns3:hr>
          </ns3:TrackPointExtension>
        </extensions>
      </trkpt>
      <trkpt lat="44.70246951095759868621826171875" lon="4.80734509415924549102783203125">
        <ele>175.1999969482421875</ele>
        <time>2025-10-25T14:52:55.000Z</time>
        <extensions>
          <ns3:TrackPointExtension>
            <ns3:hr>103</ns3:hr>
          </ns3:TrackPointExtension>
        </extensions>
      </trkpt>
      <trkpt lat="44.70247529447078704833984375" lon="4.80708274058997631072998046875">
        <ele>175</ele>
        <time>2025-10-25T14:53:12.000Z</time>
        <extensions>
          <ns3:TrackPointExtension>
            <ns3:hr>101</ns3:hr>
          </ns3:TrackPointExtension>
        </extensions>
      </trkpt>
      <trkpt lat="44.702489711344242095947265625" lon="4.80688056908547878265380859375">
        <ele>174.600006103515625</ele>
        <time>2025-10-25T14:53:25.000Z</time>
        <extensions>
          <ns3:TrackPointExtension>
            <ns3:hr>101</ns3:hr>
          </ns3:TrackPointExtension>
        </extensions>
      </trkpt>
      <trkpt lat="44.7024996019899845123291015625" lon="4.8067537508904933929443359375">
        <ele>174.399993896484375</ele>
        <time>2025-10-25T14:53:33.000Z</time>
        <extensions>
          <ns3:TrackPointExtension>
            <ns3:hr>104</ns3:hr>
          </ns3:TrackPointExtension>
        </extensions>
      </trkpt>
      <trkpt lat="44.7025089897215366363525390625" lon="4.8064898885786533355712890625">
        <ele>173.8000030517578125</ele>
        <time>2025-10-25T14:53:52.000Z</time>
        <extensions>
          <ns3:TrackPointExtension>
            <ns3:hr>104</ns3:hr>
          </ns3:TrackPointExtension>
        </extensions>
      </trkpt>
      <trkpt lat="44.7025106661021709442138671875" lon="4.80639223940670490264892578125">
        <ele>173.600006103515625</ele>
        <time>2025-10-25T14:53:58.000Z</time>
        <extensions>
          <ns3:TrackPointExtension>
            <ns3:hr>105</ns3:hr>
          </ns3:TrackPointExtension>
        </extensions>
      </trkpt>
      <trkpt lat="44.70253941603004932403564453125" lon="4.80614162050187587738037109375">
        <ele>173.399993896484375</ele>
        <time>2025-10-25T14:54:14.000Z</time>
        <extensions>
          <ns3:TrackPointExtension>
            <ns3:hr>103</ns3:hr>
          </ns3:TrackPointExtension>
        </extensions>
      </trkpt>
      <trkpt lat="44.70255986787378787994384765625" lon="4.805906005203723907470703125">
        <ele>173.399993896484375</ele>
        <time>2025-10-25T14:54:30.000Z</time>
        <extensions>
          <ns3:TrackPointExtension>
            <ns3:hr>106</ns3:hr>
          </ns3:TrackPointExtension>
        </extensions>
      </trkpt>
      <trkpt lat="44.70255098305642604827880859375" lon="4.8057673685252666473388671875">
        <ele>173.1999969482421875</ele>
        <time>2025-10-25T14:54:39.000Z</time>
        <extensions>
          <ns3:TrackPointExtension>
            <ns3:hr>103</ns3:hr>
          </ns3:TrackPointExtension>
        </extensions>
      </trkpt>
      <trkpt lat="44.70255668275058269500732421875" lon="4.80568279512226581573486328125">
        <ele>173</ele>
        <time>2025-10-25T14:54:45.000Z</time>
        <extensions>
          <ns3:TrackPointExtension>
            <ns3:hr>100</ns3:hr>
          </ns3:TrackPointExtension>
        </extensions>
      </trkpt>
      <trkpt lat="44.70256523229181766510009765625" lon="4.8054713197052478790283203125">
        <ele>172.600006103515625</ele>
        <time>2025-10-25T14:55:00.000Z</time>
        <extensions>
          <ns3:TrackPointExtension>
            <ns3:hr>98</ns3:hr>
          </ns3:TrackPointExtension>
        </extensions>
      </trkpt>
      <trkpt lat="44.70257646404206752777099609375" lon="4.8054059408605098724365234375">
        <ele>172.399993896484375</ele>
        <time>2025-10-25T14:55:06.000Z</time>
        <extensions>
          <ns3:TrackPointExtension>
            <ns3:hr>91</ns3:hr>
          </ns3:TrackPointExtension>
        </extensions>
      </trkpt>
      <trkpt lat="44.70257814042270183563232421875" lon="4.80539764277637004852294921875">
        <ele>172.399993896484375</ele>
        <time>2025-10-25T14:55:07.000Z</time>
        <extensions>
          <ns3:TrackPointExtension>
            <ns3:hr>91</ns3:hr>
          </ns3:TrackPointExtension>
        </extensions>
      </trkpt>
      <trkpt lat="44.70260680653154850006103515625" lon="4.8052416555583477020263671875">
        <ele>171.8000030517578125</ele>
        <time>2025-10-25T14:55:18.000Z</time>
        <extensions>
          <ns3:TrackPointExtension>
            <ns3:hr>94</ns3:hr>
          </ns3:TrackPointExtension>
        </extensions>
      </trkpt>
      <trkpt lat="44.7026132605969905853271484375" lon="4.80516965501010417938232421875">
        <ele>171.8000030517578125</ele>
        <time>2025-10-25T14:55:22.000Z</time>
        <extensions>
          <ns3:TrackPointExtension>
            <ns3:hr>100</ns3:hr>
          </ns3:TrackPointExtension>
        </extensions>
      </trkpt>
      <trkpt lat="44.70261585898697376251220703125" lon="4.80515406467020511627197265625">
        <ele>171.8000030517578125</ele>
        <time>2025-10-25T14:55:23.000Z</time>
        <extensions>
          <ns3:TrackPointExtension>
            <ns3:hr>103</ns3:hr>
          </ns3:TrackPointExtension>
        </extensions>
      </trkpt>
      <trkpt lat="44.702640585601329803466796875" lon="4.80503998696804046630859375">
        <ele>171.600006103515625</ele>
        <time>2025-10-25T14:55:31.000Z</time>
        <extensions>
          <ns3:TrackPointExtension>
            <ns3:hr>101</ns3:hr>
          </ns3:TrackPointExtension>
        </extensions>
      </trkpt>
      <trkpt lat="44.7026516497135162353515625" lon="4.805001430213451385498046875">
        <ele>171.399993896484375</ele>
        <time>2025-10-25T14:55:34.000Z</time>
        <extensions>
          <ns3:TrackPointExtension>
            <ns3:hr>98</ns3:hr>
          </ns3:TrackPointExtension>
        </extensions>
      </trkpt>
      <trkpt lat="44.70272331498563289642333984375" lon="4.80475827120244503021240234375">
        <ele>170.600006103515625</ele>
        <time>2025-10-25T14:55:52.000Z</time>
        <extensions>
          <ns3:TrackPointExtension>
            <ns3:hr>98</ns3:hr>
          </ns3:TrackPointExtension>
        </extensions>
      </trkpt>
      <trkpt lat="44.70273002050817012786865234375" lon="4.8047032020986080169677734375">
        <ele>170.600006103515625</ele>
        <time>2025-10-25T14:55:56.000Z</time>
        <extensions>
          <ns3:TrackPointExtension>
            <ns3:hr>98</ns3:hr>
          </ns3:TrackPointExtension>
        </extensions>
      </trkpt>
      <trkpt lat="44.70274225808680057525634765625" lon="4.8046381585299968719482421875">
        <ele>170.399993896484375</ele>
        <time>2025-10-25T14:56:01.000Z</time>
        <extensions>
          <ns3:TrackPointExtension>
            <ns3:hr>101</ns3:hr>
          </ns3:TrackPointExtension>
        </extensions>
      </trkpt>
      <trkpt lat="44.70280922949314117431640625" lon="4.80438577942550182342529296875">
        <ele>170</ele>
        <time>2025-10-25T14:56:17.000Z</time>
        <extensions>
          <ns3:TrackPointExtension>
            <ns3:hr>101</ns3:hr>
          </ns3:TrackPointExtension>
        </extensions>
      </trkpt>
      <trkpt lat="44.7028710879385471343994140625" lon="4.80417338199913501739501953125">
        <ele>169.600006103515625</ele>
        <time>2025-10-25T14:56:30.000Z</time>
        <extensions>
          <ns3:TrackPointExtension>
            <ns3:hr>102</ns3:hr>
          </ns3:TrackPointExtension>
        </extensions>
      </trkpt>
      <trkpt lat="44.70291961915791034698486328125" lon="4.80391471646726131439208984375">
        <ele>168.8000030517578125</ele>
        <time>2025-10-25T14:56:47.000Z</time>
        <extensions>
          <ns3:TrackPointExtension>
            <ns3:hr>103</ns3:hr>
          </ns3:TrackPointExtension>
        </extensions>
      </trkpt>
      <trkpt lat="44.70292079262435436248779296875" lon="4.8037759959697723388671875">
        <ele>168.600006103515625</ele>
        <time>2025-10-25T14:56:56.000Z</time>
        <extensions>
          <ns3:TrackPointExtension>
            <ns3:hr>102</ns3:hr>
          </ns3:TrackPointExtension>
        </extensions>
      </trkpt>
      <trkpt lat="44.7029398195445537567138671875" lon="4.80351959355175495147705078125">
        <ele>168</ele>
        <time>2025-10-25T14:57:13.000Z</time>
        <extensions>
          <ns3:TrackPointExtension>
            <ns3:hr>104</ns3:hr>
          </ns3:TrackPointExtension>
        </extensions>
      </trkpt>
      <trkpt lat="44.7029810585081577301025390625" lon="4.8033092916011810302734375">
        <ele>167.399993896484375</ele>
        <time>2025-10-25T14:57:26.000Z</time>
        <extensions>
          <ns3:TrackPointExtension>
            <ns3:hr>105</ns3:hr>
          </ns3:TrackPointExtension>
        </extensions>
      </trkpt>
      <trkpt lat="44.7030164301395416259765625" lon="4.8031579144299030303955078125">
        <ele>167</ele>
        <time>2025-10-25T14:57:37.000Z</time>
        <extensions>
          <ns3:TrackPointExtension>
            <ns3:hr>102</ns3:hr>
          </ns3:TrackPointExtension>
        </extensions>
      </trkpt>
      <trkpt lat="44.70302841626107692718505859375" lon="4.80298340320587158203125">
        <ele>166.399993896484375</ele>
        <time>2025-10-25T14:57:48.000Z</time>
        <extensions>
          <ns3:TrackPointExtension>
            <ns3:hr>104</ns3:hr>
          </ns3:TrackPointExtension>
        </extensions>
      </trkpt>
      <trkpt lat="44.7030430845916271209716796875" lon="4.80282272212207317352294921875">
        <ele>165.1999969482421875</ele>
        <time>2025-10-25T14:57:59.000Z</time>
        <extensions>
          <ns3:TrackPointExtension>
            <ns3:hr>105</ns3:hr>
          </ns3:TrackPointExtension>
        </extensions>
      </trkpt>
      <trkpt lat="44.7030635364353656768798828125" lon="4.80259322561323642730712890625">
        <ele>164.1999969482421875</ele>
        <time>2025-10-25T14:58:15.000Z</time>
        <extensions>
          <ns3:TrackPointExtension>
            <ns3:hr>103</ns3:hr>
          </ns3:TrackPointExtension>
        </extensions>
      </trkpt>
      <trkpt lat="44.703067727386951446533203125" lon="4.80252784676849842071533203125">
        <ele>163.8000030517578125</ele>
        <time>2025-10-25T14:58:19.000Z</time>
        <extensions>
          <ns3:TrackPointExtension>
            <ns3:hr>103</ns3:hr>
          </ns3:TrackPointExtension>
        </extensions>
      </trkpt>
      <trkpt lat="44.70310502685606479644775390625" lon="4.80231888592243194580078125">
        <ele>163</ele>
        <time>2025-10-25T14:58:33.000Z</time>
        <extensions>
          <ns3:TrackPointExtension>
            <ns3:hr>103</ns3:hr>
          </ns3:TrackPointExtension>
        </extensions>
      </trkpt>
      <trkpt lat="44.703136123716831207275390625" lon="4.8020833544433116912841796875">
        <ele>162</ele>
        <time>2025-10-25T14:58:49.000Z</time>
        <extensions>
          <ns3:TrackPointExtension>
            <ns3:hr>102</ns3:hr>
          </ns3:TrackPointExtension>
        </extensions>
      </trkpt>
      <trkpt lat="44.7031600959599018096923828125" lon="4.80182980187237262725830078125">
        <ele>161.1999969482421875</ele>
        <time>2025-10-25T14:59:04.000Z</time>
        <extensions>
          <ns3:TrackPointExtension>
            <ns3:hr>105</ns3:hr>
          </ns3:TrackPointExtension>
        </extensions>
      </trkpt>
      <trkpt lat="44.7031745128333568572998046875" lon="4.801714383065700531005859375">
        <ele>161</ele>
        <time>2025-10-25T14:59:11.000Z</time>
        <extensions>
          <ns3:TrackPointExtension>
            <ns3:hr>106</ns3:hr>
          </ns3:TrackPointExtension>
        </extensions>
      </trkpt>
      <trkpt lat="44.70319689251482486724853515625" lon="4.801531322300434112548828125">
        <ele>160</ele>
        <time>2025-10-25T14:59:21.000Z</time>
        <extensions>
          <ns3:TrackPointExtension>
            <ns3:hr>108</ns3:hr>
          </ns3:TrackPointExtension>
        </extensions>
      </trkpt>
      <trkpt lat="44.7032211162149906158447265625" lon="4.80128749273717403411865234375">
        <ele>159</ele>
        <time>2025-10-25T14:59:38.000Z</time>
        <extensions>
          <ns3:TrackPointExtension>
            <ns3:hr>107</ns3:hr>
          </ns3:TrackPointExtension>
        </extensions>
      </trkpt>
      <trkpt lat="44.7032207809388637542724609375" lon="4.80115120299160480499267578125">
        <ele>158.1999969482421875</ele>
        <time>2025-10-25T14:59:46.000Z</time>
        <extensions>
          <ns3:TrackPointExtension>
            <ns3:hr>104</ns3:hr>
          </ns3:TrackPointExtension>
        </extensions>
      </trkpt>
      <trkpt lat="44.7032107226550579071044921875" lon="4.80106822215020656585693359375">
        <ele>157.8000030517578125</ele>
        <time>2025-10-25T14:59:51.000Z</time>
        <extensions>
          <ns3:TrackPointExtension>
            <ns3:hr>104</ns3:hr>
          </ns3:TrackPointExtension>
        </extensions>
      </trkpt>
      <trkpt lat="44.7032053582370281219482421875" lon="4.80088792741298675537109375">
        <ele>156.8000030517578125</ele>
        <time>2025-10-25T15:00:04.000Z</time>
        <extensions>
          <ns3:TrackPointExtension>
            <ns3:hr>104</ns3:hr>
          </ns3:TrackPointExtension>
        </extensions>
      </trkpt>
      <trkpt lat="44.70323435962200164794921875" lon="4.800766222178936004638671875">
        <ele>155.8000030517578125</ele>
        <time>2025-10-25T15:00:13.000Z</time>
        <extensions>
          <ns3:TrackPointExtension>
            <ns3:hr>106</ns3:hr>
          </ns3:TrackPointExtension>
        </extensions>
      </trkpt>
      <trkpt lat="44.7033391334116458892822265625" lon="4.8005762882530689239501953125">
        <ele>154.600006103515625</ele>
        <time>2025-10-25T15:00:26.000Z</time>
        <extensions>
          <ns3:TrackPointExtension>
            <ns3:hr>107</ns3:hr>
          </ns3:TrackPointExtension>
        </extensions>
      </trkpt>
      <trkpt lat="44.7034222818911075592041015625" lon="4.80044804513454437255859375">
        <ele>153.600006103515625</ele>
        <time>2025-10-25T15:00:35.000Z</time>
        <extensions>
          <ns3:TrackPointExtension>
            <ns3:hr>108</ns3:hr>
          </ns3:TrackPointExtension>
        </extensions>
      </trkpt>
      <trkpt lat="44.70344088971614837646484375" lon="4.8003653995692729949951171875">
        <ele>152.399993896484375</ele>
        <time>2025-10-25T15:00:45.000Z</time>
        <extensions>
          <ns3:TrackPointExtension>
            <ns3:hr>107</ns3:hr>
          </ns3:TrackPointExtension>
        </extensions>
      </trkpt>
      <trkpt lat="44.70341079868376255035400390625" lon="4.800357520580291748046875">
        <ele>152.399993896484375</ele>
        <time>2025-10-25T15:00:48.000Z</time>
        <extensions>
          <ns3:TrackPointExtension>
            <ns3:hr>106</ns3:hr>
          </ns3:TrackPointExtension>
        </extensions>
      </trkpt>
      <trkpt lat="44.70335883088409900665283203125" lon="4.800388030707836151123046875">
        <ele>152</ele>
        <time>2025-10-25T15:00:54.000Z</time>
        <extensions>
          <ns3:TrackPointExtension>
            <ns3:hr>105</ns3:hr>
          </ns3:TrackPointExtension>
        </extensions>
      </trkpt>
      <trkpt lat="44.70320728607475757598876953125" lon="4.800339080393314361572265625">
        <ele>151.399993896484375</ele>
        <time>2025-10-25T15:01:08.000Z</time>
        <extensions>
          <ns3:TrackPointExtension>
            <ns3:hr>106</ns3:hr>
          </ns3:TrackPointExtension>
        </extensions>
      </trkpt>
      <trkpt lat="44.7031882591545581817626953125" lon="4.8002540878951549530029296875">
        <ele>151.399993896484375</ele>
        <time>2025-10-25T15:01:15.000Z</time>
        <extensions>
          <ns3:TrackPointExtension>
            <ns3:hr>109</ns3:hr>
          </ns3:TrackPointExtension>
        </extensions>
      </trkpt>
      <trkpt lat="44.7031084634363651275634765625" lon="4.80007446371018886566162109375">
        <ele>151.399993896484375</ele>
        <time>2025-10-25T15:01:32.000Z</time>
        <extensions>
          <ns3:TrackPointExtension>
            <ns3:hr>106</ns3:hr>
          </ns3:TrackPointExtension>
        </extensions>
      </trkpt>
      <trkpt lat="44.70304685644805431365966796875" lon="4.80005920864641666412353515625">
        <ele>151.399993896484375</ele>
        <time>2025-10-25T15:01:38.000Z</time>
        <extensions>
          <ns3:TrackPointExtension>
            <ns3:hr>105</ns3:hr>
          </ns3:TrackPointExtension>
        </extensions>
      </trkpt>
      <trkpt lat="44.7029817290604114532470703125" lon="4.7999734617769718170166015625">
        <ele>151.1999969482421875</ele>
        <time>2025-10-25T15:01:51.000Z</time>
        <extensions>
          <ns3:TrackPointExtension>
            <ns3:hr>102</ns3:hr>
          </ns3:TrackPointExtension>
        </extensions>
      </trkpt>
      <trkpt lat="44.70291827805340290069580078125" lon="4.79986843653023242950439453125">
        <ele>150.1999969482421875</ele>
        <time>2025-10-25T15:01:58.000Z</time>
        <extensions>
          <ns3:TrackPointExtension>
            <ns3:hr>100</ns3:hr>
          </ns3:TrackPointExtension>
        </extensions>
      </trkpt>
      <trkpt lat="44.702905118465423583984375" lon="4.79983591474592685699462890625">
        <ele>150</ele>
        <time>2025-10-25T15:02:00.000Z</time>
        <extensions>
          <ns3:TrackPointExtension>
            <ns3:hr>100</ns3:hr>
          </ns3:TrackPointExtension>
        </extensions>
      </trkpt>
      <trkpt lat="44.7028623707592487335205078125" lon="4.79966291226446628570556640625">
        <ele>149.1999969482421875</ele>
        <time>2025-10-25T15:02:15.000Z</time>
        <extensions>
          <ns3:TrackPointExtension>
            <ns3:hr>102</ns3:hr>
          </ns3:TrackPointExtension>
        </extensions>
      </trkpt>
      <trkpt lat="44.70275223255157470703125" lon="4.799541793763637542724609375">
        <ele>149.600006103515625</ele>
        <time>2025-10-25T15:02:38.000Z</time>
        <extensions>
          <ns3:TrackPointExtension>
            <ns3:hr>99</ns3:hr>
          </ns3:TrackPointExtension>
        </extensions>
      </trkpt>
      <trkpt lat="44.7027517296373844146728515625" lon="4.7995486669242382049560546875">
        <ele>149.600006103515625</ele>
        <time>2025-10-25T15:02:40.000Z</time>
        <extensions>
          <ns3:TrackPointExtension>
            <ns3:hr>96</ns3:hr>
          </ns3:TrackPointExtension>
        </extensions>
      </trkpt>
      <trkpt lat="44.702759273350238800048828125" lon="4.79958278127014636993408203125">
        <ele>150</ele>
        <time>2025-10-25T15:02:49.000Z</time>
        <extensions>
          <ns3:TrackPointExtension>
            <ns3:hr>91</ns3:hr>
          </ns3:TrackPointExtension>
        </extensions>
      </trkpt>
      <trkpt lat="44.7027617879211902618408203125" lon="4.79958395473659038543701171875">
        <ele>150</ele>
        <time>2025-10-25T15:02:50.000Z</time>
        <extensions>
          <ns3:TrackPointExtension>
            <ns3:hr>85</ns3:hr>
          </ns3:TrackPointExtension>
        </extensions>
      </trkpt>
      <trkpt lat="44.70276639796793460845947265625" lon="4.79958730749785900115966796875">
        <ele>150</ele>
        <time>2025-10-25T15:02:51.000Z</time>
        <extensions>
          <ns3:TrackPointExtension>
            <ns3:hr>83</ns3:hr>
          </ns3:TrackPointExtension>
        </extensions>
      </trkpt>
      <trkpt lat="44.70276958309113979339599609375" lon="4.799662493169307708740234375">
        <ele>150.1999969482421875</ele>
        <time>2025-10-25T15:03:06.000Z</time>
        <extensions>
          <ns3:TrackPointExtension>
            <ns3:hr>84</ns3:hr>
          </ns3:TrackPointExtension>
        </extensions>
      </trkpt>
      <trkpt lat="44.7027949802577495574951171875" lon="4.79975360445678234100341796875">
        <ele>150.1999969482421875</ele>
        <time>2025-10-25T15:03:12.000Z</time>
        <extensions>
          <ns3:TrackPointExtension>
            <ns3:hr>87</ns3:hr>
          </ns3:TrackPointExtension>
        </extensions>
      </trkpt>
      <trkpt lat="44.702778719365596771240234375" lon="4.7998313046991825103759765625">
        <ele>150.399993896484375</ele>
        <time>2025-10-25T15:03:20.000Z</time>
        <extensions>
          <ns3:TrackPointExtension>
            <ns3:hr>90</ns3:hr>
          </ns3:TrackPointExtension>
        </extensions>
      </trkpt>
      <trkpt lat="44.7027624584734439849853515625" lon="4.799880087375640869140625">
        <ele>150.399993896484375</ele>
        <time>2025-10-25T15:03:25.000Z</time>
        <extensions>
          <ns3:TrackPointExtension>
            <ns3:hr>92</ns3:hr>
          </ns3:TrackPointExtension>
        </extensions>
      </trkpt>
    </trkseg>
  </trk>
</gpx>
